<?xml version="1.0" encoding="UTF-8" standalone="no" ?>
<gpx xmlns="http://www.topografix.com/GPX/1/1" xmlns:xsi="http://www.w3.org/2001/XMLSchema-instance" xsi:schemaLocation="http://www.topografix.com/GPX/1/1 http://www.topografix.com/GPX/1/1/gpx.xsd" version="1.1" creator="VisuGPX - https://www.visugpx.com">
  <metadata>
    <name>2018-09-23 Bike ride-Val d-Azergues v31km</name>
    <desc><![CDATA[2018-09-23 Bike ride-Val d-Azergues v31km]]></desc>
  </metadata>
  <wpt lat="45.92457" lon="4.7372">
    <ele>174</ele>
    <name><![CDATA[2018-09-23 10:35 (Start)]]></name>
  </wpt>
  <wpt lat="45.92464" lon="4.73714">
    <ele>174</ele>
    <name><![CDATA[2018-09-23 10:35 (End)]]></name>
  </wpt>
  <trk>
    <name><![CDATA[2018-09-23 10:35]]></name>
    <trkseg>
      <trkpt lat="45.92457" lon="4.7372">
        <ele>174</ele>
        <time>2018-09-23T08:35:32.006Z</time>
      </trkpt>
      <trkpt lat="45.92454" lon="4.73718">
        <ele>174</ele>
        <time>2018-09-23T08:35:37.555Z</time>
      </trkpt>
      <trkpt lat="45.92454" lon="4.73719">
        <ele>174</ele>
        <time>2018-09-23T08:35:38.557Z</time>
      </trkpt>
      <trkpt lat="45.92454" lon="4.73719">
        <ele>174</ele>
        <time>2018-09-23T08:35:39.369Z</time>
      </trkpt>
      <trkpt lat="45.92455" lon="4.73722">
        <ele>174</ele>
        <time>2018-09-23T08:35:39Z</time>
      </trkpt>
      <trkpt lat="45.9246" lon="4.73713">
        <ele>174</ele>
        <time>2018-09-23T08:35:58Z</time>
      </trkpt>
      <trkpt lat="45.92462" lon="4.73711">
        <ele>174</ele>
        <time>2018-09-23T08:35:59Z</time>
      </trkpt>
      <trkpt lat="45.92464" lon="4.73699">
        <ele>174</ele>
        <time>2018-09-23T08:36:03Z</time>
      </trkpt>
      <trkpt lat="45.92465" lon="4.73695">
        <ele>174</ele>
        <time>2018-09-23T08:36:04Z</time>
      </trkpt>
      <trkpt lat="45.92466" lon="4.73683">
        <ele>174</ele>
        <time>2018-09-23T08:36:07Z</time>
      </trkpt>
      <trkpt lat="45.92466" lon="4.73678">
        <ele>174</ele>
        <time>2018-09-23T08:36:08Z</time>
      </trkpt>
      <trkpt lat="45.92467" lon="4.73674">
        <ele>174</ele>
        <time>2018-09-23T08:36:09Z</time>
      </trkpt>
      <trkpt lat="45.92469" lon="4.73659">
        <ele>174</ele>
        <time>2018-09-23T08:36:10Z</time>
      </trkpt>
      <trkpt lat="45.92471" lon="4.73649">
        <ele>174</ele>
        <time>2018-09-23T08:36:14Z</time>
      </trkpt>
      <trkpt lat="45.92477" lon="4.73641">
        <ele>174</ele>
        <time>2018-09-23T08:36:15Z</time>
      </trkpt>
      <trkpt lat="45.92485" lon="4.73643">
        <ele>174</ele>
        <time>2018-09-23T08:36:17Z</time>
      </trkpt>
      <trkpt lat="45.92489" lon="4.73644">
        <ele>174</ele>
        <time>2018-09-23T08:36:18Z</time>
      </trkpt>
      <trkpt lat="45.92498" lon="4.73641">
        <ele>174</ele>
        <time>2018-09-23T08:36:20Z</time>
      </trkpt>
      <trkpt lat="45.92502" lon="4.73641">
        <ele>174</ele>
        <time>2018-09-23T08:36:21Z</time>
      </trkpt>
      <trkpt lat="45.92506" lon="4.73641">
        <ele>174</ele>
        <time>2018-09-23T08:36:22Z</time>
      </trkpt>
      <trkpt lat="45.92512" lon="4.7364">
        <ele>174</ele>
        <time>2018-09-23T08:36:23Z</time>
      </trkpt>
      <trkpt lat="45.92518" lon="4.7364">
        <ele>173</ele>
        <time>2018-09-23T08:36:24Z</time>
      </trkpt>
      <trkpt lat="45.92523" lon="4.73639">
        <ele>173</ele>
        <time>2018-09-23T08:36:25Z</time>
      </trkpt>
      <trkpt lat="45.92528" lon="4.73638">
        <ele>173</ele>
        <time>2018-09-23T08:36:26Z</time>
      </trkpt>
      <trkpt lat="45.92533" lon="4.73636">
        <ele>173</ele>
        <time>2018-09-23T08:36:27Z</time>
      </trkpt>
      <trkpt lat="45.92542" lon="4.73634">
        <ele>173</ele>
        <time>2018-09-23T08:36:29Z</time>
      </trkpt>
      <trkpt lat="45.92548" lon="4.73635">
        <ele>173</ele>
        <time>2018-09-23T08:36:30Z</time>
      </trkpt>
      <trkpt lat="45.92554" lon="4.73634">
        <ele>173</ele>
        <time>2018-09-23T08:36:31Z</time>
      </trkpt>
      <trkpt lat="45.92558" lon="4.73631">
        <ele>173</ele>
        <time>2018-09-23T08:36:32Z</time>
      </trkpt>
      <trkpt lat="45.92562" lon="4.73629">
        <ele>173</ele>
        <time>2018-09-23T08:36:33Z</time>
      </trkpt>
      <trkpt lat="45.92568" lon="4.73628">
        <ele>173</ele>
        <time>2018-09-23T08:36:34Z</time>
      </trkpt>
      <trkpt lat="45.92573" lon="4.73627">
        <ele>173</ele>
        <time>2018-09-23T08:36:35Z</time>
      </trkpt>
      <trkpt lat="45.92579" lon="4.73623">
        <ele>173</ele>
        <time>2018-09-23T08:36:36Z</time>
      </trkpt>
      <trkpt lat="45.92584" lon="4.73622">
        <ele>173</ele>
        <time>2018-09-23T08:36:37Z</time>
      </trkpt>
      <trkpt lat="45.92589" lon="4.7362">
        <ele>173</ele>
        <time>2018-09-23T08:36:38Z</time>
      </trkpt>
      <trkpt lat="45.92595" lon="4.73619">
        <ele>173</ele>
        <time>2018-09-23T08:36:39Z</time>
      </trkpt>
      <trkpt lat="45.92601" lon="4.73619">
        <ele>173</ele>
        <time>2018-09-23T08:36:40Z</time>
      </trkpt>
      <trkpt lat="45.9261" lon="4.7362">
        <ele>173</ele>
        <time>2018-09-23T08:36:42Z</time>
      </trkpt>
      <trkpt lat="45.92615" lon="4.73627">
        <ele>173</ele>
        <time>2018-09-23T08:36:43Z</time>
      </trkpt>
      <trkpt lat="45.92619" lon="4.73631">
        <ele>173</ele>
        <time>2018-09-23T08:36:44Z</time>
      </trkpt>
      <trkpt lat="45.92622" lon="4.73638">
        <ele>173</ele>
        <time>2018-09-23T08:36:45Z</time>
      </trkpt>
      <trkpt lat="45.92625" lon="4.73644">
        <ele>173</ele>
        <time>2018-09-23T08:36:46Z</time>
      </trkpt>
      <trkpt lat="45.92629" lon="4.73649">
        <ele>173</ele>
        <time>2018-09-23T08:36:47Z</time>
      </trkpt>
      <trkpt lat="45.92631" lon="4.73656">
        <ele>173</ele>
        <time>2018-09-23T08:36:48Z</time>
      </trkpt>
      <trkpt lat="45.92635" lon="4.73661">
        <ele>173</ele>
        <time>2018-09-23T08:36:49Z</time>
      </trkpt>
      <trkpt lat="45.92638" lon="4.73667">
        <ele>173</ele>
        <time>2018-09-23T08:36:50Z</time>
      </trkpt>
      <trkpt lat="45.92641" lon="4.73674">
        <ele>173</ele>
        <time>2018-09-23T08:36:51Z</time>
      </trkpt>
      <trkpt lat="45.92642" lon="4.73679">
        <ele>173</ele>
        <time>2018-09-23T08:36:52Z</time>
      </trkpt>
      <trkpt lat="45.92646" lon="4.73685">
        <ele>173</ele>
        <time>2018-09-23T08:36:53Z</time>
      </trkpt>
      <trkpt lat="45.92651" lon="4.73691">
        <ele>173</ele>
        <time>2018-09-23T08:36:54Z</time>
      </trkpt>
      <trkpt lat="45.92658" lon="4.73695">
        <ele>173</ele>
        <time>2018-09-23T08:36:55Z</time>
      </trkpt>
      <trkpt lat="45.92663" lon="4.73699">
        <ele>173</ele>
        <time>2018-09-23T08:36:56Z</time>
      </trkpt>
      <trkpt lat="45.92668" lon="4.73703">
        <ele>174</ele>
        <time>2018-09-23T08:36:57Z</time>
      </trkpt>
      <trkpt lat="45.92673" lon="4.73705">
        <ele>174</ele>
        <time>2018-09-23T08:36:58Z</time>
      </trkpt>
      <trkpt lat="45.92679" lon="4.73708">
        <ele>173</ele>
        <time>2018-09-23T08:36:59Z</time>
      </trkpt>
      <trkpt lat="45.92684" lon="4.7371">
        <ele>173</ele>
        <time>2018-09-23T08:37:00Z</time>
      </trkpt>
      <trkpt lat="45.9269" lon="4.73711">
        <ele>173</ele>
        <time>2018-09-23T08:37:01Z</time>
      </trkpt>
      <trkpt lat="45.92696" lon="4.73713">
        <ele>173</ele>
        <time>2018-09-23T08:37:02Z</time>
      </trkpt>
      <trkpt lat="45.927" lon="4.73712">
        <ele>173</ele>
        <time>2018-09-23T08:37:03Z</time>
      </trkpt>
      <trkpt lat="45.92705" lon="4.73714">
        <ele>173</ele>
        <time>2018-09-23T08:37:04Z</time>
      </trkpt>
      <trkpt lat="45.9271" lon="4.73713">
        <ele>173</ele>
        <time>2018-09-23T08:37:05Z</time>
      </trkpt>
      <trkpt lat="45.92715" lon="4.73715">
        <ele>173</ele>
        <time>2018-09-23T08:37:06Z</time>
      </trkpt>
      <trkpt lat="45.9272" lon="4.73714">
        <ele>173</ele>
        <time>2018-09-23T08:37:07Z</time>
      </trkpt>
      <trkpt lat="45.92725" lon="4.73715">
        <ele>173</ele>
        <time>2018-09-23T08:37:08Z</time>
      </trkpt>
      <trkpt lat="45.92731" lon="4.73716">
        <ele>173</ele>
        <time>2018-09-23T08:37:09Z</time>
      </trkpt>
      <trkpt lat="45.92735" lon="4.73718">
        <ele>173</ele>
        <time>2018-09-23T08:37:10Z</time>
      </trkpt>
      <trkpt lat="45.9274" lon="4.73719">
        <ele>173</ele>
        <time>2018-09-23T08:37:11Z</time>
      </trkpt>
      <trkpt lat="45.92745" lon="4.7372">
        <ele>173</ele>
        <time>2018-09-23T08:37:12Z</time>
      </trkpt>
      <trkpt lat="45.92751" lon="4.73722">
        <ele>172</ele>
        <time>2018-09-23T08:37:13Z</time>
      </trkpt>
      <trkpt lat="45.92755" lon="4.73724">
        <ele>172</ele>
        <time>2018-09-23T08:37:14Z</time>
      </trkpt>
      <trkpt lat="45.9276" lon="4.73724">
        <ele>172</ele>
        <time>2018-09-23T08:37:15Z</time>
      </trkpt>
      <trkpt lat="45.92764" lon="4.73726">
        <ele>172</ele>
        <time>2018-09-23T08:37:16Z</time>
      </trkpt>
      <trkpt lat="45.92769" lon="4.73732">
        <ele>172</ele>
        <time>2018-09-23T08:37:17Z</time>
      </trkpt>
      <trkpt lat="45.92777" lon="4.73735">
        <ele>172</ele>
        <time>2018-09-23T08:37:19Z</time>
      </trkpt>
      <trkpt lat="45.92782" lon="4.7374">
        <ele>172</ele>
        <time>2018-09-23T08:37:20Z</time>
      </trkpt>
      <trkpt lat="45.92786" lon="4.73752">
        <ele>173</ele>
        <time>2018-09-23T08:37:23Z</time>
      </trkpt>
      <trkpt lat="45.9279" lon="4.73754">
        <ele>173</ele>
        <time>2018-09-23T08:37:24Z</time>
      </trkpt>
      <trkpt lat="45.92797" lon="4.73758">
        <ele>173</ele>
        <time>2018-09-23T08:37:26Z</time>
      </trkpt>
      <trkpt lat="45.92801" lon="4.7376">
        <ele>173</ele>
        <time>2018-09-23T08:37:27Z</time>
      </trkpt>
      <trkpt lat="45.92806" lon="4.73763">
        <ele>173</ele>
        <time>2018-09-23T08:37:28Z</time>
      </trkpt>
      <trkpt lat="45.92812" lon="4.73766">
        <ele>173</ele>
        <time>2018-09-23T08:37:29Z</time>
      </trkpt>
      <trkpt lat="45.92817" lon="4.73769">
        <ele>173</ele>
        <time>2018-09-23T08:37:30Z</time>
      </trkpt>
      <trkpt lat="45.92822" lon="4.73772">
        <ele>173</ele>
        <time>2018-09-23T08:37:31Z</time>
      </trkpt>
      <trkpt lat="45.92826" lon="4.73775">
        <ele>173</ele>
        <time>2018-09-23T08:37:32Z</time>
      </trkpt>
      <trkpt lat="45.92831" lon="4.73779">
        <ele>173</ele>
        <time>2018-09-23T08:37:33Z</time>
      </trkpt>
      <trkpt lat="45.92836" lon="4.73783">
        <ele>173</ele>
        <time>2018-09-23T08:37:34Z</time>
      </trkpt>
      <trkpt lat="45.92842" lon="4.73786">
        <ele>173</ele>
        <time>2018-09-23T08:37:35Z</time>
      </trkpt>
      <trkpt lat="45.92846" lon="4.73789">
        <ele>173</ele>
        <time>2018-09-23T08:37:36Z</time>
      </trkpt>
      <trkpt lat="45.92851" lon="4.73795">
        <ele>173</ele>
        <time>2018-09-23T08:37:37Z</time>
      </trkpt>
      <trkpt lat="45.92855" lon="4.73801">
        <ele>173</ele>
        <time>2018-09-23T08:37:38Z</time>
      </trkpt>
      <trkpt lat="45.92857" lon="4.73808">
        <ele>173</ele>
        <time>2018-09-23T08:37:39Z</time>
      </trkpt>
      <trkpt lat="45.92859" lon="4.73817">
        <ele>173</ele>
        <time>2018-09-23T08:37:40Z</time>
      </trkpt>
      <trkpt lat="45.92861" lon="4.73824">
        <ele>173</ele>
        <time>2018-09-23T08:37:41Z</time>
      </trkpt>
      <trkpt lat="45.92863" lon="4.73832">
        <ele>173</ele>
        <time>2018-09-23T08:37:42Z</time>
      </trkpt>
      <trkpt lat="45.92864" lon="4.73841">
        <ele>173</ele>
        <time>2018-09-23T08:37:43Z</time>
      </trkpt>
      <trkpt lat="45.92866" lon="4.73849">
        <ele>173</ele>
        <time>2018-09-23T08:37:44Z</time>
      </trkpt>
      <trkpt lat="45.92868" lon="4.73857">
        <ele>173</ele>
        <time>2018-09-23T08:37:45Z</time>
      </trkpt>
      <trkpt lat="45.9287" lon="4.73864">
        <ele>173</ele>
        <time>2018-09-23T08:37:46Z</time>
      </trkpt>
      <trkpt lat="45.92873" lon="4.73873">
        <ele>173</ele>
        <time>2018-09-23T08:37:47Z</time>
      </trkpt>
      <trkpt lat="45.92874" lon="4.73879">
        <ele>173</ele>
        <time>2018-09-23T08:37:48Z</time>
      </trkpt>
      <trkpt lat="45.92878" lon="4.73887">
        <ele>173</ele>
        <time>2018-09-23T08:37:49Z</time>
      </trkpt>
      <trkpt lat="45.92878" lon="4.73896">
        <ele>173</ele>
        <time>2018-09-23T08:37:50Z</time>
      </trkpt>
      <trkpt lat="45.92878" lon="4.73904">
        <ele>173</ele>
        <time>2018-09-23T08:37:51Z</time>
      </trkpt>
      <trkpt lat="45.92877" lon="4.7391">
        <ele>173</ele>
        <time>2018-09-23T08:37:52Z</time>
      </trkpt>
      <trkpt lat="45.92879" lon="4.7392">
        <ele>172</ele>
        <time>2018-09-23T08:37:53Z</time>
      </trkpt>
      <trkpt lat="45.92881" lon="4.73928">
        <ele>172</ele>
        <time>2018-09-23T08:37:54Z</time>
      </trkpt>
      <trkpt lat="45.92883" lon="4.73936">
        <ele>172</ele>
        <time>2018-09-23T08:37:55Z</time>
      </trkpt>
      <trkpt lat="45.92883" lon="4.73948">
        <ele>172</ele>
        <time>2018-09-23T08:37:57Z</time>
      </trkpt>
      <trkpt lat="45.92882" lon="4.73954">
        <ele>172</ele>
        <time>2018-09-23T08:37:58Z</time>
      </trkpt>
      <trkpt lat="45.92883" lon="4.73961">
        <ele>172</ele>
        <time>2018-09-23T08:37:59Z</time>
      </trkpt>
      <trkpt lat="45.92883" lon="4.73968">
        <ele>172</ele>
        <time>2018-09-23T08:38:00Z</time>
      </trkpt>
      <trkpt lat="45.92883" lon="4.73975">
        <ele>172</ele>
        <time>2018-09-23T08:38:01Z</time>
      </trkpt>
      <trkpt lat="45.92883" lon="4.73982">
        <ele>172</ele>
        <time>2018-09-23T08:38:02Z</time>
      </trkpt>
      <trkpt lat="45.92882" lon="4.73989">
        <ele>172</ele>
        <time>2018-09-23T08:38:03Z</time>
      </trkpt>
      <trkpt lat="45.92878" lon="4.73993">
        <ele>172</ele>
        <time>2018-09-23T08:38:04Z</time>
      </trkpt>
      <trkpt lat="45.92877" lon="4.74001">
        <ele>172</ele>
        <time>2018-09-23T08:38:05Z</time>
      </trkpt>
      <trkpt lat="45.92875" lon="4.74008">
        <ele>172</ele>
        <time>2018-09-23T08:38:06Z</time>
      </trkpt>
      <trkpt lat="45.92875" lon="4.74015">
        <ele>172</ele>
        <time>2018-09-23T08:38:07Z</time>
      </trkpt>
      <trkpt lat="45.92874" lon="4.74024">
        <ele>172</ele>
        <time>2018-09-23T08:38:08Z</time>
      </trkpt>
      <trkpt lat="45.92872" lon="4.74031">
        <ele>172</ele>
        <time>2018-09-23T08:38:09Z</time>
      </trkpt>
      <trkpt lat="45.9287" lon="4.74039">
        <ele>172</ele>
        <time>2018-09-23T08:38:10Z</time>
      </trkpt>
      <trkpt lat="45.92867" lon="4.74046">
        <ele>172</ele>
        <time>2018-09-23T08:38:11Z</time>
      </trkpt>
      <trkpt lat="45.92863" lon="4.74052">
        <ele>172</ele>
        <time>2018-09-23T08:38:12Z</time>
      </trkpt>
      <trkpt lat="45.92859" lon="4.74056">
        <ele>172</ele>
        <time>2018-09-23T08:38:13Z</time>
      </trkpt>
      <trkpt lat="45.92854" lon="4.74062">
        <ele>172</ele>
        <time>2018-09-23T08:38:14Z</time>
      </trkpt>
      <trkpt lat="45.92849" lon="4.74066">
        <ele>172</ele>
        <time>2018-09-23T08:38:15Z</time>
      </trkpt>
      <trkpt lat="45.92845" lon="4.74072">
        <ele>172</ele>
        <time>2018-09-23T08:38:16Z</time>
      </trkpt>
      <trkpt lat="45.9284" lon="4.74077">
        <ele>171</ele>
        <time>2018-09-23T08:38:17Z</time>
      </trkpt>
      <trkpt lat="45.92836" lon="4.74083">
        <ele>171</ele>
        <time>2018-09-23T08:38:18Z</time>
      </trkpt>
      <trkpt lat="45.92831" lon="4.74088">
        <ele>171</ele>
        <time>2018-09-23T08:38:19Z</time>
      </trkpt>
      <trkpt lat="45.92826" lon="4.74093">
        <ele>171</ele>
        <time>2018-09-23T08:38:20Z</time>
      </trkpt>
      <trkpt lat="45.92821" lon="4.741">
        <ele>171</ele>
        <time>2018-09-23T08:38:21Z</time>
      </trkpt>
      <trkpt lat="45.92817" lon="4.74105">
        <ele>172</ele>
        <time>2018-09-23T08:38:22Z</time>
      </trkpt>
      <trkpt lat="45.92812" lon="4.74109">
        <ele>172</ele>
        <time>2018-09-23T08:38:23Z</time>
      </trkpt>
      <trkpt lat="45.92808" lon="4.74114">
        <ele>172</ele>
        <time>2018-09-23T08:38:24Z</time>
      </trkpt>
      <trkpt lat="45.92804" lon="4.74117">
        <ele>172</ele>
        <time>2018-09-23T08:38:25Z</time>
      </trkpt>
      <trkpt lat="45.928" lon="4.74122">
        <ele>172</ele>
        <time>2018-09-23T08:38:26Z</time>
      </trkpt>
      <trkpt lat="45.92795" lon="4.74126">
        <ele>172</ele>
        <time>2018-09-23T08:38:27Z</time>
      </trkpt>
      <trkpt lat="45.9279" lon="4.74132">
        <ele>172</ele>
        <time>2018-09-23T08:38:28Z</time>
      </trkpt>
      <trkpt lat="45.92786" lon="4.74139">
        <ele>172</ele>
        <time>2018-09-23T08:38:29Z</time>
      </trkpt>
      <trkpt lat="45.92781" lon="4.74142">
        <ele>172</ele>
        <time>2018-09-23T08:38:30Z</time>
      </trkpt>
      <trkpt lat="45.92778" lon="4.74148">
        <ele>172</ele>
        <time>2018-09-23T08:38:31Z</time>
      </trkpt>
      <trkpt lat="45.92772" lon="4.74153">
        <ele>172</ele>
        <time>2018-09-23T08:38:32Z</time>
      </trkpt>
      <trkpt lat="45.92768" lon="4.74158">
        <ele>172</ele>
        <time>2018-09-23T08:38:33Z</time>
      </trkpt>
      <trkpt lat="45.92763" lon="4.74163">
        <ele>172</ele>
        <time>2018-09-23T08:38:34Z</time>
      </trkpt>
      <trkpt lat="45.92759" lon="4.74167">
        <ele>172</ele>
        <time>2018-09-23T08:38:35Z</time>
      </trkpt>
      <trkpt lat="45.92756" lon="4.74174">
        <ele>172</ele>
        <time>2018-09-23T08:38:36Z</time>
      </trkpt>
      <trkpt lat="45.92752" lon="4.7418">
        <ele>172</ele>
        <time>2018-09-23T08:38:37Z</time>
      </trkpt>
      <trkpt lat="45.92748" lon="4.74185">
        <ele>172</ele>
        <time>2018-09-23T08:38:38Z</time>
      </trkpt>
      <trkpt lat="45.92744" lon="4.7419">
        <ele>172</ele>
        <time>2018-09-23T08:38:39Z</time>
      </trkpt>
      <trkpt lat="45.9274" lon="4.74196">
        <ele>171</ele>
        <time>2018-09-23T08:38:40Z</time>
      </trkpt>
      <trkpt lat="45.92736" lon="4.742">
        <ele>171</ele>
        <time>2018-09-23T08:38:41Z</time>
      </trkpt>
      <trkpt lat="45.92731" lon="4.74206">
        <ele>171</ele>
        <time>2018-09-23T08:38:42Z</time>
      </trkpt>
      <trkpt lat="45.92726" lon="4.74211">
        <ele>171</ele>
        <time>2018-09-23T08:38:43Z</time>
      </trkpt>
      <trkpt lat="45.92721" lon="4.74216">
        <ele>171</ele>
        <time>2018-09-23T08:38:44Z</time>
      </trkpt>
      <trkpt lat="45.92717" lon="4.74222">
        <ele>171</ele>
        <time>2018-09-23T08:38:45Z</time>
      </trkpt>
      <trkpt lat="45.92713" lon="4.74228">
        <ele>171</ele>
        <time>2018-09-23T08:38:46Z</time>
      </trkpt>
      <trkpt lat="45.9271" lon="4.74234">
        <ele>171</ele>
        <time>2018-09-23T08:38:47Z</time>
      </trkpt>
      <trkpt lat="45.92706" lon="4.74239">
        <ele>171</ele>
        <time>2018-09-23T08:38:48Z</time>
      </trkpt>
      <trkpt lat="45.92703" lon="4.74247">
        <ele>171</ele>
        <time>2018-09-23T08:38:49Z</time>
      </trkpt>
      <trkpt lat="45.92699" lon="4.74253">
        <ele>171</ele>
        <time>2018-09-23T08:38:50Z</time>
      </trkpt>
      <trkpt lat="45.92696" lon="4.74259">
        <ele>171</ele>
        <time>2018-09-23T08:38:51Z</time>
      </trkpt>
      <trkpt lat="45.92692" lon="4.74265">
        <ele>171</ele>
        <time>2018-09-23T08:38:52Z</time>
      </trkpt>
      <trkpt lat="45.92689" lon="4.74271">
        <ele>171</ele>
        <time>2018-09-23T08:38:53Z</time>
      </trkpt>
      <trkpt lat="45.92686" lon="4.74278">
        <ele>171</ele>
        <time>2018-09-23T08:38:54Z</time>
      </trkpt>
      <trkpt lat="45.92682" lon="4.74284">
        <ele>171</ele>
        <time>2018-09-23T08:38:55Z</time>
      </trkpt>
      <trkpt lat="45.92679" lon="4.74291">
        <ele>171</ele>
        <time>2018-09-23T08:38:56Z</time>
      </trkpt>
      <trkpt lat="45.92676" lon="4.74297">
        <ele>171</ele>
        <time>2018-09-23T08:38:57Z</time>
      </trkpt>
      <trkpt lat="45.92674" lon="4.74303">
        <ele>171</ele>
        <time>2018-09-23T08:38:58Z</time>
      </trkpt>
      <trkpt lat="45.9267" lon="4.74309">
        <ele>171</ele>
        <time>2018-09-23T08:38:59Z</time>
      </trkpt>
      <trkpt lat="45.92668" lon="4.74317">
        <ele>171</ele>
        <time>2018-09-23T08:39:00Z</time>
      </trkpt>
      <trkpt lat="45.92665" lon="4.74321">
        <ele>171</ele>
        <time>2018-09-23T08:39:01Z</time>
      </trkpt>
      <trkpt lat="45.92662" lon="4.74328">
        <ele>171</ele>
        <time>2018-09-23T08:39:02Z</time>
      </trkpt>
      <trkpt lat="45.92658" lon="4.74335">
        <ele>171</ele>
        <time>2018-09-23T08:39:03Z</time>
      </trkpt>
      <trkpt lat="45.92654" lon="4.74342">
        <ele>171</ele>
        <time>2018-09-23T08:39:04Z</time>
      </trkpt>
      <trkpt lat="45.92651" lon="4.74347">
        <ele>171</ele>
        <time>2018-09-23T08:39:05Z</time>
      </trkpt>
      <trkpt lat="45.92648" lon="4.74352">
        <ele>171</ele>
        <time>2018-09-23T08:39:06Z</time>
      </trkpt>
      <trkpt lat="45.92644" lon="4.74361">
        <ele>171</ele>
        <time>2018-09-23T08:39:07Z</time>
      </trkpt>
      <trkpt lat="45.9264" lon="4.74367">
        <ele>171</ele>
        <time>2018-09-23T08:39:08Z</time>
      </trkpt>
      <trkpt lat="45.92636" lon="4.74374">
        <ele>171</ele>
        <time>2018-09-23T08:39:09Z</time>
      </trkpt>
      <trkpt lat="45.92633" lon="4.74381">
        <ele>170</ele>
        <time>2018-09-23T08:39:10Z</time>
      </trkpt>
      <trkpt lat="45.92629" lon="4.74386">
        <ele>170</ele>
        <time>2018-09-23T08:39:11Z</time>
      </trkpt>
      <trkpt lat="45.92625" lon="4.74393">
        <ele>170</ele>
        <time>2018-09-23T08:39:12Z</time>
      </trkpt>
      <trkpt lat="45.92622" lon="4.74398">
        <ele>170</ele>
        <time>2018-09-23T08:39:13Z</time>
      </trkpt>
      <trkpt lat="45.92618" lon="4.74405">
        <ele>170</ele>
        <time>2018-09-23T08:39:14Z</time>
      </trkpt>
      <trkpt lat="45.92615" lon="4.74411">
        <ele>170</ele>
        <time>2018-09-23T08:39:15Z</time>
      </trkpt>
      <trkpt lat="45.92611" lon="4.74417">
        <ele>170</ele>
        <time>2018-09-23T08:39:16Z</time>
      </trkpt>
      <trkpt lat="45.92608" lon="4.74423">
        <ele>170</ele>
        <time>2018-09-23T08:39:17Z</time>
      </trkpt>
      <trkpt lat="45.92604" lon="4.74431">
        <ele>170</ele>
        <time>2018-09-23T08:39:18Z</time>
      </trkpt>
      <trkpt lat="45.92601" lon="4.74436">
        <ele>170</ele>
        <time>2018-09-23T08:39:19Z</time>
      </trkpt>
      <trkpt lat="45.92598" lon="4.74443">
        <ele>170</ele>
        <time>2018-09-23T08:39:20Z</time>
      </trkpt>
      <trkpt lat="45.92594" lon="4.74449">
        <ele>170</ele>
        <time>2018-09-23T08:39:21Z</time>
      </trkpt>
      <trkpt lat="45.92589" lon="4.74455">
        <ele>170</ele>
        <time>2018-09-23T08:39:22Z</time>
      </trkpt>
      <trkpt lat="45.92586" lon="4.74462">
        <ele>170</ele>
        <time>2018-09-23T08:39:23Z</time>
      </trkpt>
      <trkpt lat="45.92583" lon="4.74469">
        <ele>170</ele>
        <time>2018-09-23T08:39:24Z</time>
      </trkpt>
      <trkpt lat="45.92579" lon="4.74475">
        <ele>170</ele>
        <time>2018-09-23T08:39:25Z</time>
      </trkpt>
      <trkpt lat="45.92576" lon="4.74483">
        <ele>170</ele>
        <time>2018-09-23T08:39:26Z</time>
      </trkpt>
      <trkpt lat="45.92573" lon="4.74489">
        <ele>170</ele>
        <time>2018-09-23T08:39:27Z</time>
      </trkpt>
      <trkpt lat="45.92569" lon="4.74497">
        <ele>170</ele>
        <time>2018-09-23T08:39:28Z</time>
      </trkpt>
      <trkpt lat="45.92565" lon="4.74503">
        <ele>170</ele>
        <time>2018-09-23T08:39:29Z</time>
      </trkpt>
      <trkpt lat="45.92561" lon="4.7451">
        <ele>170</ele>
        <time>2018-09-23T08:39:30Z</time>
      </trkpt>
      <trkpt lat="45.92557" lon="4.74516">
        <ele>170</ele>
        <time>2018-09-23T08:39:31Z</time>
      </trkpt>
      <trkpt lat="45.92554" lon="4.7452">
        <ele>170</ele>
        <time>2018-09-23T08:39:32Z</time>
      </trkpt>
      <trkpt lat="45.92551" lon="4.74526">
        <ele>170</ele>
        <time>2018-09-23T08:39:33Z</time>
      </trkpt>
      <trkpt lat="45.92548" lon="4.74536">
        <ele>170</ele>
        <time>2018-09-23T08:39:34Z</time>
      </trkpt>
      <trkpt lat="45.92544" lon="4.7454">
        <ele>170</ele>
        <time>2018-09-23T08:39:35Z</time>
      </trkpt>
      <trkpt lat="45.92541" lon="4.74547">
        <ele>171</ele>
        <time>2018-09-23T08:39:36Z</time>
      </trkpt>
      <trkpt lat="45.92536" lon="4.74554">
        <ele>171</ele>
        <time>2018-09-23T08:39:37Z</time>
      </trkpt>
      <trkpt lat="45.92533" lon="4.74561">
        <ele>171</ele>
        <time>2018-09-23T08:39:38Z</time>
      </trkpt>
      <trkpt lat="45.9253" lon="4.74566">
        <ele>171</ele>
        <time>2018-09-23T08:39:39Z</time>
      </trkpt>
      <trkpt lat="45.92525" lon="4.74571">
        <ele>171</ele>
        <time>2018-09-23T08:39:40Z</time>
      </trkpt>
      <trkpt lat="45.92521" lon="4.74575">
        <ele>171</ele>
        <time>2018-09-23T08:39:41Z</time>
      </trkpt>
      <trkpt lat="45.92518" lon="4.74581">
        <ele>171</ele>
        <time>2018-09-23T08:39:42Z</time>
      </trkpt>
      <trkpt lat="45.92514" lon="4.74586">
        <ele>171</ele>
        <time>2018-09-23T08:39:43Z</time>
      </trkpt>
      <trkpt lat="45.9251" lon="4.74593">
        <ele>171</ele>
        <time>2018-09-23T08:39:44Z</time>
      </trkpt>
      <trkpt lat="45.92504" lon="4.74597">
        <ele>171</ele>
        <time>2018-09-23T08:39:45Z</time>
      </trkpt>
      <trkpt lat="45.925" lon="4.74602">
        <ele>171</ele>
        <time>2018-09-23T08:39:46Z</time>
      </trkpt>
      <trkpt lat="45.92496" lon="4.74609">
        <ele>171</ele>
        <time>2018-09-23T08:39:47Z</time>
      </trkpt>
      <trkpt lat="45.92492" lon="4.74613">
        <ele>171</ele>
        <time>2018-09-23T08:39:48Z</time>
      </trkpt>
      <trkpt lat="45.92487" lon="4.74618">
        <ele>171</ele>
        <time>2018-09-23T08:39:49Z</time>
      </trkpt>
      <trkpt lat="45.92484" lon="4.74624">
        <ele>171</ele>
        <time>2018-09-23T08:39:50Z</time>
      </trkpt>
      <trkpt lat="45.9248" lon="4.7463">
        <ele>171</ele>
        <time>2018-09-23T08:39:51Z</time>
      </trkpt>
      <trkpt lat="45.92476" lon="4.74635">
        <ele>171</ele>
        <time>2018-09-23T08:39:52Z</time>
      </trkpt>
      <trkpt lat="45.92473" lon="4.74639">
        <ele>171</ele>
        <time>2018-09-23T08:39:53Z</time>
      </trkpt>
      <trkpt lat="45.92469" lon="4.74645">
        <ele>171</ele>
        <time>2018-09-23T08:39:54Z</time>
      </trkpt>
      <trkpt lat="45.92464" lon="4.7465">
        <ele>171</ele>
        <time>2018-09-23T08:39:55Z</time>
      </trkpt>
      <trkpt lat="45.9246" lon="4.74654">
        <ele>171</ele>
        <time>2018-09-23T08:39:56Z</time>
      </trkpt>
      <trkpt lat="45.92457" lon="4.7466">
        <ele>171</ele>
        <time>2018-09-23T08:39:57Z</time>
      </trkpt>
      <trkpt lat="45.92454" lon="4.7467">
        <ele>171</ele>
        <time>2018-09-23T08:39:58Z</time>
      </trkpt>
      <trkpt lat="45.92451" lon="4.74683">
        <ele>171</ele>
        <time>2018-09-23T08:39:59Z</time>
      </trkpt>
      <trkpt lat="45.92451" lon="4.74685">
        <ele>171</ele>
        <time>2018-09-23T08:40:00Z</time>
      </trkpt>
      <trkpt lat="45.92445" lon="4.74684">
        <ele>171</ele>
        <time>2018-09-23T08:40:01Z</time>
      </trkpt>
      <trkpt lat="45.9244" lon="4.74685">
        <ele>171</ele>
        <time>2018-09-23T08:40:02Z</time>
      </trkpt>
      <trkpt lat="45.92437" lon="4.7469">
        <ele>171</ele>
        <time>2018-09-23T08:40:03Z</time>
      </trkpt>
      <trkpt lat="45.92435" lon="4.74696">
        <ele>171</ele>
        <time>2018-09-23T08:40:04Z</time>
      </trkpt>
      <trkpt lat="45.92433" lon="4.74703">
        <ele>171</ele>
        <time>2018-09-23T08:40:05Z</time>
      </trkpt>
      <trkpt lat="45.9243" lon="4.7471">
        <ele>171</ele>
        <time>2018-09-23T08:40:06Z</time>
      </trkpt>
      <trkpt lat="45.92428" lon="4.74718">
        <ele>171</ele>
        <time>2018-09-23T08:40:07Z</time>
      </trkpt>
      <trkpt lat="45.92425" lon="4.74725">
        <ele>171</ele>
        <time>2018-09-23T08:40:08Z</time>
      </trkpt>
      <trkpt lat="45.92423" lon="4.74731">
        <ele>171</ele>
        <time>2018-09-23T08:40:09Z</time>
      </trkpt>
      <trkpt lat="45.9242" lon="4.7474">
        <ele>172</ele>
        <time>2018-09-23T08:40:10Z</time>
      </trkpt>
      <trkpt lat="45.92417" lon="4.74749">
        <ele>172</ele>
        <time>2018-09-23T08:40:11Z</time>
      </trkpt>
      <trkpt lat="45.92415" lon="4.74757">
        <ele>172</ele>
        <time>2018-09-23T08:40:12Z</time>
      </trkpt>
      <trkpt lat="45.92413" lon="4.74765">
        <ele>172</ele>
        <time>2018-09-23T08:40:13Z</time>
      </trkpt>
      <trkpt lat="45.92411" lon="4.74772">
        <ele>171</ele>
        <time>2018-09-23T08:40:14Z</time>
      </trkpt>
      <trkpt lat="45.92409" lon="4.74781">
        <ele>171</ele>
        <time>2018-09-23T08:40:15Z</time>
      </trkpt>
      <trkpt lat="45.92407" lon="4.74789">
        <ele>171</ele>
        <time>2018-09-23T08:40:16Z</time>
      </trkpt>
      <trkpt lat="45.92405" lon="4.74797">
        <ele>171</ele>
        <time>2018-09-23T08:40:17Z</time>
      </trkpt>
      <trkpt lat="45.92403" lon="4.74805">
        <ele>171</ele>
        <time>2018-09-23T08:40:18Z</time>
      </trkpt>
      <trkpt lat="45.92401" lon="4.74813">
        <ele>171</ele>
        <time>2018-09-23T08:40:19Z</time>
      </trkpt>
      <trkpt lat="45.92399" lon="4.74822">
        <ele>171</ele>
        <time>2018-09-23T08:40:20Z</time>
      </trkpt>
      <trkpt lat="45.92398" lon="4.7483">
        <ele>171</ele>
        <time>2018-09-23T08:40:21Z</time>
      </trkpt>
      <trkpt lat="45.92396" lon="4.74838">
        <ele>171</ele>
        <time>2018-09-23T08:40:22Z</time>
      </trkpt>
      <trkpt lat="45.92394" lon="4.74845">
        <ele>171</ele>
        <time>2018-09-23T08:40:23Z</time>
      </trkpt>
      <trkpt lat="45.92391" lon="4.74853">
        <ele>171</ele>
        <time>2018-09-23T08:40:24Z</time>
      </trkpt>
      <trkpt lat="45.92389" lon="4.74861">
        <ele>171</ele>
        <time>2018-09-23T08:40:25Z</time>
      </trkpt>
      <trkpt lat="45.92387" lon="4.7487">
        <ele>171</ele>
        <time>2018-09-23T08:40:26Z</time>
      </trkpt>
      <trkpt lat="45.92384" lon="4.74877">
        <ele>171</ele>
        <time>2018-09-23T08:40:27Z</time>
      </trkpt>
      <trkpt lat="45.92382" lon="4.74885">
        <ele>171</ele>
        <time>2018-09-23T08:40:28Z</time>
      </trkpt>
      <trkpt lat="45.92378" lon="4.74892">
        <ele>171</ele>
        <time>2018-09-23T08:40:29Z</time>
      </trkpt>
      <trkpt lat="45.92376" lon="4.749">
        <ele>171</ele>
        <time>2018-09-23T08:40:30Z</time>
      </trkpt>
      <trkpt lat="45.92373" lon="4.74909">
        <ele>171</ele>
        <time>2018-09-23T08:40:31Z</time>
      </trkpt>
      <trkpt lat="45.9237" lon="4.74917">
        <ele>170</ele>
        <time>2018-09-23T08:40:32Z</time>
      </trkpt>
      <trkpt lat="45.92367" lon="4.74925">
        <ele>170</ele>
        <time>2018-09-23T08:40:33Z</time>
      </trkpt>
      <trkpt lat="45.92363" lon="4.74932">
        <ele>170</ele>
        <time>2018-09-23T08:40:34Z</time>
      </trkpt>
      <trkpt lat="45.9236" lon="4.7494">
        <ele>170</ele>
        <time>2018-09-23T08:40:35Z</time>
      </trkpt>
      <trkpt lat="45.92358" lon="4.74948">
        <ele>170</ele>
        <time>2018-09-23T08:40:36Z</time>
      </trkpt>
      <trkpt lat="45.92355" lon="4.74955">
        <ele>170</ele>
        <time>2018-09-23T08:40:37Z</time>
      </trkpt>
      <trkpt lat="45.92352" lon="4.74963">
        <ele>170</ele>
        <time>2018-09-23T08:40:38Z</time>
      </trkpt>
      <trkpt lat="45.9235" lon="4.74971">
        <ele>170</ele>
        <time>2018-09-23T08:40:39Z</time>
      </trkpt>
      <trkpt lat="45.92347" lon="4.74978">
        <ele>170</ele>
        <time>2018-09-23T08:40:40Z</time>
      </trkpt>
      <trkpt lat="45.92344" lon="4.74984">
        <ele>170</ele>
        <time>2018-09-23T08:40:41Z</time>
      </trkpt>
      <trkpt lat="45.92341" lon="4.74988">
        <ele>170</ele>
        <time>2018-09-23T08:40:42Z</time>
      </trkpt>
      <trkpt lat="45.92337" lon="4.74994">
        <ele>170</ele>
        <time>2018-09-23T08:40:43Z</time>
      </trkpt>
      <trkpt lat="45.92335" lon="4.75001">
        <ele>170</ele>
        <time>2018-09-23T08:40:44Z</time>
      </trkpt>
      <trkpt lat="45.92331" lon="4.75006">
        <ele>170</ele>
        <time>2018-09-23T08:40:45Z</time>
      </trkpt>
      <trkpt lat="45.92329" lon="4.75013">
        <ele>171</ele>
        <time>2018-09-23T08:40:46Z</time>
      </trkpt>
      <trkpt lat="45.92326" lon="4.75019">
        <ele>171</ele>
        <time>2018-09-23T08:40:47Z</time>
      </trkpt>
      <trkpt lat="45.92324" lon="4.75025">
        <ele>171</ele>
        <time>2018-09-23T08:40:48Z</time>
      </trkpt>
      <trkpt lat="45.92323" lon="4.75032">
        <ele>171</ele>
        <time>2018-09-23T08:40:49Z</time>
      </trkpt>
      <trkpt lat="45.9232" lon="4.75038">
        <ele>171</ele>
        <time>2018-09-23T08:40:50Z</time>
      </trkpt>
      <trkpt lat="45.92314" lon="4.75044">
        <ele>172</ele>
        <time>2018-09-23T08:40:52Z</time>
      </trkpt>
      <trkpt lat="45.9231" lon="4.75045">
        <ele>172</ele>
        <time>2018-09-23T08:40:53Z</time>
      </trkpt>
      <trkpt lat="45.92308" lon="4.75053">
        <ele>172</ele>
        <time>2018-09-23T08:40:54Z</time>
      </trkpt>
      <trkpt lat="45.92305" lon="4.7506">
        <ele>172</ele>
        <time>2018-09-23T08:40:55Z</time>
      </trkpt>
      <trkpt lat="45.92298" lon="4.75067">
        <ele>172</ele>
        <time>2018-09-23T08:40:57Z</time>
      </trkpt>
      <trkpt lat="45.92293" lon="4.75071">
        <ele>172</ele>
        <time>2018-09-23T08:40:58Z</time>
      </trkpt>
      <trkpt lat="45.92286" lon="4.75072">
        <ele>172</ele>
        <time>2018-09-23T08:40:59Z</time>
      </trkpt>
      <trkpt lat="45.92282" lon="4.75077">
        <ele>172</ele>
        <time>2018-09-23T08:41:00Z</time>
      </trkpt>
      <trkpt lat="45.92279" lon="4.75085">
        <ele>173</ele>
        <time>2018-09-23T08:41:01Z</time>
      </trkpt>
      <trkpt lat="45.92275" lon="4.75091">
        <ele>173</ele>
        <time>2018-09-23T08:41:02Z</time>
      </trkpt>
      <trkpt lat="45.92271" lon="4.75095">
        <ele>173</ele>
        <time>2018-09-23T08:41:03Z</time>
      </trkpt>
      <trkpt lat="45.92267" lon="4.75098">
        <ele>173</ele>
        <time>2018-09-23T08:41:04Z</time>
      </trkpt>
      <trkpt lat="45.92262" lon="4.75104">
        <ele>173</ele>
        <time>2018-09-23T08:41:05Z</time>
      </trkpt>
      <trkpt lat="45.92257" lon="4.75109">
        <ele>174</ele>
        <time>2018-09-23T08:41:06Z</time>
      </trkpt>
      <trkpt lat="45.92254" lon="4.75115">
        <ele>174</ele>
        <time>2018-09-23T08:41:07Z</time>
      </trkpt>
      <trkpt lat="45.92249" lon="4.7512">
        <ele>174</ele>
        <time>2018-09-23T08:41:08Z</time>
      </trkpt>
      <trkpt lat="45.92245" lon="4.75125">
        <ele>174</ele>
        <time>2018-09-23T08:41:09Z</time>
      </trkpt>
      <trkpt lat="45.92241" lon="4.75129">
        <ele>174</ele>
        <time>2018-09-23T08:41:10Z</time>
      </trkpt>
      <trkpt lat="45.92238" lon="4.75135">
        <ele>174</ele>
        <time>2018-09-23T08:41:11Z</time>
      </trkpt>
      <trkpt lat="45.92234" lon="4.75141">
        <ele>174</ele>
        <time>2018-09-23T08:41:12Z</time>
      </trkpt>
      <trkpt lat="45.92232" lon="4.75147">
        <ele>174</ele>
        <time>2018-09-23T08:41:13Z</time>
      </trkpt>
      <trkpt lat="45.9223" lon="4.75153">
        <ele>174</ele>
        <time>2018-09-23T08:41:14Z</time>
      </trkpt>
      <trkpt lat="45.92227" lon="4.75158">
        <ele>174</ele>
        <time>2018-09-23T08:41:15Z</time>
      </trkpt>
      <trkpt lat="45.92223" lon="4.75164">
        <ele>174</ele>
        <time>2018-09-23T08:41:16Z</time>
      </trkpt>
      <trkpt lat="45.92221" lon="4.75171">
        <ele>175</ele>
        <time>2018-09-23T08:41:17Z</time>
      </trkpt>
      <trkpt lat="45.9222" lon="4.75178">
        <ele>175</ele>
        <time>2018-09-23T08:41:18Z</time>
      </trkpt>
      <trkpt lat="45.9222" lon="4.75188">
        <ele>175</ele>
        <time>2018-09-23T08:41:19Z</time>
      </trkpt>
      <trkpt lat="45.92218" lon="4.75193">
        <ele>175</ele>
        <time>2018-09-23T08:41:20Z</time>
      </trkpt>
      <trkpt lat="45.92216" lon="4.75201">
        <ele>175</ele>
        <time>2018-09-23T08:41:21Z</time>
      </trkpt>
      <trkpt lat="45.92214" lon="4.75208">
        <ele>175</ele>
        <time>2018-09-23T08:41:22Z</time>
      </trkpt>
      <trkpt lat="45.92214" lon="4.75217">
        <ele>175</ele>
        <time>2018-09-23T08:41:23Z</time>
      </trkpt>
      <trkpt lat="45.92214" lon="4.75223">
        <ele>175</ele>
        <time>2018-09-23T08:41:24Z</time>
      </trkpt>
      <trkpt lat="45.92213" lon="4.75231">
        <ele>175</ele>
        <time>2018-09-23T08:41:25Z</time>
      </trkpt>
      <trkpt lat="45.92213" lon="4.75237">
        <ele>175</ele>
        <time>2018-09-23T08:41:26Z</time>
      </trkpt>
      <trkpt lat="45.92212" lon="4.75243">
        <ele>175</ele>
        <time>2018-09-23T08:41:27Z</time>
      </trkpt>
      <trkpt lat="45.92211" lon="4.7525">
        <ele>175</ele>
        <time>2018-09-23T08:41:28Z</time>
      </trkpt>
      <trkpt lat="45.92209" lon="4.75262">
        <ele>176</ele>
        <time>2018-09-23T08:41:30Z</time>
      </trkpt>
      <trkpt lat="45.92209" lon="4.75268">
        <ele>176</ele>
        <time>2018-09-23T08:41:31Z</time>
      </trkpt>
      <trkpt lat="45.92209" lon="4.7528">
        <ele>176</ele>
        <time>2018-09-23T08:41:33Z</time>
      </trkpt>
      <trkpt lat="45.92209" lon="4.75286">
        <ele>176</ele>
        <time>2018-09-23T08:41:34Z</time>
      </trkpt>
      <trkpt lat="45.92209" lon="4.75293">
        <ele>176</ele>
        <time>2018-09-23T08:41:35Z</time>
      </trkpt>
      <trkpt lat="45.92208" lon="4.753">
        <ele>176</ele>
        <time>2018-09-23T08:41:36Z</time>
      </trkpt>
      <trkpt lat="45.92207" lon="4.75313">
        <ele>176</ele>
        <time>2018-09-23T08:41:38Z</time>
      </trkpt>
      <trkpt lat="45.92205" lon="4.75319">
        <ele>176</ele>
        <time>2018-09-23T08:41:39Z</time>
      </trkpt>
      <trkpt lat="45.92205" lon="4.75327">
        <ele>176</ele>
        <time>2018-09-23T08:41:40Z</time>
      </trkpt>
      <trkpt lat="45.92203" lon="4.75334">
        <ele>177</ele>
        <time>2018-09-23T08:41:41Z</time>
      </trkpt>
      <trkpt lat="45.92203" lon="4.75342">
        <ele>177</ele>
        <time>2018-09-23T08:41:42Z</time>
      </trkpt>
      <trkpt lat="45.92201" lon="4.75349">
        <ele>177</ele>
        <time>2018-09-23T08:41:43Z</time>
      </trkpt>
      <trkpt lat="45.922" lon="4.75358">
        <ele>177</ele>
        <time>2018-09-23T08:41:44Z</time>
      </trkpt>
      <trkpt lat="45.92197" lon="4.75364">
        <ele>177</ele>
        <time>2018-09-23T08:41:45Z</time>
      </trkpt>
      <trkpt lat="45.92196" lon="4.75371">
        <ele>177</ele>
        <time>2018-09-23T08:41:46Z</time>
      </trkpt>
      <trkpt lat="45.92192" lon="4.75379">
        <ele>177</ele>
        <time>2018-09-23T08:41:47Z</time>
      </trkpt>
      <trkpt lat="45.92189" lon="4.75385">
        <ele>177</ele>
        <time>2018-09-23T08:41:48Z</time>
      </trkpt>
      <trkpt lat="45.92188" lon="4.75393">
        <ele>177</ele>
        <time>2018-09-23T08:41:49Z</time>
      </trkpt>
      <trkpt lat="45.92186" lon="4.754">
        <ele>177</ele>
        <time>2018-09-23T08:41:50Z</time>
      </trkpt>
      <trkpt lat="45.92184" lon="4.75406">
        <ele>177</ele>
        <time>2018-09-23T08:41:51Z</time>
      </trkpt>
      <trkpt lat="45.92181" lon="4.75414">
        <ele>177</ele>
        <time>2018-09-23T08:41:52Z</time>
      </trkpt>
      <trkpt lat="45.92178" lon="4.75421">
        <ele>177</ele>
        <time>2018-09-23T08:41:53Z</time>
      </trkpt>
      <trkpt lat="45.92174" lon="4.75425">
        <ele>177</ele>
        <time>2018-09-23T08:41:54Z</time>
      </trkpt>
      <trkpt lat="45.92172" lon="4.75432">
        <ele>177</ele>
        <time>2018-09-23T08:41:55Z</time>
      </trkpt>
      <trkpt lat="45.92169" lon="4.75438">
        <ele>177</ele>
        <time>2018-09-23T08:41:56Z</time>
      </trkpt>
      <trkpt lat="45.92167" lon="4.75447">
        <ele>176</ele>
        <time>2018-09-23T08:41:57Z</time>
      </trkpt>
      <trkpt lat="45.92164" lon="4.75451">
        <ele>176</ele>
        <time>2018-09-23T08:41:58Z</time>
      </trkpt>
      <trkpt lat="45.92161" lon="4.75458">
        <ele>176</ele>
        <time>2018-09-23T08:41:59Z</time>
      </trkpt>
      <trkpt lat="45.92158" lon="4.75465">
        <ele>176</ele>
        <time>2018-09-23T08:42:00Z</time>
      </trkpt>
      <trkpt lat="45.92157" lon="4.75476">
        <ele>176</ele>
        <time>2018-09-23T08:42:01Z</time>
      </trkpt>
      <trkpt lat="45.92154" lon="4.75482">
        <ele>176</ele>
        <time>2018-09-23T08:42:02Z</time>
      </trkpt>
      <trkpt lat="45.9215" lon="4.75489">
        <ele>176</ele>
        <time>2018-09-23T08:42:03Z</time>
      </trkpt>
      <trkpt lat="45.92147" lon="4.75495">
        <ele>175</ele>
        <time>2018-09-23T08:42:04Z</time>
      </trkpt>
      <trkpt lat="45.92144" lon="4.75502">
        <ele>175</ele>
        <time>2018-09-23T08:42:05Z</time>
      </trkpt>
      <trkpt lat="45.92141" lon="4.75509">
        <ele>174</ele>
        <time>2018-09-23T08:42:06Z</time>
      </trkpt>
      <trkpt lat="45.92138" lon="4.75515">
        <ele>174</ele>
        <time>2018-09-23T08:42:07Z</time>
      </trkpt>
      <trkpt lat="45.92134" lon="4.75521">
        <ele>174</ele>
        <time>2018-09-23T08:42:08Z</time>
      </trkpt>
      <trkpt lat="45.92131" lon="4.75527">
        <ele>174</ele>
        <time>2018-09-23T08:42:09Z</time>
      </trkpt>
      <trkpt lat="45.92126" lon="4.75533">
        <ele>174</ele>
        <time>2018-09-23T08:42:10Z</time>
      </trkpt>
      <trkpt lat="45.92123" lon="4.7554">
        <ele>174</ele>
        <time>2018-09-23T08:42:11Z</time>
      </trkpt>
      <trkpt lat="45.92119" lon="4.75545">
        <ele>174</ele>
        <time>2018-09-23T08:42:12Z</time>
      </trkpt>
      <trkpt lat="45.92114" lon="4.75551">
        <ele>174</ele>
        <time>2018-09-23T08:42:13Z</time>
      </trkpt>
      <trkpt lat="45.9211" lon="4.75558">
        <ele>174</ele>
        <time>2018-09-23T08:42:14Z</time>
      </trkpt>
      <trkpt lat="45.92107" lon="4.75565">
        <ele>174</ele>
        <time>2018-09-23T08:42:15Z</time>
      </trkpt>
      <trkpt lat="45.92103" lon="4.75571">
        <ele>174</ele>
        <time>2018-09-23T08:42:16Z</time>
      </trkpt>
      <trkpt lat="45.921" lon="4.75578">
        <ele>174</ele>
        <time>2018-09-23T08:42:17Z</time>
      </trkpt>
      <trkpt lat="45.92096" lon="4.75585">
        <ele>174</ele>
        <time>2018-09-23T08:42:18Z</time>
      </trkpt>
      <trkpt lat="45.92094" lon="4.75591">
        <ele>174</ele>
        <time>2018-09-23T08:42:19Z</time>
      </trkpt>
      <trkpt lat="45.92091" lon="4.75597">
        <ele>174</ele>
        <time>2018-09-23T08:42:20Z</time>
      </trkpt>
      <trkpt lat="45.92087" lon="4.75602">
        <ele>174</ele>
        <time>2018-09-23T08:42:21Z</time>
      </trkpt>
      <trkpt lat="45.92084" lon="4.75607">
        <ele>174</ele>
        <time>2018-09-23T08:42:22Z</time>
      </trkpt>
      <trkpt lat="45.92081" lon="4.75614">
        <ele>175</ele>
        <time>2018-09-23T08:42:23Z</time>
      </trkpt>
      <trkpt lat="45.92078" lon="4.75619">
        <ele>175</ele>
        <time>2018-09-23T08:42:24Z</time>
      </trkpt>
      <trkpt lat="45.92075" lon="4.75625">
        <ele>175</ele>
        <time>2018-09-23T08:42:25Z</time>
      </trkpt>
      <trkpt lat="45.92068" lon="4.75634">
        <ele>175</ele>
        <time>2018-09-23T08:42:27Z</time>
      </trkpt>
      <trkpt lat="45.92065" lon="4.75639">
        <ele>175</ele>
        <time>2018-09-23T08:42:28Z</time>
      </trkpt>
      <trkpt lat="45.92061" lon="4.75645">
        <ele>175</ele>
        <time>2018-09-23T08:42:29Z</time>
      </trkpt>
      <trkpt lat="45.92058" lon="4.75651">
        <ele>175</ele>
        <time>2018-09-23T08:42:30Z</time>
      </trkpt>
      <trkpt lat="45.92054" lon="4.75658">
        <ele>175</ele>
        <time>2018-09-23T08:42:31Z</time>
      </trkpt>
      <trkpt lat="45.9205" lon="4.75664">
        <ele>175</ele>
        <time>2018-09-23T08:42:32Z</time>
      </trkpt>
      <trkpt lat="45.92049" lon="4.75673">
        <ele>175</ele>
        <time>2018-09-23T08:42:33Z</time>
      </trkpt>
      <trkpt lat="45.92046" lon="4.7568">
        <ele>175</ele>
        <time>2018-09-23T08:42:34Z</time>
      </trkpt>
      <trkpt lat="45.92043" lon="4.75686">
        <ele>175</ele>
        <time>2018-09-23T08:42:35Z</time>
      </trkpt>
      <trkpt lat="45.92039" lon="4.75691">
        <ele>175</ele>
        <time>2018-09-23T08:42:36Z</time>
      </trkpt>
      <trkpt lat="45.92035" lon="4.75697">
        <ele>175</ele>
        <time>2018-09-23T08:42:37Z</time>
      </trkpt>
      <trkpt lat="45.92032" lon="4.75704">
        <ele>175</ele>
        <time>2018-09-23T08:42:38Z</time>
      </trkpt>
      <trkpt lat="45.92028" lon="4.7571">
        <ele>175</ele>
        <time>2018-09-23T08:42:39Z</time>
      </trkpt>
      <trkpt lat="45.92024" lon="4.75716">
        <ele>175</ele>
        <time>2018-09-23T08:42:40Z</time>
      </trkpt>
      <trkpt lat="45.92022" lon="4.75725">
        <ele>175</ele>
        <time>2018-09-23T08:42:41Z</time>
      </trkpt>
      <trkpt lat="45.92018" lon="4.75731">
        <ele>175</ele>
        <time>2018-09-23T08:42:42Z</time>
      </trkpt>
      <trkpt lat="45.92014" lon="4.75737">
        <ele>174</ele>
        <time>2018-09-23T08:42:43Z</time>
      </trkpt>
      <trkpt lat="45.92011" lon="4.75743">
        <ele>174</ele>
        <time>2018-09-23T08:42:44Z</time>
      </trkpt>
      <trkpt lat="45.92008" lon="4.75748">
        <ele>174</ele>
        <time>2018-09-23T08:42:45Z</time>
      </trkpt>
      <trkpt lat="45.92005" lon="4.75754">
        <ele>174</ele>
        <time>2018-09-23T08:42:46Z</time>
      </trkpt>
      <trkpt lat="45.92001" lon="4.7576">
        <ele>174</ele>
        <time>2018-09-23T08:42:47Z</time>
      </trkpt>
      <trkpt lat="45.91998" lon="4.75766">
        <ele>174</ele>
        <time>2018-09-23T08:42:48Z</time>
      </trkpt>
      <trkpt lat="45.91995" lon="4.75775">
        <ele>174</ele>
        <time>2018-09-23T08:42:49Z</time>
      </trkpt>
      <trkpt lat="45.91992" lon="4.75782">
        <ele>173</ele>
        <time>2018-09-23T08:42:50Z</time>
      </trkpt>
      <trkpt lat="45.91988" lon="4.75788">
        <ele>173</ele>
        <time>2018-09-23T08:42:51Z</time>
      </trkpt>
      <trkpt lat="45.91984" lon="4.75795">
        <ele>173</ele>
        <time>2018-09-23T08:42:52Z</time>
      </trkpt>
      <trkpt lat="45.9198" lon="4.75801">
        <ele>173</ele>
        <time>2018-09-23T08:42:53Z</time>
      </trkpt>
      <trkpt lat="45.91976" lon="4.75807">
        <ele>173</ele>
        <time>2018-09-23T08:42:54Z</time>
      </trkpt>
      <trkpt lat="45.91972" lon="4.75814">
        <ele>173</ele>
        <time>2018-09-23T08:42:55Z</time>
      </trkpt>
      <trkpt lat="45.91968" lon="4.75821">
        <ele>173</ele>
        <time>2018-09-23T08:42:56Z</time>
      </trkpt>
      <trkpt lat="45.91965" lon="4.75827">
        <ele>173</ele>
        <time>2018-09-23T08:42:57Z</time>
      </trkpt>
      <trkpt lat="45.91961" lon="4.75833">
        <ele>173</ele>
        <time>2018-09-23T08:42:58Z</time>
      </trkpt>
      <trkpt lat="45.91957" lon="4.75841">
        <ele>172</ele>
        <time>2018-09-23T08:42:59Z</time>
      </trkpt>
      <trkpt lat="45.91953" lon="4.75848">
        <ele>172</ele>
        <time>2018-09-23T08:43:00Z</time>
      </trkpt>
      <trkpt lat="45.91949" lon="4.75854">
        <ele>172</ele>
        <time>2018-09-23T08:43:01Z</time>
      </trkpt>
      <trkpt lat="45.91946" lon="4.7586">
        <ele>172</ele>
        <time>2018-09-23T08:43:02Z</time>
      </trkpt>
      <trkpt lat="45.91942" lon="4.75867">
        <ele>172</ele>
        <time>2018-09-23T08:43:03Z</time>
      </trkpt>
      <trkpt lat="45.91939" lon="4.75873">
        <ele>172</ele>
        <time>2018-09-23T08:43:04Z</time>
      </trkpt>
      <trkpt lat="45.91936" lon="4.75879">
        <ele>172</ele>
        <time>2018-09-23T08:43:05Z</time>
      </trkpt>
      <trkpt lat="45.91933" lon="4.75886">
        <ele>172</ele>
        <time>2018-09-23T08:43:06Z</time>
      </trkpt>
      <trkpt lat="45.91931" lon="4.75892">
        <ele>172</ele>
        <time>2018-09-23T08:43:07Z</time>
      </trkpt>
      <trkpt lat="45.91928" lon="4.75898">
        <ele>172</ele>
        <time>2018-09-23T08:43:08Z</time>
      </trkpt>
      <trkpt lat="45.91926" lon="4.75905">
        <ele>172</ele>
        <time>2018-09-23T08:43:09Z</time>
      </trkpt>
      <trkpt lat="45.91924" lon="4.75911">
        <ele>172</ele>
        <time>2018-09-23T08:43:10Z</time>
      </trkpt>
      <trkpt lat="45.91922" lon="4.75918">
        <ele>172</ele>
        <time>2018-09-23T08:43:11Z</time>
      </trkpt>
      <trkpt lat="45.91919" lon="4.75924">
        <ele>172</ele>
        <time>2018-09-23T08:43:12Z</time>
      </trkpt>
      <trkpt lat="45.91918" lon="4.7593">
        <ele>172</ele>
        <time>2018-09-23T08:43:13Z</time>
      </trkpt>
      <trkpt lat="45.91917" lon="4.75937">
        <ele>173</ele>
        <time>2018-09-23T08:43:14Z</time>
      </trkpt>
      <trkpt lat="45.91915" lon="4.75945">
        <ele>173</ele>
        <time>2018-09-23T08:43:15Z</time>
      </trkpt>
      <trkpt lat="45.91913" lon="4.75952">
        <ele>173</ele>
        <time>2018-09-23T08:43:16Z</time>
      </trkpt>
      <trkpt lat="45.91913" lon="4.75959">
        <ele>173</ele>
        <time>2018-09-23T08:43:17Z</time>
      </trkpt>
      <trkpt lat="45.91911" lon="4.75967">
        <ele>173</ele>
        <time>2018-09-23T08:43:18Z</time>
      </trkpt>
      <trkpt lat="45.91909" lon="4.75973">
        <ele>173</ele>
        <time>2018-09-23T08:43:19Z</time>
      </trkpt>
      <trkpt lat="45.91906" lon="4.7598">
        <ele>173</ele>
        <time>2018-09-23T08:43:20Z</time>
      </trkpt>
      <trkpt lat="45.91905" lon="4.75988">
        <ele>173</ele>
        <time>2018-09-23T08:43:21Z</time>
      </trkpt>
      <trkpt lat="45.91902" lon="4.75994">
        <ele>173</ele>
        <time>2018-09-23T08:43:22Z</time>
      </trkpt>
      <trkpt lat="45.91901" lon="4.76004">
        <ele>173</ele>
        <time>2018-09-23T08:43:23Z</time>
      </trkpt>
      <trkpt lat="45.91899" lon="4.76011">
        <ele>173</ele>
        <time>2018-09-23T08:43:24Z</time>
      </trkpt>
      <trkpt lat="45.91897" lon="4.7602">
        <ele>173</ele>
        <time>2018-09-23T08:43:25Z</time>
      </trkpt>
      <trkpt lat="45.91895" lon="4.76027">
        <ele>173</ele>
        <time>2018-09-23T08:43:26Z</time>
      </trkpt>
      <trkpt lat="45.91893" lon="4.76033">
        <ele>173</ele>
        <time>2018-09-23T08:43:27Z</time>
      </trkpt>
      <trkpt lat="45.91891" lon="4.7604">
        <ele>173</ele>
        <time>2018-09-23T08:43:28Z</time>
      </trkpt>
      <trkpt lat="45.91889" lon="4.76046">
        <ele>173</ele>
        <time>2018-09-23T08:43:29Z</time>
      </trkpt>
      <trkpt lat="45.91888" lon="4.76052">
        <ele>173</ele>
        <time>2018-09-23T08:43:30Z</time>
      </trkpt>
      <trkpt lat="45.91886" lon="4.76059">
        <ele>173</ele>
        <time>2018-09-23T08:43:31Z</time>
      </trkpt>
      <trkpt lat="45.91884" lon="4.76065">
        <ele>173</ele>
        <time>2018-09-23T08:43:32Z</time>
      </trkpt>
      <trkpt lat="45.91882" lon="4.76073">
        <ele>173</ele>
        <time>2018-09-23T08:43:33Z</time>
      </trkpt>
      <trkpt lat="45.91881" lon="4.7608">
        <ele>173</ele>
        <time>2018-09-23T08:43:34Z</time>
      </trkpt>
      <trkpt lat="45.91878" lon="4.76088">
        <ele>173</ele>
        <time>2018-09-23T08:43:35Z</time>
      </trkpt>
      <trkpt lat="45.91877" lon="4.76095">
        <ele>173</ele>
        <time>2018-09-23T08:43:36Z</time>
      </trkpt>
      <trkpt lat="45.91874" lon="4.76101">
        <ele>173</ele>
        <time>2018-09-23T08:43:37Z</time>
      </trkpt>
      <trkpt lat="45.91873" lon="4.76108">
        <ele>173</ele>
        <time>2018-09-23T08:43:38Z</time>
      </trkpt>
      <trkpt lat="45.91871" lon="4.76115">
        <ele>173</ele>
        <time>2018-09-23T08:43:39Z</time>
      </trkpt>
      <trkpt lat="45.91869" lon="4.76123">
        <ele>173</ele>
        <time>2018-09-23T08:43:40Z</time>
      </trkpt>
      <trkpt lat="45.91868" lon="4.7613">
        <ele>173</ele>
        <time>2018-09-23T08:43:41Z</time>
      </trkpt>
      <trkpt lat="45.91866" lon="4.76138">
        <ele>173</ele>
        <time>2018-09-23T08:43:42Z</time>
      </trkpt>
      <trkpt lat="45.91863" lon="4.76146">
        <ele>173</ele>
        <time>2018-09-23T08:43:43Z</time>
      </trkpt>
      <trkpt lat="45.91862" lon="4.76154">
        <ele>173</ele>
        <time>2018-09-23T08:43:44Z</time>
      </trkpt>
      <trkpt lat="45.91861" lon="4.7616">
        <ele>173</ele>
        <time>2018-09-23T08:43:45Z</time>
      </trkpt>
      <trkpt lat="45.91859" lon="4.76168">
        <ele>172</ele>
        <time>2018-09-23T08:43:46Z</time>
      </trkpt>
      <trkpt lat="45.91857" lon="4.76174">
        <ele>172</ele>
        <time>2018-09-23T08:43:47Z</time>
      </trkpt>
      <trkpt lat="45.91856" lon="4.76181">
        <ele>172</ele>
        <time>2018-09-23T08:43:48Z</time>
      </trkpt>
      <trkpt lat="45.91855" lon="4.76188">
        <ele>172</ele>
        <time>2018-09-23T08:43:49Z</time>
      </trkpt>
      <trkpt lat="45.91853" lon="4.76194">
        <ele>172</ele>
        <time>2018-09-23T08:43:50Z</time>
      </trkpt>
      <trkpt lat="45.91852" lon="4.76201">
        <ele>172</ele>
        <time>2018-09-23T08:43:51Z</time>
      </trkpt>
      <trkpt lat="45.9185" lon="4.76206">
        <ele>172</ele>
        <time>2018-09-23T08:43:52Z</time>
      </trkpt>
      <trkpt lat="45.91848" lon="4.76213">
        <ele>172</ele>
        <time>2018-09-23T08:43:53Z</time>
      </trkpt>
      <trkpt lat="45.91845" lon="4.76219">
        <ele>172</ele>
        <time>2018-09-23T08:43:54Z</time>
      </trkpt>
      <trkpt lat="45.91843" lon="4.76226">
        <ele>172</ele>
        <time>2018-09-23T08:43:55Z</time>
      </trkpt>
      <trkpt lat="45.91842" lon="4.76234">
        <ele>173</ele>
        <time>2018-09-23T08:43:56Z</time>
      </trkpt>
      <trkpt lat="45.91839" lon="4.76242">
        <ele>173</ele>
        <time>2018-09-23T08:43:57Z</time>
      </trkpt>
      <trkpt lat="45.91836" lon="4.7625">
        <ele>173</ele>
        <time>2018-09-23T08:43:58Z</time>
      </trkpt>
      <trkpt lat="45.91834" lon="4.76258">
        <ele>173</ele>
        <time>2018-09-23T08:43:59Z</time>
      </trkpt>
      <trkpt lat="45.91832" lon="4.76266">
        <ele>174</ele>
        <time>2018-09-23T08:44:00Z</time>
      </trkpt>
      <trkpt lat="45.9183" lon="4.76273">
        <ele>174</ele>
        <time>2018-09-23T08:44:01Z</time>
      </trkpt>
      <trkpt lat="45.91827" lon="4.76278">
        <ele>174</ele>
        <time>2018-09-23T08:44:02Z</time>
      </trkpt>
      <trkpt lat="45.91825" lon="4.76285">
        <ele>174</ele>
        <time>2018-09-23T08:44:03Z</time>
      </trkpt>
      <trkpt lat="45.91823" lon="4.76293">
        <ele>174</ele>
        <time>2018-09-23T08:44:04Z</time>
      </trkpt>
      <trkpt lat="45.91822" lon="4.76299">
        <ele>174</ele>
        <time>2018-09-23T08:44:05Z</time>
      </trkpt>
      <trkpt lat="45.91821" lon="4.76306">
        <ele>174</ele>
        <time>2018-09-23T08:44:06Z</time>
      </trkpt>
      <trkpt lat="45.91819" lon="4.76312">
        <ele>174</ele>
        <time>2018-09-23T08:44:07Z</time>
      </trkpt>
      <trkpt lat="45.91817" lon="4.7632">
        <ele>174</ele>
        <time>2018-09-23T08:44:08Z</time>
      </trkpt>
      <trkpt lat="45.91815" lon="4.76326">
        <ele>174</ele>
        <time>2018-09-23T08:44:09Z</time>
      </trkpt>
      <trkpt lat="45.91813" lon="4.76333">
        <ele>174</ele>
        <time>2018-09-23T08:44:10Z</time>
      </trkpt>
      <trkpt lat="45.91812" lon="4.7634">
        <ele>174</ele>
        <time>2018-09-23T08:44:11Z</time>
      </trkpt>
      <trkpt lat="45.9181" lon="4.76347">
        <ele>174</ele>
        <time>2018-09-23T08:44:12Z</time>
      </trkpt>
      <trkpt lat="45.91813" lon="4.76356">
        <ele>174</ele>
        <time>2018-09-23T08:44:13Z</time>
      </trkpt>
      <trkpt lat="45.91812" lon="4.76363">
        <ele>174</ele>
        <time>2018-09-23T08:44:14Z</time>
      </trkpt>
      <trkpt lat="45.91813" lon="4.76372">
        <ele>174</ele>
        <time>2018-09-23T08:44:15Z</time>
      </trkpt>
      <trkpt lat="45.91813" lon="4.76379">
        <ele>174</ele>
        <time>2018-09-23T08:44:16Z</time>
      </trkpt>
      <trkpt lat="45.91813" lon="4.76387">
        <ele>174</ele>
        <time>2018-09-23T08:44:17Z</time>
      </trkpt>
      <trkpt lat="45.91812" lon="4.76394">
        <ele>173</ele>
        <time>2018-09-23T08:44:18Z</time>
      </trkpt>
      <trkpt lat="45.91812" lon="4.76402">
        <ele>173</ele>
        <time>2018-09-23T08:44:19Z</time>
      </trkpt>
      <trkpt lat="45.91811" lon="4.76409">
        <ele>173</ele>
        <time>2018-09-23T08:44:20Z</time>
      </trkpt>
      <trkpt lat="45.9181" lon="4.76418">
        <ele>173</ele>
        <time>2018-09-23T08:44:21Z</time>
      </trkpt>
      <trkpt lat="45.91809" lon="4.76426">
        <ele>173</ele>
        <time>2018-09-23T08:44:22Z</time>
      </trkpt>
      <trkpt lat="45.91809" lon="4.76434">
        <ele>173</ele>
        <time>2018-09-23T08:44:23Z</time>
      </trkpt>
      <trkpt lat="45.91807" lon="4.76442">
        <ele>173</ele>
        <time>2018-09-23T08:44:24Z</time>
      </trkpt>
      <trkpt lat="45.91807" lon="4.7645">
        <ele>173</ele>
        <time>2018-09-23T08:44:25Z</time>
      </trkpt>
      <trkpt lat="45.91806" lon="4.76458">
        <ele>173</ele>
        <time>2018-09-23T08:44:26Z</time>
      </trkpt>
      <trkpt lat="45.91806" lon="4.76471">
        <ele>173</ele>
        <time>2018-09-23T08:44:28Z</time>
      </trkpt>
      <trkpt lat="45.91807" lon="4.76481">
        <ele>173</ele>
        <time>2018-09-23T08:44:29Z</time>
      </trkpt>
      <trkpt lat="45.91805" lon="4.76489">
        <ele>173</ele>
        <time>2018-09-23T08:44:30Z</time>
      </trkpt>
      <trkpt lat="45.91806" lon="4.765">
        <ele>173</ele>
        <time>2018-09-23T08:44:31Z</time>
      </trkpt>
      <trkpt lat="45.91805" lon="4.76507">
        <ele>173</ele>
        <time>2018-09-23T08:44:32Z</time>
      </trkpt>
      <trkpt lat="45.91804" lon="4.76515">
        <ele>173</ele>
        <time>2018-09-23T08:44:33Z</time>
      </trkpt>
      <trkpt lat="45.91803" lon="4.76522">
        <ele>173</ele>
        <time>2018-09-23T08:44:34Z</time>
      </trkpt>
      <trkpt lat="45.91803" lon="4.76528">
        <ele>173</ele>
        <time>2018-09-23T08:44:35Z</time>
      </trkpt>
      <trkpt lat="45.91802" lon="4.76536">
        <ele>173</ele>
        <time>2018-09-23T08:44:36Z</time>
      </trkpt>
      <trkpt lat="45.91801" lon="4.76543">
        <ele>173</ele>
        <time>2018-09-23T08:44:37Z</time>
      </trkpt>
      <trkpt lat="45.918" lon="4.76551">
        <ele>173</ele>
        <time>2018-09-23T08:44:38Z</time>
      </trkpt>
      <trkpt lat="45.91799" lon="4.76558">
        <ele>173</ele>
        <time>2018-09-23T08:44:39Z</time>
      </trkpt>
      <trkpt lat="45.91798" lon="4.76565">
        <ele>173</ele>
        <time>2018-09-23T08:44:40Z</time>
      </trkpt>
      <trkpt lat="45.91796" lon="4.7657">
        <ele>173</ele>
        <time>2018-09-23T08:44:41Z</time>
      </trkpt>
      <trkpt lat="45.91796" lon="4.76583">
        <ele>173</ele>
        <time>2018-09-23T08:44:43Z</time>
      </trkpt>
      <trkpt lat="45.91795" lon="4.7659">
        <ele>173</ele>
        <time>2018-09-23T08:44:44Z</time>
      </trkpt>
      <trkpt lat="45.91795" lon="4.76596">
        <ele>173</ele>
        <time>2018-09-23T08:44:45Z</time>
      </trkpt>
      <trkpt lat="45.91794" lon="4.76605">
        <ele>173</ele>
        <time>2018-09-23T08:44:46Z</time>
      </trkpt>
      <trkpt lat="45.91792" lon="4.76612">
        <ele>173</ele>
        <time>2018-09-23T08:44:47Z</time>
      </trkpt>
      <trkpt lat="45.91791" lon="4.7662">
        <ele>173</ele>
        <time>2018-09-23T08:44:48Z</time>
      </trkpt>
      <trkpt lat="45.91791" lon="4.76627">
        <ele>173</ele>
        <time>2018-09-23T08:44:49Z</time>
      </trkpt>
      <trkpt lat="45.9179" lon="4.76635">
        <ele>173</ele>
        <time>2018-09-23T08:44:50Z</time>
      </trkpt>
      <trkpt lat="45.91789" lon="4.76644">
        <ele>173</ele>
        <time>2018-09-23T08:44:51Z</time>
      </trkpt>
      <trkpt lat="45.91788" lon="4.76653">
        <ele>173</ele>
        <time>2018-09-23T08:44:52Z</time>
      </trkpt>
      <trkpt lat="45.91787" lon="4.76662">
        <ele>173</ele>
        <time>2018-09-23T08:44:53Z</time>
      </trkpt>
      <trkpt lat="45.91786" lon="4.7667">
        <ele>172</ele>
        <time>2018-09-23T08:44:54Z</time>
      </trkpt>
      <trkpt lat="45.91785" lon="4.76679">
        <ele>172</ele>
        <time>2018-09-23T08:44:55Z</time>
      </trkpt>
      <trkpt lat="45.91784" lon="4.76688">
        <ele>172</ele>
        <time>2018-09-23T08:44:56Z</time>
      </trkpt>
      <trkpt lat="45.91783" lon="4.76696">
        <ele>172</ele>
        <time>2018-09-23T08:44:57Z</time>
      </trkpt>
      <trkpt lat="45.91782" lon="4.76704">
        <ele>172</ele>
        <time>2018-09-23T08:44:58Z</time>
      </trkpt>
      <trkpt lat="45.9178" lon="4.76713">
        <ele>172</ele>
        <time>2018-09-23T08:44:59Z</time>
      </trkpt>
      <trkpt lat="45.9178" lon="4.76721">
        <ele>172</ele>
        <time>2018-09-23T08:45:00Z</time>
      </trkpt>
      <trkpt lat="45.91779" lon="4.76729">
        <ele>172</ele>
        <time>2018-09-23T08:45:01Z</time>
      </trkpt>
      <trkpt lat="45.91777" lon="4.76739">
        <ele>172</ele>
        <time>2018-09-23T08:45:02Z</time>
      </trkpt>
      <trkpt lat="45.91778" lon="4.76747">
        <ele>172</ele>
        <time>2018-09-23T08:45:03Z</time>
      </trkpt>
      <trkpt lat="45.91777" lon="4.76757">
        <ele>171</ele>
        <time>2018-09-23T08:45:04Z</time>
      </trkpt>
      <trkpt lat="45.91776" lon="4.76763">
        <ele>171</ele>
        <time>2018-09-23T08:45:05Z</time>
      </trkpt>
      <trkpt lat="45.91776" lon="4.76773">
        <ele>171</ele>
        <time>2018-09-23T08:45:06Z</time>
      </trkpt>
      <trkpt lat="45.91776" lon="4.76782">
        <ele>171</ele>
        <time>2018-09-23T08:45:07Z</time>
      </trkpt>
      <trkpt lat="45.91776" lon="4.76791">
        <ele>171</ele>
        <time>2018-09-23T08:45:08Z</time>
      </trkpt>
      <trkpt lat="45.91776" lon="4.768">
        <ele>171</ele>
        <time>2018-09-23T08:45:09Z</time>
      </trkpt>
      <trkpt lat="45.91776" lon="4.76811">
        <ele>171</ele>
        <time>2018-09-23T08:45:10Z</time>
      </trkpt>
      <trkpt lat="45.91776" lon="4.76819">
        <ele>171</ele>
        <time>2018-09-23T08:45:11Z</time>
      </trkpt>
      <trkpt lat="45.91776" lon="4.76829">
        <ele>171</ele>
        <time>2018-09-23T08:45:12Z</time>
      </trkpt>
      <trkpt lat="45.91776" lon="4.76838">
        <ele>171</ele>
        <time>2018-09-23T08:45:13Z</time>
      </trkpt>
      <trkpt lat="45.91776" lon="4.76846">
        <ele>170</ele>
        <time>2018-09-23T08:45:14Z</time>
      </trkpt>
      <trkpt lat="45.91775" lon="4.76856">
        <ele>170</ele>
        <time>2018-09-23T08:45:15Z</time>
      </trkpt>
      <trkpt lat="45.91775" lon="4.76864">
        <ele>170</ele>
        <time>2018-09-23T08:45:16Z</time>
      </trkpt>
      <trkpt lat="45.91776" lon="4.76876">
        <ele>170</ele>
        <time>2018-09-23T08:45:17Z</time>
      </trkpt>
      <trkpt lat="45.91775" lon="4.76884">
        <ele>170</ele>
        <time>2018-09-23T08:45:18Z</time>
      </trkpt>
      <trkpt lat="45.91775" lon="4.76892">
        <ele>170</ele>
        <time>2018-09-23T08:45:19Z</time>
      </trkpt>
      <trkpt lat="45.91775" lon="4.76902">
        <ele>170</ele>
        <time>2018-09-23T08:45:20Z</time>
      </trkpt>
      <trkpt lat="45.91774" lon="4.76911">
        <ele>170</ele>
        <time>2018-09-23T08:45:21Z</time>
      </trkpt>
      <trkpt lat="45.91774" lon="4.76917">
        <ele>170</ele>
        <time>2018-09-23T08:45:22Z</time>
      </trkpt>
      <trkpt lat="45.91773" lon="4.76927">
        <ele>170</ele>
        <time>2018-09-23T08:45:23Z</time>
      </trkpt>
      <trkpt lat="45.91773" lon="4.76937">
        <ele>169</ele>
        <time>2018-09-23T08:45:24Z</time>
      </trkpt>
      <trkpt lat="45.91772" lon="4.76945">
        <ele>169</ele>
        <time>2018-09-23T08:45:25Z</time>
      </trkpt>
      <trkpt lat="45.91771" lon="4.76953">
        <ele>169</ele>
        <time>2018-09-23T08:45:26Z</time>
      </trkpt>
      <trkpt lat="45.9177" lon="4.76962">
        <ele>169</ele>
        <time>2018-09-23T08:45:27Z</time>
      </trkpt>
      <trkpt lat="45.91769" lon="4.76971">
        <ele>169</ele>
        <time>2018-09-23T08:45:28Z</time>
      </trkpt>
      <trkpt lat="45.91768" lon="4.76981">
        <ele>169</ele>
        <time>2018-09-23T08:45:29Z</time>
      </trkpt>
      <trkpt lat="45.91766" lon="4.76988">
        <ele>169</ele>
        <time>2018-09-23T08:45:30Z</time>
      </trkpt>
      <trkpt lat="45.91765" lon="4.76998">
        <ele>169</ele>
        <time>2018-09-23T08:45:31Z</time>
      </trkpt>
      <trkpt lat="45.91764" lon="4.77006">
        <ele>169</ele>
        <time>2018-09-23T08:45:32Z</time>
      </trkpt>
      <trkpt lat="45.91763" lon="4.77015">
        <ele>169</ele>
        <time>2018-09-23T08:45:33Z</time>
      </trkpt>
      <trkpt lat="45.91762" lon="4.77023">
        <ele>169</ele>
        <time>2018-09-23T08:45:34Z</time>
      </trkpt>
      <trkpt lat="45.9176" lon="4.77029">
        <ele>169</ele>
        <time>2018-09-23T08:45:35Z</time>
      </trkpt>
      <trkpt lat="45.91757" lon="4.77036">
        <ele>169</ele>
        <time>2018-09-23T08:45:36Z</time>
      </trkpt>
      <trkpt lat="45.91756" lon="4.77044">
        <ele>169</ele>
        <time>2018-09-23T08:45:37Z</time>
      </trkpt>
      <trkpt lat="45.91755" lon="4.77052">
        <ele>169</ele>
        <time>2018-09-23T08:45:38Z</time>
      </trkpt>
      <trkpt lat="45.91754" lon="4.7706">
        <ele>169</ele>
        <time>2018-09-23T08:45:39Z</time>
      </trkpt>
      <trkpt lat="45.91753" lon="4.77068">
        <ele>169</ele>
        <time>2018-09-23T08:45:40Z</time>
      </trkpt>
      <trkpt lat="45.91752" lon="4.77077">
        <ele>169</ele>
        <time>2018-09-23T08:45:41Z</time>
      </trkpt>
      <trkpt lat="45.91751" lon="4.77085">
        <ele>169</ele>
        <time>2018-09-23T08:45:42Z</time>
      </trkpt>
      <trkpt lat="45.9175" lon="4.77094">
        <ele>169</ele>
        <time>2018-09-23T08:45:43Z</time>
      </trkpt>
      <trkpt lat="45.91749" lon="4.77103">
        <ele>170</ele>
        <time>2018-09-23T08:45:44Z</time>
      </trkpt>
      <trkpt lat="45.91748" lon="4.7711">
        <ele>170</ele>
        <time>2018-09-23T08:45:45Z</time>
      </trkpt>
      <trkpt lat="45.91748" lon="4.7712">
        <ele>170</ele>
        <time>2018-09-23T08:45:46Z</time>
      </trkpt>
      <trkpt lat="45.91745" lon="4.77127">
        <ele>170</ele>
        <time>2018-09-23T08:45:47Z</time>
      </trkpt>
      <trkpt lat="45.91744" lon="4.77135">
        <ele>170</ele>
        <time>2018-09-23T08:45:48Z</time>
      </trkpt>
      <trkpt lat="45.91742" lon="4.77142">
        <ele>170</ele>
        <time>2018-09-23T08:45:49Z</time>
      </trkpt>
      <trkpt lat="45.91741" lon="4.77149">
        <ele>170</ele>
        <time>2018-09-23T08:45:50Z</time>
      </trkpt>
      <trkpt lat="45.91736" lon="4.7716">
        <ele>170</ele>
        <time>2018-09-23T08:45:52Z</time>
      </trkpt>
      <trkpt lat="45.91734" lon="4.77164">
        <ele>170</ele>
        <time>2018-09-23T08:45:53Z</time>
      </trkpt>
      <trkpt lat="45.91728" lon="4.77172">
        <ele>170</ele>
        <time>2018-09-23T08:45:55Z</time>
      </trkpt>
      <trkpt lat="45.91726" lon="4.77177">
        <ele>170</ele>
        <time>2018-09-23T08:45:56Z</time>
      </trkpt>
      <trkpt lat="45.91721" lon="4.77184">
        <ele>170</ele>
        <time>2018-09-23T08:45:58Z</time>
      </trkpt>
      <trkpt lat="45.91719" lon="4.7719">
        <ele>170</ele>
        <time>2018-09-23T08:45:59Z</time>
      </trkpt>
      <trkpt lat="45.91715" lon="4.77201">
        <ele>170</ele>
        <time>2018-09-23T08:46:01Z</time>
      </trkpt>
      <trkpt lat="45.91713" lon="4.77206">
        <ele>170</ele>
        <time>2018-09-23T08:46:02Z</time>
      </trkpt>
      <trkpt lat="45.91711" lon="4.77212">
        <ele>170</ele>
        <time>2018-09-23T08:46:03Z</time>
      </trkpt>
      <trkpt lat="45.91708" lon="4.7722">
        <ele>170</ele>
        <time>2018-09-23T08:46:04Z</time>
      </trkpt>
      <trkpt lat="45.91706" lon="4.77225">
        <ele>170</ele>
        <time>2018-09-23T08:46:05Z</time>
      </trkpt>
      <trkpt lat="45.91702" lon="4.7723">
        <ele>170</ele>
        <time>2018-09-23T08:46:06Z</time>
      </trkpt>
      <trkpt lat="45.91699" lon="4.77236">
        <ele>170</ele>
        <time>2018-09-23T08:46:07Z</time>
      </trkpt>
      <trkpt lat="45.91695" lon="4.77242">
        <ele>170</ele>
        <time>2018-09-23T08:46:08Z</time>
      </trkpt>
      <trkpt lat="45.91692" lon="4.77251">
        <ele>170</ele>
        <time>2018-09-23T08:46:09Z</time>
      </trkpt>
      <trkpt lat="45.9169" lon="4.77259">
        <ele>170</ele>
        <time>2018-09-23T08:46:10Z</time>
      </trkpt>
      <trkpt lat="45.91688" lon="4.77266">
        <ele>170</ele>
        <time>2018-09-23T08:46:11Z</time>
      </trkpt>
      <trkpt lat="45.91686" lon="4.77274">
        <ele>170</ele>
        <time>2018-09-23T08:46:12Z</time>
      </trkpt>
      <trkpt lat="45.91684" lon="4.77282">
        <ele>170</ele>
        <time>2018-09-23T08:46:13Z</time>
      </trkpt>
      <trkpt lat="45.91682" lon="4.77289">
        <ele>170</ele>
        <time>2018-09-23T08:46:14Z</time>
      </trkpt>
      <trkpt lat="45.9168" lon="4.77297">
        <ele>170</ele>
        <time>2018-09-23T08:46:15Z</time>
      </trkpt>
      <trkpt lat="45.9168" lon="4.77305">
        <ele>171</ele>
        <time>2018-09-23T08:46:16Z</time>
      </trkpt>
      <trkpt lat="45.91678" lon="4.77313">
        <ele>171</ele>
        <time>2018-09-23T08:46:17Z</time>
      </trkpt>
      <trkpt lat="45.91677" lon="4.77319">
        <ele>171</ele>
        <time>2018-09-23T08:46:18Z</time>
      </trkpt>
      <trkpt lat="45.91674" lon="4.77326">
        <ele>171</ele>
        <time>2018-09-23T08:46:19Z</time>
      </trkpt>
      <trkpt lat="45.91673" lon="4.77332">
        <ele>172</ele>
        <time>2018-09-23T08:46:20Z</time>
      </trkpt>
      <trkpt lat="45.91671" lon="4.77339">
        <ele>172</ele>
        <time>2018-09-23T08:46:21Z</time>
      </trkpt>
      <trkpt lat="45.91669" lon="4.77345">
        <ele>172</ele>
        <time>2018-09-23T08:46:22Z</time>
      </trkpt>
      <trkpt lat="45.91667" lon="4.77351">
        <ele>171</ele>
        <time>2018-09-23T08:46:23Z</time>
      </trkpt>
      <trkpt lat="45.91665" lon="4.77357">
        <ele>172</ele>
        <time>2018-09-23T08:46:24Z</time>
      </trkpt>
      <trkpt lat="45.91661" lon="4.77368">
        <ele>172</ele>
        <time>2018-09-23T08:46:26Z</time>
      </trkpt>
      <trkpt lat="45.91659" lon="4.77375">
        <ele>172</ele>
        <time>2018-09-23T08:46:27Z</time>
      </trkpt>
      <trkpt lat="45.91657" lon="4.77383">
        <ele>172</ele>
        <time>2018-09-23T08:46:28Z</time>
      </trkpt>
      <trkpt lat="45.91655" lon="4.7739">
        <ele>172</ele>
        <time>2018-09-23T08:46:29Z</time>
      </trkpt>
      <trkpt lat="45.91653" lon="4.77397">
        <ele>172</ele>
        <time>2018-09-23T08:46:30Z</time>
      </trkpt>
      <trkpt lat="45.91651" lon="4.77404">
        <ele>172</ele>
        <time>2018-09-23T08:46:31Z</time>
      </trkpt>
      <trkpt lat="45.9165" lon="4.77411">
        <ele>172</ele>
        <time>2018-09-23T08:46:32Z</time>
      </trkpt>
      <trkpt lat="45.91648" lon="4.77417">
        <ele>172</ele>
        <time>2018-09-23T08:46:33Z</time>
      </trkpt>
      <trkpt lat="45.91646" lon="4.77425">
        <ele>172</ele>
        <time>2018-09-23T08:46:34Z</time>
      </trkpt>
      <trkpt lat="45.91644" lon="4.77432">
        <ele>172</ele>
        <time>2018-09-23T08:46:35Z</time>
      </trkpt>
      <trkpt lat="45.91639" lon="4.77443">
        <ele>172</ele>
        <time>2018-09-23T08:46:37Z</time>
      </trkpt>
      <trkpt lat="45.91636" lon="4.77448">
        <ele>172</ele>
        <time>2018-09-23T08:46:38Z</time>
      </trkpt>
      <trkpt lat="45.91634" lon="4.7746">
        <ele>171</ele>
        <time>2018-09-23T08:46:40Z</time>
      </trkpt>
      <trkpt lat="45.91633" lon="4.77466">
        <ele>171</ele>
        <time>2018-09-23T08:46:41Z</time>
      </trkpt>
      <trkpt lat="45.91631" lon="4.77476">
        <ele>171</ele>
        <time>2018-09-23T08:46:43Z</time>
      </trkpt>
      <trkpt lat="45.9163" lon="4.77482">
        <ele>171</ele>
        <time>2018-09-23T08:46:44Z</time>
      </trkpt>
      <trkpt lat="45.91629" lon="4.77489">
        <ele>171</ele>
        <time>2018-09-23T08:46:45Z</time>
      </trkpt>
      <trkpt lat="45.91629" lon="4.77496">
        <ele>171</ele>
        <time>2018-09-23T08:46:46Z</time>
      </trkpt>
      <trkpt lat="45.91629" lon="4.77502">
        <ele>171</ele>
        <time>2018-09-23T08:46:47Z</time>
      </trkpt>
      <trkpt lat="45.91628" lon="4.77509">
        <ele>171</ele>
        <time>2018-09-23T08:46:48Z</time>
      </trkpt>
      <trkpt lat="45.91627" lon="4.77516">
        <ele>171</ele>
        <time>2018-09-23T08:46:49Z</time>
      </trkpt>
      <trkpt lat="45.91623" lon="4.7752">
        <ele>171</ele>
        <time>2018-09-23T08:46:50Z</time>
      </trkpt>
      <trkpt lat="45.91619" lon="4.77524">
        <ele>171</ele>
        <time>2018-09-23T08:46:51Z</time>
      </trkpt>
      <trkpt lat="45.91615" lon="4.77529">
        <ele>171</ele>
        <time>2018-09-23T08:46:52Z</time>
      </trkpt>
      <trkpt lat="45.91613" lon="4.77535">
        <ele>171</ele>
        <time>2018-09-23T08:46:53Z</time>
      </trkpt>
      <trkpt lat="45.91609" lon="4.77541">
        <ele>171</ele>
        <time>2018-09-23T08:46:54Z</time>
      </trkpt>
      <trkpt lat="45.91606" lon="4.77546">
        <ele>171</ele>
        <time>2018-09-23T08:46:55Z</time>
      </trkpt>
      <trkpt lat="45.91602" lon="4.77552">
        <ele>171</ele>
        <time>2018-09-23T08:46:56Z</time>
      </trkpt>
      <trkpt lat="45.91599" lon="4.77557">
        <ele>172</ele>
        <time>2018-09-23T08:46:57Z</time>
      </trkpt>
      <trkpt lat="45.91595" lon="4.77563">
        <ele>172</ele>
        <time>2018-09-23T08:46:58Z</time>
      </trkpt>
      <trkpt lat="45.91592" lon="4.77568">
        <ele>172</ele>
        <time>2018-09-23T08:46:59Z</time>
      </trkpt>
      <trkpt lat="45.91588" lon="4.77573">
        <ele>172</ele>
        <time>2018-09-23T08:47:00Z</time>
      </trkpt>
      <trkpt lat="45.91583" lon="4.77584">
        <ele>173</ele>
        <time>2018-09-23T08:47:02Z</time>
      </trkpt>
      <trkpt lat="45.91582" lon="4.7759">
        <ele>173</ele>
        <time>2018-09-23T08:47:03Z</time>
      </trkpt>
      <trkpt lat="45.91576" lon="4.77599">
        <ele>173</ele>
        <time>2018-09-23T08:47:05Z</time>
      </trkpt>
      <trkpt lat="45.91574" lon="4.77603">
        <ele>173</ele>
        <time>2018-09-23T08:47:06Z</time>
      </trkpt>
      <trkpt lat="45.91568" lon="4.77613">
        <ele>174</ele>
        <time>2018-09-23T08:47:08Z</time>
      </trkpt>
      <trkpt lat="45.91566" lon="4.77617">
        <ele>174</ele>
        <time>2018-09-23T08:47:09Z</time>
      </trkpt>
      <trkpt lat="45.9156" lon="4.77625">
        <ele>174</ele>
        <time>2018-09-23T08:47:11Z</time>
      </trkpt>
      <trkpt lat="45.91557" lon="4.77629">
        <ele>174</ele>
        <time>2018-09-23T08:47:12Z</time>
      </trkpt>
      <trkpt lat="45.91552" lon="4.77636">
        <ele>174</ele>
        <time>2018-09-23T08:47:14Z</time>
      </trkpt>
      <trkpt lat="45.91549" lon="4.7764">
        <ele>174</ele>
        <time>2018-09-23T08:47:15Z</time>
      </trkpt>
      <trkpt lat="45.91544" lon="4.77647">
        <ele>174</ele>
        <time>2018-09-23T08:47:17Z</time>
      </trkpt>
      <trkpt lat="45.91542" lon="4.77651">
        <ele>174</ele>
        <time>2018-09-23T08:47:18Z</time>
      </trkpt>
      <trkpt lat="45.91537" lon="4.7766">
        <ele>174</ele>
        <time>2018-09-23T08:47:20Z</time>
      </trkpt>
      <trkpt lat="45.91536" lon="4.77661">
        <ele>174</ele>
        <time>2018-09-23T08:47:21Z</time>
      </trkpt>
      <trkpt lat="45.91532" lon="4.77669">
        <ele>175</ele>
        <time>2018-09-23T08:47:24Z</time>
      </trkpt>
      <trkpt lat="45.9153" lon="4.77673">
        <ele>175</ele>
        <time>2018-09-23T08:47:25Z</time>
      </trkpt>
      <trkpt lat="45.91526" lon="4.77679">
        <ele>175</ele>
        <time>2018-09-23T08:47:27Z</time>
      </trkpt>
      <trkpt lat="45.91524" lon="4.77682">
        <ele>175</ele>
        <time>2018-09-23T08:47:28Z</time>
      </trkpt>
      <trkpt lat="45.9152" lon="4.7769">
        <ele>176</ele>
        <time>2018-09-23T08:47:30Z</time>
      </trkpt>
      <trkpt lat="45.91513" lon="4.77699">
        <ele>176</ele>
        <time>2018-09-23T08:47:31Z</time>
      </trkpt>
      <trkpt lat="45.91506" lon="4.777">
        <ele>176</ele>
        <time>2018-09-23T08:47:34Z</time>
      </trkpt>
      <trkpt lat="45.91498" lon="4.777">
        <ele>177</ele>
        <time>2018-09-23T08:47:35Z</time>
      </trkpt>
      <trkpt lat="45.9149" lon="4.77699">
        <ele>177</ele>
        <time>2018-09-23T08:47:37Z</time>
      </trkpt>
      <trkpt lat="45.91486" lon="4.77699">
        <ele>177</ele>
        <time>2018-09-23T08:47:38Z</time>
      </trkpt>
      <trkpt lat="45.91479" lon="4.77699">
        <ele>177</ele>
        <time>2018-09-23T08:47:39Z</time>
      </trkpt>
      <trkpt lat="45.91475" lon="4.777">
        <ele>177</ele>
        <time>2018-09-23T08:47:40Z</time>
      </trkpt>
      <trkpt lat="45.9147" lon="4.777">
        <ele>177</ele>
        <time>2018-09-23T08:47:41Z</time>
      </trkpt>
      <trkpt lat="45.91465" lon="4.77703">
        <ele>177</ele>
        <time>2018-09-23T08:47:42Z</time>
      </trkpt>
      <trkpt lat="45.91458" lon="4.77705">
        <ele>177</ele>
        <time>2018-09-23T08:47:43Z</time>
      </trkpt>
      <trkpt lat="45.91453" lon="4.77706">
        <ele>177</ele>
        <time>2018-09-23T08:47:44Z</time>
      </trkpt>
      <trkpt lat="45.91447" lon="4.77708">
        <ele>177</ele>
        <time>2018-09-23T08:47:45Z</time>
      </trkpt>
      <trkpt lat="45.91442" lon="4.77709">
        <ele>177</ele>
        <time>2018-09-23T08:47:46Z</time>
      </trkpt>
      <trkpt lat="45.91437" lon="4.7771">
        <ele>177</ele>
        <time>2018-09-23T08:47:47Z</time>
      </trkpt>
      <trkpt lat="45.91432" lon="4.77713">
        <ele>177</ele>
        <time>2018-09-23T08:47:48Z</time>
      </trkpt>
      <trkpt lat="45.91426" lon="4.77712">
        <ele>177</ele>
        <time>2018-09-23T08:47:49Z</time>
      </trkpt>
      <trkpt lat="45.91422" lon="4.77715">
        <ele>177</ele>
        <time>2018-09-23T08:47:50Z</time>
      </trkpt>
      <trkpt lat="45.91417" lon="4.77717">
        <ele>177</ele>
        <time>2018-09-23T08:47:51Z</time>
      </trkpt>
      <trkpt lat="45.91412" lon="4.77717">
        <ele>177</ele>
        <time>2018-09-23T08:47:52Z</time>
      </trkpt>
      <trkpt lat="45.91407" lon="4.77717">
        <ele>177</ele>
        <time>2018-09-23T08:47:53Z</time>
      </trkpt>
      <trkpt lat="45.91401" lon="4.77718">
        <ele>177</ele>
        <time>2018-09-23T08:47:54Z</time>
      </trkpt>
      <trkpt lat="45.91395" lon="4.77718">
        <ele>177</ele>
        <time>2018-09-23T08:47:55Z</time>
      </trkpt>
      <trkpt lat="45.91389" lon="4.77718">
        <ele>177</ele>
        <time>2018-09-23T08:47:56Z</time>
      </trkpt>
      <trkpt lat="45.91384" lon="4.77718">
        <ele>176</ele>
        <time>2018-09-23T08:47:57Z</time>
      </trkpt>
      <trkpt lat="45.91379" lon="4.77719">
        <ele>176</ele>
        <time>2018-09-23T08:47:58Z</time>
      </trkpt>
      <trkpt lat="45.91373" lon="4.77719">
        <ele>176</ele>
        <time>2018-09-23T08:47:59Z</time>
      </trkpt>
      <trkpt lat="45.91367" lon="4.7772">
        <ele>176</ele>
        <time>2018-09-23T08:48:00Z</time>
      </trkpt>
      <trkpt lat="45.91361" lon="4.77719">
        <ele>176</ele>
        <time>2018-09-23T08:48:01Z</time>
      </trkpt>
      <trkpt lat="45.91356" lon="4.77721">
        <ele>176</ele>
        <time>2018-09-23T08:48:02Z</time>
      </trkpt>
      <trkpt lat="45.91352" lon="4.77719">
        <ele>176</ele>
        <time>2018-09-23T08:48:03Z</time>
      </trkpt>
      <trkpt lat="45.91347" lon="4.77718">
        <ele>176</ele>
        <time>2018-09-23T08:48:04Z</time>
      </trkpt>
      <trkpt lat="45.91344" lon="4.77717">
        <ele>176</ele>
        <time>2018-09-23T08:48:05Z</time>
      </trkpt>
      <trkpt lat="45.91338" lon="4.77716">
        <ele>176</ele>
        <time>2018-09-23T08:48:06Z</time>
      </trkpt>
      <trkpt lat="45.91334" lon="4.77716">
        <ele>176</ele>
        <time>2018-09-23T08:48:07Z</time>
      </trkpt>
      <trkpt lat="45.91328" lon="4.77715">
        <ele>176</ele>
        <time>2018-09-23T08:48:08Z</time>
      </trkpt>
      <trkpt lat="45.91323" lon="4.77715">
        <ele>176</ele>
        <time>2018-09-23T08:48:09Z</time>
      </trkpt>
      <trkpt lat="45.91317" lon="4.77714">
        <ele>176</ele>
        <time>2018-09-23T08:48:10Z</time>
      </trkpt>
      <trkpt lat="45.91312" lon="4.77712">
        <ele>176</ele>
        <time>2018-09-23T08:48:11Z</time>
      </trkpt>
      <trkpt lat="45.91306" lon="4.77709">
        <ele>176</ele>
        <time>2018-09-23T08:48:12Z</time>
      </trkpt>
      <trkpt lat="45.91301" lon="4.77707">
        <ele>176</ele>
        <time>2018-09-23T08:48:13Z</time>
      </trkpt>
      <trkpt lat="45.91298" lon="4.77704">
        <ele>176</ele>
        <time>2018-09-23T08:48:14Z</time>
      </trkpt>
      <trkpt lat="45.91293" lon="4.777">
        <ele>176</ele>
        <time>2018-09-23T08:48:15Z</time>
      </trkpt>
      <trkpt lat="45.91287" lon="4.77698">
        <ele>176</ele>
        <time>2018-09-23T08:48:16Z</time>
      </trkpt>
      <trkpt lat="45.91283" lon="4.77694">
        <ele>176</ele>
        <time>2018-09-23T08:48:17Z</time>
      </trkpt>
      <trkpt lat="45.91277" lon="4.77689">
        <ele>176</ele>
        <time>2018-09-23T08:48:18Z</time>
      </trkpt>
      <trkpt lat="45.91272" lon="4.77686">
        <ele>176</ele>
        <time>2018-09-23T08:48:19Z</time>
      </trkpt>
      <trkpt lat="45.91267" lon="4.77683">
        <ele>176</ele>
        <time>2018-09-23T08:48:20Z</time>
      </trkpt>
      <trkpt lat="45.91261" lon="4.7768">
        <ele>176</ele>
        <time>2018-09-23T08:48:21Z</time>
      </trkpt>
      <trkpt lat="45.91256" lon="4.7768">
        <ele>175</ele>
        <time>2018-09-23T08:48:22Z</time>
      </trkpt>
      <trkpt lat="45.91247" lon="4.77679">
        <ele>176</ele>
        <time>2018-09-23T08:48:24Z</time>
      </trkpt>
      <trkpt lat="45.91243" lon="4.7768">
        <ele>176</ele>
        <time>2018-09-23T08:48:25Z</time>
      </trkpt>
      <trkpt lat="45.91238" lon="4.7768">
        <ele>176</ele>
        <time>2018-09-23T08:48:26Z</time>
      </trkpt>
      <trkpt lat="45.91232" lon="4.77681">
        <ele>176</ele>
        <time>2018-09-23T08:48:27Z</time>
      </trkpt>
      <trkpt lat="45.91228" lon="4.77683">
        <ele>176</ele>
        <time>2018-09-23T08:48:28Z</time>
      </trkpt>
      <trkpt lat="45.91223" lon="4.77684">
        <ele>176</ele>
        <time>2018-09-23T08:48:29Z</time>
      </trkpt>
      <trkpt lat="45.91218" lon="4.77686">
        <ele>176</ele>
        <time>2018-09-23T08:48:30Z</time>
      </trkpt>
      <trkpt lat="45.91213" lon="4.77689">
        <ele>176</ele>
        <time>2018-09-23T08:48:31Z</time>
      </trkpt>
      <trkpt lat="45.91207" lon="4.7769">
        <ele>176</ele>
        <time>2018-09-23T08:48:32Z</time>
      </trkpt>
      <trkpt lat="45.91201" lon="4.77693">
        <ele>176</ele>
        <time>2018-09-23T08:48:33Z</time>
      </trkpt>
      <trkpt lat="45.91196" lon="4.77695">
        <ele>176</ele>
        <time>2018-09-23T08:48:34Z</time>
      </trkpt>
      <trkpt lat="45.91191" lon="4.77696">
        <ele>176</ele>
        <time>2018-09-23T08:48:35Z</time>
      </trkpt>
      <trkpt lat="45.91186" lon="4.77698">
        <ele>176</ele>
        <time>2018-09-23T08:48:36Z</time>
      </trkpt>
      <trkpt lat="45.91182" lon="4.77699">
        <ele>176</ele>
        <time>2018-09-23T08:48:37Z</time>
      </trkpt>
      <trkpt lat="45.91174" lon="4.777">
        <ele>176</ele>
        <time>2018-09-23T08:48:39Z</time>
      </trkpt>
      <trkpt lat="45.9117" lon="4.77701">
        <ele>176</ele>
        <time>2018-09-23T08:48:40Z</time>
      </trkpt>
      <trkpt lat="45.91162" lon="4.77705">
        <ele>177</ele>
        <time>2018-09-23T08:48:42Z</time>
      </trkpt>
      <trkpt lat="45.91157" lon="4.77708">
        <ele>177</ele>
        <time>2018-09-23T08:48:43Z</time>
      </trkpt>
      <trkpt lat="45.91154" lon="4.77711">
        <ele>177</ele>
        <time>2018-09-23T08:48:44Z</time>
      </trkpt>
      <trkpt lat="45.91149" lon="4.77713">
        <ele>177</ele>
        <time>2018-09-23T08:48:45Z</time>
      </trkpt>
      <trkpt lat="45.91144" lon="4.77716">
        <ele>177</ele>
        <time>2018-09-23T08:48:46Z</time>
      </trkpt>
      <trkpt lat="45.91139" lon="4.77717">
        <ele>177</ele>
        <time>2018-09-23T08:48:47Z</time>
      </trkpt>
      <trkpt lat="45.91134" lon="4.77719">
        <ele>177</ele>
        <time>2018-09-23T08:48:48Z</time>
      </trkpt>
      <trkpt lat="45.9113" lon="4.77721">
        <ele>177</ele>
        <time>2018-09-23T08:48:49Z</time>
      </trkpt>
      <trkpt lat="45.91125" lon="4.77724">
        <ele>177</ele>
        <time>2018-09-23T08:48:50Z</time>
      </trkpt>
      <trkpt lat="45.9112" lon="4.77726">
        <ele>178</ele>
        <time>2018-09-23T08:48:51Z</time>
      </trkpt>
      <trkpt lat="45.91112" lon="4.7773">
        <ele>178</ele>
        <time>2018-09-23T08:48:53Z</time>
      </trkpt>
      <trkpt lat="45.91108" lon="4.77733">
        <ele>178</ele>
        <time>2018-09-23T08:48:54Z</time>
      </trkpt>
      <trkpt lat="45.91101" lon="4.77738">
        <ele>178</ele>
        <time>2018-09-23T08:48:56Z</time>
      </trkpt>
      <trkpt lat="45.91096" lon="4.77739">
        <ele>178</ele>
        <time>2018-09-23T08:48:57Z</time>
      </trkpt>
      <trkpt lat="45.91088" lon="4.77745">
        <ele>179</ele>
        <time>2018-09-23T08:48:59Z</time>
      </trkpt>
      <trkpt lat="45.91084" lon="4.77748">
        <ele>179</ele>
        <time>2018-09-23T08:49:00Z</time>
      </trkpt>
      <trkpt lat="45.9108" lon="4.77752">
        <ele>179</ele>
        <time>2018-09-23T08:49:01Z</time>
      </trkpt>
      <trkpt lat="45.91075" lon="4.77754">
        <ele>179</ele>
        <time>2018-09-23T08:49:02Z</time>
      </trkpt>
      <trkpt lat="45.9107" lon="4.77758">
        <ele>179</ele>
        <time>2018-09-23T08:49:03Z</time>
      </trkpt>
      <trkpt lat="45.91066" lon="4.77761">
        <ele>178</ele>
        <time>2018-09-23T08:49:04Z</time>
      </trkpt>
      <trkpt lat="45.9106" lon="4.77763">
        <ele>178</ele>
        <time>2018-09-23T08:49:05Z</time>
      </trkpt>
      <trkpt lat="45.91055" lon="4.77765">
        <ele>178</ele>
        <time>2018-09-23T08:49:06Z</time>
      </trkpt>
      <trkpt lat="45.9105" lon="4.77767">
        <ele>178</ele>
        <time>2018-09-23T08:49:07Z</time>
      </trkpt>
      <trkpt lat="45.91045" lon="4.77768">
        <ele>178</ele>
        <time>2018-09-23T08:49:08Z</time>
      </trkpt>
      <trkpt lat="45.91041" lon="4.77771">
        <ele>178</ele>
        <time>2018-09-23T08:49:09Z</time>
      </trkpt>
      <trkpt lat="45.91036" lon="4.77772">
        <ele>178</ele>
        <time>2018-09-23T08:49:10Z</time>
      </trkpt>
      <trkpt lat="45.91032" lon="4.77774">
        <ele>178</ele>
        <time>2018-09-23T08:49:11Z</time>
      </trkpt>
      <trkpt lat="45.91027" lon="4.77774">
        <ele>178</ele>
        <time>2018-09-23T08:49:12Z</time>
      </trkpt>
      <trkpt lat="45.91018" lon="4.77777">
        <ele>178</ele>
        <time>2018-09-23T08:49:14Z</time>
      </trkpt>
      <trkpt lat="45.91013" lon="4.77778">
        <ele>178</ele>
        <time>2018-09-23T08:49:15Z</time>
      </trkpt>
      <trkpt lat="45.91009" lon="4.77779">
        <ele>178</ele>
        <time>2018-09-23T08:49:16Z</time>
      </trkpt>
      <trkpt lat="45.91004" lon="4.7778">
        <ele>178</ele>
        <time>2018-09-23T08:49:17Z</time>
      </trkpt>
      <trkpt lat="45.91" lon="4.77781">
        <ele>177</ele>
        <time>2018-09-23T08:49:18Z</time>
      </trkpt>
      <trkpt lat="45.90995" lon="4.77781">
        <ele>177</ele>
        <time>2018-09-23T08:49:19Z</time>
      </trkpt>
      <trkpt lat="45.9099" lon="4.77781">
        <ele>177</ele>
        <time>2018-09-23T08:49:20Z</time>
      </trkpt>
      <trkpt lat="45.90983" lon="4.77782">
        <ele>177</ele>
        <time>2018-09-23T08:49:21Z</time>
      </trkpt>
      <trkpt lat="45.90976" lon="4.77782">
        <ele>177</ele>
        <time>2018-09-23T08:49:23Z</time>
      </trkpt>
      <trkpt lat="45.9097" lon="4.77783">
        <ele>177</ele>
        <time>2018-09-23T08:49:24Z</time>
      </trkpt>
      <trkpt lat="45.90964" lon="4.77783">
        <ele>177</ele>
        <time>2018-09-23T08:49:25Z</time>
      </trkpt>
      <trkpt lat="45.9096" lon="4.77781">
        <ele>177</ele>
        <time>2018-09-23T08:49:26Z</time>
      </trkpt>
      <trkpt lat="45.90953" lon="4.77777">
        <ele>177</ele>
        <time>2018-09-23T08:49:28Z</time>
      </trkpt>
      <trkpt lat="45.9095" lon="4.77774">
        <ele>177</ele>
        <time>2018-09-23T08:49:29Z</time>
      </trkpt>
      <trkpt lat="45.90942" lon="4.7777">
        <ele>177</ele>
        <time>2018-09-23T08:49:32Z</time>
      </trkpt>
      <trkpt lat="45.90937" lon="4.77773">
        <ele>177</ele>
        <time>2018-09-23T08:49:33Z</time>
      </trkpt>
      <trkpt lat="45.90933" lon="4.77769">
        <ele>177</ele>
        <time>2018-09-23T08:49:34Z</time>
      </trkpt>
      <trkpt lat="45.90928" lon="4.77767">
        <ele>177</ele>
        <time>2018-09-23T08:49:35Z</time>
      </trkpt>
      <trkpt lat="45.90922" lon="4.77759">
        <ele>176</ele>
        <time>2018-09-23T08:49:37Z</time>
      </trkpt>
      <trkpt lat="45.9092" lon="4.77755">
        <ele>176</ele>
        <time>2018-09-23T08:49:38Z</time>
      </trkpt>
      <trkpt lat="45.90915" lon="4.77748">
        <ele>176</ele>
        <time>2018-09-23T08:49:40Z</time>
      </trkpt>
      <trkpt lat="45.90912" lon="4.77744">
        <ele>176</ele>
        <time>2018-09-23T08:49:41Z</time>
      </trkpt>
      <trkpt lat="45.90908" lon="4.7774">
        <ele>177</ele>
        <time>2018-09-23T08:49:42Z</time>
      </trkpt>
      <trkpt lat="45.90904" lon="4.77736">
        <ele>177</ele>
        <time>2018-09-23T08:49:43Z</time>
      </trkpt>
      <trkpt lat="45.90897" lon="4.77732">
        <ele>177</ele>
        <time>2018-09-23T08:49:44Z</time>
      </trkpt>
      <trkpt lat="45.90894" lon="4.77727">
        <ele>177</ele>
        <time>2018-09-23T08:49:45Z</time>
      </trkpt>
      <trkpt lat="45.9089" lon="4.77722">
        <ele>177</ele>
        <time>2018-09-23T08:49:47Z</time>
      </trkpt>
      <trkpt lat="45.90886" lon="4.77717">
        <ele>177</ele>
        <time>2018-09-23T08:49:48Z</time>
      </trkpt>
      <trkpt lat="45.9088" lon="4.7771">
        <ele>177</ele>
        <time>2018-09-23T08:49:50Z</time>
      </trkpt>
      <trkpt lat="45.90879" lon="4.77707">
        <ele>177</ele>
        <time>2018-09-23T08:49:51Z</time>
      </trkpt>
      <trkpt lat="45.90873" lon="4.777">
        <ele>178</ele>
        <time>2018-09-23T08:49:54Z</time>
      </trkpt>
      <trkpt lat="45.9087" lon="4.77698">
        <ele>178</ele>
        <time>2018-09-23T08:49:55Z</time>
      </trkpt>
      <trkpt lat="45.90865" lon="4.77694">
        <ele>178</ele>
        <time>2018-09-23T08:49:57Z</time>
      </trkpt>
      <trkpt lat="45.90862" lon="4.77692">
        <ele>178</ele>
        <time>2018-09-23T08:49:58Z</time>
      </trkpt>
      <trkpt lat="45.90854" lon="4.77686">
        <ele>178</ele>
        <time>2018-09-23T08:50:01Z</time>
      </trkpt>
      <trkpt lat="45.90852" lon="4.77684">
        <ele>178</ele>
        <time>2018-09-23T08:50:02Z</time>
      </trkpt>
      <trkpt lat="45.90846" lon="4.77679">
        <ele>178</ele>
        <time>2018-09-23T08:50:04Z</time>
      </trkpt>
      <trkpt lat="45.90836" lon="4.77674">
        <ele>179</ele>
        <time>2018-09-23T08:50:05Z</time>
      </trkpt>
      <trkpt lat="45.9083" lon="4.77672">
        <ele>179</ele>
        <time>2018-09-23T08:50:08Z</time>
      </trkpt>
      <trkpt lat="45.90827" lon="4.77671">
        <ele>179</ele>
        <time>2018-09-23T08:50:09Z</time>
      </trkpt>
      <trkpt lat="45.90821" lon="4.77669">
        <ele>179</ele>
        <time>2018-09-23T08:50:11Z</time>
      </trkpt>
      <trkpt lat="45.90818" lon="4.77668">
        <ele>179</ele>
        <time>2018-09-23T08:50:12Z</time>
      </trkpt>
      <trkpt lat="45.90809" lon="4.77666">
        <ele>179</ele>
        <time>2018-09-23T08:50:13Z</time>
      </trkpt>
      <trkpt lat="45.90805" lon="4.77664">
        <ele>179</ele>
        <time>2018-09-23T08:50:14Z</time>
      </trkpt>
      <trkpt lat="45.90797" lon="4.77663">
        <ele>179</ele>
        <time>2018-09-23T08:50:16Z</time>
      </trkpt>
      <trkpt lat="45.90793" lon="4.77662">
        <ele>179</ele>
        <time>2018-09-23T08:50:17Z</time>
      </trkpt>
      <trkpt lat="45.90784" lon="4.7766">
        <ele>179</ele>
        <time>2018-09-23T08:50:19Z</time>
      </trkpt>
      <trkpt lat="45.90781" lon="4.77659">
        <ele>180</ele>
        <time>2018-09-23T08:50:20Z</time>
      </trkpt>
      <trkpt lat="45.90773" lon="4.77657">
        <ele>180</ele>
        <time>2018-09-23T08:50:22Z</time>
      </trkpt>
      <trkpt lat="45.9077" lon="4.77657">
        <ele>180</ele>
        <time>2018-09-23T08:50:23Z</time>
      </trkpt>
      <trkpt lat="45.90761" lon="4.77655">
        <ele>180</ele>
        <time>2018-09-23T08:50:25Z</time>
      </trkpt>
      <trkpt lat="45.9076" lon="4.77653">
        <ele>180</ele>
        <time>2018-09-23T08:50:26Z</time>
      </trkpt>
      <trkpt lat="45.90755" lon="4.77649">
        <ele>180</ele>
        <time>2018-09-23T08:50:27Z</time>
      </trkpt>
      <trkpt lat="45.90751" lon="4.77647">
        <ele>180</ele>
        <time>2018-09-23T08:50:28Z</time>
      </trkpt>
      <trkpt lat="45.90747" lon="4.77645">
        <ele>180</ele>
        <time>2018-09-23T08:50:29Z</time>
      </trkpt>
      <trkpt lat="45.90742" lon="4.77644">
        <ele>180</ele>
        <time>2018-09-23T08:50:30Z</time>
      </trkpt>
      <trkpt lat="45.90737" lon="4.77644">
        <ele>180</ele>
        <time>2018-09-23T08:50:31Z</time>
      </trkpt>
      <trkpt lat="45.90733" lon="4.77644">
        <ele>180</ele>
        <time>2018-09-23T08:50:32Z</time>
      </trkpt>
      <trkpt lat="45.90728" lon="4.77643">
        <ele>180</ele>
        <time>2018-09-23T08:50:33Z</time>
      </trkpt>
      <trkpt lat="45.90723" lon="4.77642">
        <ele>180</ele>
        <time>2018-09-23T08:50:34Z</time>
      </trkpt>
      <trkpt lat="45.90718" lon="4.77641">
        <ele>180</ele>
        <time>2018-09-23T08:50:35Z</time>
      </trkpt>
      <trkpt lat="45.90712" lon="4.77639">
        <ele>179</ele>
        <time>2018-09-23T08:50:36Z</time>
      </trkpt>
      <trkpt lat="45.90708" lon="4.77637">
        <ele>179</ele>
        <time>2018-09-23T08:50:37Z</time>
      </trkpt>
      <trkpt lat="45.90701" lon="4.77634">
        <ele>179</ele>
        <time>2018-09-23T08:50:38Z</time>
      </trkpt>
      <trkpt lat="45.90696" lon="4.77633">
        <ele>179</ele>
        <time>2018-09-23T08:50:39Z</time>
      </trkpt>
      <trkpt lat="45.90689" lon="4.77631">
        <ele>179</ele>
        <time>2018-09-23T08:50:40Z</time>
      </trkpt>
      <trkpt lat="45.90684" lon="4.7763">
        <ele>179</ele>
        <time>2018-09-23T08:50:41Z</time>
      </trkpt>
      <trkpt lat="45.90678" lon="4.77628">
        <ele>179</ele>
        <time>2018-09-23T08:50:42Z</time>
      </trkpt>
      <trkpt lat="45.90672" lon="4.77626">
        <ele>179</ele>
        <time>2018-09-23T08:50:43Z</time>
      </trkpt>
      <trkpt lat="45.90666" lon="4.77625">
        <ele>179</ele>
        <time>2018-09-23T08:50:44Z</time>
      </trkpt>
      <trkpt lat="45.9066" lon="4.77624">
        <ele>179</ele>
        <time>2018-09-23T08:50:45Z</time>
      </trkpt>
      <trkpt lat="45.90655" lon="4.77623">
        <ele>179</ele>
        <time>2018-09-23T08:50:46Z</time>
      </trkpt>
      <trkpt lat="45.90648" lon="4.77622">
        <ele>179</ele>
        <time>2018-09-23T08:50:47Z</time>
      </trkpt>
      <trkpt lat="45.90642" lon="4.77621">
        <ele>179</ele>
        <time>2018-09-23T08:50:48Z</time>
      </trkpt>
      <trkpt lat="45.90635" lon="4.77621">
        <ele>179</ele>
        <time>2018-09-23T08:50:49Z</time>
      </trkpt>
      <trkpt lat="45.9063" lon="4.77621">
        <ele>179</ele>
        <time>2018-09-23T08:50:50Z</time>
      </trkpt>
      <trkpt lat="45.90623" lon="4.77622">
        <ele>179</ele>
        <time>2018-09-23T08:50:52Z</time>
      </trkpt>
      <trkpt lat="45.90617" lon="4.77622">
        <ele>179</ele>
        <time>2018-09-23T08:50:53Z</time>
      </trkpt>
      <trkpt lat="45.90609" lon="4.77626">
        <ele>179</ele>
        <time>2018-09-23T08:50:59Z</time>
      </trkpt>
      <trkpt lat="45.90608" lon="4.77626">
        <ele>179</ele>
        <time>2018-09-23T08:51:00Z</time>
      </trkpt>
      <trkpt lat="45.90606" lon="4.77627">
        <ele>179</ele>
        <time>2018-09-23T08:51:09Z</time>
      </trkpt>
      <trkpt lat="45.90606" lon="4.77627">
        <ele>179</ele>
        <time>2018-09-23T08:51:10Z</time>
      </trkpt>
      <trkpt lat="45.90605" lon="4.77628">
        <ele>179</ele>
        <time>2018-09-23T08:51:11Z</time>
      </trkpt>
      <trkpt lat="45.90605" lon="4.77628">
        <ele>179</ele>
        <time>2018-09-23T08:51:12Z</time>
      </trkpt>
      <trkpt lat="45.90604" lon="4.77628">
        <ele>179</ele>
        <time>2018-09-23T08:51:13Z</time>
      </trkpt>
      <trkpt lat="45.90604" lon="4.77628">
        <ele>179</ele>
        <time>2018-09-23T08:51:14Z</time>
      </trkpt>
      <trkpt lat="45.90603" lon="4.77628">
        <ele>179</ele>
        <time>2018-09-23T08:51:15Z</time>
      </trkpt>
      <trkpt lat="45.90604" lon="4.77627">
        <ele>179</ele>
        <time>2018-09-23T08:51:28Z</time>
      </trkpt>
      <trkpt lat="45.90604" lon="4.77627">
        <ele>179</ele>
        <time>2018-09-23T08:51:29Z</time>
      </trkpt>
      <trkpt lat="45.90604" lon="4.77628">
        <ele>179</ele>
        <time>2018-09-23T08:51:34Z</time>
      </trkpt>
      <trkpt lat="45.90604" lon="4.77628">
        <ele>179</ele>
        <time>2018-09-23T08:51:35Z</time>
      </trkpt>
      <trkpt lat="45.90604" lon="4.77628">
        <ele>179</ele>
        <time>2018-09-23T08:51:36Z</time>
      </trkpt>
      <trkpt lat="45.90607" lon="4.77632">
        <ele>179</ele>
        <time>2018-09-23T09:06:15Z</time>
      </trkpt>
      <trkpt lat="45.90607" lon="4.77632">
        <ele>179</ele>
        <time>2018-09-23T09:06:16Z</time>
      </trkpt>
      <trkpt lat="45.90607" lon="4.77631">
        <ele>179</ele>
        <time>2018-09-23T09:06:19Z</time>
      </trkpt>
      <trkpt lat="45.90607" lon="4.77631">
        <ele>179</ele>
        <time>2018-09-23T09:06:20Z</time>
      </trkpt>
      <trkpt lat="45.90607" lon="4.77631">
        <ele>179</ele>
        <time>2018-09-23T09:06:23Z</time>
      </trkpt>
      <trkpt lat="45.90606" lon="4.7763">
        <ele>179</ele>
        <time>2018-09-23T09:06:24Z</time>
      </trkpt>
      <trkpt lat="45.90601" lon="4.77632">
        <ele>179</ele>
        <time>2018-09-23T09:21:14Z</time>
      </trkpt>
      <trkpt lat="45.90601" lon="4.77631">
        <ele>179</ele>
        <time>2018-09-23T09:21:15Z</time>
      </trkpt>
      <trkpt lat="45.90602" lon="4.77629">
        <ele>179</ele>
        <time>2018-09-23T09:22:24Z</time>
      </trkpt>
      <trkpt lat="45.90602" lon="4.77629">
        <ele>179</ele>
        <time>2018-09-23T09:22:25Z</time>
      </trkpt>
      <trkpt lat="45.90594" lon="4.77632">
        <ele>179</ele>
        <time>2018-09-23T09:24:06Z</time>
      </trkpt>
      <trkpt lat="45.90592" lon="4.77633">
        <ele>179</ele>
        <time>2018-09-23T09:24:07Z</time>
      </trkpt>
      <trkpt lat="45.90585" lon="4.77633">
        <ele>179</ele>
        <time>2018-09-23T09:24:08Z</time>
      </trkpt>
      <trkpt lat="45.90583" lon="4.77633">
        <ele>178</ele>
        <time>2018-09-23T09:24:09Z</time>
      </trkpt>
      <trkpt lat="45.90574" lon="4.77634">
        <ele>178</ele>
        <time>2018-09-23T09:24:11Z</time>
      </trkpt>
      <trkpt lat="45.9057" lon="4.77634">
        <ele>178</ele>
        <time>2018-09-23T09:24:12Z</time>
      </trkpt>
      <trkpt lat="45.90563" lon="4.77635">
        <ele>178</ele>
        <time>2018-09-23T09:24:15Z</time>
      </trkpt>
      <trkpt lat="45.90556" lon="4.77635">
        <ele>178</ele>
        <time>2018-09-23T09:24:16Z</time>
      </trkpt>
      <trkpt lat="45.90549" lon="4.77635">
        <ele>178</ele>
        <time>2018-09-23T09:24:19Z</time>
      </trkpt>
      <trkpt lat="45.90541" lon="4.77636">
        <ele>178</ele>
        <time>2018-09-23T09:24:20Z</time>
      </trkpt>
      <trkpt lat="45.90533" lon="4.77638">
        <ele>178</ele>
        <time>2018-09-23T09:24:22Z</time>
      </trkpt>
      <trkpt lat="45.90529" lon="4.77639">
        <ele>178</ele>
        <time>2018-09-23T09:24:23Z</time>
      </trkpt>
      <trkpt lat="45.90525" lon="4.7764">
        <ele>178</ele>
        <time>2018-09-23T09:24:24Z</time>
      </trkpt>
      <trkpt lat="45.9052" lon="4.77641">
        <ele>178</ele>
        <time>2018-09-23T09:24:25Z</time>
      </trkpt>
      <trkpt lat="45.90515" lon="4.77642">
        <ele>178</ele>
        <time>2018-09-23T09:24:26Z</time>
      </trkpt>
      <trkpt lat="45.9051" lon="4.77643">
        <ele>178</ele>
        <time>2018-09-23T09:24:27Z</time>
      </trkpt>
      <trkpt lat="45.90502" lon="4.77645">
        <ele>178</ele>
        <time>2018-09-23T09:24:29Z</time>
      </trkpt>
      <trkpt lat="45.90498" lon="4.77644">
        <ele>179</ele>
        <time>2018-09-23T09:24:30Z</time>
      </trkpt>
      <trkpt lat="45.9049" lon="4.77644">
        <ele>179</ele>
        <time>2018-09-23T09:24:32Z</time>
      </trkpt>
      <trkpt lat="45.90488" lon="4.77644">
        <ele>179</ele>
        <time>2018-09-23T09:24:33Z</time>
      </trkpt>
      <trkpt lat="45.90481" lon="4.77645">
        <ele>179</ele>
        <time>2018-09-23T09:24:35Z</time>
      </trkpt>
      <trkpt lat="45.90479" lon="4.77646">
        <ele>179</ele>
        <time>2018-09-23T09:24:36Z</time>
      </trkpt>
      <trkpt lat="45.90476" lon="4.77647">
        <ele>179</ele>
        <time>2018-09-23T09:24:37Z</time>
      </trkpt>
      <trkpt lat="45.90469" lon="4.77649">
        <ele>179</ele>
        <time>2018-09-23T09:24:38Z</time>
      </trkpt>
      <trkpt lat="45.90461" lon="4.7765">
        <ele>179</ele>
        <time>2018-09-23T09:24:40Z</time>
      </trkpt>
      <trkpt lat="45.90457" lon="4.77651">
        <ele>179</ele>
        <time>2018-09-23T09:24:41Z</time>
      </trkpt>
      <trkpt lat="45.90448" lon="4.77652">
        <ele>179</ele>
        <time>2018-09-23T09:24:43Z</time>
      </trkpt>
      <trkpt lat="45.90444" lon="4.77653">
        <ele>179</ele>
        <time>2018-09-23T09:24:44Z</time>
      </trkpt>
      <trkpt lat="45.90439" lon="4.77653">
        <ele>180</ele>
        <time>2018-09-23T09:24:45Z</time>
      </trkpt>
      <trkpt lat="45.90433" lon="4.77657">
        <ele>180</ele>
        <time>2018-09-23T09:24:46Z</time>
      </trkpt>
      <trkpt lat="45.90428" lon="4.77658">
        <ele>180</ele>
        <time>2018-09-23T09:24:47Z</time>
      </trkpt>
      <trkpt lat="45.90423" lon="4.77659">
        <ele>180</ele>
        <time>2018-09-23T09:24:48Z</time>
      </trkpt>
      <trkpt lat="45.90415" lon="4.77658">
        <ele>181</ele>
        <time>2018-09-23T09:24:50Z</time>
      </trkpt>
      <trkpt lat="45.90411" lon="4.77661">
        <ele>181</ele>
        <time>2018-09-23T09:24:51Z</time>
      </trkpt>
      <trkpt lat="45.90406" lon="4.77661">
        <ele>181</ele>
        <time>2018-09-23T09:24:52Z</time>
      </trkpt>
      <trkpt lat="45.90402" lon="4.77661">
        <ele>181</ele>
        <time>2018-09-23T09:24:53Z</time>
      </trkpt>
      <trkpt lat="45.90394" lon="4.77663">
        <ele>181</ele>
        <time>2018-09-23T09:24:55Z</time>
      </trkpt>
      <trkpt lat="45.90389" lon="4.77663">
        <ele>181</ele>
        <time>2018-09-23T09:24:56Z</time>
      </trkpt>
      <trkpt lat="45.9038" lon="4.77663">
        <ele>181</ele>
        <time>2018-09-23T09:24:58Z</time>
      </trkpt>
      <trkpt lat="45.90376" lon="4.77664">
        <ele>181</ele>
        <time>2018-09-23T09:24:59Z</time>
      </trkpt>
      <trkpt lat="45.90368" lon="4.77665">
        <ele>181</ele>
        <time>2018-09-23T09:25:01Z</time>
      </trkpt>
      <trkpt lat="45.90364" lon="4.77666">
        <ele>181</ele>
        <time>2018-09-23T09:25:02Z</time>
      </trkpt>
      <trkpt lat="45.90356" lon="4.77667">
        <ele>181</ele>
        <time>2018-09-23T09:25:04Z</time>
      </trkpt>
      <trkpt lat="45.90351" lon="4.77667">
        <ele>182</ele>
        <time>2018-09-23T09:25:05Z</time>
      </trkpt>
      <trkpt lat="45.90343" lon="4.77669">
        <ele>182</ele>
        <time>2018-09-23T09:25:07Z</time>
      </trkpt>
      <trkpt lat="45.90339" lon="4.77669">
        <ele>182</ele>
        <time>2018-09-23T09:25:08Z</time>
      </trkpt>
      <trkpt lat="45.90331" lon="4.77669">
        <ele>182</ele>
        <time>2018-09-23T09:25:10Z</time>
      </trkpt>
      <trkpt lat="45.90326" lon="4.77669">
        <ele>182</ele>
        <time>2018-09-23T09:25:11Z</time>
      </trkpt>
      <trkpt lat="45.90321" lon="4.77669">
        <ele>182</ele>
        <time>2018-09-23T09:25:12Z</time>
      </trkpt>
      <trkpt lat="45.90317" lon="4.77671">
        <ele>182</ele>
        <time>2018-09-23T09:25:13Z</time>
      </trkpt>
      <trkpt lat="45.90312" lon="4.77671">
        <ele>182</ele>
        <time>2018-09-23T09:25:14Z</time>
      </trkpt>
      <trkpt lat="45.90307" lon="4.77671">
        <ele>182</ele>
        <time>2018-09-23T09:25:15Z</time>
      </trkpt>
      <trkpt lat="45.90303" lon="4.77671">
        <ele>182</ele>
        <time>2018-09-23T09:25:16Z</time>
      </trkpt>
      <trkpt lat="45.90298" lon="4.77672">
        <ele>182</ele>
        <time>2018-09-23T09:25:17Z</time>
      </trkpt>
      <trkpt lat="45.9029" lon="4.77673">
        <ele>182</ele>
        <time>2018-09-23T09:25:19Z</time>
      </trkpt>
      <trkpt lat="45.90285" lon="4.77674">
        <ele>182</ele>
        <time>2018-09-23T09:25:20Z</time>
      </trkpt>
      <trkpt lat="45.90277" lon="4.77673">
        <ele>182</ele>
        <time>2018-09-23T09:25:22Z</time>
      </trkpt>
      <trkpt lat="45.90273" lon="4.77673">
        <ele>182</ele>
        <time>2018-09-23T09:25:23Z</time>
      </trkpt>
      <trkpt lat="45.90264" lon="4.77674">
        <ele>182</ele>
        <time>2018-09-23T09:25:25Z</time>
      </trkpt>
      <trkpt lat="45.9026" lon="4.77674">
        <ele>182</ele>
        <time>2018-09-23T09:25:26Z</time>
      </trkpt>
      <trkpt lat="45.90252" lon="4.77675">
        <ele>182</ele>
        <time>2018-09-23T09:25:28Z</time>
      </trkpt>
      <trkpt lat="45.90247" lon="4.77675">
        <ele>183</ele>
        <time>2018-09-23T09:25:29Z</time>
      </trkpt>
      <trkpt lat="45.90242" lon="4.77675">
        <ele>183</ele>
        <time>2018-09-23T09:25:30Z</time>
      </trkpt>
      <trkpt lat="45.90238" lon="4.77675">
        <ele>183</ele>
        <time>2018-09-23T09:25:31Z</time>
      </trkpt>
      <trkpt lat="45.90233" lon="4.77675">
        <ele>183</ele>
        <time>2018-09-23T09:25:32Z</time>
      </trkpt>
      <trkpt lat="45.90228" lon="4.77675">
        <ele>184</ele>
        <time>2018-09-23T09:25:33Z</time>
      </trkpt>
      <trkpt lat="45.90224" lon="4.77674">
        <ele>184</ele>
        <time>2018-09-23T09:25:34Z</time>
      </trkpt>
      <trkpt lat="45.90219" lon="4.77675">
        <ele>184</ele>
        <time>2018-09-23T09:25:35Z</time>
      </trkpt>
      <trkpt lat="45.90211" lon="4.77675">
        <ele>184</ele>
        <time>2018-09-23T09:25:37Z</time>
      </trkpt>
      <trkpt lat="45.90207" lon="4.77676">
        <ele>184</ele>
        <time>2018-09-23T09:25:38Z</time>
      </trkpt>
      <trkpt lat="45.90202" lon="4.77677">
        <ele>184</ele>
        <time>2018-09-23T09:25:39Z</time>
      </trkpt>
      <trkpt lat="45.90197" lon="4.77676">
        <ele>184</ele>
        <time>2018-09-23T09:25:40Z</time>
      </trkpt>
      <trkpt lat="45.90189" lon="4.77674">
        <ele>185</ele>
        <time>2018-09-23T09:25:42Z</time>
      </trkpt>
      <trkpt lat="45.90184" lon="4.77674">
        <ele>185</ele>
        <time>2018-09-23T09:25:43Z</time>
      </trkpt>
      <trkpt lat="45.9018" lon="4.77674">
        <ele>185</ele>
        <time>2018-09-23T09:25:44Z</time>
      </trkpt>
      <trkpt lat="45.90175" lon="4.77675">
        <ele>185</ele>
        <time>2018-09-23T09:25:45Z</time>
      </trkpt>
      <trkpt lat="45.90166" lon="4.77673">
        <ele>185</ele>
        <time>2018-09-23T09:25:47Z</time>
      </trkpt>
      <trkpt lat="45.90162" lon="4.77672">
        <ele>185</ele>
        <time>2018-09-23T09:25:48Z</time>
      </trkpt>
      <trkpt lat="45.90157" lon="4.77672">
        <ele>185</ele>
        <time>2018-09-23T09:25:49Z</time>
      </trkpt>
      <trkpt lat="45.90151" lon="4.77673">
        <ele>185</ele>
        <time>2018-09-23T09:25:50Z</time>
      </trkpt>
      <trkpt lat="45.90146" lon="4.77673">
        <ele>185</ele>
        <time>2018-09-23T09:25:51Z</time>
      </trkpt>
      <trkpt lat="45.90141" lon="4.77673">
        <ele>185</ele>
        <time>2018-09-23T09:25:52Z</time>
      </trkpt>
      <trkpt lat="45.90136" lon="4.77674">
        <ele>185</ele>
        <time>2018-09-23T09:25:53Z</time>
      </trkpt>
      <trkpt lat="45.90131" lon="4.77673">
        <ele>185</ele>
        <time>2018-09-23T09:25:54Z</time>
      </trkpt>
      <trkpt lat="45.90123" lon="4.77674">
        <ele>184</ele>
        <time>2018-09-23T09:25:56Z</time>
      </trkpt>
      <trkpt lat="45.9012" lon="4.77676">
        <ele>184</ele>
        <time>2018-09-23T09:25:57Z</time>
      </trkpt>
      <trkpt lat="45.90112" lon="4.77675">
        <ele>184</ele>
        <time>2018-09-23T09:25:59Z</time>
      </trkpt>
      <trkpt lat="45.90107" lon="4.77675">
        <ele>184</ele>
        <time>2018-09-23T09:26:00Z</time>
      </trkpt>
      <trkpt lat="45.90103" lon="4.77675">
        <ele>184</ele>
        <time>2018-09-23T09:26:01Z</time>
      </trkpt>
      <trkpt lat="45.90098" lon="4.77675">
        <ele>184</ele>
        <time>2018-09-23T09:26:02Z</time>
      </trkpt>
      <trkpt lat="45.9009" lon="4.77672">
        <ele>183</ele>
        <time>2018-09-23T09:26:04Z</time>
      </trkpt>
      <trkpt lat="45.90085" lon="4.77672">
        <ele>183</ele>
        <time>2018-09-23T09:26:05Z</time>
      </trkpt>
      <trkpt lat="45.9008" lon="4.77672">
        <ele>183</ele>
        <time>2018-09-23T09:26:06Z</time>
      </trkpt>
      <trkpt lat="45.90075" lon="4.77671">
        <ele>184</ele>
        <time>2018-09-23T09:26:07Z</time>
      </trkpt>
      <trkpt lat="45.9007" lon="4.77671">
        <ele>184</ele>
        <time>2018-09-23T09:26:08Z</time>
      </trkpt>
      <trkpt lat="45.90064" lon="4.77669">
        <ele>184</ele>
        <time>2018-09-23T09:26:09Z</time>
      </trkpt>
      <trkpt lat="45.90059" lon="4.77668">
        <ele>184</ele>
        <time>2018-09-23T09:26:10Z</time>
      </trkpt>
      <trkpt lat="45.90054" lon="4.77668">
        <ele>184</ele>
        <time>2018-09-23T09:26:11Z</time>
      </trkpt>
      <trkpt lat="45.9005" lon="4.77669">
        <ele>184</ele>
        <time>2018-09-23T09:26:12Z</time>
      </trkpt>
      <trkpt lat="45.90045" lon="4.77669">
        <ele>185</ele>
        <time>2018-09-23T09:26:13Z</time>
      </trkpt>
      <trkpt lat="45.90038" lon="4.7767">
        <ele>185</ele>
        <time>2018-09-23T09:26:15Z</time>
      </trkpt>
      <trkpt lat="45.90033" lon="4.7767">
        <ele>185</ele>
        <time>2018-09-23T09:26:16Z</time>
      </trkpt>
      <trkpt lat="45.90024" lon="4.7767">
        <ele>185</ele>
        <time>2018-09-23T09:26:18Z</time>
      </trkpt>
      <trkpt lat="45.9002" lon="4.7767">
        <ele>185</ele>
        <time>2018-09-23T09:26:19Z</time>
      </trkpt>
      <trkpt lat="45.90013" lon="4.77668">
        <ele>185</ele>
        <time>2018-09-23T09:26:21Z</time>
      </trkpt>
      <trkpt lat="45.90009" lon="4.77668">
        <ele>186</ele>
        <time>2018-09-23T09:26:22Z</time>
      </trkpt>
      <trkpt lat="45.9" lon="4.77667">
        <ele>186</ele>
        <time>2018-09-23T09:26:24Z</time>
      </trkpt>
      <trkpt lat="45.89995" lon="4.77667">
        <ele>186</ele>
        <time>2018-09-23T09:26:25Z</time>
      </trkpt>
      <trkpt lat="45.89987" lon="4.77667">
        <ele>186</ele>
        <time>2018-09-23T09:26:27Z</time>
      </trkpt>
      <trkpt lat="45.89984" lon="4.77666">
        <ele>185</ele>
        <time>2018-09-23T09:26:28Z</time>
      </trkpt>
      <trkpt lat="45.89979" lon="4.77667">
        <ele>187</ele>
        <time>2018-09-23T09:26:29Z</time>
      </trkpt>
      <trkpt lat="45.89974" lon="4.77668">
        <ele>187</ele>
        <time>2018-09-23T09:26:30Z</time>
      </trkpt>
      <trkpt lat="45.89969" lon="4.77669">
        <ele>187</ele>
        <time>2018-09-23T09:26:31Z</time>
      </trkpt>
      <trkpt lat="45.89965" lon="4.77669">
        <ele>187</ele>
        <time>2018-09-23T09:26:32Z</time>
      </trkpt>
      <trkpt lat="45.89956" lon="4.77668">
        <ele>187</ele>
        <time>2018-09-23T09:26:34Z</time>
      </trkpt>
      <trkpt lat="45.89951" lon="4.77668">
        <ele>187</ele>
        <time>2018-09-23T09:26:35Z</time>
      </trkpt>
      <trkpt lat="45.89946" lon="4.77668">
        <ele>187</ele>
        <time>2018-09-23T09:26:36Z</time>
      </trkpt>
      <trkpt lat="45.8994" lon="4.77668">
        <ele>187</ele>
        <time>2018-09-23T09:26:37Z</time>
      </trkpt>
      <trkpt lat="45.89936" lon="4.77668">
        <ele>187</ele>
        <time>2018-09-23T09:26:38Z</time>
      </trkpt>
      <trkpt lat="45.89931" lon="4.77668">
        <ele>187</ele>
        <time>2018-09-23T09:26:39Z</time>
      </trkpt>
      <trkpt lat="45.89925" lon="4.77668">
        <ele>187</ele>
        <time>2018-09-23T09:26:40Z</time>
      </trkpt>
      <trkpt lat="45.89921" lon="4.77667">
        <ele>187</ele>
        <time>2018-09-23T09:26:41Z</time>
      </trkpt>
      <trkpt lat="45.89916" lon="4.77666">
        <ele>187</ele>
        <time>2018-09-23T09:26:42Z</time>
      </trkpt>
      <trkpt lat="45.89912" lon="4.77667">
        <ele>187</ele>
        <time>2018-09-23T09:26:43Z</time>
      </trkpt>
      <trkpt lat="45.89903" lon="4.77668">
        <ele>188</ele>
        <time>2018-09-23T09:26:45Z</time>
      </trkpt>
      <trkpt lat="45.89899" lon="4.77668">
        <ele>188</ele>
        <time>2018-09-23T09:26:46Z</time>
      </trkpt>
      <trkpt lat="45.89894" lon="4.77669">
        <ele>188</ele>
        <time>2018-09-23T09:26:47Z</time>
      </trkpt>
      <trkpt lat="45.8989" lon="4.77669">
        <ele>188</ele>
        <time>2018-09-23T09:26:48Z</time>
      </trkpt>
      <trkpt lat="45.89882" lon="4.77667">
        <ele>189</ele>
        <time>2018-09-23T09:26:50Z</time>
      </trkpt>
      <trkpt lat="45.89877" lon="4.77667">
        <ele>189</ele>
        <time>2018-09-23T09:26:51Z</time>
      </trkpt>
      <trkpt lat="45.89872" lon="4.77667">
        <ele>189</ele>
        <time>2018-09-23T09:26:52Z</time>
      </trkpt>
      <trkpt lat="45.89867" lon="4.77666">
        <ele>186</ele>
        <time>2018-09-23T09:26:53Z</time>
      </trkpt>
      <trkpt lat="45.89858" lon="4.77665">
        <ele>187</ele>
        <time>2018-09-23T09:26:55Z</time>
      </trkpt>
      <trkpt lat="45.89854" lon="4.77665">
        <ele>187</ele>
        <time>2018-09-23T09:26:56Z</time>
      </trkpt>
      <trkpt lat="45.89846" lon="4.77665">
        <ele>188</ele>
        <time>2018-09-23T09:26:58Z</time>
      </trkpt>
      <trkpt lat="45.89843" lon="4.77664">
        <ele>188</ele>
        <time>2018-09-23T09:26:59Z</time>
      </trkpt>
      <trkpt lat="45.89837" lon="4.77662">
        <ele>188</ele>
        <time>2018-09-23T09:27:02Z</time>
      </trkpt>
      <trkpt lat="45.8983" lon="4.77661">
        <ele>189</ele>
        <time>2018-09-23T09:27:03Z</time>
      </trkpt>
      <trkpt lat="45.89822" lon="4.77663">
        <ele>189</ele>
        <time>2018-09-23T09:27:06Z</time>
      </trkpt>
      <trkpt lat="45.89819" lon="4.77664">
        <ele>189</ele>
        <time>2018-09-23T09:27:07Z</time>
      </trkpt>
      <trkpt lat="45.89812" lon="4.77665">
        <ele>188</ele>
        <time>2018-09-23T09:27:10Z</time>
      </trkpt>
      <trkpt lat="45.8981" lon="4.77666">
        <ele>188</ele>
        <time>2018-09-23T09:27:11Z</time>
      </trkpt>
      <trkpt lat="45.89802" lon="4.77667">
        <ele>190</ele>
        <time>2018-09-23T09:27:14Z</time>
      </trkpt>
      <trkpt lat="45.898" lon="4.77667">
        <ele>190</ele>
        <time>2018-09-23T09:27:15Z</time>
      </trkpt>
      <trkpt lat="45.89791" lon="4.77667">
        <ele>191</ele>
        <time>2018-09-23T09:27:19Z</time>
      </trkpt>
      <trkpt lat="45.89789" lon="4.77667">
        <ele>191</ele>
        <time>2018-09-23T09:27:20Z</time>
      </trkpt>
      <trkpt lat="45.89781" lon="4.77666">
        <ele>189</ele>
        <time>2018-09-23T09:27:24Z</time>
      </trkpt>
      <trkpt lat="45.89779" lon="4.77665">
        <ele>189</ele>
        <time>2018-09-23T09:27:25Z</time>
      </trkpt>
      <trkpt lat="45.8977" lon="4.77664">
        <ele>190</ele>
        <time>2018-09-23T09:27:29Z</time>
      </trkpt>
      <trkpt lat="45.89768" lon="4.77664">
        <ele>190</ele>
        <time>2018-09-23T09:27:30Z</time>
      </trkpt>
      <trkpt lat="45.8976" lon="4.77662">
        <ele>191</ele>
        <time>2018-09-23T09:27:33Z</time>
      </trkpt>
      <trkpt lat="45.89752" lon="4.77659">
        <ele>191</ele>
        <time>2018-09-23T09:27:34Z</time>
      </trkpt>
      <trkpt lat="45.89744" lon="4.77657">
        <ele>191</ele>
        <time>2018-09-23T09:27:38Z</time>
      </trkpt>
      <trkpt lat="45.89741" lon="4.77657">
        <ele>191</ele>
        <time>2018-09-23T09:27:39Z</time>
      </trkpt>
      <trkpt lat="45.89732" lon="4.77656">
        <ele>191</ele>
        <time>2018-09-23T09:27:42Z</time>
      </trkpt>
      <trkpt lat="45.89723" lon="4.77655">
        <ele>190</ele>
        <time>2018-09-23T09:27:43Z</time>
      </trkpt>
      <trkpt lat="45.89718" lon="4.77654">
        <ele>190</ele>
        <time>2018-09-23T09:27:44Z</time>
      </trkpt>
      <trkpt lat="45.89714" lon="4.77653">
        <ele>190</ele>
        <time>2018-09-23T09:27:45Z</time>
      </trkpt>
      <trkpt lat="45.89705" lon="4.77651">
        <ele>190</ele>
        <time>2018-09-23T09:27:47Z</time>
      </trkpt>
      <trkpt lat="45.89699" lon="4.77651">
        <ele>190</ele>
        <time>2018-09-23T09:27:48Z</time>
      </trkpt>
      <trkpt lat="45.89694" lon="4.7765">
        <ele>190</ele>
        <time>2018-09-23T09:27:49Z</time>
      </trkpt>
      <trkpt lat="45.8969" lon="4.77649">
        <ele>190</ele>
        <time>2018-09-23T09:27:50Z</time>
      </trkpt>
      <trkpt lat="45.89684" lon="4.77648">
        <ele>190</ele>
        <time>2018-09-23T09:27:51Z</time>
      </trkpt>
      <trkpt lat="45.8968" lon="4.77648">
        <ele>190</ele>
        <time>2018-09-23T09:27:52Z</time>
      </trkpt>
      <trkpt lat="45.89672" lon="4.77646">
        <ele>190</ele>
        <time>2018-09-23T09:27:54Z</time>
      </trkpt>
      <trkpt lat="45.89668" lon="4.77645">
        <ele>190</ele>
        <time>2018-09-23T09:27:55Z</time>
      </trkpt>
      <trkpt lat="45.89662" lon="4.77643">
        <ele>190</ele>
        <time>2018-09-23T09:27:57Z</time>
      </trkpt>
      <trkpt lat="45.89657" lon="4.77641">
        <ele>190</ele>
        <time>2018-09-23T09:27:58Z</time>
      </trkpt>
      <trkpt lat="45.89649" lon="4.77638">
        <ele>190</ele>
        <time>2018-09-23T09:28:00Z</time>
      </trkpt>
      <trkpt lat="45.89645" lon="4.77637">
        <ele>190</ele>
        <time>2018-09-23T09:28:01Z</time>
      </trkpt>
      <trkpt lat="45.89637" lon="4.77635">
        <ele>190</ele>
        <time>2018-09-23T09:28:03Z</time>
      </trkpt>
      <trkpt lat="45.89632" lon="4.77635">
        <ele>190</ele>
        <time>2018-09-23T09:28:04Z</time>
      </trkpt>
      <trkpt lat="45.89624" lon="4.77632">
        <ele>191</ele>
        <time>2018-09-23T09:28:06Z</time>
      </trkpt>
      <trkpt lat="45.89619" lon="4.77633">
        <ele>191</ele>
        <time>2018-09-23T09:28:07Z</time>
      </trkpt>
      <trkpt lat="45.89613" lon="4.77632">
        <ele>191</ele>
        <time>2018-09-23T09:28:08Z</time>
      </trkpt>
      <trkpt lat="45.89609" lon="4.77632">
        <ele>191</ele>
        <time>2018-09-23T09:28:09Z</time>
      </trkpt>
      <trkpt lat="45.89604" lon="4.77633">
        <ele>191</ele>
        <time>2018-09-23T09:28:10Z</time>
      </trkpt>
      <trkpt lat="45.89599" lon="4.77633">
        <ele>191</ele>
        <time>2018-09-23T09:28:11Z</time>
      </trkpt>
      <trkpt lat="45.89591" lon="4.77632">
        <ele>191</ele>
        <time>2018-09-23T09:28:13Z</time>
      </trkpt>
      <trkpt lat="45.89587" lon="4.7763">
        <ele>191</ele>
        <time>2018-09-23T09:28:14Z</time>
      </trkpt>
      <trkpt lat="45.89579" lon="4.77631">
        <ele>192</ele>
        <time>2018-09-23T09:28:16Z</time>
      </trkpt>
      <trkpt lat="45.89574" lon="4.7763">
        <ele>192</ele>
        <time>2018-09-23T09:28:17Z</time>
      </trkpt>
      <trkpt lat="45.89569" lon="4.77629">
        <ele>192</ele>
        <time>2018-09-23T09:28:18Z</time>
      </trkpt>
      <trkpt lat="45.89564" lon="4.77628">
        <ele>192</ele>
        <time>2018-09-23T09:28:19Z</time>
      </trkpt>
      <trkpt lat="45.89559" lon="4.77627">
        <ele>192</ele>
        <time>2018-09-23T09:28:20Z</time>
      </trkpt>
      <trkpt lat="45.89554" lon="4.77627">
        <ele>192</ele>
        <time>2018-09-23T09:28:21Z</time>
      </trkpt>
      <trkpt lat="45.89549" lon="4.77625">
        <ele>192</ele>
        <time>2018-09-23T09:28:22Z</time>
      </trkpt>
      <trkpt lat="45.89544" lon="4.77624">
        <ele>192</ele>
        <time>2018-09-23T09:28:23Z</time>
      </trkpt>
      <trkpt lat="45.8954" lon="4.77623">
        <ele>192</ele>
        <time>2018-09-23T09:28:24Z</time>
      </trkpt>
      <trkpt lat="45.89535" lon="4.77622">
        <ele>192</ele>
        <time>2018-09-23T09:28:25Z</time>
      </trkpt>
      <trkpt lat="45.8953" lon="4.77621">
        <ele>192</ele>
        <time>2018-09-23T09:28:26Z</time>
      </trkpt>
      <trkpt lat="45.89525" lon="4.7762">
        <ele>192</ele>
        <time>2018-09-23T09:28:27Z</time>
      </trkpt>
      <trkpt lat="45.89518" lon="4.7762">
        <ele>192</ele>
        <time>2018-09-23T09:28:29Z</time>
      </trkpt>
      <trkpt lat="45.89514" lon="4.77618">
        <ele>192</ele>
        <time>2018-09-23T09:28:30Z</time>
      </trkpt>
      <trkpt lat="45.8951" lon="4.77617">
        <ele>192</ele>
        <time>2018-09-23T09:28:31Z</time>
      </trkpt>
      <trkpt lat="45.89506" lon="4.77614">
        <ele>192</ele>
        <time>2018-09-23T09:28:32Z</time>
      </trkpt>
      <trkpt lat="45.89501" lon="4.77613">
        <ele>192</ele>
        <time>2018-09-23T09:28:33Z</time>
      </trkpt>
      <trkpt lat="45.89496" lon="4.77612">
        <ele>193</ele>
        <time>2018-09-23T09:28:34Z</time>
      </trkpt>
      <trkpt lat="45.89492" lon="4.77612">
        <ele>193</ele>
        <time>2018-09-23T09:28:35Z</time>
      </trkpt>
      <trkpt lat="45.89487" lon="4.77611">
        <ele>193</ele>
        <time>2018-09-23T09:28:36Z</time>
      </trkpt>
      <trkpt lat="45.89479" lon="4.77609">
        <ele>193</ele>
        <time>2018-09-23T09:28:38Z</time>
      </trkpt>
      <trkpt lat="45.89474" lon="4.77607">
        <ele>193</ele>
        <time>2018-09-23T09:28:39Z</time>
      </trkpt>
      <trkpt lat="45.89467" lon="4.77607">
        <ele>193</ele>
        <time>2018-09-23T09:28:41Z</time>
      </trkpt>
      <trkpt lat="45.89464" lon="4.77607">
        <ele>193</ele>
        <time>2018-09-23T09:28:42Z</time>
      </trkpt>
      <trkpt lat="45.89457" lon="4.77605">
        <ele>193</ele>
        <time>2018-09-23T09:28:45Z</time>
      </trkpt>
      <trkpt lat="45.89454" lon="4.77604">
        <ele>193</ele>
        <time>2018-09-23T09:28:46Z</time>
      </trkpt>
      <trkpt lat="45.89447" lon="4.77602">
        <ele>193</ele>
        <time>2018-09-23T09:28:48Z</time>
      </trkpt>
      <trkpt lat="45.89439" lon="4.77598">
        <ele>193</ele>
        <time>2018-09-23T09:28:49Z</time>
      </trkpt>
      <trkpt lat="45.89433" lon="4.77595">
        <ele>193</ele>
        <time>2018-09-23T09:28:52Z</time>
      </trkpt>
      <trkpt lat="45.8943" lon="4.77593">
        <ele>194</ele>
        <time>2018-09-23T09:28:53Z</time>
      </trkpt>
      <trkpt lat="45.89422" lon="4.7759">
        <ele>194</ele>
        <time>2018-09-23T09:28:56Z</time>
      </trkpt>
      <trkpt lat="45.8942" lon="4.77588">
        <ele>194</ele>
        <time>2018-09-23T09:28:57Z</time>
      </trkpt>
      <trkpt lat="45.89414" lon="4.77585">
        <ele>194</ele>
        <time>2018-09-23T09:28:59Z</time>
      </trkpt>
      <trkpt lat="45.89404" lon="4.77581">
        <ele>194</ele>
        <time>2018-09-23T09:29:00Z</time>
      </trkpt>
      <trkpt lat="45.89396" lon="4.77578">
        <ele>194</ele>
        <time>2018-09-23T09:29:02Z</time>
      </trkpt>
      <trkpt lat="45.89392" lon="4.77577">
        <ele>194</ele>
        <time>2018-09-23T09:29:03Z</time>
      </trkpt>
      <trkpt lat="45.89385" lon="4.77573">
        <ele>194</ele>
        <time>2018-09-23T09:29:05Z</time>
      </trkpt>
      <trkpt lat="45.89381" lon="4.77571">
        <ele>194</ele>
        <time>2018-09-23T09:29:06Z</time>
      </trkpt>
      <trkpt lat="45.89376" lon="4.77569">
        <ele>194</ele>
        <time>2018-09-23T09:29:07Z</time>
      </trkpt>
      <trkpt lat="45.89371" lon="4.77567">
        <ele>194</ele>
        <time>2018-09-23T09:29:08Z</time>
      </trkpt>
      <trkpt lat="45.89366" lon="4.77564">
        <ele>194</ele>
        <time>2018-09-23T09:29:09Z</time>
      </trkpt>
      <trkpt lat="45.89361" lon="4.77563">
        <ele>194</ele>
        <time>2018-09-23T09:29:10Z</time>
      </trkpt>
      <trkpt lat="45.89356" lon="4.77559">
        <ele>194</ele>
        <time>2018-09-23T09:29:11Z</time>
      </trkpt>
      <trkpt lat="45.89351" lon="4.77557">
        <ele>194</ele>
        <time>2018-09-23T09:29:12Z</time>
      </trkpt>
      <trkpt lat="45.89345" lon="4.77554">
        <ele>194</ele>
        <time>2018-09-23T09:29:13Z</time>
      </trkpt>
      <trkpt lat="45.89339" lon="4.77551">
        <ele>194</ele>
        <time>2018-09-23T09:29:14Z</time>
      </trkpt>
      <trkpt lat="45.89334" lon="4.77549">
        <ele>194</ele>
        <time>2018-09-23T09:29:15Z</time>
      </trkpt>
      <trkpt lat="45.89328" lon="4.77547">
        <ele>194</ele>
        <time>2018-09-23T09:29:16Z</time>
      </trkpt>
      <trkpt lat="45.89323" lon="4.77545">
        <ele>194</ele>
        <time>2018-09-23T09:29:17Z</time>
      </trkpt>
      <trkpt lat="45.89317" lon="4.77544">
        <ele>194</ele>
        <time>2018-09-23T09:29:18Z</time>
      </trkpt>
      <trkpt lat="45.89312" lon="4.77542">
        <ele>194</ele>
        <time>2018-09-23T09:29:19Z</time>
      </trkpt>
      <trkpt lat="45.89305" lon="4.77542">
        <ele>194</ele>
        <time>2018-09-23T09:29:20Z</time>
      </trkpt>
      <trkpt lat="45.89299" lon="4.7754">
        <ele>194</ele>
        <time>2018-09-23T09:29:21Z</time>
      </trkpt>
      <trkpt lat="45.89295" lon="4.77538">
        <ele>194</ele>
        <time>2018-09-23T09:29:22Z</time>
      </trkpt>
      <trkpt lat="45.89288" lon="4.77535">
        <ele>193</ele>
        <time>2018-09-23T09:29:24Z</time>
      </trkpt>
      <trkpt lat="45.89284" lon="4.77534">
        <ele>193</ele>
        <time>2018-09-23T09:29:25Z</time>
      </trkpt>
      <trkpt lat="45.89279" lon="4.77531">
        <ele>193</ele>
        <time>2018-09-23T09:29:26Z</time>
      </trkpt>
      <trkpt lat="45.89274" lon="4.7753">
        <ele>193</ele>
        <time>2018-09-23T09:29:27Z</time>
      </trkpt>
      <trkpt lat="45.89268" lon="4.77529">
        <ele>193</ele>
        <time>2018-09-23T09:29:28Z</time>
      </trkpt>
      <trkpt lat="45.89263" lon="4.77528">
        <ele>193</ele>
        <time>2018-09-23T09:29:29Z</time>
      </trkpt>
      <trkpt lat="45.89258" lon="4.77529">
        <ele>193</ele>
        <time>2018-09-23T09:29:30Z</time>
      </trkpt>
      <trkpt lat="45.89252" lon="4.7753">
        <ele>193</ele>
        <time>2018-09-23T09:29:31Z</time>
      </trkpt>
      <trkpt lat="45.89247" lon="4.77528">
        <ele>193</ele>
        <time>2018-09-23T09:29:32Z</time>
      </trkpt>
      <trkpt lat="45.89242" lon="4.77528">
        <ele>193</ele>
        <time>2018-09-23T09:29:33Z</time>
      </trkpt>
      <trkpt lat="45.89237" lon="4.77528">
        <ele>193</ele>
        <time>2018-09-23T09:29:34Z</time>
      </trkpt>
      <trkpt lat="45.89231" lon="4.77529">
        <ele>194</ele>
        <time>2018-09-23T09:29:35Z</time>
      </trkpt>
      <trkpt lat="45.89225" lon="4.77533">
        <ele>194</ele>
        <time>2018-09-23T09:29:36Z</time>
      </trkpt>
      <trkpt lat="45.8922" lon="4.77533">
        <ele>194</ele>
        <time>2018-09-23T09:29:37Z</time>
      </trkpt>
      <trkpt lat="45.89215" lon="4.77534">
        <ele>194</ele>
        <time>2018-09-23T09:29:38Z</time>
      </trkpt>
      <trkpt lat="45.8921" lon="4.77535">
        <ele>194</ele>
        <time>2018-09-23T09:29:39Z</time>
      </trkpt>
      <trkpt lat="45.89204" lon="4.77536">
        <ele>194</ele>
        <time>2018-09-23T09:29:40Z</time>
      </trkpt>
      <trkpt lat="45.89199" lon="4.77537">
        <ele>194</ele>
        <time>2018-09-23T09:29:41Z</time>
      </trkpt>
      <trkpt lat="45.89195" lon="4.77538">
        <ele>194</ele>
        <time>2018-09-23T09:29:42Z</time>
      </trkpt>
      <trkpt lat="45.8919" lon="4.77538">
        <ele>194</ele>
        <time>2018-09-23T09:29:43Z</time>
      </trkpt>
      <trkpt lat="45.89184" lon="4.77541">
        <ele>194</ele>
        <time>2018-09-23T09:29:44Z</time>
      </trkpt>
      <trkpt lat="45.8918" lon="4.77542">
        <ele>194</ele>
        <time>2018-09-23T09:29:45Z</time>
      </trkpt>
      <trkpt lat="45.89175" lon="4.77542">
        <ele>194</ele>
        <time>2018-09-23T09:29:46Z</time>
      </trkpt>
      <trkpt lat="45.89169" lon="4.77544">
        <ele>194</ele>
        <time>2018-09-23T09:29:47Z</time>
      </trkpt>
      <trkpt lat="45.89161" lon="4.77543">
        <ele>195</ele>
        <time>2018-09-23T09:29:49Z</time>
      </trkpt>
      <trkpt lat="45.89158" lon="4.77543">
        <ele>195</ele>
        <time>2018-09-23T09:29:50Z</time>
      </trkpt>
      <trkpt lat="45.8915" lon="4.77545">
        <ele>195</ele>
        <time>2018-09-23T09:29:52Z</time>
      </trkpt>
      <trkpt lat="45.89145" lon="4.77545">
        <ele>195</ele>
        <time>2018-09-23T09:29:53Z</time>
      </trkpt>
      <trkpt lat="45.89139" lon="4.77546">
        <ele>195</ele>
        <time>2018-09-23T09:29:55Z</time>
      </trkpt>
      <trkpt lat="45.89135" lon="4.77548">
        <ele>195</ele>
        <time>2018-09-23T09:29:56Z</time>
      </trkpt>
      <trkpt lat="45.89128" lon="4.7755">
        <ele>195</ele>
        <time>2018-09-23T09:29:58Z</time>
      </trkpt>
      <trkpt lat="45.89124" lon="4.77552">
        <ele>195</ele>
        <time>2018-09-23T09:29:59Z</time>
      </trkpt>
      <trkpt lat="45.89119" lon="4.77554">
        <ele>195</ele>
        <time>2018-09-23T09:30:00Z</time>
      </trkpt>
      <trkpt lat="45.89115" lon="4.77556">
        <ele>195</ele>
        <time>2018-09-23T09:30:01Z</time>
      </trkpt>
      <trkpt lat="45.89111" lon="4.77557">
        <ele>195</ele>
        <time>2018-09-23T09:30:02Z</time>
      </trkpt>
      <trkpt lat="45.89106" lon="4.77561">
        <ele>195</ele>
        <time>2018-09-23T09:30:03Z</time>
      </trkpt>
      <trkpt lat="45.89102" lon="4.77563">
        <ele>196</ele>
        <time>2018-09-23T09:30:04Z</time>
      </trkpt>
      <trkpt lat="45.89097" lon="4.77566">
        <ele>196</ele>
        <time>2018-09-23T09:30:05Z</time>
      </trkpt>
      <trkpt lat="45.89093" lon="4.77571">
        <ele>196</ele>
        <time>2018-09-23T09:30:06Z</time>
      </trkpt>
      <trkpt lat="45.89089" lon="4.77575">
        <ele>196</ele>
        <time>2018-09-23T09:30:07Z</time>
      </trkpt>
      <trkpt lat="45.89082" lon="4.77581">
        <ele>196</ele>
        <time>2018-09-23T09:30:09Z</time>
      </trkpt>
      <trkpt lat="45.89078" lon="4.77584">
        <ele>196</ele>
        <time>2018-09-23T09:30:10Z</time>
      </trkpt>
      <trkpt lat="45.89072" lon="4.77588">
        <ele>196</ele>
        <time>2018-09-23T09:30:12Z</time>
      </trkpt>
      <trkpt lat="45.89067" lon="4.77593">
        <ele>196</ele>
        <time>2018-09-23T09:30:13Z</time>
      </trkpt>
      <trkpt lat="45.8906" lon="4.77599">
        <ele>197</ele>
        <time>2018-09-23T09:30:15Z</time>
      </trkpt>
      <trkpt lat="45.89056" lon="4.77604">
        <ele>197</ele>
        <time>2018-09-23T09:30:16Z</time>
      </trkpt>
      <trkpt lat="45.89049" lon="4.77611">
        <ele>197</ele>
        <time>2018-09-23T09:30:18Z</time>
      </trkpt>
      <trkpt lat="45.89046" lon="4.77616">
        <ele>197</ele>
        <time>2018-09-23T09:30:19Z</time>
      </trkpt>
      <trkpt lat="45.89039" lon="4.77622">
        <ele>197</ele>
        <time>2018-09-23T09:30:21Z</time>
      </trkpt>
      <trkpt lat="45.89035" lon="4.77625">
        <ele>197</ele>
        <time>2018-09-23T09:30:22Z</time>
      </trkpt>
      <trkpt lat="45.89031" lon="4.77628">
        <ele>197</ele>
        <time>2018-09-23T09:30:23Z</time>
      </trkpt>
      <trkpt lat="45.89027" lon="4.77632">
        <ele>197</ele>
        <time>2018-09-23T09:30:24Z</time>
      </trkpt>
      <trkpt lat="45.8902" lon="4.77638">
        <ele>197</ele>
        <time>2018-09-23T09:30:26Z</time>
      </trkpt>
      <trkpt lat="45.89016" lon="4.77641">
        <ele>197</ele>
        <time>2018-09-23T09:30:27Z</time>
      </trkpt>
      <trkpt lat="45.89009" lon="4.77647">
        <ele>197</ele>
        <time>2018-09-23T09:30:29Z</time>
      </trkpt>
      <trkpt lat="45.89005" lon="4.77651">
        <ele>197</ele>
        <time>2018-09-23T09:30:30Z</time>
      </trkpt>
      <trkpt lat="45.88999" lon="4.77655">
        <ele>197</ele>
        <time>2018-09-23T09:30:32Z</time>
      </trkpt>
      <trkpt lat="45.88995" lon="4.77657">
        <ele>197</ele>
        <time>2018-09-23T09:30:33Z</time>
      </trkpt>
      <trkpt lat="45.88988" lon="4.77662">
        <ele>198</ele>
        <time>2018-09-23T09:30:35Z</time>
      </trkpt>
      <trkpt lat="45.88984" lon="4.77665">
        <ele>198</ele>
        <time>2018-09-23T09:30:36Z</time>
      </trkpt>
      <trkpt lat="45.88977" lon="4.77671">
        <ele>198</ele>
        <time>2018-09-23T09:30:38Z</time>
      </trkpt>
      <trkpt lat="45.88974" lon="4.77673">
        <ele>198</ele>
        <time>2018-09-23T09:30:39Z</time>
      </trkpt>
      <trkpt lat="45.88967" lon="4.77677">
        <ele>198</ele>
        <time>2018-09-23T09:30:41Z</time>
      </trkpt>
      <trkpt lat="45.88963" lon="4.7768">
        <ele>198</ele>
        <time>2018-09-23T09:30:42Z</time>
      </trkpt>
      <trkpt lat="45.88955" lon="4.77685">
        <ele>199</ele>
        <time>2018-09-23T09:30:44Z</time>
      </trkpt>
      <trkpt lat="45.88951" lon="4.77687">
        <ele>199</ele>
        <time>2018-09-23T09:30:45Z</time>
      </trkpt>
      <trkpt lat="45.88947" lon="4.7769">
        <ele>199</ele>
        <time>2018-09-23T09:30:46Z</time>
      </trkpt>
      <trkpt lat="45.88942" lon="4.77692">
        <ele>199</ele>
        <time>2018-09-23T09:30:47Z</time>
      </trkpt>
      <trkpt lat="45.88939" lon="4.77695">
        <ele>199</ele>
        <time>2018-09-23T09:30:48Z</time>
      </trkpt>
      <trkpt lat="45.88933" lon="4.77698">
        <ele>199</ele>
        <time>2018-09-23T09:30:49Z</time>
      </trkpt>
      <trkpt lat="45.88924" lon="4.77699">
        <ele>199</ele>
        <time>2018-09-23T09:30:51Z</time>
      </trkpt>
      <trkpt lat="45.8892" lon="4.777">
        <ele>199</ele>
        <time>2018-09-23T09:30:52Z</time>
      </trkpt>
      <trkpt lat="45.88912" lon="4.77702">
        <ele>200</ele>
        <time>2018-09-23T09:30:54Z</time>
      </trkpt>
      <trkpt lat="45.88907" lon="4.77703">
        <ele>200</ele>
        <time>2018-09-23T09:30:55Z</time>
      </trkpt>
      <trkpt lat="45.88899" lon="4.77704">
        <ele>200</ele>
        <time>2018-09-23T09:30:57Z</time>
      </trkpt>
      <trkpt lat="45.88894" lon="4.77704">
        <ele>200</ele>
        <time>2018-09-23T09:30:58Z</time>
      </trkpt>
      <trkpt lat="45.88885" lon="4.77705">
        <ele>200</ele>
        <time>2018-09-23T09:31:00Z</time>
      </trkpt>
      <trkpt lat="45.88881" lon="4.77705">
        <ele>200</ele>
        <time>2018-09-23T09:31:01Z</time>
      </trkpt>
      <trkpt lat="45.88876" lon="4.77707">
        <ele>200</ele>
        <time>2018-09-23T09:31:02Z</time>
      </trkpt>
      <trkpt lat="45.88871" lon="4.77707">
        <ele>201</ele>
        <time>2018-09-23T09:31:03Z</time>
      </trkpt>
      <trkpt lat="45.88863" lon="4.77707">
        <ele>201</ele>
        <time>2018-09-23T09:31:05Z</time>
      </trkpt>
      <trkpt lat="45.88859" lon="4.77708">
        <ele>201</ele>
        <time>2018-09-23T09:31:06Z</time>
      </trkpt>
      <trkpt lat="45.88851" lon="4.77709">
        <ele>201</ele>
        <time>2018-09-23T09:31:08Z</time>
      </trkpt>
      <trkpt lat="45.88846" lon="4.77709">
        <ele>201</ele>
        <time>2018-09-23T09:31:09Z</time>
      </trkpt>
      <trkpt lat="45.88838" lon="4.7771">
        <ele>201</ele>
        <time>2018-09-23T09:31:11Z</time>
      </trkpt>
      <trkpt lat="45.88834" lon="4.7771">
        <ele>201</ele>
        <time>2018-09-23T09:31:12Z</time>
      </trkpt>
      <trkpt lat="45.88826" lon="4.77709">
        <ele>201</ele>
        <time>2018-09-23T09:31:14Z</time>
      </trkpt>
      <trkpt lat="45.88821" lon="4.77708">
        <ele>202</ele>
        <time>2018-09-23T09:31:15Z</time>
      </trkpt>
      <trkpt lat="45.88812" lon="4.77708">
        <ele>202</ele>
        <time>2018-09-23T09:31:17Z</time>
      </trkpt>
      <trkpt lat="45.88808" lon="4.77708">
        <ele>202</ele>
        <time>2018-09-23T09:31:18Z</time>
      </trkpt>
      <trkpt lat="45.888" lon="4.77708">
        <ele>202</ele>
        <time>2018-09-23T09:31:20Z</time>
      </trkpt>
      <trkpt lat="45.88795" lon="4.77708">
        <ele>202</ele>
        <time>2018-09-23T09:31:21Z</time>
      </trkpt>
      <trkpt lat="45.8879" lon="4.77709">
        <ele>202</ele>
        <time>2018-09-23T09:31:22Z</time>
      </trkpt>
      <trkpt lat="45.88785" lon="4.77709">
        <ele>202</ele>
        <time>2018-09-23T09:31:23Z</time>
      </trkpt>
      <trkpt lat="45.8878" lon="4.77709">
        <ele>202</ele>
        <time>2018-09-23T09:31:24Z</time>
      </trkpt>
      <trkpt lat="45.88776" lon="4.7771">
        <ele>202</ele>
        <time>2018-09-23T09:31:25Z</time>
      </trkpt>
      <trkpt lat="45.88767" lon="4.77709">
        <ele>202</ele>
        <time>2018-09-23T09:31:27Z</time>
      </trkpt>
      <trkpt lat="45.88763" lon="4.7771">
        <ele>202</ele>
        <time>2018-09-23T09:31:28Z</time>
      </trkpt>
      <trkpt lat="45.88756" lon="4.7771">
        <ele>202</ele>
        <time>2018-09-23T09:31:30Z</time>
      </trkpt>
      <trkpt lat="45.88753" lon="4.7771">
        <ele>202</ele>
        <time>2018-09-23T09:31:31Z</time>
      </trkpt>
      <trkpt lat="45.88745" lon="4.77711">
        <ele>203</ele>
        <time>2018-09-23T09:31:33Z</time>
      </trkpt>
      <trkpt lat="45.88742" lon="4.77712">
        <ele>203</ele>
        <time>2018-09-23T09:31:34Z</time>
      </trkpt>
      <trkpt lat="45.88733" lon="4.77712">
        <ele>203</ele>
        <time>2018-09-23T09:31:36Z</time>
      </trkpt>
      <trkpt lat="45.88729" lon="4.77712">
        <ele>203</ele>
        <time>2018-09-23T09:31:37Z</time>
      </trkpt>
      <trkpt lat="45.8872" lon="4.77713">
        <ele>203</ele>
        <time>2018-09-23T09:31:39Z</time>
      </trkpt>
      <trkpt lat="45.88715" lon="4.77713">
        <ele>203</ele>
        <time>2018-09-23T09:31:40Z</time>
      </trkpt>
      <trkpt lat="45.88707" lon="4.77714">
        <ele>203</ele>
        <time>2018-09-23T09:31:42Z</time>
      </trkpt>
      <trkpt lat="45.88703" lon="4.77714">
        <ele>203</ele>
        <time>2018-09-23T09:31:43Z</time>
      </trkpt>
      <trkpt lat="45.88697" lon="4.77714">
        <ele>203</ele>
        <time>2018-09-23T09:31:46Z</time>
      </trkpt>
      <trkpt lat="45.88689" lon="4.77713">
        <ele>203</ele>
        <time>2018-09-23T09:31:47Z</time>
      </trkpt>
      <trkpt lat="45.88681" lon="4.77713">
        <ele>203</ele>
        <time>2018-09-23T09:31:49Z</time>
      </trkpt>
      <trkpt lat="45.88675" lon="4.77713">
        <ele>203</ele>
        <time>2018-09-23T09:31:50Z</time>
      </trkpt>
      <trkpt lat="45.88667" lon="4.77712">
        <ele>203</ele>
        <time>2018-09-23T09:31:52Z</time>
      </trkpt>
      <trkpt lat="45.88662" lon="4.77712">
        <ele>203</ele>
        <time>2018-09-23T09:31:53Z</time>
      </trkpt>
      <trkpt lat="45.88658" lon="4.77711">
        <ele>203</ele>
        <time>2018-09-23T09:31:54Z</time>
      </trkpt>
      <trkpt lat="45.88653" lon="4.77712">
        <ele>203</ele>
        <time>2018-09-23T09:31:55Z</time>
      </trkpt>
      <trkpt lat="45.88648" lon="4.77712">
        <ele>203</ele>
        <time>2018-09-23T09:31:56Z</time>
      </trkpt>
      <trkpt lat="45.88643" lon="4.77711">
        <ele>203</ele>
        <time>2018-09-23T09:31:57Z</time>
      </trkpt>
      <trkpt lat="45.88639" lon="4.77711">
        <ele>203</ele>
        <time>2018-09-23T09:31:58Z</time>
      </trkpt>
      <trkpt lat="45.88634" lon="4.77711">
        <ele>203</ele>
        <time>2018-09-23T09:31:59Z</time>
      </trkpt>
      <trkpt lat="45.88626" lon="4.77709">
        <ele>203</ele>
        <time>2018-09-23T09:32:01Z</time>
      </trkpt>
      <trkpt lat="45.88622" lon="4.77709">
        <ele>203</ele>
        <time>2018-09-23T09:32:02Z</time>
      </trkpt>
      <trkpt lat="45.88614" lon="4.77708">
        <ele>203</ele>
        <time>2018-09-23T09:32:04Z</time>
      </trkpt>
      <trkpt lat="45.88612" lon="4.77708">
        <ele>203</ele>
        <time>2018-09-23T09:32:05Z</time>
      </trkpt>
      <trkpt lat="45.88607" lon="4.77706">
        <ele>203</ele>
        <time>2018-09-23T09:32:06Z</time>
      </trkpt>
      <trkpt lat="45.88603" lon="4.77705">
        <ele>203</ele>
        <time>2018-09-23T09:32:07Z</time>
      </trkpt>
      <trkpt lat="45.88595" lon="4.77703">
        <ele>203</ele>
        <time>2018-09-23T09:32:09Z</time>
      </trkpt>
      <trkpt lat="45.88591" lon="4.77702">
        <ele>203</ele>
        <time>2018-09-23T09:32:10Z</time>
      </trkpt>
      <trkpt lat="45.88583" lon="4.77699">
        <ele>204</ele>
        <time>2018-09-23T09:32:12Z</time>
      </trkpt>
      <trkpt lat="45.88579" lon="4.77698">
        <ele>204</ele>
        <time>2018-09-23T09:32:13Z</time>
      </trkpt>
      <trkpt lat="45.8857" lon="4.77697">
        <ele>204</ele>
        <time>2018-09-23T09:32:15Z</time>
      </trkpt>
      <trkpt lat="45.88565" lon="4.77696">
        <ele>204</ele>
        <time>2018-09-23T09:32:16Z</time>
      </trkpt>
      <trkpt lat="45.88557" lon="4.77694">
        <ele>204</ele>
        <time>2018-09-23T09:32:18Z</time>
      </trkpt>
      <trkpt lat="45.88554" lon="4.77693">
        <ele>204</ele>
        <time>2018-09-23T09:32:19Z</time>
      </trkpt>
      <trkpt lat="45.88546" lon="4.77691">
        <ele>204</ele>
        <time>2018-09-23T09:32:21Z</time>
      </trkpt>
      <trkpt lat="45.88541" lon="4.7769">
        <ele>204</ele>
        <time>2018-09-23T09:32:22Z</time>
      </trkpt>
      <trkpt lat="45.88535" lon="4.77688">
        <ele>204</ele>
        <time>2018-09-23T09:32:23Z</time>
      </trkpt>
      <trkpt lat="45.8853" lon="4.77687">
        <ele>204</ele>
        <time>2018-09-23T09:32:24Z</time>
      </trkpt>
      <trkpt lat="45.88523" lon="4.77688">
        <ele>204</ele>
        <time>2018-09-23T09:32:28Z</time>
      </trkpt>
      <trkpt lat="45.88516" lon="4.77687">
        <ele>205</ele>
        <time>2018-09-23T09:32:29Z</time>
      </trkpt>
      <trkpt lat="45.88511" lon="4.77685">
        <ele>205</ele>
        <time>2018-09-23T09:32:31Z</time>
      </trkpt>
      <trkpt lat="45.88505" lon="4.77682">
        <ele>205</ele>
        <time>2018-09-23T09:32:32Z</time>
      </trkpt>
      <trkpt lat="45.88496" lon="4.77683">
        <ele>205</ele>
        <time>2018-09-23T09:32:34Z</time>
      </trkpt>
      <trkpt lat="45.88491" lon="4.77681">
        <ele>205</ele>
        <time>2018-09-23T09:32:35Z</time>
      </trkpt>
      <trkpt lat="45.88483" lon="4.77679">
        <ele>206</ele>
        <time>2018-09-23T09:32:37Z</time>
      </trkpt>
      <trkpt lat="45.88481" lon="4.77679">
        <ele>206</ele>
        <time>2018-09-23T09:32:38Z</time>
      </trkpt>
      <trkpt lat="45.88475" lon="4.77678">
        <ele>206</ele>
        <time>2018-09-23T09:32:39Z</time>
      </trkpt>
      <trkpt lat="45.88471" lon="4.77677">
        <ele>206</ele>
        <time>2018-09-23T09:32:40Z</time>
      </trkpt>
      <trkpt lat="45.88462" lon="4.77674">
        <ele>206</ele>
        <time>2018-09-23T09:32:42Z</time>
      </trkpt>
      <trkpt lat="45.88458" lon="4.77673">
        <ele>206</ele>
        <time>2018-09-23T09:32:43Z</time>
      </trkpt>
      <trkpt lat="45.88453" lon="4.77671">
        <ele>206</ele>
        <time>2018-09-23T09:32:44Z</time>
      </trkpt>
      <trkpt lat="45.88449" lon="4.7767">
        <ele>206</ele>
        <time>2018-09-23T09:32:45Z</time>
      </trkpt>
      <trkpt lat="45.88441" lon="4.7767">
        <ele>206</ele>
        <time>2018-09-23T09:32:47Z</time>
      </trkpt>
      <trkpt lat="45.88437" lon="4.77669">
        <ele>206</ele>
        <time>2018-09-23T09:32:48Z</time>
      </trkpt>
      <trkpt lat="45.88433" lon="4.77669">
        <ele>206</ele>
        <time>2018-09-23T09:32:49Z</time>
      </trkpt>
      <trkpt lat="45.88428" lon="4.77669">
        <ele>206</ele>
        <time>2018-09-23T09:32:50Z</time>
      </trkpt>
      <trkpt lat="45.88422" lon="4.77667">
        <ele>206</ele>
        <time>2018-09-23T09:32:52Z</time>
      </trkpt>
      <trkpt lat="45.88417" lon="4.77667">
        <ele>206</ele>
        <time>2018-09-23T09:32:53Z</time>
      </trkpt>
      <trkpt lat="45.8841" lon="4.77666">
        <ele>206</ele>
        <time>2018-09-23T09:32:55Z</time>
      </trkpt>
      <trkpt lat="45.88406" lon="4.77665">
        <ele>207</ele>
        <time>2018-09-23T09:32:56Z</time>
      </trkpt>
      <trkpt lat="45.88398" lon="4.77664">
        <ele>207</ele>
        <time>2018-09-23T09:32:59Z</time>
      </trkpt>
      <trkpt lat="45.88396" lon="4.77665">
        <ele>207</ele>
        <time>2018-09-23T09:33:00Z</time>
      </trkpt>
      <trkpt lat="45.88388" lon="4.77665">
        <ele>207</ele>
        <time>2018-09-23T09:33:03Z</time>
      </trkpt>
      <trkpt lat="45.88385" lon="4.77664">
        <ele>207</ele>
        <time>2018-09-23T09:33:04Z</time>
      </trkpt>
      <trkpt lat="45.88376" lon="4.77663">
        <ele>207</ele>
        <time>2018-09-23T09:33:05Z</time>
      </trkpt>
      <trkpt lat="45.88372" lon="4.77662">
        <ele>207</ele>
        <time>2018-09-23T09:33:06Z</time>
      </trkpt>
      <trkpt lat="45.88364" lon="4.7766">
        <ele>207</ele>
        <time>2018-09-23T09:33:08Z</time>
      </trkpt>
      <trkpt lat="45.8836" lon="4.77659">
        <ele>208</ele>
        <time>2018-09-23T09:33:09Z</time>
      </trkpt>
      <trkpt lat="45.88352" lon="4.77659">
        <ele>208</ele>
        <time>2018-09-23T09:33:11Z</time>
      </trkpt>
      <trkpt lat="45.88347" lon="4.77659">
        <ele>208</ele>
        <time>2018-09-23T09:33:12Z</time>
      </trkpt>
      <trkpt lat="45.88339" lon="4.77659">
        <ele>208</ele>
        <time>2018-09-23T09:33:14Z</time>
      </trkpt>
      <trkpt lat="45.88335" lon="4.77659">
        <ele>208</ele>
        <time>2018-09-23T09:33:15Z</time>
      </trkpt>
      <trkpt lat="45.88326" lon="4.77659">
        <ele>208</ele>
        <time>2018-09-23T09:33:17Z</time>
      </trkpt>
      <trkpt lat="45.88322" lon="4.7766">
        <ele>209</ele>
        <time>2018-09-23T09:33:18Z</time>
      </trkpt>
      <trkpt lat="45.88314" lon="4.7766">
        <ele>209</ele>
        <time>2018-09-23T09:33:21Z</time>
      </trkpt>
      <trkpt lat="45.88312" lon="4.77661">
        <ele>209</ele>
        <time>2018-09-23T09:33:22Z</time>
      </trkpt>
      <trkpt lat="45.88303" lon="4.77661">
        <ele>209</ele>
        <time>2018-09-23T09:33:25Z</time>
      </trkpt>
      <trkpt lat="45.88294" lon="4.77661">
        <ele>209</ele>
        <time>2018-09-23T09:33:26Z</time>
      </trkpt>
      <trkpt lat="45.88286" lon="4.7766">
        <ele>209</ele>
        <time>2018-09-23T09:33:28Z</time>
      </trkpt>
      <trkpt lat="45.88282" lon="4.7766">
        <ele>210</ele>
        <time>2018-09-23T09:33:29Z</time>
      </trkpt>
      <trkpt lat="45.88274" lon="4.77659">
        <ele>210</ele>
        <time>2018-09-23T09:33:31Z</time>
      </trkpt>
      <trkpt lat="45.8827" lon="4.77659">
        <ele>210</ele>
        <time>2018-09-23T09:33:32Z</time>
      </trkpt>
      <trkpt lat="45.88262" lon="4.77659">
        <ele>210</ele>
        <time>2018-09-23T09:33:34Z</time>
      </trkpt>
      <trkpt lat="45.88258" lon="4.7766">
        <ele>210</ele>
        <time>2018-09-23T09:33:35Z</time>
      </trkpt>
      <trkpt lat="45.8825" lon="4.77661">
        <ele>211</ele>
        <time>2018-09-23T09:33:37Z</time>
      </trkpt>
      <trkpt lat="45.88246" lon="4.77661">
        <ele>211</ele>
        <time>2018-09-23T09:33:38Z</time>
      </trkpt>
      <trkpt lat="45.88237" lon="4.77661">
        <ele>211</ele>
        <time>2018-09-23T09:33:40Z</time>
      </trkpt>
      <trkpt lat="45.88233" lon="4.77662">
        <ele>211</ele>
        <time>2018-09-23T09:33:41Z</time>
      </trkpt>
      <trkpt lat="45.88225" lon="4.77662">
        <ele>211</ele>
        <time>2018-09-23T09:33:43Z</time>
      </trkpt>
      <trkpt lat="45.8822" lon="4.77663">
        <ele>211</ele>
        <time>2018-09-23T09:33:44Z</time>
      </trkpt>
      <trkpt lat="45.88215" lon="4.77664">
        <ele>211</ele>
        <time>2018-09-23T09:33:45Z</time>
      </trkpt>
      <trkpt lat="45.8821" lon="4.77667">
        <ele>212</ele>
        <time>2018-09-23T09:33:46Z</time>
      </trkpt>
      <trkpt lat="45.88201" lon="4.77668">
        <ele>212</ele>
        <time>2018-09-23T09:33:48Z</time>
      </trkpt>
      <trkpt lat="45.88199" lon="4.7767">
        <ele>212</ele>
        <time>2018-09-23T09:33:49Z</time>
      </trkpt>
      <trkpt lat="45.88191" lon="4.77671">
        <ele>212</ele>
        <time>2018-09-23T09:33:51Z</time>
      </trkpt>
      <trkpt lat="45.88186" lon="4.77671">
        <ele>212</ele>
        <time>2018-09-23T09:33:52Z</time>
      </trkpt>
      <trkpt lat="45.88177" lon="4.77674">
        <ele>212</ele>
        <time>2018-09-23T09:33:54Z</time>
      </trkpt>
      <trkpt lat="45.88174" lon="4.77674">
        <ele>212</ele>
        <time>2018-09-23T09:33:55Z</time>
      </trkpt>
      <trkpt lat="45.88167" lon="4.77675">
        <ele>212</ele>
        <time>2018-09-23T09:33:57Z</time>
      </trkpt>
      <trkpt lat="45.88165" lon="4.77676">
        <ele>213</ele>
        <time>2018-09-23T09:33:58Z</time>
      </trkpt>
      <trkpt lat="45.88159" lon="4.77677">
        <ele>213</ele>
        <time>2018-09-23T09:33:59Z</time>
      </trkpt>
      <trkpt lat="45.88155" lon="4.77678">
        <ele>213</ele>
        <time>2018-09-23T09:34:00Z</time>
      </trkpt>
      <trkpt lat="45.88147" lon="4.77678">
        <ele>213</ele>
        <time>2018-09-23T09:34:02Z</time>
      </trkpt>
      <trkpt lat="45.88143" lon="4.77679">
        <ele>213</ele>
        <time>2018-09-23T09:34:03Z</time>
      </trkpt>
      <trkpt lat="45.88134" lon="4.7768">
        <ele>213</ele>
        <time>2018-09-23T09:34:05Z</time>
      </trkpt>
      <trkpt lat="45.8813" lon="4.7768">
        <ele>214</ele>
        <time>2018-09-23T09:34:06Z</time>
      </trkpt>
      <trkpt lat="45.88123" lon="4.77682">
        <ele>214</ele>
        <time>2018-09-23T09:34:08Z</time>
      </trkpt>
      <trkpt lat="45.88119" lon="4.77682">
        <ele>214</ele>
        <time>2018-09-23T09:34:09Z</time>
      </trkpt>
      <trkpt lat="45.8811" lon="4.77684">
        <ele>214</ele>
        <time>2018-09-23T09:34:11Z</time>
      </trkpt>
      <trkpt lat="45.88106" lon="4.77684">
        <ele>214</ele>
        <time>2018-09-23T09:34:12Z</time>
      </trkpt>
      <trkpt lat="45.88099" lon="4.77684">
        <ele>214</ele>
        <time>2018-09-23T09:34:14Z</time>
      </trkpt>
      <trkpt lat="45.88095" lon="4.77685">
        <ele>214</ele>
        <time>2018-09-23T09:34:15Z</time>
      </trkpt>
      <trkpt lat="45.88087" lon="4.77686">
        <ele>214</ele>
        <time>2018-09-23T09:34:17Z</time>
      </trkpt>
      <trkpt lat="45.88083" lon="4.77686">
        <ele>215</ele>
        <time>2018-09-23T09:34:18Z</time>
      </trkpt>
      <trkpt lat="45.88075" lon="4.77687">
        <ele>215</ele>
        <time>2018-09-23T09:34:20Z</time>
      </trkpt>
      <trkpt lat="45.8807" lon="4.77689">
        <ele>216</ele>
        <time>2018-09-23T09:34:21Z</time>
      </trkpt>
      <trkpt lat="45.88065" lon="4.7769">
        <ele>216</ele>
        <time>2018-09-23T09:34:22Z</time>
      </trkpt>
      <trkpt lat="45.88061" lon="4.77691">
        <ele>216</ele>
        <time>2018-09-23T09:34:23Z</time>
      </trkpt>
      <trkpt lat="45.88054" lon="4.77694">
        <ele>216</ele>
        <time>2018-09-23T09:34:25Z</time>
      </trkpt>
      <trkpt lat="45.8805" lon="4.77695">
        <ele>216</ele>
        <time>2018-09-23T09:34:26Z</time>
      </trkpt>
      <trkpt lat="45.88045" lon="4.77695">
        <ele>216</ele>
        <time>2018-09-23T09:34:27Z</time>
      </trkpt>
      <trkpt lat="45.88041" lon="4.77696">
        <ele>216</ele>
        <time>2018-09-23T09:34:28Z</time>
      </trkpt>
      <trkpt lat="45.88033" lon="4.77697">
        <ele>216</ele>
        <time>2018-09-23T09:34:30Z</time>
      </trkpt>
      <trkpt lat="45.88029" lon="4.77698">
        <ele>216</ele>
        <time>2018-09-23T09:34:31Z</time>
      </trkpt>
      <trkpt lat="45.88023" lon="4.77697">
        <ele>216</ele>
        <time>2018-09-23T09:34:33Z</time>
      </trkpt>
      <trkpt lat="45.88017" lon="4.77697">
        <ele>216</ele>
        <time>2018-09-23T09:34:34Z</time>
      </trkpt>
      <trkpt lat="45.8801" lon="4.77696">
        <ele>216</ele>
        <time>2018-09-23T09:34:36Z</time>
      </trkpt>
      <trkpt lat="45.88006" lon="4.77695">
        <ele>216</ele>
        <time>2018-09-23T09:34:37Z</time>
      </trkpt>
      <trkpt lat="45.87997" lon="4.77695">
        <ele>217</ele>
        <time>2018-09-23T09:34:39Z</time>
      </trkpt>
      <trkpt lat="45.87993" lon="4.77694">
        <ele>217</ele>
        <time>2018-09-23T09:34:40Z</time>
      </trkpt>
      <trkpt lat="45.87986" lon="4.77691">
        <ele>217</ele>
        <time>2018-09-23T09:34:42Z</time>
      </trkpt>
      <trkpt lat="45.87982" lon="4.77689">
        <ele>217</ele>
        <time>2018-09-23T09:34:43Z</time>
      </trkpt>
      <trkpt lat="45.87976" lon="4.77682">
        <ele>218</ele>
        <time>2018-09-23T09:34:45Z</time>
      </trkpt>
      <trkpt lat="45.87975" lon="4.7768">
        <ele>218</ele>
        <time>2018-09-23T09:34:46Z</time>
      </trkpt>
      <trkpt lat="45.87969" lon="4.77674">
        <ele>218</ele>
        <time>2018-09-23T09:34:49Z</time>
      </trkpt>
      <trkpt lat="45.87967" lon="4.77672">
        <ele>218</ele>
        <time>2018-09-23T09:34:50Z</time>
      </trkpt>
      <trkpt lat="45.87958" lon="4.77668">
        <ele>218</ele>
        <time>2018-09-23T09:34:53Z</time>
      </trkpt>
      <trkpt lat="45.87949" lon="4.77663">
        <ele>218</ele>
        <time>2018-09-23T09:34:54Z</time>
      </trkpt>
      <trkpt lat="45.87942" lon="4.77656">
        <ele>219</ele>
        <time>2018-09-23T09:34:56Z</time>
      </trkpt>
      <trkpt lat="45.87938" lon="4.77653">
        <ele>219</ele>
        <time>2018-09-23T09:34:57Z</time>
      </trkpt>
      <trkpt lat="45.8793" lon="4.77646">
        <ele>219</ele>
        <time>2018-09-23T09:34:59Z</time>
      </trkpt>
      <trkpt lat="45.87927" lon="4.77643">
        <ele>219</ele>
        <time>2018-09-23T09:35:00Z</time>
      </trkpt>
      <trkpt lat="45.8792" lon="4.77637">
        <ele>219</ele>
        <time>2018-09-23T09:35:02Z</time>
      </trkpt>
      <trkpt lat="45.87917" lon="4.77633">
        <ele>219</ele>
        <time>2018-09-23T09:35:03Z</time>
      </trkpt>
      <trkpt lat="45.8791" lon="4.77627">
        <ele>220</ele>
        <time>2018-09-23T09:35:05Z</time>
      </trkpt>
      <trkpt lat="45.87907" lon="4.77624">
        <ele>220</ele>
        <time>2018-09-23T09:35:06Z</time>
      </trkpt>
      <trkpt lat="45.87899" lon="4.77618">
        <ele>221</ele>
        <time>2018-09-23T09:35:08Z</time>
      </trkpt>
      <trkpt lat="45.87896" lon="4.77616">
        <ele>221</ele>
        <time>2018-09-23T09:35:09Z</time>
      </trkpt>
      <trkpt lat="45.87889" lon="4.77611">
        <ele>221</ele>
        <time>2018-09-23T09:35:11Z</time>
      </trkpt>
      <trkpt lat="45.87887" lon="4.77609">
        <ele>221</ele>
        <time>2018-09-23T09:35:12Z</time>
      </trkpt>
      <trkpt lat="45.87882" lon="4.77605">
        <ele>221</ele>
        <time>2018-09-23T09:35:13Z</time>
      </trkpt>
      <trkpt lat="45.87879" lon="4.77603">
        <ele>221</ele>
        <time>2018-09-23T09:35:14Z</time>
      </trkpt>
      <trkpt lat="45.87874" lon="4.77599">
        <ele>221</ele>
        <time>2018-09-23T09:35:16Z</time>
      </trkpt>
      <trkpt lat="45.87869" lon="4.77596">
        <ele>221</ele>
        <time>2018-09-23T09:35:17Z</time>
      </trkpt>
      <trkpt lat="45.87863" lon="4.77591">
        <ele>221</ele>
        <time>2018-09-23T09:35:19Z</time>
      </trkpt>
      <trkpt lat="45.87861" lon="4.7759">
        <ele>221</ele>
        <time>2018-09-23T09:35:20Z</time>
      </trkpt>
      <trkpt lat="45.87855" lon="4.77585">
        <ele>221</ele>
        <time>2018-09-23T09:35:23Z</time>
      </trkpt>
      <trkpt lat="45.87852" lon="4.77583">
        <ele>221</ele>
        <time>2018-09-23T09:35:24Z</time>
      </trkpt>
      <trkpt lat="45.87845" lon="4.77576">
        <ele>221</ele>
        <time>2018-09-23T09:35:25Z</time>
      </trkpt>
      <trkpt lat="45.87842" lon="4.77573">
        <ele>221</ele>
        <time>2018-09-23T09:35:26Z</time>
      </trkpt>
      <trkpt lat="45.87835" lon="4.77567">
        <ele>221</ele>
        <time>2018-09-23T09:35:29Z</time>
      </trkpt>
      <trkpt lat="45.87833" lon="4.77566">
        <ele>222</ele>
        <time>2018-09-23T09:35:30Z</time>
      </trkpt>
      <trkpt lat="45.87827" lon="4.77562">
        <ele>222</ele>
        <time>2018-09-23T09:35:32Z</time>
      </trkpt>
      <trkpt lat="45.8782" lon="4.77557">
        <ele>223</ele>
        <time>2018-09-23T09:35:33Z</time>
      </trkpt>
      <trkpt lat="45.87813" lon="4.77551">
        <ele>223</ele>
        <time>2018-09-23T09:35:35Z</time>
      </trkpt>
      <trkpt lat="45.8781" lon="4.77548">
        <ele>223</ele>
        <time>2018-09-23T09:35:36Z</time>
      </trkpt>
      <trkpt lat="45.87803" lon="4.77543">
        <ele>223</ele>
        <time>2018-09-23T09:35:38Z</time>
      </trkpt>
      <trkpt lat="45.87799" lon="4.7754">
        <ele>223</ele>
        <time>2018-09-23T09:35:39Z</time>
      </trkpt>
      <trkpt lat="45.87792" lon="4.77535">
        <ele>223</ele>
        <time>2018-09-23T09:35:42Z</time>
      </trkpt>
      <trkpt lat="45.87786" lon="4.77532">
        <ele>223</ele>
        <time>2018-09-23T09:35:43Z</time>
      </trkpt>
      <trkpt lat="45.87779" lon="4.77528">
        <ele>223</ele>
        <time>2018-09-23T09:35:45Z</time>
      </trkpt>
      <trkpt lat="45.87775" lon="4.77525">
        <ele>223</ele>
        <time>2018-09-23T09:35:46Z</time>
      </trkpt>
      <trkpt lat="45.87769" lon="4.7752">
        <ele>223</ele>
        <time>2018-09-23T09:35:48Z</time>
      </trkpt>
      <trkpt lat="45.87765" lon="4.77518">
        <ele>223</ele>
        <time>2018-09-23T09:35:49Z</time>
      </trkpt>
      <trkpt lat="45.87759" lon="4.77512">
        <ele>224</ele>
        <time>2018-09-23T09:35:53Z</time>
      </trkpt>
      <trkpt lat="45.87757" lon="4.77511">
        <ele>224</ele>
        <time>2018-09-23T09:35:54Z</time>
      </trkpt>
      <trkpt lat="45.87751" lon="4.77506">
        <ele>224</ele>
        <time>2018-09-23T09:35:57Z</time>
      </trkpt>
      <trkpt lat="45.87748" lon="4.77504">
        <ele>224</ele>
        <time>2018-09-23T09:35:58Z</time>
      </trkpt>
      <trkpt lat="45.87743" lon="4.77501">
        <ele>225</ele>
        <time>2018-09-23T09:36:00Z</time>
      </trkpt>
      <trkpt lat="45.8774" lon="4.77499">
        <ele>225</ele>
        <time>2018-09-23T09:36:01Z</time>
      </trkpt>
      <trkpt lat="45.87734" lon="4.77496">
        <ele>225</ele>
        <time>2018-09-23T09:36:03Z</time>
      </trkpt>
      <trkpt lat="45.87725" lon="4.77492">
        <ele>226</ele>
        <time>2018-09-23T09:36:04Z</time>
      </trkpt>
      <trkpt lat="45.87717" lon="4.7749">
        <ele>226</ele>
        <time>2018-09-23T09:36:07Z</time>
      </trkpt>
      <trkpt lat="45.87712" lon="4.7749">
        <ele>226</ele>
        <time>2018-09-23T09:36:08Z</time>
      </trkpt>
      <trkpt lat="45.87704" lon="4.7749">
        <ele>227</ele>
        <time>2018-09-23T09:36:12Z</time>
      </trkpt>
      <trkpt lat="45.87701" lon="4.7749">
        <ele>227</ele>
        <time>2018-09-23T09:36:13Z</time>
      </trkpt>
      <trkpt lat="45.87694" lon="4.77488">
        <ele>227</ele>
        <time>2018-09-23T09:36:16Z</time>
      </trkpt>
      <trkpt lat="45.87691" lon="4.77488">
        <ele>227</ele>
        <time>2018-09-23T09:36:17Z</time>
      </trkpt>
      <trkpt lat="45.87683" lon="4.77488">
        <ele>227</ele>
        <time>2018-09-23T09:36:20Z</time>
      </trkpt>
      <trkpt lat="45.87679" lon="4.77488">
        <ele>228</ele>
        <time>2018-09-23T09:36:21Z</time>
      </trkpt>
      <trkpt lat="45.87672" lon="4.77488">
        <ele>228</ele>
        <time>2018-09-23T09:36:23Z</time>
      </trkpt>
      <trkpt lat="45.87669" lon="4.77488">
        <ele>228</ele>
        <time>2018-09-23T09:36:24Z</time>
      </trkpt>
      <trkpt lat="45.87662" lon="4.77487">
        <ele>230</ele>
        <time>2018-09-23T09:36:26Z</time>
      </trkpt>
      <trkpt lat="45.8766" lon="4.77488">
        <ele>230</ele>
        <time>2018-09-23T09:36:27Z</time>
      </trkpt>
      <trkpt lat="45.87652" lon="4.77489">
        <ele>230</ele>
        <time>2018-09-23T09:36:30Z</time>
      </trkpt>
      <trkpt lat="45.87649" lon="4.77489">
        <ele>230</ele>
        <time>2018-09-23T09:36:31Z</time>
      </trkpt>
      <trkpt lat="45.87642" lon="4.77491">
        <ele>230</ele>
        <time>2018-09-23T09:36:34Z</time>
      </trkpt>
      <trkpt lat="45.8764" lon="4.77491">
        <ele>230</ele>
        <time>2018-09-23T09:36:35Z</time>
      </trkpt>
      <trkpt lat="45.87632" lon="4.77492">
        <ele>231</ele>
        <time>2018-09-23T09:36:38Z</time>
      </trkpt>
      <trkpt lat="45.87629" lon="4.77493">
        <ele>231</ele>
        <time>2018-09-23T09:36:39Z</time>
      </trkpt>
      <trkpt lat="45.87622" lon="4.77495">
        <ele>231</ele>
        <time>2018-09-23T09:36:42Z</time>
      </trkpt>
      <trkpt lat="45.87619" lon="4.77496">
        <ele>231</ele>
        <time>2018-09-23T09:36:43Z</time>
      </trkpt>
      <trkpt lat="45.87611" lon="4.77498">
        <ele>231</ele>
        <time>2018-09-23T09:36:47Z</time>
      </trkpt>
      <trkpt lat="45.87608" lon="4.77498">
        <ele>231</ele>
        <time>2018-09-23T09:36:48Z</time>
      </trkpt>
      <trkpt lat="45.87601" lon="4.77499">
        <ele>231</ele>
        <time>2018-09-23T09:36:50Z</time>
      </trkpt>
      <trkpt lat="45.87597" lon="4.775">
        <ele>231</ele>
        <time>2018-09-23T09:36:51Z</time>
      </trkpt>
      <trkpt lat="45.87588" lon="4.77501">
        <ele>232</ele>
        <time>2018-09-23T09:36:54Z</time>
      </trkpt>
      <trkpt lat="45.87585" lon="4.77501">
        <ele>232</ele>
        <time>2018-09-23T09:36:55Z</time>
      </trkpt>
      <trkpt lat="45.87579" lon="4.77501">
        <ele>232</ele>
        <time>2018-09-23T09:36:57Z</time>
      </trkpt>
      <trkpt lat="45.87576" lon="4.77502">
        <ele>232</ele>
        <time>2018-09-23T09:36:58Z</time>
      </trkpt>
      <trkpt lat="45.87567" lon="4.775">
        <ele>232</ele>
        <time>2018-09-23T09:37:01Z</time>
      </trkpt>
      <trkpt lat="45.87564" lon="4.77499">
        <ele>233</ele>
        <time>2018-09-23T09:37:02Z</time>
      </trkpt>
      <trkpt lat="45.87557" lon="4.77492">
        <ele>233</ele>
        <time>2018-09-23T09:37:05Z</time>
      </trkpt>
      <trkpt lat="45.87555" lon="4.77489">
        <ele>233</ele>
        <time>2018-09-23T09:37:06Z</time>
      </trkpt>
      <trkpt lat="45.8755" lon="4.77481">
        <ele>233</ele>
        <time>2018-09-23T09:37:09Z</time>
      </trkpt>
      <trkpt lat="45.87548" lon="4.77479">
        <ele>233</ele>
        <time>2018-09-23T09:37:10Z</time>
      </trkpt>
      <trkpt lat="45.87543" lon="4.77471">
        <ele>233</ele>
        <time>2018-09-23T09:37:13Z</time>
      </trkpt>
      <trkpt lat="45.87542" lon="4.77468">
        <ele>233</ele>
        <time>2018-09-23T09:37:14Z</time>
      </trkpt>
      <trkpt lat="45.87536" lon="4.77459">
        <ele>233</ele>
        <time>2018-09-23T09:37:17Z</time>
      </trkpt>
      <trkpt lat="45.87535" lon="4.77456">
        <ele>234</ele>
        <time>2018-09-23T09:37:18Z</time>
      </trkpt>
      <trkpt lat="45.87529" lon="4.77445">
        <ele>234</ele>
        <time>2018-09-23T09:37:19Z</time>
      </trkpt>
      <trkpt lat="45.87522" lon="4.77436">
        <ele>233</ele>
        <time>2018-09-23T09:37:21Z</time>
      </trkpt>
      <trkpt lat="45.87519" lon="4.77432">
        <ele>233</ele>
        <time>2018-09-23T09:37:22Z</time>
      </trkpt>
      <trkpt lat="45.87512" lon="4.77424">
        <ele>233</ele>
        <time>2018-09-23T09:37:25Z</time>
      </trkpt>
      <trkpt lat="45.87511" lon="4.77421">
        <ele>233</ele>
        <time>2018-09-23T09:37:26Z</time>
      </trkpt>
      <trkpt lat="45.87509" lon="4.77419">
        <ele>233</ele>
        <time>2018-09-23T09:37:27Z</time>
      </trkpt>
      <trkpt lat="45.87503" lon="4.7741">
        <ele>233</ele>
        <time>2018-09-23T09:37:28Z</time>
      </trkpt>
      <trkpt lat="45.87498" lon="4.77399">
        <ele>234</ele>
        <time>2018-09-23T09:37:31Z</time>
      </trkpt>
      <trkpt lat="45.87496" lon="4.77394">
        <ele>234</ele>
        <time>2018-09-23T09:37:32Z</time>
      </trkpt>
      <trkpt lat="45.87493" lon="4.77383">
        <ele>235</ele>
        <time>2018-09-23T09:37:35Z</time>
      </trkpt>
      <trkpt lat="45.87493" lon="4.7738">
        <ele>235</ele>
        <time>2018-09-23T09:37:36Z</time>
      </trkpt>
      <trkpt lat="45.8749" lon="4.77369">
        <ele>235</ele>
        <time>2018-09-23T09:37:39Z</time>
      </trkpt>
      <trkpt lat="45.87489" lon="4.77365">
        <ele>235</ele>
        <time>2018-09-23T09:37:40Z</time>
      </trkpt>
      <trkpt lat="45.87487" lon="4.77357">
        <ele>235</ele>
        <time>2018-09-23T09:37:42Z</time>
      </trkpt>
      <trkpt lat="45.87486" lon="4.77352">
        <ele>235</ele>
        <time>2018-09-23T09:37:43Z</time>
      </trkpt>
      <trkpt lat="45.87483" lon="4.77344">
        <ele>235</ele>
        <time>2018-09-23T09:37:45Z</time>
      </trkpt>
      <trkpt lat="45.87482" lon="4.7734">
        <ele>234</ele>
        <time>2018-09-23T09:37:46Z</time>
      </trkpt>
      <trkpt lat="45.8748" lon="4.77331">
        <ele>234</ele>
        <time>2018-09-23T09:37:48Z</time>
      </trkpt>
      <trkpt lat="45.87478" lon="4.77326">
        <ele>234</ele>
        <time>2018-09-23T09:37:49Z</time>
      </trkpt>
      <trkpt lat="45.87474" lon="4.77311">
        <ele>235</ele>
        <time>2018-09-23T09:37:50Z</time>
      </trkpt>
      <trkpt lat="45.87471" lon="4.773">
        <ele>235</ele>
        <time>2018-09-23T09:37:52Z</time>
      </trkpt>
      <trkpt lat="45.8747" lon="4.77295">
        <ele>235</ele>
        <time>2018-09-23T09:37:53Z</time>
      </trkpt>
      <trkpt lat="45.87468" lon="4.77282">
        <ele>235</ele>
        <time>2018-09-23T09:37:56Z</time>
      </trkpt>
      <trkpt lat="45.87467" lon="4.7728">
        <ele>235</ele>
        <time>2018-09-23T09:37:57Z</time>
      </trkpt>
      <trkpt lat="45.87464" lon="4.77269">
        <ele>235</ele>
        <time>2018-09-23T09:38:00Z</time>
      </trkpt>
      <trkpt lat="45.87459" lon="4.77259">
        <ele>235</ele>
        <time>2018-09-23T09:38:01Z</time>
      </trkpt>
      <trkpt lat="45.87454" lon="4.77251">
        <ele>235</ele>
        <time>2018-09-23T09:38:04Z</time>
      </trkpt>
      <trkpt lat="45.87452" lon="4.77249">
        <ele>235</ele>
        <time>2018-09-23T09:38:05Z</time>
      </trkpt>
      <trkpt lat="45.87449" lon="4.77244">
        <ele>235</ele>
        <time>2018-09-23T09:38:07Z</time>
      </trkpt>
      <trkpt lat="45.87443" lon="4.77237">
        <ele>235</ele>
        <time>2018-09-23T09:38:08Z</time>
      </trkpt>
      <trkpt lat="45.87437" lon="4.77231">
        <ele>235</ele>
        <time>2018-09-23T09:38:10Z</time>
      </trkpt>
      <trkpt lat="45.87433" lon="4.77228">
        <ele>235</ele>
        <time>2018-09-23T09:38:11Z</time>
      </trkpt>
      <trkpt lat="45.87429" lon="4.77226">
        <ele>235</ele>
        <time>2018-09-23T09:38:12Z</time>
      </trkpt>
      <trkpt lat="45.87424" lon="4.77225">
        <ele>235</ele>
        <time>2018-09-23T09:38:13Z</time>
      </trkpt>
      <trkpt lat="45.87416" lon="4.77222">
        <ele>238</ele>
        <time>2018-09-23T09:38:15Z</time>
      </trkpt>
      <trkpt lat="45.87412" lon="4.7722">
        <ele>238</ele>
        <time>2018-09-23T09:38:16Z</time>
      </trkpt>
      <trkpt lat="45.87404" lon="4.77218">
        <ele>238</ele>
        <time>2018-09-23T09:38:19Z</time>
      </trkpt>
      <trkpt lat="45.87397" lon="4.77215">
        <ele>239</ele>
        <time>2018-09-23T09:38:20Z</time>
      </trkpt>
      <trkpt lat="45.87392" lon="4.77212">
        <ele>239</ele>
        <time>2018-09-23T09:38:22Z</time>
      </trkpt>
      <trkpt lat="45.87388" lon="4.77213">
        <ele>239</ele>
        <time>2018-09-23T09:38:23Z</time>
      </trkpt>
      <trkpt lat="45.87383" lon="4.77214">
        <ele>239</ele>
        <time>2018-09-23T09:38:24Z</time>
      </trkpt>
      <trkpt lat="45.87379" lon="4.77214">
        <ele>239</ele>
        <time>2018-09-23T09:38:25Z</time>
      </trkpt>
      <trkpt lat="45.87372" lon="4.77217">
        <ele>239</ele>
        <time>2018-09-23T09:38:27Z</time>
      </trkpt>
      <trkpt lat="45.87367" lon="4.77217">
        <ele>240</ele>
        <time>2018-09-23T09:38:28Z</time>
      </trkpt>
      <trkpt lat="45.87362" lon="4.77219">
        <ele>240</ele>
        <time>2018-09-23T09:38:29Z</time>
      </trkpt>
      <trkpt lat="45.87358" lon="4.7722">
        <ele>240</ele>
        <time>2018-09-23T09:38:30Z</time>
      </trkpt>
      <trkpt lat="45.8735" lon="4.77221">
        <ele>240</ele>
        <time>2018-09-23T09:38:32Z</time>
      </trkpt>
      <trkpt lat="45.87346" lon="4.77221">
        <ele>240</ele>
        <time>2018-09-23T09:38:33Z</time>
      </trkpt>
      <trkpt lat="45.87338" lon="4.77223">
        <ele>241</ele>
        <time>2018-09-23T09:38:36Z</time>
      </trkpt>
      <trkpt lat="45.87335" lon="4.77224">
        <ele>241</ele>
        <time>2018-09-23T09:38:37Z</time>
      </trkpt>
      <trkpt lat="45.87327" lon="4.77227">
        <ele>243</ele>
        <time>2018-09-23T09:38:38Z</time>
      </trkpt>
      <trkpt lat="45.87325" lon="4.77228">
        <ele>244</ele>
        <time>2018-09-23T09:38:39Z</time>
      </trkpt>
      <trkpt lat="45.87318" lon="4.77228">
        <ele>244</ele>
        <time>2018-09-23T09:38:40Z</time>
      </trkpt>
      <trkpt lat="45.87313" lon="4.77228">
        <ele>244</ele>
        <time>2018-09-23T09:38:41Z</time>
      </trkpt>
      <trkpt lat="45.87307" lon="4.77226">
        <ele>244</ele>
        <time>2018-09-23T09:38:43Z</time>
      </trkpt>
      <trkpt lat="45.87304" lon="4.77225">
        <ele>244</ele>
        <time>2018-09-23T09:38:44Z</time>
      </trkpt>
      <trkpt lat="45.87296" lon="4.7722">
        <ele>244</ele>
        <time>2018-09-23T09:38:47Z</time>
      </trkpt>
      <trkpt lat="45.87293" lon="4.77219">
        <ele>244</ele>
        <time>2018-09-23T09:38:48Z</time>
      </trkpt>
      <trkpt lat="45.87287" lon="4.77212">
        <ele>244</ele>
        <time>2018-09-23T09:38:51Z</time>
      </trkpt>
      <trkpt lat="45.87286" lon="4.77208">
        <ele>244</ele>
        <time>2018-09-23T09:38:52Z</time>
      </trkpt>
      <trkpt lat="45.87283" lon="4.772">
        <ele>244</ele>
        <time>2018-09-23T09:38:54Z</time>
      </trkpt>
      <trkpt lat="45.87282" lon="4.77195">
        <ele>244</ele>
        <time>2018-09-23T09:38:55Z</time>
      </trkpt>
      <trkpt lat="45.8728" lon="4.77186">
        <ele>244</ele>
        <time>2018-09-23T09:38:57Z</time>
      </trkpt>
      <trkpt lat="45.87279" lon="4.77181">
        <ele>244</ele>
        <time>2018-09-23T09:38:58Z</time>
      </trkpt>
      <trkpt lat="45.87278" lon="4.77172">
        <ele>244</ele>
        <time>2018-09-23T09:39:00Z</time>
      </trkpt>
      <trkpt lat="45.87277" lon="4.77158">
        <ele>242</ele>
        <time>2018-09-23T09:39:01Z</time>
      </trkpt>
      <trkpt lat="45.87276" lon="4.77146">
        <ele>241</ele>
        <time>2018-09-23T09:39:03Z</time>
      </trkpt>
      <trkpt lat="45.87275" lon="4.7714">
        <ele>241</ele>
        <time>2018-09-23T09:39:04Z</time>
      </trkpt>
      <trkpt lat="45.87277" lon="4.77131">
        <ele>241</ele>
        <time>2018-09-23T09:39:06Z</time>
      </trkpt>
      <trkpt lat="45.8728" lon="4.77126">
        <ele>241</ele>
        <time>2018-09-23T09:39:07Z</time>
      </trkpt>
      <trkpt lat="45.87283" lon="4.77118">
        <ele>240</ele>
        <time>2018-09-23T09:39:09Z</time>
      </trkpt>
      <trkpt lat="45.87284" lon="4.77113">
        <ele>240</ele>
        <time>2018-09-23T09:39:10Z</time>
      </trkpt>
      <trkpt lat="45.87284" lon="4.77102">
        <ele>240</ele>
        <time>2018-09-23T09:39:12Z</time>
      </trkpt>
      <trkpt lat="45.87283" lon="4.77096">
        <ele>240</ele>
        <time>2018-09-23T09:39:13Z</time>
      </trkpt>
      <trkpt lat="45.87281" lon="4.77084">
        <ele>240</ele>
        <time>2018-09-23T09:39:15Z</time>
      </trkpt>
      <trkpt lat="45.8728" lon="4.77078">
        <ele>239</ele>
        <time>2018-09-23T09:39:16Z</time>
      </trkpt>
      <trkpt lat="45.87278" lon="4.77066">
        <ele>239</ele>
        <time>2018-09-23T09:39:18Z</time>
      </trkpt>
      <trkpt lat="45.87278" lon="4.77063">
        <ele>239</ele>
        <time>2018-09-23T09:39:19Z</time>
      </trkpt>
      <trkpt lat="45.87276" lon="4.77055">
        <ele>239</ele>
        <time>2018-09-23T09:39:20Z</time>
      </trkpt>
      <trkpt lat="45.87273" lon="4.77049">
        <ele>239</ele>
        <time>2018-09-23T09:39:21Z</time>
      </trkpt>
      <trkpt lat="45.87272" lon="4.77036">
        <ele>239</ele>
        <time>2018-09-23T09:39:23Z</time>
      </trkpt>
      <trkpt lat="45.87271" lon="4.7703">
        <ele>239</ele>
        <time>2018-09-23T09:39:24Z</time>
      </trkpt>
      <trkpt lat="45.87271" lon="4.77019">
        <ele>239</ele>
        <time>2018-09-23T09:39:26Z</time>
      </trkpt>
      <trkpt lat="45.87271" lon="4.77012">
        <ele>239</ele>
        <time>2018-09-23T09:39:27Z</time>
      </trkpt>
      <trkpt lat="45.8727" lon="4.77006">
        <ele>239</ele>
        <time>2018-09-23T09:39:28Z</time>
      </trkpt>
      <trkpt lat="45.87269" lon="4.76999">
        <ele>240</ele>
        <time>2018-09-23T09:39:29Z</time>
      </trkpt>
      <trkpt lat="45.87269" lon="4.76991">
        <ele>240</ele>
        <time>2018-09-23T09:39:30Z</time>
      </trkpt>
      <trkpt lat="45.87271" lon="4.76986">
        <ele>240</ele>
        <time>2018-09-23T09:39:31Z</time>
      </trkpt>
      <trkpt lat="45.87271" lon="4.76974">
        <ele>240</ele>
        <time>2018-09-23T09:39:33Z</time>
      </trkpt>
      <trkpt lat="45.87269" lon="4.76964">
        <ele>240</ele>
        <time>2018-09-23T09:39:34Z</time>
      </trkpt>
      <trkpt lat="45.87267" lon="4.76958">
        <ele>240</ele>
        <time>2018-09-23T09:39:35Z</time>
      </trkpt>
      <trkpt lat="45.87267" lon="4.76952">
        <ele>240</ele>
        <time>2018-09-23T09:39:36Z</time>
      </trkpt>
      <trkpt lat="45.87269" lon="4.76946">
        <ele>240</ele>
        <time>2018-09-23T09:39:37Z</time>
      </trkpt>
      <trkpt lat="45.87269" lon="4.76939">
        <ele>241</ele>
        <time>2018-09-23T09:39:38Z</time>
      </trkpt>
      <trkpt lat="45.87269" lon="4.76926">
        <ele>241</ele>
        <time>2018-09-23T09:39:40Z</time>
      </trkpt>
      <trkpt lat="45.87273" lon="4.76921">
        <ele>241</ele>
        <time>2018-09-23T09:39:41Z</time>
      </trkpt>
      <trkpt lat="45.87275" lon="4.76913">
        <ele>240</ele>
        <time>2018-09-23T09:39:42Z</time>
      </trkpt>
      <trkpt lat="45.87276" lon="4.76908">
        <ele>240</ele>
        <time>2018-09-23T09:39:43Z</time>
      </trkpt>
      <trkpt lat="45.87277" lon="4.76901">
        <ele>240</ele>
        <time>2018-09-23T09:39:44Z</time>
      </trkpt>
      <trkpt lat="45.87277" lon="4.76895">
        <ele>240</ele>
        <time>2018-09-23T09:39:45Z</time>
      </trkpt>
      <trkpt lat="45.87274" lon="4.76885">
        <ele>240</ele>
        <time>2018-09-23T09:39:46Z</time>
      </trkpt>
      <trkpt lat="45.87275" lon="4.76878">
        <ele>240</ele>
        <time>2018-09-23T09:39:47Z</time>
      </trkpt>
      <trkpt lat="45.87277" lon="4.76871">
        <ele>239</ele>
        <time>2018-09-23T09:39:48Z</time>
      </trkpt>
      <trkpt lat="45.87275" lon="4.76862">
        <ele>239</ele>
        <time>2018-09-23T09:39:49Z</time>
      </trkpt>
      <trkpt lat="45.87275" lon="4.76854">
        <ele>239</ele>
        <time>2018-09-23T09:39:50Z</time>
      </trkpt>
      <trkpt lat="45.87272" lon="4.76845">
        <ele>239</ele>
        <time>2018-09-23T09:39:51Z</time>
      </trkpt>
      <trkpt lat="45.87271" lon="4.76837">
        <ele>239</ele>
        <time>2018-09-23T09:39:52Z</time>
      </trkpt>
      <trkpt lat="45.8727" lon="4.76827">
        <ele>237</ele>
        <time>2018-09-23T09:39:53Z</time>
      </trkpt>
      <trkpt lat="45.87268" lon="4.76819">
        <ele>237</ele>
        <time>2018-09-23T09:39:54Z</time>
      </trkpt>
      <trkpt lat="45.87266" lon="4.76813">
        <ele>237</ele>
        <time>2018-09-23T09:39:55Z</time>
      </trkpt>
      <trkpt lat="45.87264" lon="4.76804">
        <ele>237</ele>
        <time>2018-09-23T09:39:56Z</time>
      </trkpt>
      <trkpt lat="45.87263" lon="4.76796">
        <ele>236</ele>
        <time>2018-09-23T09:39:57Z</time>
      </trkpt>
      <trkpt lat="45.87262" lon="4.76787">
        <ele>236</ele>
        <time>2018-09-23T09:39:58Z</time>
      </trkpt>
      <trkpt lat="45.87262" lon="4.76778">
        <ele>236</ele>
        <time>2018-09-23T09:39:59Z</time>
      </trkpt>
      <trkpt lat="45.87262" lon="4.7677">
        <ele>236</ele>
        <time>2018-09-23T09:40:00Z</time>
      </trkpt>
      <trkpt lat="45.87262" lon="4.76761">
        <ele>236</ele>
        <time>2018-09-23T09:40:01Z</time>
      </trkpt>
      <trkpt lat="45.87261" lon="4.76753">
        <ele>236</ele>
        <time>2018-09-23T09:40:02Z</time>
      </trkpt>
      <trkpt lat="45.87263" lon="4.76745">
        <ele>235</ele>
        <time>2018-09-23T09:40:03Z</time>
      </trkpt>
      <trkpt lat="45.87264" lon="4.76736">
        <ele>235</ele>
        <time>2018-09-23T09:40:04Z</time>
      </trkpt>
      <trkpt lat="45.87266" lon="4.76728">
        <ele>234</ele>
        <time>2018-09-23T09:40:05Z</time>
      </trkpt>
      <trkpt lat="45.87266" lon="4.76721">
        <ele>234</ele>
        <time>2018-09-23T09:40:06Z</time>
      </trkpt>
      <trkpt lat="45.87265" lon="4.76714">
        <ele>234</ele>
        <time>2018-09-23T09:40:07Z</time>
      </trkpt>
      <trkpt lat="45.87264" lon="4.76706">
        <ele>234</ele>
        <time>2018-09-23T09:40:08Z</time>
      </trkpt>
      <trkpt lat="45.87265" lon="4.76697">
        <ele>234</ele>
        <time>2018-09-23T09:40:09Z</time>
      </trkpt>
      <trkpt lat="45.87264" lon="4.7669">
        <ele>234</ele>
        <time>2018-09-23T09:40:10Z</time>
      </trkpt>
      <trkpt lat="45.87265" lon="4.76683">
        <ele>234</ele>
        <time>2018-09-23T09:40:11Z</time>
      </trkpt>
      <trkpt lat="45.87266" lon="4.76675">
        <ele>234</ele>
        <time>2018-09-23T09:40:12Z</time>
      </trkpt>
      <trkpt lat="45.87265" lon="4.76667">
        <ele>234</ele>
        <time>2018-09-23T09:40:13Z</time>
      </trkpt>
      <trkpt lat="45.87263" lon="4.76659">
        <ele>234</ele>
        <time>2018-09-23T09:40:14Z</time>
      </trkpt>
      <trkpt lat="45.87262" lon="4.76651">
        <ele>234</ele>
        <time>2018-09-23T09:40:15Z</time>
      </trkpt>
      <trkpt lat="45.87262" lon="4.76643">
        <ele>234</ele>
        <time>2018-09-23T09:40:16Z</time>
      </trkpt>
      <trkpt lat="45.87263" lon="4.76636">
        <ele>234</ele>
        <time>2018-09-23T09:40:17Z</time>
      </trkpt>
      <trkpt lat="45.87264" lon="4.76623">
        <ele>234</ele>
        <time>2018-09-23T09:40:19Z</time>
      </trkpt>
      <trkpt lat="45.87264" lon="4.76616">
        <ele>234</ele>
        <time>2018-09-23T09:40:20Z</time>
      </trkpt>
      <trkpt lat="45.87264" lon="4.76609">
        <ele>235</ele>
        <time>2018-09-23T09:40:21Z</time>
      </trkpt>
      <trkpt lat="45.87264" lon="4.76602">
        <ele>235</ele>
        <time>2018-09-23T09:40:22Z</time>
      </trkpt>
      <trkpt lat="45.87264" lon="4.76595">
        <ele>235</ele>
        <time>2018-09-23T09:40:23Z</time>
      </trkpt>
      <trkpt lat="45.87263" lon="4.76589">
        <ele>235</ele>
        <time>2018-09-23T09:40:24Z</time>
      </trkpt>
      <trkpt lat="45.87261" lon="4.76577">
        <ele>236</ele>
        <time>2018-09-23T09:40:26Z</time>
      </trkpt>
      <trkpt lat="45.87259" lon="4.76571">
        <ele>236</ele>
        <time>2018-09-23T09:40:27Z</time>
      </trkpt>
      <trkpt lat="45.8726" lon="4.76563">
        <ele>235</ele>
        <time>2018-09-23T09:40:30Z</time>
      </trkpt>
      <trkpt lat="45.8726" lon="4.76554">
        <ele>235</ele>
        <time>2018-09-23T09:40:31Z</time>
      </trkpt>
      <trkpt lat="45.8726" lon="4.76544">
        <ele>235</ele>
        <time>2018-09-23T09:40:33Z</time>
      </trkpt>
      <trkpt lat="45.87261" lon="4.76537">
        <ele>236</ele>
        <time>2018-09-23T09:40:34Z</time>
      </trkpt>
      <trkpt lat="45.87263" lon="4.76526">
        <ele>236</ele>
        <time>2018-09-23T09:40:36Z</time>
      </trkpt>
      <trkpt lat="45.87263" lon="4.76519">
        <ele>236</ele>
        <time>2018-09-23T09:40:37Z</time>
      </trkpt>
      <trkpt lat="45.87264" lon="4.76508">
        <ele>236</ele>
        <time>2018-09-23T09:40:39Z</time>
      </trkpt>
      <trkpt lat="45.87263" lon="4.76502">
        <ele>236</ele>
        <time>2018-09-23T09:40:40Z</time>
      </trkpt>
      <trkpt lat="45.87263" lon="4.76495">
        <ele>236</ele>
        <time>2018-09-23T09:40:42Z</time>
      </trkpt>
      <trkpt lat="45.87263" lon="4.76486">
        <ele>236</ele>
        <time>2018-09-23T09:40:43Z</time>
      </trkpt>
      <trkpt lat="45.87263" lon="4.76475">
        <ele>236</ele>
        <time>2018-09-23T09:40:45Z</time>
      </trkpt>
      <trkpt lat="45.87263" lon="4.76468">
        <ele>235</ele>
        <time>2018-09-23T09:40:46Z</time>
      </trkpt>
      <trkpt lat="45.87263" lon="4.76459">
        <ele>235</ele>
        <time>2018-09-23T09:40:47Z</time>
      </trkpt>
      <trkpt lat="45.87263" lon="4.76454">
        <ele>235</ele>
        <time>2018-09-23T09:40:48Z</time>
      </trkpt>
      <trkpt lat="45.87262" lon="4.76448">
        <ele>235</ele>
        <time>2018-09-23T09:40:49Z</time>
      </trkpt>
      <trkpt lat="45.87263" lon="4.7644">
        <ele>235</ele>
        <time>2018-09-23T09:40:50Z</time>
      </trkpt>
      <trkpt lat="45.87261" lon="4.76432">
        <ele>235</ele>
        <time>2018-09-23T09:40:52Z</time>
      </trkpt>
      <trkpt lat="45.87265" lon="4.76424">
        <ele>235</ele>
        <time>2018-09-23T09:40:53Z</time>
      </trkpt>
      <trkpt lat="45.87265" lon="4.76415">
        <ele>235</ele>
        <time>2018-09-23T09:40:54Z</time>
      </trkpt>
      <trkpt lat="45.87264" lon="4.76408">
        <ele>235</ele>
        <time>2018-09-23T09:40:55Z</time>
      </trkpt>
      <trkpt lat="45.87264" lon="4.764">
        <ele>234</ele>
        <time>2018-09-23T09:40:56Z</time>
      </trkpt>
      <trkpt lat="45.8726" lon="4.76393">
        <ele>234</ele>
        <time>2018-09-23T09:40:57Z</time>
      </trkpt>
      <trkpt lat="45.87261" lon="4.76384">
        <ele>234</ele>
        <time>2018-09-23T09:40:58Z</time>
      </trkpt>
      <trkpt lat="45.87261" lon="4.76377">
        <ele>234</ele>
        <time>2018-09-23T09:40:59Z</time>
      </trkpt>
      <trkpt lat="45.87259" lon="4.76369">
        <ele>234</ele>
        <time>2018-09-23T09:41:00Z</time>
      </trkpt>
      <trkpt lat="45.87258" lon="4.76361">
        <ele>234</ele>
        <time>2018-09-23T09:41:01Z</time>
      </trkpt>
      <trkpt lat="45.87256" lon="4.76354">
        <ele>234</ele>
        <time>2018-09-23T09:41:02Z</time>
      </trkpt>
      <trkpt lat="45.87256" lon="4.76347">
        <ele>234</ele>
        <time>2018-09-23T09:41:03Z</time>
      </trkpt>
      <trkpt lat="45.87255" lon="4.76339">
        <ele>234</ele>
        <time>2018-09-23T09:41:04Z</time>
      </trkpt>
      <trkpt lat="45.87256" lon="4.76331">
        <ele>234</ele>
        <time>2018-09-23T09:41:05Z</time>
      </trkpt>
      <trkpt lat="45.87256" lon="4.76324">
        <ele>233</ele>
        <time>2018-09-23T09:41:06Z</time>
      </trkpt>
      <trkpt lat="45.87256" lon="4.76316">
        <ele>233</ele>
        <time>2018-09-23T09:41:07Z</time>
      </trkpt>
      <trkpt lat="45.87254" lon="4.76309">
        <ele>233</ele>
        <time>2018-09-23T09:41:08Z</time>
      </trkpt>
      <trkpt lat="45.87255" lon="4.76302">
        <ele>233</ele>
        <time>2018-09-23T09:41:09Z</time>
      </trkpt>
      <trkpt lat="45.87254" lon="4.76294">
        <ele>233</ele>
        <time>2018-09-23T09:41:10Z</time>
      </trkpt>
      <trkpt lat="45.87254" lon="4.76286">
        <ele>233</ele>
        <time>2018-09-23T09:41:11Z</time>
      </trkpt>
      <trkpt lat="45.87255" lon="4.76278">
        <ele>233</ele>
        <time>2018-09-23T09:41:12Z</time>
      </trkpt>
      <trkpt lat="45.87255" lon="4.76269">
        <ele>234</ele>
        <time>2018-09-23T09:41:13Z</time>
      </trkpt>
      <trkpt lat="45.87254" lon="4.76262">
        <ele>234</ele>
        <time>2018-09-23T09:41:14Z</time>
      </trkpt>
      <trkpt lat="45.87253" lon="4.76255">
        <ele>234</ele>
        <time>2018-09-23T09:41:15Z</time>
      </trkpt>
      <trkpt lat="45.87254" lon="4.76246">
        <ele>234</ele>
        <time>2018-09-23T09:41:16Z</time>
      </trkpt>
      <trkpt lat="45.87254" lon="4.76239">
        <ele>234</ele>
        <time>2018-09-23T09:41:17Z</time>
      </trkpt>
      <trkpt lat="45.87255" lon="4.76232">
        <ele>233</ele>
        <time>2018-09-23T09:41:18Z</time>
      </trkpt>
      <trkpt lat="45.87255" lon="4.76223">
        <ele>233</ele>
        <time>2018-09-23T09:41:19Z</time>
      </trkpt>
      <trkpt lat="45.87253" lon="4.76213">
        <ele>233</ele>
        <time>2018-09-23T09:41:21Z</time>
      </trkpt>
      <trkpt lat="45.87255" lon="4.76204">
        <ele>232</ele>
        <time>2018-09-23T09:41:22Z</time>
      </trkpt>
      <trkpt lat="45.87249" lon="4.76194">
        <ele>234</ele>
        <time>2018-09-23T09:41:23Z</time>
      </trkpt>
      <trkpt lat="45.87244" lon="4.76183">
        <ele>233</ele>
        <time>2018-09-23T09:41:24Z</time>
      </trkpt>
      <trkpt lat="45.87247" lon="4.76171">
        <ele>233</ele>
        <time>2018-09-23T09:41:26Z</time>
      </trkpt>
      <trkpt lat="45.87246" lon="4.76165">
        <ele>232</ele>
        <time>2018-09-23T09:41:27Z</time>
      </trkpt>
      <trkpt lat="45.87246" lon="4.76158">
        <ele>232</ele>
        <time>2018-09-23T09:41:28Z</time>
      </trkpt>
      <trkpt lat="45.87245" lon="4.76149">
        <ele>232</ele>
        <time>2018-09-23T09:41:29Z</time>
      </trkpt>
      <trkpt lat="45.87244" lon="4.7614">
        <ele>232</ele>
        <time>2018-09-23T09:41:30Z</time>
      </trkpt>
      <trkpt lat="45.87244" lon="4.76132">
        <ele>232</ele>
        <time>2018-09-23T09:41:31Z</time>
      </trkpt>
      <trkpt lat="45.87244" lon="4.76123">
        <ele>232</ele>
        <time>2018-09-23T09:41:32Z</time>
      </trkpt>
      <trkpt lat="45.87243" lon="4.76114">
        <ele>232</ele>
        <time>2018-09-23T09:41:33Z</time>
      </trkpt>
      <trkpt lat="45.87242" lon="4.76106">
        <ele>232</ele>
        <time>2018-09-23T09:41:34Z</time>
      </trkpt>
      <trkpt lat="45.87242" lon="4.76097">
        <ele>231</ele>
        <time>2018-09-23T09:41:35Z</time>
      </trkpt>
      <trkpt lat="45.87242" lon="4.76089">
        <ele>231</ele>
        <time>2018-09-23T09:41:36Z</time>
      </trkpt>
      <trkpt lat="45.87241" lon="4.76081">
        <ele>230</ele>
        <time>2018-09-23T09:41:37Z</time>
      </trkpt>
      <trkpt lat="45.87241" lon="4.76072">
        <ele>230</ele>
        <time>2018-09-23T09:41:38Z</time>
      </trkpt>
      <trkpt lat="45.87241" lon="4.76065">
        <ele>230</ele>
        <time>2018-09-23T09:41:39Z</time>
      </trkpt>
      <trkpt lat="45.87241" lon="4.76056">
        <ele>230</ele>
        <time>2018-09-23T09:41:40Z</time>
      </trkpt>
      <trkpt lat="45.8724" lon="4.76048">
        <ele>230</ele>
        <time>2018-09-23T09:41:41Z</time>
      </trkpt>
      <trkpt lat="45.87239" lon="4.7604">
        <ele>230</ele>
        <time>2018-09-23T09:41:42Z</time>
      </trkpt>
      <trkpt lat="45.87238" lon="4.76032">
        <ele>230</ele>
        <time>2018-09-23T09:41:43Z</time>
      </trkpt>
      <trkpt lat="45.87238" lon="4.76024">
        <ele>230</ele>
        <time>2018-09-23T09:41:44Z</time>
      </trkpt>
      <trkpt lat="45.87237" lon="4.76016">
        <ele>230</ele>
        <time>2018-09-23T09:41:45Z</time>
      </trkpt>
      <trkpt lat="45.87235" lon="4.76008">
        <ele>229</ele>
        <time>2018-09-23T09:41:46Z</time>
      </trkpt>
      <trkpt lat="45.87234" lon="4.75999">
        <ele>228</ele>
        <time>2018-09-23T09:41:47Z</time>
      </trkpt>
      <trkpt lat="45.87234" lon="4.7599">
        <ele>228</ele>
        <time>2018-09-23T09:41:48Z</time>
      </trkpt>
      <trkpt lat="45.87232" lon="4.75981">
        <ele>228</ele>
        <time>2018-09-23T09:41:49Z</time>
      </trkpt>
      <trkpt lat="45.87231" lon="4.75972">
        <ele>228</ele>
        <time>2018-09-23T09:41:50Z</time>
      </trkpt>
      <trkpt lat="45.8723" lon="4.75963">
        <ele>228</ele>
        <time>2018-09-23T09:41:51Z</time>
      </trkpt>
      <trkpt lat="45.87231" lon="4.75955">
        <ele>228</ele>
        <time>2018-09-23T09:41:52Z</time>
      </trkpt>
      <trkpt lat="45.8723" lon="4.75946">
        <ele>228</ele>
        <time>2018-09-23T09:41:53Z</time>
      </trkpt>
      <trkpt lat="45.8723" lon="4.75937">
        <ele>228</ele>
        <time>2018-09-23T09:41:54Z</time>
      </trkpt>
      <trkpt lat="45.87228" lon="4.75926">
        <ele>228</ele>
        <time>2018-09-23T09:41:55Z</time>
      </trkpt>
      <trkpt lat="45.87229" lon="4.75917">
        <ele>228</ele>
        <time>2018-09-23T09:41:56Z</time>
      </trkpt>
      <trkpt lat="45.87223" lon="4.75907">
        <ele>227</ele>
        <time>2018-09-23T09:41:57Z</time>
      </trkpt>
      <trkpt lat="45.87223" lon="4.75896">
        <ele>227</ele>
        <time>2018-09-23T09:41:58Z</time>
      </trkpt>
      <trkpt lat="45.87219" lon="4.75884">
        <ele>227</ele>
        <time>2018-09-23T09:41:59Z</time>
      </trkpt>
      <trkpt lat="45.87215" lon="4.75875">
        <ele>226</ele>
        <time>2018-09-23T09:42:00Z</time>
      </trkpt>
      <trkpt lat="45.87217" lon="4.75865">
        <ele>226</ele>
        <time>2018-09-23T09:42:01Z</time>
      </trkpt>
      <trkpt lat="45.87218" lon="4.75855">
        <ele>226</ele>
        <time>2018-09-23T09:42:02Z</time>
      </trkpt>
      <trkpt lat="45.87215" lon="4.75845">
        <ele>226</ele>
        <time>2018-09-23T09:42:03Z</time>
      </trkpt>
      <trkpt lat="45.87215" lon="4.75834">
        <ele>226</ele>
        <time>2018-09-23T09:42:04Z</time>
      </trkpt>
      <trkpt lat="45.87213" lon="4.75824">
        <ele>225</ele>
        <time>2018-09-23T09:42:05Z</time>
      </trkpt>
      <trkpt lat="45.8721" lon="4.75814">
        <ele>225</ele>
        <time>2018-09-23T09:42:06Z</time>
      </trkpt>
      <trkpt lat="45.87208" lon="4.75804">
        <ele>224</ele>
        <time>2018-09-23T09:42:07Z</time>
      </trkpt>
      <trkpt lat="45.87205" lon="4.75795">
        <ele>224</ele>
        <time>2018-09-23T09:42:08Z</time>
      </trkpt>
      <trkpt lat="45.87203" lon="4.75784">
        <ele>224</ele>
        <time>2018-09-23T09:42:09Z</time>
      </trkpt>
      <trkpt lat="45.87201" lon="4.75775">
        <ele>224</ele>
        <time>2018-09-23T09:42:10Z</time>
      </trkpt>
      <trkpt lat="45.87199" lon="4.75765">
        <ele>224</ele>
        <time>2018-09-23T09:42:11Z</time>
      </trkpt>
      <trkpt lat="45.87197" lon="4.75757">
        <ele>224</ele>
        <time>2018-09-23T09:42:12Z</time>
      </trkpt>
      <trkpt lat="45.87195" lon="4.75748">
        <ele>223</ele>
        <time>2018-09-23T09:42:13Z</time>
      </trkpt>
      <trkpt lat="45.87193" lon="4.75741">
        <ele>223</ele>
        <time>2018-09-23T09:42:14Z</time>
      </trkpt>
      <trkpt lat="45.87191" lon="4.75733">
        <ele>223</ele>
        <time>2018-09-23T09:42:15Z</time>
      </trkpt>
      <trkpt lat="45.87189" lon="4.75726">
        <ele>223</ele>
        <time>2018-09-23T09:42:16Z</time>
      </trkpt>
      <trkpt lat="45.87188" lon="4.75718">
        <ele>223</ele>
        <time>2018-09-23T09:42:17Z</time>
      </trkpt>
      <trkpt lat="45.87187" lon="4.75711">
        <ele>223</ele>
        <time>2018-09-23T09:42:18Z</time>
      </trkpt>
      <trkpt lat="45.87185" lon="4.75704">
        <ele>223</ele>
        <time>2018-09-23T09:42:19Z</time>
      </trkpt>
      <trkpt lat="45.87184" lon="4.75697">
        <ele>223</ele>
        <time>2018-09-23T09:42:20Z</time>
      </trkpt>
      <trkpt lat="45.87183" lon="4.7569">
        <ele>223</ele>
        <time>2018-09-23T09:42:21Z</time>
      </trkpt>
      <trkpt lat="45.87181" lon="4.75683">
        <ele>223</ele>
        <time>2018-09-23T09:42:22Z</time>
      </trkpt>
      <trkpt lat="45.8718" lon="4.75675">
        <ele>223</ele>
        <time>2018-09-23T09:42:23Z</time>
      </trkpt>
      <trkpt lat="45.87179" lon="4.75668">
        <ele>223</ele>
        <time>2018-09-23T09:42:24Z</time>
      </trkpt>
      <trkpt lat="45.87179" lon="4.75661">
        <ele>222</ele>
        <time>2018-09-23T09:42:25Z</time>
      </trkpt>
      <trkpt lat="45.8718" lon="4.75654">
        <ele>222</ele>
        <time>2018-09-23T09:42:26Z</time>
      </trkpt>
      <trkpt lat="45.87179" lon="4.75647">
        <ele>222</ele>
        <time>2018-09-23T09:42:27Z</time>
      </trkpt>
      <trkpt lat="45.87179" lon="4.75639">
        <ele>222</ele>
        <time>2018-09-23T09:42:28Z</time>
      </trkpt>
      <trkpt lat="45.87179" lon="4.7563">
        <ele>222</ele>
        <time>2018-09-23T09:42:29Z</time>
      </trkpt>
      <trkpt lat="45.87181" lon="4.75621">
        <ele>222</ele>
        <time>2018-09-23T09:42:30Z</time>
      </trkpt>
      <trkpt lat="45.87181" lon="4.75613">
        <ele>222</ele>
        <time>2018-09-23T09:42:31Z</time>
      </trkpt>
      <trkpt lat="45.87181" lon="4.75606">
        <ele>222</ele>
        <time>2018-09-23T09:42:32Z</time>
      </trkpt>
      <trkpt lat="45.8718" lon="4.75598">
        <ele>222</ele>
        <time>2018-09-23T09:42:33Z</time>
      </trkpt>
      <trkpt lat="45.8718" lon="4.75591">
        <ele>222</ele>
        <time>2018-09-23T09:42:34Z</time>
      </trkpt>
      <trkpt lat="45.87179" lon="4.75581">
        <ele>222</ele>
        <time>2018-09-23T09:42:35Z</time>
      </trkpt>
      <trkpt lat="45.87179" lon="4.75573">
        <ele>222</ele>
        <time>2018-09-23T09:42:36Z</time>
      </trkpt>
      <trkpt lat="45.8718" lon="4.75565">
        <ele>222</ele>
        <time>2018-09-23T09:42:37Z</time>
      </trkpt>
      <trkpt lat="45.87181" lon="4.75557">
        <ele>222</ele>
        <time>2018-09-23T09:42:38Z</time>
      </trkpt>
      <trkpt lat="45.87181" lon="4.75549">
        <ele>222</ele>
        <time>2018-09-23T09:42:39Z</time>
      </trkpt>
      <trkpt lat="45.87181" lon="4.75541">
        <ele>222</ele>
        <time>2018-09-23T09:42:40Z</time>
      </trkpt>
      <trkpt lat="45.87182" lon="4.75532">
        <ele>222</ele>
        <time>2018-09-23T09:42:41Z</time>
      </trkpt>
      <trkpt lat="45.87182" lon="4.75525">
        <ele>222</ele>
        <time>2018-09-23T09:42:42Z</time>
      </trkpt>
      <trkpt lat="45.87182" lon="4.75516">
        <ele>222</ele>
        <time>2018-09-23T09:42:43Z</time>
      </trkpt>
      <trkpt lat="45.87183" lon="4.75508">
        <ele>222</ele>
        <time>2018-09-23T09:42:44Z</time>
      </trkpt>
      <trkpt lat="45.87183" lon="4.75499">
        <ele>222</ele>
        <time>2018-09-23T09:42:45Z</time>
      </trkpt>
      <trkpt lat="45.87183" lon="4.75492">
        <ele>222</ele>
        <time>2018-09-23T09:42:46Z</time>
      </trkpt>
      <trkpt lat="45.87183" lon="4.75484">
        <ele>222</ele>
        <time>2018-09-23T09:42:47Z</time>
      </trkpt>
      <trkpt lat="45.87184" lon="4.75477">
        <ele>222</ele>
        <time>2018-09-23T09:42:48Z</time>
      </trkpt>
      <trkpt lat="45.87182" lon="4.7547">
        <ele>222</ele>
        <time>2018-09-23T09:42:49Z</time>
      </trkpt>
      <trkpt lat="45.87182" lon="4.75461">
        <ele>222</ele>
        <time>2018-09-23T09:42:50Z</time>
      </trkpt>
      <trkpt lat="45.87178" lon="4.75452">
        <ele>222</ele>
        <time>2018-09-23T09:42:51Z</time>
      </trkpt>
      <trkpt lat="45.87178" lon="4.75446">
        <ele>222</ele>
        <time>2018-09-23T09:42:52Z</time>
      </trkpt>
      <trkpt lat="45.87176" lon="4.75439">
        <ele>222</ele>
        <time>2018-09-23T09:42:53Z</time>
      </trkpt>
      <trkpt lat="45.87177" lon="4.75432">
        <ele>222</ele>
        <time>2018-09-23T09:42:54Z</time>
      </trkpt>
      <trkpt lat="45.87177" lon="4.75426">
        <ele>223</ele>
        <time>2018-09-23T09:42:55Z</time>
      </trkpt>
      <trkpt lat="45.87178" lon="4.7542">
        <ele>223</ele>
        <time>2018-09-23T09:42:56Z</time>
      </trkpt>
      <trkpt lat="45.87177" lon="4.75413">
        <ele>223</ele>
        <time>2018-09-23T09:42:57Z</time>
      </trkpt>
      <trkpt lat="45.87177" lon="4.754">
        <ele>223</ele>
        <time>2018-09-23T09:42:59Z</time>
      </trkpt>
      <trkpt lat="45.87176" lon="4.75394">
        <ele>223</ele>
        <time>2018-09-23T09:43:00Z</time>
      </trkpt>
      <trkpt lat="45.87174" lon="4.75382">
        <ele>223</ele>
        <time>2018-09-23T09:43:02Z</time>
      </trkpt>
      <trkpt lat="45.87174" lon="4.75376">
        <ele>223</ele>
        <time>2018-09-23T09:43:03Z</time>
      </trkpt>
      <trkpt lat="45.87172" lon="4.75368">
        <ele>223</ele>
        <time>2018-09-23T09:43:04Z</time>
      </trkpt>
      <trkpt lat="45.87171" lon="4.75361">
        <ele>223</ele>
        <time>2018-09-23T09:43:05Z</time>
      </trkpt>
      <trkpt lat="45.87171" lon="4.7535">
        <ele>223</ele>
        <time>2018-09-23T09:43:07Z</time>
      </trkpt>
      <trkpt lat="45.87173" lon="4.75343">
        <ele>223</ele>
        <time>2018-09-23T09:43:08Z</time>
      </trkpt>
      <trkpt lat="45.87172" lon="4.7533">
        <ele>224</ele>
        <time>2018-09-23T09:43:10Z</time>
      </trkpt>
      <trkpt lat="45.87172" lon="4.75324">
        <ele>224</ele>
        <time>2018-09-23T09:43:11Z</time>
      </trkpt>
      <trkpt lat="45.87175" lon="4.75314">
        <ele>223</ele>
        <time>2018-09-23T09:43:13Z</time>
      </trkpt>
      <trkpt lat="45.87175" lon="4.75309">
        <ele>223</ele>
        <time>2018-09-23T09:43:14Z</time>
      </trkpt>
      <trkpt lat="45.87174" lon="4.75299">
        <ele>223</ele>
        <time>2018-09-23T09:43:16Z</time>
      </trkpt>
      <trkpt lat="45.87173" lon="4.75294">
        <ele>223</ele>
        <time>2018-09-23T09:43:17Z</time>
      </trkpt>
      <trkpt lat="45.87172" lon="4.75287">
        <ele>223</ele>
        <time>2018-09-23T09:43:18Z</time>
      </trkpt>
      <trkpt lat="45.8717" lon="4.7528">
        <ele>223</ele>
        <time>2018-09-23T09:43:19Z</time>
      </trkpt>
      <trkpt lat="45.87168" lon="4.75269">
        <ele>223</ele>
        <time>2018-09-23T09:43:21Z</time>
      </trkpt>
      <trkpt lat="45.87168" lon="4.75263">
        <ele>223</ele>
        <time>2018-09-23T09:43:22Z</time>
      </trkpt>
      <trkpt lat="45.87168" lon="4.75252">
        <ele>223</ele>
        <time>2018-09-23T09:43:24Z</time>
      </trkpt>
      <trkpt lat="45.87168" lon="4.75247">
        <ele>223</ele>
        <time>2018-09-23T09:43:25Z</time>
      </trkpt>
      <trkpt lat="45.87168" lon="4.75235">
        <ele>223</ele>
        <time>2018-09-23T09:43:27Z</time>
      </trkpt>
      <trkpt lat="45.87168" lon="4.7523">
        <ele>223</ele>
        <time>2018-09-23T09:43:28Z</time>
      </trkpt>
      <trkpt lat="45.87168" lon="4.75223">
        <ele>223</ele>
        <time>2018-09-23T09:43:29Z</time>
      </trkpt>
      <trkpt lat="45.87164" lon="4.75215">
        <ele>225</ele>
        <time>2018-09-23T09:43:30Z</time>
      </trkpt>
      <trkpt lat="45.87162" lon="4.75207">
        <ele>225</ele>
        <time>2018-09-23T09:43:31Z</time>
      </trkpt>
      <trkpt lat="45.87161" lon="4.752">
        <ele>225</ele>
        <time>2018-09-23T09:43:32Z</time>
      </trkpt>
      <trkpt lat="45.87158" lon="4.75193">
        <ele>225</ele>
        <time>2018-09-23T09:43:33Z</time>
      </trkpt>
      <trkpt lat="45.87156" lon="4.75187">
        <ele>225</ele>
        <time>2018-09-23T09:43:34Z</time>
      </trkpt>
      <trkpt lat="45.87153" lon="4.75176">
        <ele>225</ele>
        <time>2018-09-23T09:43:36Z</time>
      </trkpt>
      <trkpt lat="45.87153" lon="4.75171">
        <ele>225</ele>
        <time>2018-09-23T09:43:37Z</time>
      </trkpt>
      <trkpt lat="45.87152" lon="4.75162">
        <ele>225</ele>
        <time>2018-09-23T09:43:39Z</time>
      </trkpt>
      <trkpt lat="45.8715" lon="4.75155">
        <ele>225</ele>
        <time>2018-09-23T09:43:40Z</time>
      </trkpt>
      <trkpt lat="45.87148" lon="4.7515">
        <ele>225</ele>
        <time>2018-09-23T09:43:41Z</time>
      </trkpt>
      <trkpt lat="45.87146" lon="4.75142">
        <ele>225</ele>
        <time>2018-09-23T09:43:42Z</time>
      </trkpt>
      <trkpt lat="45.87144" lon="4.75135">
        <ele>225</ele>
        <time>2018-09-23T09:43:43Z</time>
      </trkpt>
      <trkpt lat="45.87142" lon="4.75126">
        <ele>225</ele>
        <time>2018-09-23T09:43:44Z</time>
      </trkpt>
      <trkpt lat="45.8714" lon="4.75118">
        <ele>225</ele>
        <time>2018-09-23T09:43:45Z</time>
      </trkpt>
      <trkpt lat="45.8714" lon="4.7511">
        <ele>225</ele>
        <time>2018-09-23T09:43:46Z</time>
      </trkpt>
      <trkpt lat="45.87138" lon="4.75102">
        <ele>225</ele>
        <time>2018-09-23T09:43:47Z</time>
      </trkpt>
      <trkpt lat="45.87135" lon="4.75094">
        <ele>225</ele>
        <time>2018-09-23T09:43:48Z</time>
      </trkpt>
      <trkpt lat="45.87135" lon="4.75083">
        <ele>225</ele>
        <time>2018-09-23T09:43:50Z</time>
      </trkpt>
      <trkpt lat="45.87134" lon="4.7508">
        <ele>225</ele>
        <time>2018-09-23T09:43:51Z</time>
      </trkpt>
      <trkpt lat="45.87131" lon="4.75069">
        <ele>225</ele>
        <time>2018-09-23T09:43:53Z</time>
      </trkpt>
      <trkpt lat="45.8713" lon="4.75061">
        <ele>225</ele>
        <time>2018-09-23T09:43:54Z</time>
      </trkpt>
      <trkpt lat="45.87129" lon="4.75054">
        <ele>225</ele>
        <time>2018-09-23T09:43:55Z</time>
      </trkpt>
      <trkpt lat="45.87128" lon="4.75046">
        <ele>225</ele>
        <time>2018-09-23T09:43:56Z</time>
      </trkpt>
      <trkpt lat="45.87128" lon="4.75039">
        <ele>225</ele>
        <time>2018-09-23T09:43:57Z</time>
      </trkpt>
      <trkpt lat="45.87125" lon="4.75032">
        <ele>226</ele>
        <time>2018-09-23T09:43:58Z</time>
      </trkpt>
      <trkpt lat="45.87124" lon="4.7502">
        <ele>226</ele>
        <time>2018-09-23T09:44:00Z</time>
      </trkpt>
      <trkpt lat="45.87125" lon="4.75015">
        <ele>226</ele>
        <time>2018-09-23T09:44:01Z</time>
      </trkpt>
      <trkpt lat="45.87126" lon="4.75002">
        <ele>226</ele>
        <time>2018-09-23T09:44:03Z</time>
      </trkpt>
      <trkpt lat="45.87126" lon="4.74996">
        <ele>226</ele>
        <time>2018-09-23T09:44:04Z</time>
      </trkpt>
      <trkpt lat="45.87127" lon="4.74989">
        <ele>226</ele>
        <time>2018-09-23T09:44:05Z</time>
      </trkpt>
      <trkpt lat="45.87127" lon="4.74983">
        <ele>226</ele>
        <time>2018-09-23T09:44:06Z</time>
      </trkpt>
      <trkpt lat="45.87128" lon="4.7497">
        <ele>226</ele>
        <time>2018-09-23T09:44:08Z</time>
      </trkpt>
      <trkpt lat="45.87127" lon="4.74963">
        <ele>226</ele>
        <time>2018-09-23T09:44:09Z</time>
      </trkpt>
      <trkpt lat="45.87128" lon="4.7495">
        <ele>226</ele>
        <time>2018-09-23T09:44:11Z</time>
      </trkpt>
      <trkpt lat="45.87133" lon="4.74944">
        <ele>226</ele>
        <time>2018-09-23T09:44:12Z</time>
      </trkpt>
      <trkpt lat="45.87135" lon="4.7494">
        <ele>226</ele>
        <time>2018-09-23T09:44:13Z</time>
      </trkpt>
      <trkpt lat="45.87138" lon="4.74933">
        <ele>226</ele>
        <time>2018-09-23T09:44:14Z</time>
      </trkpt>
      <trkpt lat="45.87141" lon="4.74926">
        <ele>226</ele>
        <time>2018-09-23T09:44:15Z</time>
      </trkpt>
      <trkpt lat="45.87141" lon="4.74919">
        <ele>226</ele>
        <time>2018-09-23T09:44:16Z</time>
      </trkpt>
      <trkpt lat="45.8714" lon="4.7491">
        <ele>225</ele>
        <time>2018-09-23T09:44:17Z</time>
      </trkpt>
      <trkpt lat="45.87139" lon="4.74904">
        <ele>225</ele>
        <time>2018-09-23T09:44:18Z</time>
      </trkpt>
      <trkpt lat="45.87137" lon="4.74898">
        <ele>225</ele>
        <time>2018-09-23T09:44:19Z</time>
      </trkpt>
      <trkpt lat="45.87134" lon="4.74891">
        <ele>225</ele>
        <time>2018-09-23T09:44:20Z</time>
      </trkpt>
      <trkpt lat="45.87131" lon="4.74882">
        <ele>225</ele>
        <time>2018-09-23T09:44:21Z</time>
      </trkpt>
      <trkpt lat="45.87132" lon="4.74873">
        <ele>225</ele>
        <time>2018-09-23T09:44:22Z</time>
      </trkpt>
      <trkpt lat="45.87132" lon="4.74865">
        <ele>225</ele>
        <time>2018-09-23T09:44:23Z</time>
      </trkpt>
      <trkpt lat="45.87129" lon="4.74857">
        <ele>224</ele>
        <time>2018-09-23T09:44:24Z</time>
      </trkpt>
      <trkpt lat="45.87129" lon="4.74849">
        <ele>224</ele>
        <time>2018-09-23T09:44:25Z</time>
      </trkpt>
      <trkpt lat="45.8713" lon="4.7484">
        <ele>224</ele>
        <time>2018-09-23T09:44:26Z</time>
      </trkpt>
      <trkpt lat="45.87129" lon="4.74833">
        <ele>223</ele>
        <time>2018-09-23T09:44:27Z</time>
      </trkpt>
      <trkpt lat="45.8713" lon="4.74826">
        <ele>223</ele>
        <time>2018-09-23T09:44:28Z</time>
      </trkpt>
      <trkpt lat="45.8713" lon="4.74817">
        <ele>223</ele>
        <time>2018-09-23T09:44:29Z</time>
      </trkpt>
      <trkpt lat="45.87131" lon="4.74808">
        <ele>222</ele>
        <time>2018-09-23T09:44:30Z</time>
      </trkpt>
      <trkpt lat="45.87133" lon="4.74799">
        <ele>222</ele>
        <time>2018-09-23T09:44:31Z</time>
      </trkpt>
      <trkpt lat="45.87132" lon="4.74792">
        <ele>222</ele>
        <time>2018-09-23T09:44:32Z</time>
      </trkpt>
      <trkpt lat="45.8713" lon="4.74784">
        <ele>222</ele>
        <time>2018-09-23T09:44:33Z</time>
      </trkpt>
      <trkpt lat="45.87131" lon="4.74775">
        <ele>222</ele>
        <time>2018-09-23T09:44:34Z</time>
      </trkpt>
      <trkpt lat="45.87129" lon="4.74767">
        <ele>222</ele>
        <time>2018-09-23T09:44:35Z</time>
      </trkpt>
      <trkpt lat="45.87129" lon="4.74758">
        <ele>222</ele>
        <time>2018-09-23T09:44:36Z</time>
      </trkpt>
      <trkpt lat="45.87129" lon="4.74749">
        <ele>221</ele>
        <time>2018-09-23T09:44:37Z</time>
      </trkpt>
      <trkpt lat="45.87128" lon="4.74743">
        <ele>221</ele>
        <time>2018-09-23T09:44:38Z</time>
      </trkpt>
      <trkpt lat="45.87127" lon="4.74734">
        <ele>221</ele>
        <time>2018-09-23T09:44:39Z</time>
      </trkpt>
      <trkpt lat="45.87127" lon="4.74726">
        <ele>221</ele>
        <time>2018-09-23T09:44:40Z</time>
      </trkpt>
      <trkpt lat="45.87128" lon="4.74716">
        <ele>221</ele>
        <time>2018-09-23T09:44:41Z</time>
      </trkpt>
      <trkpt lat="45.87128" lon="4.74708">
        <ele>221</ele>
        <time>2018-09-23T09:44:42Z</time>
      </trkpt>
      <trkpt lat="45.87129" lon="4.74699">
        <ele>221</ele>
        <time>2018-09-23T09:44:43Z</time>
      </trkpt>
      <trkpt lat="45.87128" lon="4.74691">
        <ele>221</ele>
        <time>2018-09-23T09:44:44Z</time>
      </trkpt>
      <trkpt lat="45.87128" lon="4.74682">
        <ele>221</ele>
        <time>2018-09-23T09:44:45Z</time>
      </trkpt>
      <trkpt lat="45.87127" lon="4.74673">
        <ele>221</ele>
        <time>2018-09-23T09:44:46Z</time>
      </trkpt>
      <trkpt lat="45.87126" lon="4.74664">
        <ele>221</ele>
        <time>2018-09-23T09:44:47Z</time>
      </trkpt>
      <trkpt lat="45.87125" lon="4.74656">
        <ele>221</ele>
        <time>2018-09-23T09:44:48Z</time>
      </trkpt>
      <trkpt lat="45.87121" lon="4.74646">
        <ele>222</ele>
        <time>2018-09-23T09:44:49Z</time>
      </trkpt>
      <trkpt lat="45.87121" lon="4.74636">
        <ele>222</ele>
        <time>2018-09-23T09:44:50Z</time>
      </trkpt>
      <trkpt lat="45.8712" lon="4.74628">
        <ele>222</ele>
        <time>2018-09-23T09:44:51Z</time>
      </trkpt>
      <trkpt lat="45.87119" lon="4.74619">
        <ele>222</ele>
        <time>2018-09-23T09:44:52Z</time>
      </trkpt>
      <trkpt lat="45.87119" lon="4.7461">
        <ele>222</ele>
        <time>2018-09-23T09:44:53Z</time>
      </trkpt>
      <trkpt lat="45.87119" lon="4.74601">
        <ele>222</ele>
        <time>2018-09-23T09:44:54Z</time>
      </trkpt>
      <trkpt lat="45.87118" lon="4.74593">
        <ele>222</ele>
        <time>2018-09-23T09:44:55Z</time>
      </trkpt>
      <trkpt lat="45.87117" lon="4.74586">
        <ele>222</ele>
        <time>2018-09-23T09:44:56Z</time>
      </trkpt>
      <trkpt lat="45.87115" lon="4.74577">
        <ele>221</ele>
        <time>2018-09-23T09:44:57Z</time>
      </trkpt>
      <trkpt lat="45.87112" lon="4.7457">
        <ele>220</ele>
        <time>2018-09-23T09:44:58Z</time>
      </trkpt>
      <trkpt lat="45.8711" lon="4.74563">
        <ele>220</ele>
        <time>2018-09-23T09:44:59Z</time>
      </trkpt>
      <trkpt lat="45.87107" lon="4.74558">
        <ele>220</ele>
        <time>2018-09-23T09:45:00Z</time>
      </trkpt>
      <trkpt lat="45.87105" lon="4.74548">
        <ele>220</ele>
        <time>2018-09-23T09:45:03Z</time>
      </trkpt>
      <trkpt lat="45.87106" lon="4.74545">
        <ele>220</ele>
        <time>2018-09-23T09:45:04Z</time>
      </trkpt>
      <trkpt lat="45.87109" lon="4.74534">
        <ele>220</ele>
        <time>2018-09-23T09:45:10Z</time>
      </trkpt>
      <trkpt lat="45.87111" lon="4.74532">
        <ele>220</ele>
        <time>2018-09-23T09:45:11Z</time>
      </trkpt>
      <trkpt lat="45.87117" lon="4.74522">
        <ele>219</ele>
        <time>2018-09-23T09:45:15Z</time>
      </trkpt>
      <trkpt lat="45.87118" lon="4.74519">
        <ele>219</ele>
        <time>2018-09-23T09:45:16Z</time>
      </trkpt>
      <trkpt lat="45.87119" lon="4.74515">
        <ele>219</ele>
        <time>2018-09-23T09:45:17Z</time>
      </trkpt>
      <trkpt lat="45.87122" lon="4.74503">
        <ele>219</ele>
        <time>2018-09-23T09:45:18Z</time>
      </trkpt>
      <trkpt lat="45.8712" lon="4.74491">
        <ele>218</ele>
        <time>2018-09-23T09:45:20Z</time>
      </trkpt>
      <trkpt lat="45.87118" lon="4.74486">
        <ele>218</ele>
        <time>2018-09-23T09:45:21Z</time>
      </trkpt>
      <trkpt lat="45.87113" lon="4.74477">
        <ele>218</ele>
        <time>2018-09-23T09:45:23Z</time>
      </trkpt>
      <trkpt lat="45.8711" lon="4.7447">
        <ele>218</ele>
        <time>2018-09-23T09:45:24Z</time>
      </trkpt>
      <trkpt lat="45.8711" lon="4.74462">
        <ele>218</ele>
        <time>2018-09-23T09:45:25Z</time>
      </trkpt>
      <trkpt lat="45.87108" lon="4.74454">
        <ele>218</ele>
        <time>2018-09-23T09:45:26Z</time>
      </trkpt>
      <trkpt lat="45.87105" lon="4.74447">
        <ele>218</ele>
        <time>2018-09-23T09:45:27Z</time>
      </trkpt>
      <trkpt lat="45.87103" lon="4.74439">
        <ele>218</ele>
        <time>2018-09-23T09:45:28Z</time>
      </trkpt>
      <trkpt lat="45.87102" lon="4.7443">
        <ele>218</ele>
        <time>2018-09-23T09:45:29Z</time>
      </trkpt>
      <trkpt lat="45.87099" lon="4.74423">
        <ele>218</ele>
        <time>2018-09-23T09:45:30Z</time>
      </trkpt>
      <trkpt lat="45.87098" lon="4.74416">
        <ele>218</ele>
        <time>2018-09-23T09:45:31Z</time>
      </trkpt>
      <trkpt lat="45.87097" lon="4.74408">
        <ele>218</ele>
        <time>2018-09-23T09:45:32Z</time>
      </trkpt>
      <trkpt lat="45.87093" lon="4.74402">
        <ele>218</ele>
        <time>2018-09-23T09:45:33Z</time>
      </trkpt>
      <trkpt lat="45.87092" lon="4.74395">
        <ele>218</ele>
        <time>2018-09-23T09:45:34Z</time>
      </trkpt>
      <trkpt lat="45.87091" lon="4.74387">
        <ele>218</ele>
        <time>2018-09-23T09:45:35Z</time>
      </trkpt>
      <trkpt lat="45.87089" lon="4.74382">
        <ele>218</ele>
        <time>2018-09-23T09:45:36Z</time>
      </trkpt>
      <trkpt lat="45.87087" lon="4.74373">
        <ele>218</ele>
        <time>2018-09-23T09:45:37Z</time>
      </trkpt>
      <trkpt lat="45.87085" lon="4.74364">
        <ele>218</ele>
        <time>2018-09-23T09:45:38Z</time>
      </trkpt>
      <trkpt lat="45.87084" lon="4.74356">
        <ele>218</ele>
        <time>2018-09-23T09:45:39Z</time>
      </trkpt>
      <trkpt lat="45.87082" lon="4.74347">
        <ele>219</ele>
        <time>2018-09-23T09:45:40Z</time>
      </trkpt>
      <trkpt lat="45.87081" lon="4.74339">
        <ele>219</ele>
        <time>2018-09-23T09:45:41Z</time>
      </trkpt>
      <trkpt lat="45.8708" lon="4.74327">
        <ele>219</ele>
        <time>2018-09-23T09:45:42Z</time>
      </trkpt>
      <trkpt lat="45.87077" lon="4.74318">
        <ele>218</ele>
        <time>2018-09-23T09:45:43Z</time>
      </trkpt>
      <trkpt lat="45.87078" lon="4.7431">
        <ele>218</ele>
        <time>2018-09-23T09:45:44Z</time>
      </trkpt>
      <trkpt lat="45.87078" lon="4.74301">
        <ele>218</ele>
        <time>2018-09-23T09:45:45Z</time>
      </trkpt>
      <trkpt lat="45.87075" lon="4.74288">
        <ele>217</ele>
        <time>2018-09-23T09:45:46Z</time>
      </trkpt>
      <trkpt lat="45.87074" lon="4.74279">
        <ele>217</ele>
        <time>2018-09-23T09:45:47Z</time>
      </trkpt>
      <trkpt lat="45.87074" lon="4.7427">
        <ele>216</ele>
        <time>2018-09-23T09:45:48Z</time>
      </trkpt>
      <trkpt lat="45.87074" lon="4.7426">
        <ele>216</ele>
        <time>2018-09-23T09:45:49Z</time>
      </trkpt>
      <trkpt lat="45.87075" lon="4.74252">
        <ele>215</ele>
        <time>2018-09-23T09:45:50Z</time>
      </trkpt>
      <trkpt lat="45.87073" lon="4.74241">
        <ele>214</ele>
        <time>2018-09-23T09:45:51Z</time>
      </trkpt>
      <trkpt lat="45.87072" lon="4.74232">
        <ele>214</ele>
        <time>2018-09-23T09:45:52Z</time>
      </trkpt>
      <trkpt lat="45.87073" lon="4.74221">
        <ele>214</ele>
        <time>2018-09-23T09:45:53Z</time>
      </trkpt>
      <trkpt lat="45.87073" lon="4.74211">
        <ele>214</ele>
        <time>2018-09-23T09:45:54Z</time>
      </trkpt>
      <trkpt lat="45.87074" lon="4.742">
        <ele>213</ele>
        <time>2018-09-23T09:45:55Z</time>
      </trkpt>
      <trkpt lat="45.87075" lon="4.74191">
        <ele>213</ele>
        <time>2018-09-23T09:45:56Z</time>
      </trkpt>
      <trkpt lat="45.87075" lon="4.74181">
        <ele>212</ele>
        <time>2018-09-23T09:45:57Z</time>
      </trkpt>
      <trkpt lat="45.87076" lon="4.7417">
        <ele>212</ele>
        <time>2018-09-23T09:45:58Z</time>
      </trkpt>
      <trkpt lat="45.87076" lon="4.74161">
        <ele>211</ele>
        <time>2018-09-23T09:45:59Z</time>
      </trkpt>
      <trkpt lat="45.87078" lon="4.74152">
        <ele>212</ele>
        <time>2018-09-23T09:46:00Z</time>
      </trkpt>
      <trkpt lat="45.87078" lon="4.74144">
        <ele>212</ele>
        <time>2018-09-23T09:46:01Z</time>
      </trkpt>
      <trkpt lat="45.87078" lon="4.74135">
        <ele>212</ele>
        <time>2018-09-23T09:46:02Z</time>
      </trkpt>
      <trkpt lat="45.87078" lon="4.74129">
        <ele>212</ele>
        <time>2018-09-23T09:46:03Z</time>
      </trkpt>
      <trkpt lat="45.87077" lon="4.74119">
        <ele>212</ele>
        <time>2018-09-23T09:46:04Z</time>
      </trkpt>
      <trkpt lat="45.87076" lon="4.74112">
        <ele>212</ele>
        <time>2018-09-23T09:46:05Z</time>
      </trkpt>
      <trkpt lat="45.87077" lon="4.74106">
        <ele>212</ele>
        <time>2018-09-23T09:46:06Z</time>
      </trkpt>
      <trkpt lat="45.87077" lon="4.74093">
        <ele>212</ele>
        <time>2018-09-23T09:46:08Z</time>
      </trkpt>
      <trkpt lat="45.87077" lon="4.74088">
        <ele>212</ele>
        <time>2018-09-23T09:46:09Z</time>
      </trkpt>
      <trkpt lat="45.87075" lon="4.74078">
        <ele>213</ele>
        <time>2018-09-23T09:46:11Z</time>
      </trkpt>
      <trkpt lat="45.87075" lon="4.74071">
        <ele>213</ele>
        <time>2018-09-23T09:46:12Z</time>
      </trkpt>
      <trkpt lat="45.87075" lon="4.74065">
        <ele>214</ele>
        <time>2018-09-23T09:46:13Z</time>
      </trkpt>
      <trkpt lat="45.87075" lon="4.74058">
        <ele>214</ele>
        <time>2018-09-23T09:46:14Z</time>
      </trkpt>
      <trkpt lat="45.87077" lon="4.74046">
        <ele>215</ele>
        <time>2018-09-23T09:46:16Z</time>
      </trkpt>
      <trkpt lat="45.87076" lon="4.74039">
        <ele>215</ele>
        <time>2018-09-23T09:46:17Z</time>
      </trkpt>
      <trkpt lat="45.87077" lon="4.74033">
        <ele>215</ele>
        <time>2018-09-23T09:46:18Z</time>
      </trkpt>
      <trkpt lat="45.87076" lon="4.74026">
        <ele>215</ele>
        <time>2018-09-23T09:46:19Z</time>
      </trkpt>
      <trkpt lat="45.87077" lon="4.74015">
        <ele>215</ele>
        <time>2018-09-23T09:46:21Z</time>
      </trkpt>
      <trkpt lat="45.87077" lon="4.74009">
        <ele>216</ele>
        <time>2018-09-23T09:46:22Z</time>
      </trkpt>
      <trkpt lat="45.87077" lon="4.73997">
        <ele>216</ele>
        <time>2018-09-23T09:46:24Z</time>
      </trkpt>
      <trkpt lat="45.87076" lon="4.73991">
        <ele>217</ele>
        <time>2018-09-23T09:46:25Z</time>
      </trkpt>
      <trkpt lat="45.87076" lon="4.73984">
        <ele>217</ele>
        <time>2018-09-23T09:46:27Z</time>
      </trkpt>
      <trkpt lat="45.87074" lon="4.73976">
        <ele>217</ele>
        <time>2018-09-23T09:46:28Z</time>
      </trkpt>
      <trkpt lat="45.87074" lon="4.73965">
        <ele>217</ele>
        <time>2018-09-23T09:46:30Z</time>
      </trkpt>
      <trkpt lat="45.87074" lon="4.73962">
        <ele>217</ele>
        <time>2018-09-23T09:46:31Z</time>
      </trkpt>
      <trkpt lat="45.87073" lon="4.73955">
        <ele>218</ele>
        <time>2018-09-23T09:46:32Z</time>
      </trkpt>
      <trkpt lat="45.87072" lon="4.73949">
        <ele>218</ele>
        <time>2018-09-23T09:46:33Z</time>
      </trkpt>
      <trkpt lat="45.8707" lon="4.73938">
        <ele>218</ele>
        <time>2018-09-23T09:46:35Z</time>
      </trkpt>
      <trkpt lat="45.87071" lon="4.7393">
        <ele>218</ele>
        <time>2018-09-23T09:46:36Z</time>
      </trkpt>
      <trkpt lat="45.87071" lon="4.73922">
        <ele>218</ele>
        <time>2018-09-23T09:46:37Z</time>
      </trkpt>
      <trkpt lat="45.87071" lon="4.73916">
        <ele>218</ele>
        <time>2018-09-23T09:46:38Z</time>
      </trkpt>
      <trkpt lat="45.8707" lon="4.73908">
        <ele>218</ele>
        <time>2018-09-23T09:46:39Z</time>
      </trkpt>
      <trkpt lat="45.8707" lon="4.73901">
        <ele>218</ele>
        <time>2018-09-23T09:46:40Z</time>
      </trkpt>
      <trkpt lat="45.87071" lon="4.73896">
        <ele>218</ele>
        <time>2018-09-23T09:46:41Z</time>
      </trkpt>
      <trkpt lat="45.8707" lon="4.73887">
        <ele>218</ele>
        <time>2018-09-23T09:46:42Z</time>
      </trkpt>
      <trkpt lat="45.87069" lon="4.73879">
        <ele>218</ele>
        <time>2018-09-23T09:46:43Z</time>
      </trkpt>
      <trkpt lat="45.8707" lon="4.73873">
        <ele>218</ele>
        <time>2018-09-23T09:46:44Z</time>
      </trkpt>
      <trkpt lat="45.8707" lon="4.73867">
        <ele>218</ele>
        <time>2018-09-23T09:46:45Z</time>
      </trkpt>
      <trkpt lat="45.87071" lon="4.7386">
        <ele>218</ele>
        <time>2018-09-23T09:46:46Z</time>
      </trkpt>
      <trkpt lat="45.8707" lon="4.73851">
        <ele>218</ele>
        <time>2018-09-23T09:46:47Z</time>
      </trkpt>
      <trkpt lat="45.8707" lon="4.73843">
        <ele>218</ele>
        <time>2018-09-23T09:46:48Z</time>
      </trkpt>
      <trkpt lat="45.87071" lon="4.73835">
        <ele>218</ele>
        <time>2018-09-23T09:46:49Z</time>
      </trkpt>
      <trkpt lat="45.87071" lon="4.73826">
        <ele>217</ele>
        <time>2018-09-23T09:46:50Z</time>
      </trkpt>
      <trkpt lat="45.87071" lon="4.73818">
        <ele>217</ele>
        <time>2018-09-23T09:46:51Z</time>
      </trkpt>
      <trkpt lat="45.8707" lon="4.73808">
        <ele>217</ele>
        <time>2018-09-23T09:46:52Z</time>
      </trkpt>
      <trkpt lat="45.8707" lon="4.73801">
        <ele>217</ele>
        <time>2018-09-23T09:46:53Z</time>
      </trkpt>
      <trkpt lat="45.87071" lon="4.73792">
        <ele>217</ele>
        <time>2018-09-23T09:46:54Z</time>
      </trkpt>
      <trkpt lat="45.87071" lon="4.73784">
        <ele>217</ele>
        <time>2018-09-23T09:46:55Z</time>
      </trkpt>
      <trkpt lat="45.87071" lon="4.73775">
        <ele>217</ele>
        <time>2018-09-23T09:46:56Z</time>
      </trkpt>
      <trkpt lat="45.87072" lon="4.73766">
        <ele>217</ele>
        <time>2018-09-23T09:46:57Z</time>
      </trkpt>
      <trkpt lat="45.87074" lon="4.73758">
        <ele>216</ele>
        <time>2018-09-23T09:46:58Z</time>
      </trkpt>
      <trkpt lat="45.87077" lon="4.73749">
        <ele>216</ele>
        <time>2018-09-23T09:46:59Z</time>
      </trkpt>
      <trkpt lat="45.87076" lon="4.73741">
        <ele>216</ele>
        <time>2018-09-23T09:47:00Z</time>
      </trkpt>
      <trkpt lat="45.87077" lon="4.73733">
        <ele>216</ele>
        <time>2018-09-23T09:47:01Z</time>
      </trkpt>
      <trkpt lat="45.87078" lon="4.73725">
        <ele>217</ele>
        <time>2018-09-23T09:47:02Z</time>
      </trkpt>
      <trkpt lat="45.87081" lon="4.73718">
        <ele>217</ele>
        <time>2018-09-23T09:47:03Z</time>
      </trkpt>
      <trkpt lat="45.87081" lon="4.7371">
        <ele>217</ele>
        <time>2018-09-23T09:47:04Z</time>
      </trkpt>
      <trkpt lat="45.87081" lon="4.73701">
        <ele>217</ele>
        <time>2018-09-23T09:47:05Z</time>
      </trkpt>
      <trkpt lat="45.87081" lon="4.73693">
        <ele>217</ele>
        <time>2018-09-23T09:47:06Z</time>
      </trkpt>
      <trkpt lat="45.87082" lon="4.73685">
        <ele>217</ele>
        <time>2018-09-23T09:47:07Z</time>
      </trkpt>
      <trkpt lat="45.87084" lon="4.73674">
        <ele>215</ele>
        <time>2018-09-23T09:47:08Z</time>
      </trkpt>
      <trkpt lat="45.87086" lon="4.73666">
        <ele>216</ele>
        <time>2018-09-23T09:47:09Z</time>
      </trkpt>
      <trkpt lat="45.87087" lon="4.73656">
        <ele>215</ele>
        <time>2018-09-23T09:47:10Z</time>
      </trkpt>
      <trkpt lat="45.87088" lon="4.73646">
        <ele>214</ele>
        <time>2018-09-23T09:47:11Z</time>
      </trkpt>
      <trkpt lat="45.87089" lon="4.73636">
        <ele>214</ele>
        <time>2018-09-23T09:47:12Z</time>
      </trkpt>
      <trkpt lat="45.87089" lon="4.73627">
        <ele>214</ele>
        <time>2018-09-23T09:47:13Z</time>
      </trkpt>
      <trkpt lat="45.87091" lon="4.73618">
        <ele>214</ele>
        <time>2018-09-23T09:47:14Z</time>
      </trkpt>
      <trkpt lat="45.87092" lon="4.73609">
        <ele>214</ele>
        <time>2018-09-23T09:47:15Z</time>
      </trkpt>
      <trkpt lat="45.87093" lon="4.73599">
        <ele>214</ele>
        <time>2018-09-23T09:47:16Z</time>
      </trkpt>
      <trkpt lat="45.87094" lon="4.7359">
        <ele>214</ele>
        <time>2018-09-23T09:47:17Z</time>
      </trkpt>
      <trkpt lat="45.87095" lon="4.73581">
        <ele>214</ele>
        <time>2018-09-23T09:47:18Z</time>
      </trkpt>
      <trkpt lat="45.87097" lon="4.73572">
        <ele>213</ele>
        <time>2018-09-23T09:47:19Z</time>
      </trkpt>
      <trkpt lat="45.87098" lon="4.73562">
        <ele>213</ele>
        <time>2018-09-23T09:47:20Z</time>
      </trkpt>
      <trkpt lat="45.87099" lon="4.73554">
        <ele>213</ele>
        <time>2018-09-23T09:47:21Z</time>
      </trkpt>
      <trkpt lat="45.87099" lon="4.73544">
        <ele>213</ele>
        <time>2018-09-23T09:47:22Z</time>
      </trkpt>
      <trkpt lat="45.87102" lon="4.73535">
        <ele>213</ele>
        <time>2018-09-23T09:47:23Z</time>
      </trkpt>
      <trkpt lat="45.87104" lon="4.73524">
        <ele>213</ele>
        <time>2018-09-23T09:47:24Z</time>
      </trkpt>
      <trkpt lat="45.87105" lon="4.73515">
        <ele>213</ele>
        <time>2018-09-23T09:47:25Z</time>
      </trkpt>
      <trkpt lat="45.87103" lon="4.73504">
        <ele>213</ele>
        <time>2018-09-23T09:47:26Z</time>
      </trkpt>
      <trkpt lat="45.87103" lon="4.73495">
        <ele>213</ele>
        <time>2018-09-23T09:47:27Z</time>
      </trkpt>
      <trkpt lat="45.87103" lon="4.73484">
        <ele>212</ele>
        <time>2018-09-23T09:47:28Z</time>
      </trkpt>
      <trkpt lat="45.87104" lon="4.73475">
        <ele>212</ele>
        <time>2018-09-23T09:47:29Z</time>
      </trkpt>
      <trkpt lat="45.87105" lon="4.73467">
        <ele>212</ele>
        <time>2018-09-23T09:47:30Z</time>
      </trkpt>
      <trkpt lat="45.87104" lon="4.73455">
        <ele>212</ele>
        <time>2018-09-23T09:47:31Z</time>
      </trkpt>
      <trkpt lat="45.87105" lon="4.73446">
        <ele>212</ele>
        <time>2018-09-23T09:47:32Z</time>
      </trkpt>
      <trkpt lat="45.87106" lon="4.73437">
        <ele>212</ele>
        <time>2018-09-23T09:47:33Z</time>
      </trkpt>
      <trkpt lat="45.87107" lon="4.73428">
        <ele>212</ele>
        <time>2018-09-23T09:47:34Z</time>
      </trkpt>
      <trkpt lat="45.87107" lon="4.73418">
        <ele>212</ele>
        <time>2018-09-23T09:47:35Z</time>
      </trkpt>
      <trkpt lat="45.87108" lon="4.73409">
        <ele>212</ele>
        <time>2018-09-23T09:47:36Z</time>
      </trkpt>
      <trkpt lat="45.87108" lon="4.73399">
        <ele>211</ele>
        <time>2018-09-23T09:47:37Z</time>
      </trkpt>
      <trkpt lat="45.87109" lon="4.73388">
        <ele>211</ele>
        <time>2018-09-23T09:47:38Z</time>
      </trkpt>
      <trkpt lat="45.8711" lon="4.73379">
        <ele>211</ele>
        <time>2018-09-23T09:47:39Z</time>
      </trkpt>
      <trkpt lat="45.87111" lon="4.73369">
        <ele>211</ele>
        <time>2018-09-23T09:47:40Z</time>
      </trkpt>
      <trkpt lat="45.87112" lon="4.73358">
        <ele>211</ele>
        <time>2018-09-23T09:47:41Z</time>
      </trkpt>
      <trkpt lat="45.87112" lon="4.73348">
        <ele>210</ele>
        <time>2018-09-23T09:47:42Z</time>
      </trkpt>
      <trkpt lat="45.87113" lon="4.73337">
        <ele>210</ele>
        <time>2018-09-23T09:47:43Z</time>
      </trkpt>
      <trkpt lat="45.87114" lon="4.73328">
        <ele>209</ele>
        <time>2018-09-23T09:47:44Z</time>
      </trkpt>
      <trkpt lat="45.87116" lon="4.73319">
        <ele>209</ele>
        <time>2018-09-23T09:47:45Z</time>
      </trkpt>
      <trkpt lat="45.87116" lon="4.73308">
        <ele>209</ele>
        <time>2018-09-23T09:47:46Z</time>
      </trkpt>
      <trkpt lat="45.87117" lon="4.73298">
        <ele>208</ele>
        <time>2018-09-23T09:47:47Z</time>
      </trkpt>
      <trkpt lat="45.87118" lon="4.73288">
        <ele>208</ele>
        <time>2018-09-23T09:47:48Z</time>
      </trkpt>
      <trkpt lat="45.8712" lon="4.73277">
        <ele>208</ele>
        <time>2018-09-23T09:47:49Z</time>
      </trkpt>
      <trkpt lat="45.87121" lon="4.73268">
        <ele>208</ele>
        <time>2018-09-23T09:47:50Z</time>
      </trkpt>
      <trkpt lat="45.87123" lon="4.73259">
        <ele>208</ele>
        <time>2018-09-23T09:47:51Z</time>
      </trkpt>
      <trkpt lat="45.87126" lon="4.73249">
        <ele>206</ele>
        <time>2018-09-23T09:47:52Z</time>
      </trkpt>
      <trkpt lat="45.87129" lon="4.73239">
        <ele>206</ele>
        <time>2018-09-23T09:47:53Z</time>
      </trkpt>
      <trkpt lat="45.87132" lon="4.73228">
        <ele>206</ele>
        <time>2018-09-23T09:47:54Z</time>
      </trkpt>
      <trkpt lat="45.87136" lon="4.73218">
        <ele>206</ele>
        <time>2018-09-23T09:47:55Z</time>
      </trkpt>
      <trkpt lat="45.87141" lon="4.73208">
        <ele>206</ele>
        <time>2018-09-23T09:47:56Z</time>
      </trkpt>
      <trkpt lat="45.87145" lon="4.73199">
        <ele>205</ele>
        <time>2018-09-23T09:47:57Z</time>
      </trkpt>
      <trkpt lat="45.87149" lon="4.7319">
        <ele>205</ele>
        <time>2018-09-23T09:47:58Z</time>
      </trkpt>
      <trkpt lat="45.87152" lon="4.73181">
        <ele>205</ele>
        <time>2018-09-23T09:47:59Z</time>
      </trkpt>
      <trkpt lat="45.87156" lon="4.73171">
        <ele>204</ele>
        <time>2018-09-23T09:48:00Z</time>
      </trkpt>
      <trkpt lat="45.87159" lon="4.73161">
        <ele>204</ele>
        <time>2018-09-23T09:48:01Z</time>
      </trkpt>
      <trkpt lat="45.87161" lon="4.7315">
        <ele>204</ele>
        <time>2018-09-23T09:48:02Z</time>
      </trkpt>
      <trkpt lat="45.87164" lon="4.7314">
        <ele>204</ele>
        <time>2018-09-23T09:48:03Z</time>
      </trkpt>
      <trkpt lat="45.87166" lon="4.7313">
        <ele>204</ele>
        <time>2018-09-23T09:48:04Z</time>
      </trkpt>
      <trkpt lat="45.87167" lon="4.7312">
        <ele>202</ele>
        <time>2018-09-23T09:48:05Z</time>
      </trkpt>
      <trkpt lat="45.87168" lon="4.7311">
        <ele>202</ele>
        <time>2018-09-23T09:48:06Z</time>
      </trkpt>
      <trkpt lat="45.8717" lon="4.731">
        <ele>202</ele>
        <time>2018-09-23T09:48:07Z</time>
      </trkpt>
      <trkpt lat="45.87172" lon="4.73091">
        <ele>202</ele>
        <time>2018-09-23T09:48:08Z</time>
      </trkpt>
      <trkpt lat="45.87172" lon="4.73081">
        <ele>202</ele>
        <time>2018-09-23T09:48:09Z</time>
      </trkpt>
      <trkpt lat="45.87172" lon="4.73071">
        <ele>202</ele>
        <time>2018-09-23T09:48:10Z</time>
      </trkpt>
      <trkpt lat="45.87172" lon="4.73063">
        <ele>201</ele>
        <time>2018-09-23T09:48:11Z</time>
      </trkpt>
      <trkpt lat="45.87173" lon="4.73053">
        <ele>201</ele>
        <time>2018-09-23T09:48:12Z</time>
      </trkpt>
      <trkpt lat="45.87173" lon="4.73043">
        <ele>201</ele>
        <time>2018-09-23T09:48:13Z</time>
      </trkpt>
      <trkpt lat="45.87173" lon="4.73035">
        <ele>201</ele>
        <time>2018-09-23T09:48:14Z</time>
      </trkpt>
      <trkpt lat="45.87172" lon="4.73024">
        <ele>202</ele>
        <time>2018-09-23T09:48:15Z</time>
      </trkpt>
      <trkpt lat="45.87169" lon="4.73014">
        <ele>202</ele>
        <time>2018-09-23T09:48:16Z</time>
      </trkpt>
      <trkpt lat="45.8717" lon="4.73005">
        <ele>203</ele>
        <time>2018-09-23T09:48:17Z</time>
      </trkpt>
      <trkpt lat="45.8717" lon="4.72997">
        <ele>203</ele>
        <time>2018-09-23T09:48:18Z</time>
      </trkpt>
      <trkpt lat="45.8717" lon="4.72988">
        <ele>203</ele>
        <time>2018-09-23T09:48:19Z</time>
      </trkpt>
      <trkpt lat="45.8717" lon="4.7298">
        <ele>202</ele>
        <time>2018-09-23T09:48:20Z</time>
      </trkpt>
      <trkpt lat="45.87172" lon="4.72973">
        <ele>202</ele>
        <time>2018-09-23T09:48:21Z</time>
      </trkpt>
      <trkpt lat="45.87172" lon="4.72964">
        <ele>201</ele>
        <time>2018-09-23T09:48:22Z</time>
      </trkpt>
      <trkpt lat="45.87173" lon="4.72954">
        <ele>201</ele>
        <time>2018-09-23T09:48:23Z</time>
      </trkpt>
      <trkpt lat="45.87173" lon="4.72945">
        <ele>202</ele>
        <time>2018-09-23T09:48:24Z</time>
      </trkpt>
      <trkpt lat="45.87173" lon="4.72938">
        <ele>202</ele>
        <time>2018-09-23T09:48:25Z</time>
      </trkpt>
      <trkpt lat="45.87173" lon="4.7293">
        <ele>202</ele>
        <time>2018-09-23T09:48:26Z</time>
      </trkpt>
      <trkpt lat="45.87172" lon="4.72921">
        <ele>203</ele>
        <time>2018-09-23T09:48:27Z</time>
      </trkpt>
      <trkpt lat="45.87172" lon="4.72912">
        <ele>203</ele>
        <time>2018-09-23T09:48:28Z</time>
      </trkpt>
      <trkpt lat="45.8717" lon="4.729">
        <ele>202</ele>
        <time>2018-09-23T09:48:29Z</time>
      </trkpt>
      <trkpt lat="45.87172" lon="4.72891">
        <ele>201</ele>
        <time>2018-09-23T09:48:30Z</time>
      </trkpt>
      <trkpt lat="45.87173" lon="4.7288">
        <ele>200</ele>
        <time>2018-09-23T09:48:31Z</time>
      </trkpt>
      <trkpt lat="45.87174" lon="4.7287">
        <ele>200</ele>
        <time>2018-09-23T09:48:32Z</time>
      </trkpt>
      <trkpt lat="45.87175" lon="4.7286">
        <ele>200</ele>
        <time>2018-09-23T09:48:33Z</time>
      </trkpt>
      <trkpt lat="45.87175" lon="4.72851">
        <ele>200</ele>
        <time>2018-09-23T09:48:34Z</time>
      </trkpt>
      <trkpt lat="45.87176" lon="4.7284">
        <ele>201</ele>
        <time>2018-09-23T09:48:35Z</time>
      </trkpt>
      <trkpt lat="45.87176" lon="4.7283">
        <ele>201</ele>
        <time>2018-09-23T09:48:36Z</time>
      </trkpt>
      <trkpt lat="45.87176" lon="4.72817">
        <ele>200</ele>
        <time>2018-09-23T09:48:37Z</time>
      </trkpt>
      <trkpt lat="45.87176" lon="4.72806">
        <ele>199</ele>
        <time>2018-09-23T09:48:38Z</time>
      </trkpt>
      <trkpt lat="45.87173" lon="4.72795">
        <ele>199</ele>
        <time>2018-09-23T09:48:39Z</time>
      </trkpt>
      <trkpt lat="45.87171" lon="4.72784">
        <ele>199</ele>
        <time>2018-09-23T09:48:40Z</time>
      </trkpt>
      <trkpt lat="45.87176" lon="4.72778">
        <ele>199</ele>
        <time>2018-09-23T09:48:41Z</time>
      </trkpt>
      <trkpt lat="45.87172" lon="4.72765">
        <ele>200</ele>
        <time>2018-09-23T09:48:42Z</time>
      </trkpt>
      <trkpt lat="45.87173" lon="4.72752">
        <ele>200</ele>
        <time>2018-09-23T09:48:43Z</time>
      </trkpt>
      <trkpt lat="45.87175" lon="4.7274">
        <ele>200</ele>
        <time>2018-09-23T09:48:44Z</time>
      </trkpt>
      <trkpt lat="45.87183" lon="4.72732">
        <ele>199</ele>
        <time>2018-09-23T09:48:45Z</time>
      </trkpt>
      <trkpt lat="45.8719" lon="4.72722">
        <ele>199</ele>
        <time>2018-09-23T09:48:46Z</time>
      </trkpt>
      <trkpt lat="45.87192" lon="4.72713">
        <ele>199</ele>
        <time>2018-09-23T09:48:47Z</time>
      </trkpt>
      <trkpt lat="45.87192" lon="4.72699">
        <ele>199</ele>
        <time>2018-09-23T09:48:48Z</time>
      </trkpt>
      <trkpt lat="45.87194" lon="4.72689">
        <ele>199</ele>
        <time>2018-09-23T09:48:49Z</time>
      </trkpt>
      <trkpt lat="45.87193" lon="4.72676">
        <ele>199</ele>
        <time>2018-09-23T09:48:50Z</time>
      </trkpt>
      <trkpt lat="45.87198" lon="4.72668">
        <ele>199</ele>
        <time>2018-09-23T09:48:51Z</time>
      </trkpt>
      <trkpt lat="45.87203" lon="4.7266">
        <ele>199</ele>
        <time>2018-09-23T09:48:52Z</time>
      </trkpt>
      <trkpt lat="45.87207" lon="4.72653">
        <ele>199</ele>
        <time>2018-09-23T09:48:53Z</time>
      </trkpt>
      <trkpt lat="45.87208" lon="4.72644">
        <ele>199</ele>
        <time>2018-09-23T09:48:54Z</time>
      </trkpt>
      <trkpt lat="45.8721" lon="4.72634">
        <ele>199</ele>
        <time>2018-09-23T09:48:55Z</time>
      </trkpt>
      <trkpt lat="45.8721" lon="4.72625">
        <ele>199</ele>
        <time>2018-09-23T09:48:56Z</time>
      </trkpt>
      <trkpt lat="45.87212" lon="4.72614">
        <ele>199</ele>
        <time>2018-09-23T09:48:57Z</time>
      </trkpt>
      <trkpt lat="45.87215" lon="4.72605">
        <ele>199</ele>
        <time>2018-09-23T09:48:58Z</time>
      </trkpt>
      <trkpt lat="45.87217" lon="4.72596">
        <ele>199</ele>
        <time>2018-09-23T09:48:59Z</time>
      </trkpt>
      <trkpt lat="45.87216" lon="4.72586">
        <ele>199</ele>
        <time>2018-09-23T09:49:00Z</time>
      </trkpt>
      <trkpt lat="45.87217" lon="4.72573">
        <ele>198</ele>
        <time>2018-09-23T09:49:01Z</time>
      </trkpt>
      <trkpt lat="45.87217" lon="4.72563">
        <ele>198</ele>
        <time>2018-09-23T09:49:02Z</time>
      </trkpt>
      <trkpt lat="45.87217" lon="4.72553">
        <ele>198</ele>
        <time>2018-09-23T09:49:03Z</time>
      </trkpt>
      <trkpt lat="45.87217" lon="4.72543">
        <ele>198</ele>
        <time>2018-09-23T09:49:04Z</time>
      </trkpt>
      <trkpt lat="45.87217" lon="4.72531">
        <ele>198</ele>
        <time>2018-09-23T09:49:05Z</time>
      </trkpt>
      <trkpt lat="45.87216" lon="4.72522">
        <ele>198</ele>
        <time>2018-09-23T09:49:06Z</time>
      </trkpt>
      <trkpt lat="45.87214" lon="4.72513">
        <ele>198</ele>
        <time>2018-09-23T09:49:07Z</time>
      </trkpt>
      <trkpt lat="45.87212" lon="4.72502">
        <ele>198</ele>
        <time>2018-09-23T09:49:08Z</time>
      </trkpt>
      <trkpt lat="45.87209" lon="4.72492">
        <ele>195</ele>
        <time>2018-09-23T09:49:09Z</time>
      </trkpt>
      <trkpt lat="45.87206" lon="4.72481">
        <ele>195</ele>
        <time>2018-09-23T09:49:10Z</time>
      </trkpt>
      <trkpt lat="45.87202" lon="4.72471">
        <ele>195</ele>
        <time>2018-09-23T09:49:11Z</time>
      </trkpt>
      <trkpt lat="45.87198" lon="4.72462">
        <ele>195</ele>
        <time>2018-09-23T09:49:12Z</time>
      </trkpt>
      <trkpt lat="45.87194" lon="4.72454">
        <ele>194</ele>
        <time>2018-09-23T09:49:13Z</time>
      </trkpt>
      <trkpt lat="45.87189" lon="4.72446">
        <ele>194</ele>
        <time>2018-09-23T09:49:14Z</time>
      </trkpt>
      <trkpt lat="45.87185" lon="4.72438">
        <ele>194</ele>
        <time>2018-09-23T09:49:15Z</time>
      </trkpt>
      <trkpt lat="45.8718" lon="4.72429">
        <ele>194</ele>
        <time>2018-09-23T09:49:16Z</time>
      </trkpt>
      <trkpt lat="45.87177" lon="4.72421">
        <ele>194</ele>
        <time>2018-09-23T09:49:17Z</time>
      </trkpt>
      <trkpt lat="45.87174" lon="4.72413">
        <ele>193</ele>
        <time>2018-09-23T09:49:18Z</time>
      </trkpt>
      <trkpt lat="45.8717" lon="4.72405">
        <ele>192</ele>
        <time>2018-09-23T09:49:19Z</time>
      </trkpt>
      <trkpt lat="45.87167" lon="4.72398">
        <ele>191</ele>
        <time>2018-09-23T09:49:20Z</time>
      </trkpt>
      <trkpt lat="45.87164" lon="4.72391">
        <ele>197</ele>
        <time>2018-09-23T09:49:21Z</time>
      </trkpt>
      <trkpt lat="45.87161" lon="4.72383">
        <ele>197</ele>
        <time>2018-09-23T09:49:22Z</time>
      </trkpt>
      <trkpt lat="45.87159" lon="4.72376">
        <ele>197</ele>
        <time>2018-09-23T09:49:23Z</time>
      </trkpt>
      <trkpt lat="45.87156" lon="4.72369">
        <ele>197</ele>
        <time>2018-09-23T09:49:24Z</time>
      </trkpt>
      <trkpt lat="45.87152" lon="4.7236">
        <ele>196</ele>
        <time>2018-09-23T09:49:25Z</time>
      </trkpt>
      <trkpt lat="45.87148" lon="4.72353">
        <ele>196</ele>
        <time>2018-09-23T09:49:26Z</time>
      </trkpt>
      <trkpt lat="45.87144" lon="4.72346">
        <ele>196</ele>
        <time>2018-09-23T09:49:27Z</time>
      </trkpt>
      <trkpt lat="45.87141" lon="4.72339">
        <ele>196</ele>
        <time>2018-09-23T09:49:28Z</time>
      </trkpt>
      <trkpt lat="45.87137" lon="4.72331">
        <ele>195</ele>
        <time>2018-09-23T09:49:29Z</time>
      </trkpt>
      <trkpt lat="45.87134" lon="4.72323">
        <ele>195</ele>
        <time>2018-09-23T09:49:30Z</time>
      </trkpt>
      <trkpt lat="45.8713" lon="4.72315">
        <ele>196</ele>
        <time>2018-09-23T09:49:31Z</time>
      </trkpt>
      <trkpt lat="45.87127" lon="4.72306">
        <ele>196</ele>
        <time>2018-09-23T09:49:32Z</time>
      </trkpt>
      <trkpt lat="45.87123" lon="4.72299">
        <ele>196</ele>
        <time>2018-09-23T09:49:33Z</time>
      </trkpt>
      <trkpt lat="45.8712" lon="4.72292">
        <ele>196</ele>
        <time>2018-09-23T09:49:34Z</time>
      </trkpt>
      <trkpt lat="45.87116" lon="4.72286">
        <ele>197</ele>
        <time>2018-09-23T09:49:35Z</time>
      </trkpt>
      <trkpt lat="45.87113" lon="4.7228">
        <ele>197</ele>
        <time>2018-09-23T09:49:36Z</time>
      </trkpt>
      <trkpt lat="45.87107" lon="4.72273">
        <ele>197</ele>
        <time>2018-09-23T09:49:37Z</time>
      </trkpt>
      <trkpt lat="45.87103" lon="4.72266">
        <ele>197</ele>
        <time>2018-09-23T09:49:38Z</time>
      </trkpt>
      <trkpt lat="45.87098" lon="4.7226">
        <ele>198</ele>
        <time>2018-09-23T09:49:39Z</time>
      </trkpt>
      <trkpt lat="45.87092" lon="4.72254">
        <ele>198</ele>
        <time>2018-09-23T09:49:40Z</time>
      </trkpt>
      <trkpt lat="45.87087" lon="4.72249">
        <ele>198</ele>
        <time>2018-09-23T09:49:41Z</time>
      </trkpt>
      <trkpt lat="45.87081" lon="4.72244">
        <ele>199</ele>
        <time>2018-09-23T09:49:42Z</time>
      </trkpt>
      <trkpt lat="45.87076" lon="4.72238">
        <ele>200</ele>
        <time>2018-09-23T09:49:43Z</time>
      </trkpt>
      <trkpt lat="45.87072" lon="4.72232">
        <ele>200</ele>
        <time>2018-09-23T09:49:44Z</time>
      </trkpt>
      <trkpt lat="45.87067" lon="4.72227">
        <ele>200</ele>
        <time>2018-09-23T09:49:45Z</time>
      </trkpt>
      <trkpt lat="45.87062" lon="4.72222">
        <ele>200</ele>
        <time>2018-09-23T09:49:46Z</time>
      </trkpt>
      <trkpt lat="45.87057" lon="4.72218">
        <ele>200</ele>
        <time>2018-09-23T09:49:47Z</time>
      </trkpt>
      <trkpt lat="45.87053" lon="4.72213">
        <ele>200</ele>
        <time>2018-09-23T09:49:48Z</time>
      </trkpt>
      <trkpt lat="45.87048" lon="4.72209">
        <ele>200</ele>
        <time>2018-09-23T09:49:49Z</time>
      </trkpt>
      <trkpt lat="45.87043" lon="4.72204">
        <ele>200</ele>
        <time>2018-09-23T09:49:50Z</time>
      </trkpt>
      <trkpt lat="45.87037" lon="4.722">
        <ele>201</ele>
        <time>2018-09-23T09:49:51Z</time>
      </trkpt>
      <trkpt lat="45.87032" lon="4.72197">
        <ele>201</ele>
        <time>2018-09-23T09:49:52Z</time>
      </trkpt>
      <trkpt lat="45.87027" lon="4.72194">
        <ele>201</ele>
        <time>2018-09-23T09:49:53Z</time>
      </trkpt>
      <trkpt lat="45.87022" lon="4.72189">
        <ele>201</ele>
        <time>2018-09-23T09:49:54Z</time>
      </trkpt>
      <trkpt lat="45.87016" lon="4.72185">
        <ele>201</ele>
        <time>2018-09-23T09:49:55Z</time>
      </trkpt>
      <trkpt lat="45.87012" lon="4.72181">
        <ele>201</ele>
        <time>2018-09-23T09:49:56Z</time>
      </trkpt>
      <trkpt lat="45.87007" lon="4.72176">
        <ele>201</ele>
        <time>2018-09-23T09:49:57Z</time>
      </trkpt>
      <trkpt lat="45.86999" lon="4.72173">
        <ele>204</ele>
        <time>2018-09-23T09:49:58Z</time>
      </trkpt>
      <trkpt lat="45.86994" lon="4.72169">
        <ele>204</ele>
        <time>2018-09-23T09:49:59Z</time>
      </trkpt>
      <trkpt lat="45.86987" lon="4.72164">
        <ele>201</ele>
        <time>2018-09-23T09:50:00Z</time>
      </trkpt>
      <trkpt lat="45.86983" lon="4.72162">
        <ele>201</ele>
        <time>2018-09-23T09:50:01Z</time>
      </trkpt>
      <trkpt lat="45.86977" lon="4.72159">
        <ele>201</ele>
        <time>2018-09-23T09:50:02Z</time>
      </trkpt>
      <trkpt lat="45.86973" lon="4.72156">
        <ele>201</ele>
        <time>2018-09-23T09:50:03Z</time>
      </trkpt>
      <trkpt lat="45.86968" lon="4.72152">
        <ele>201</ele>
        <time>2018-09-23T09:50:04Z</time>
      </trkpt>
      <trkpt lat="45.86963" lon="4.72149">
        <ele>201</ele>
        <time>2018-09-23T09:50:05Z</time>
      </trkpt>
      <trkpt lat="45.86958" lon="4.72144">
        <ele>201</ele>
        <time>2018-09-23T09:50:06Z</time>
      </trkpt>
      <trkpt lat="45.86953" lon="4.72141">
        <ele>201</ele>
        <time>2018-09-23T09:50:07Z</time>
      </trkpt>
      <trkpt lat="45.86949" lon="4.72137">
        <ele>201</ele>
        <time>2018-09-23T09:50:08Z</time>
      </trkpt>
      <trkpt lat="45.86944" lon="4.72134">
        <ele>201</ele>
        <time>2018-09-23T09:50:09Z</time>
      </trkpt>
      <trkpt lat="45.86938" lon="4.72132">
        <ele>200</ele>
        <time>2018-09-23T09:50:10Z</time>
      </trkpt>
      <trkpt lat="45.86933" lon="4.72129">
        <ele>200</ele>
        <time>2018-09-23T09:50:11Z</time>
      </trkpt>
      <trkpt lat="45.86928" lon="4.72127">
        <ele>200</ele>
        <time>2018-09-23T09:50:12Z</time>
      </trkpt>
      <trkpt lat="45.86922" lon="4.72124">
        <ele>200</ele>
        <time>2018-09-23T09:50:13Z</time>
      </trkpt>
      <trkpt lat="45.86918" lon="4.72123">
        <ele>200</ele>
        <time>2018-09-23T09:50:14Z</time>
      </trkpt>
      <trkpt lat="45.86913" lon="4.72122">
        <ele>202</ele>
        <time>2018-09-23T09:50:15Z</time>
      </trkpt>
      <trkpt lat="45.86906" lon="4.72121">
        <ele>202</ele>
        <time>2018-09-23T09:50:16Z</time>
      </trkpt>
      <trkpt lat="45.86901" lon="4.7212">
        <ele>201</ele>
        <time>2018-09-23T09:50:17Z</time>
      </trkpt>
      <trkpt lat="45.86895" lon="4.72118">
        <ele>201</ele>
        <time>2018-09-23T09:50:18Z</time>
      </trkpt>
      <trkpt lat="45.8689" lon="4.72116">
        <ele>201</ele>
        <time>2018-09-23T09:50:19Z</time>
      </trkpt>
      <trkpt lat="45.86885" lon="4.72113">
        <ele>201</ele>
        <time>2018-09-23T09:50:20Z</time>
      </trkpt>
      <trkpt lat="45.86879" lon="4.72111">
        <ele>201</ele>
        <time>2018-09-23T09:50:21Z</time>
      </trkpt>
      <trkpt lat="45.86874" lon="4.7211">
        <ele>201</ele>
        <time>2018-09-23T09:50:22Z</time>
      </trkpt>
      <trkpt lat="45.8687" lon="4.72107">
        <ele>201</ele>
        <time>2018-09-23T09:50:23Z</time>
      </trkpt>
      <trkpt lat="45.86865" lon="4.72106">
        <ele>200</ele>
        <time>2018-09-23T09:50:24Z</time>
      </trkpt>
      <trkpt lat="45.86859" lon="4.72104">
        <ele>200</ele>
        <time>2018-09-23T09:50:25Z</time>
      </trkpt>
      <trkpt lat="45.86855" lon="4.72102">
        <ele>200</ele>
        <time>2018-09-23T09:50:26Z</time>
      </trkpt>
      <trkpt lat="45.8685" lon="4.72099">
        <ele>199</ele>
        <time>2018-09-23T09:50:27Z</time>
      </trkpt>
      <trkpt lat="45.86848" lon="4.72095">
        <ele>198</ele>
        <time>2018-09-23T09:50:28Z</time>
      </trkpt>
      <trkpt lat="45.86842" lon="4.72094">
        <ele>197</ele>
        <time>2018-09-23T09:50:29Z</time>
      </trkpt>
      <trkpt lat="45.86836" lon="4.72092">
        <ele>196</ele>
        <time>2018-09-23T09:50:30Z</time>
      </trkpt>
      <trkpt lat="45.8683" lon="4.72091">
        <ele>196</ele>
        <time>2018-09-23T09:50:31Z</time>
      </trkpt>
      <trkpt lat="45.86826" lon="4.72088">
        <ele>197</ele>
        <time>2018-09-23T09:50:32Z</time>
      </trkpt>
      <trkpt lat="45.8682" lon="4.72088">
        <ele>198</ele>
        <time>2018-09-23T09:50:33Z</time>
      </trkpt>
      <trkpt lat="45.86816" lon="4.72086">
        <ele>199</ele>
        <time>2018-09-23T09:50:34Z</time>
      </trkpt>
      <trkpt lat="45.8681" lon="4.72084">
        <ele>200</ele>
        <time>2018-09-23T09:50:35Z</time>
      </trkpt>
      <trkpt lat="45.86802" lon="4.7208">
        <ele>194</ele>
        <time>2018-09-23T09:50:37Z</time>
      </trkpt>
      <trkpt lat="45.86797" lon="4.72077">
        <ele>194</ele>
        <time>2018-09-23T09:50:38Z</time>
      </trkpt>
      <trkpt lat="45.86791" lon="4.72074">
        <ele>194</ele>
        <time>2018-09-23T09:50:39Z</time>
      </trkpt>
      <trkpt lat="45.86785" lon="4.72071">
        <ele>194</ele>
        <time>2018-09-23T09:50:40Z</time>
      </trkpt>
      <trkpt lat="45.86778" lon="4.72068">
        <ele>194</ele>
        <time>2018-09-23T09:50:41Z</time>
      </trkpt>
      <trkpt lat="45.86775" lon="4.72066">
        <ele>195</ele>
        <time>2018-09-23T09:50:42Z</time>
      </trkpt>
      <trkpt lat="45.86769" lon="4.72064">
        <ele>195</ele>
        <time>2018-09-23T09:50:43Z</time>
      </trkpt>
      <trkpt lat="45.86765" lon="4.72062">
        <ele>195</ele>
        <time>2018-09-23T09:50:44Z</time>
      </trkpt>
      <trkpt lat="45.86759" lon="4.7206">
        <ele>195</ele>
        <time>2018-09-23T09:50:45Z</time>
      </trkpt>
      <trkpt lat="45.86755" lon="4.72058">
        <ele>195</ele>
        <time>2018-09-23T09:50:46Z</time>
      </trkpt>
      <trkpt lat="45.86749" lon="4.72056">
        <ele>197</ele>
        <time>2018-09-23T09:50:47Z</time>
      </trkpt>
      <trkpt lat="45.86744" lon="4.72053">
        <ele>197</ele>
        <time>2018-09-23T09:50:48Z</time>
      </trkpt>
      <trkpt lat="45.86738" lon="4.72051">
        <ele>197</ele>
        <time>2018-09-23T09:50:49Z</time>
      </trkpt>
      <trkpt lat="45.86734" lon="4.72049">
        <ele>197</ele>
        <time>2018-09-23T09:50:50Z</time>
      </trkpt>
      <trkpt lat="45.86726" lon="4.72044">
        <ele>197</ele>
        <time>2018-09-23T09:50:52Z</time>
      </trkpt>
      <trkpt lat="45.86721" lon="4.72041">
        <ele>197</ele>
        <time>2018-09-23T09:50:53Z</time>
      </trkpt>
      <trkpt lat="45.86717" lon="4.72039">
        <ele>197</ele>
        <time>2018-09-23T09:50:54Z</time>
      </trkpt>
      <trkpt lat="45.8671" lon="4.72037">
        <ele>197</ele>
        <time>2018-09-23T09:50:55Z</time>
      </trkpt>
      <trkpt lat="45.86705" lon="4.72034">
        <ele>197</ele>
        <time>2018-09-23T09:50:56Z</time>
      </trkpt>
      <trkpt lat="45.867" lon="4.72032">
        <ele>197</ele>
        <time>2018-09-23T09:50:57Z</time>
      </trkpt>
      <trkpt lat="45.86693" lon="4.72026">
        <ele>197</ele>
        <time>2018-09-23T09:50:59Z</time>
      </trkpt>
      <trkpt lat="45.86692" lon="4.72024">
        <ele>197</ele>
        <time>2018-09-23T09:51:00Z</time>
      </trkpt>
      <trkpt lat="45.86687" lon="4.7202">
        <ele>197</ele>
        <time>2018-09-23T09:51:01Z</time>
      </trkpt>
      <trkpt lat="45.86683" lon="4.72017">
        <ele>196</ele>
        <time>2018-09-23T09:51:02Z</time>
      </trkpt>
      <trkpt lat="45.86676" lon="4.7201">
        <ele>196</ele>
        <time>2018-09-23T09:51:04Z</time>
      </trkpt>
      <trkpt lat="45.8667" lon="4.72008">
        <ele>196</ele>
        <time>2018-09-23T09:51:05Z</time>
      </trkpt>
      <trkpt lat="45.86662" lon="4.72003">
        <ele>196</ele>
        <time>2018-09-23T09:51:07Z</time>
      </trkpt>
      <trkpt lat="45.86659" lon="4.71998">
        <ele>195</ele>
        <time>2018-09-23T09:51:08Z</time>
      </trkpt>
      <trkpt lat="45.86655" lon="4.71995">
        <ele>195</ele>
        <time>2018-09-23T09:51:09Z</time>
      </trkpt>
      <trkpt lat="45.8665" lon="4.71991">
        <ele>195</ele>
        <time>2018-09-23T09:51:10Z</time>
      </trkpt>
      <trkpt lat="45.86646" lon="4.71987">
        <ele>195</ele>
        <time>2018-09-23T09:51:11Z</time>
      </trkpt>
      <trkpt lat="45.86641" lon="4.71983">
        <ele>195</ele>
        <time>2018-09-23T09:51:12Z</time>
      </trkpt>
      <trkpt lat="45.86636" lon="4.71979">
        <ele>195</ele>
        <time>2018-09-23T09:51:13Z</time>
      </trkpt>
      <trkpt lat="45.8663" lon="4.71976">
        <ele>195</ele>
        <time>2018-09-23T09:51:14Z</time>
      </trkpt>
      <trkpt lat="45.86624" lon="4.71968">
        <ele>195</ele>
        <time>2018-09-23T09:51:16Z</time>
      </trkpt>
      <trkpt lat="45.86619" lon="4.71964">
        <ele>195</ele>
        <time>2018-09-23T09:51:17Z</time>
      </trkpt>
      <trkpt lat="45.86615" lon="4.7196">
        <ele>195</ele>
        <time>2018-09-23T09:51:18Z</time>
      </trkpt>
      <trkpt lat="45.8661" lon="4.71956">
        <ele>194</ele>
        <time>2018-09-23T09:51:19Z</time>
      </trkpt>
      <trkpt lat="45.86605" lon="4.71952">
        <ele>194</ele>
        <time>2018-09-23T09:51:20Z</time>
      </trkpt>
      <trkpt lat="45.866" lon="4.71949">
        <ele>194</ele>
        <time>2018-09-23T09:51:21Z</time>
      </trkpt>
      <trkpt lat="45.86593" lon="4.71943">
        <ele>194</ele>
        <time>2018-09-23T09:51:23Z</time>
      </trkpt>
      <trkpt lat="45.86591" lon="4.7194">
        <ele>194</ele>
        <time>2018-09-23T09:51:24Z</time>
      </trkpt>
      <trkpt lat="45.86586" lon="4.71937">
        <ele>194</ele>
        <time>2018-09-23T09:51:25Z</time>
      </trkpt>
      <trkpt lat="45.86583" lon="4.71932">
        <ele>195</ele>
        <time>2018-09-23T09:51:26Z</time>
      </trkpt>
      <trkpt lat="45.86579" lon="4.71929">
        <ele>195</ele>
        <time>2018-09-23T09:51:27Z</time>
      </trkpt>
      <trkpt lat="45.86574" lon="4.71925">
        <ele>195</ele>
        <time>2018-09-23T09:51:28Z</time>
      </trkpt>
      <trkpt lat="45.86568" lon="4.71922">
        <ele>195</ele>
        <time>2018-09-23T09:51:29Z</time>
      </trkpt>
      <trkpt lat="45.86564" lon="4.71918">
        <ele>195</ele>
        <time>2018-09-23T09:51:30Z</time>
      </trkpt>
      <trkpt lat="45.86558" lon="4.71915">
        <ele>195</ele>
        <time>2018-09-23T09:51:31Z</time>
      </trkpt>
      <trkpt lat="45.86554" lon="4.71911">
        <ele>195</ele>
        <time>2018-09-23T09:51:32Z</time>
      </trkpt>
      <trkpt lat="45.86549" lon="4.71908">
        <ele>195</ele>
        <time>2018-09-23T09:51:33Z</time>
      </trkpt>
      <trkpt lat="45.86544" lon="4.71904">
        <ele>195</ele>
        <time>2018-09-23T09:51:34Z</time>
      </trkpt>
      <trkpt lat="45.8654" lon="4.719">
        <ele>195</ele>
        <time>2018-09-23T09:51:35Z</time>
      </trkpt>
      <trkpt lat="45.86536" lon="4.71896">
        <ele>195</ele>
        <time>2018-09-23T09:51:36Z</time>
      </trkpt>
      <trkpt lat="45.86531" lon="4.71894">
        <ele>195</ele>
        <time>2018-09-23T09:51:37Z</time>
      </trkpt>
      <trkpt lat="45.86526" lon="4.71891">
        <ele>195</ele>
        <time>2018-09-23T09:51:38Z</time>
      </trkpt>
      <trkpt lat="45.86521" lon="4.71887">
        <ele>195</ele>
        <time>2018-09-23T09:51:39Z</time>
      </trkpt>
      <trkpt lat="45.86518" lon="4.71883">
        <ele>195</ele>
        <time>2018-09-23T09:51:40Z</time>
      </trkpt>
      <trkpt lat="45.86514" lon="4.7188">
        <ele>195</ele>
        <time>2018-09-23T09:51:41Z</time>
      </trkpt>
      <trkpt lat="45.86509" lon="4.71878">
        <ele>195</ele>
        <time>2018-09-23T09:51:42Z</time>
      </trkpt>
      <trkpt lat="45.86505" lon="4.71875">
        <ele>195</ele>
        <time>2018-09-23T09:51:43Z</time>
      </trkpt>
      <trkpt lat="45.86501" lon="4.71871">
        <ele>195</ele>
        <time>2018-09-23T09:51:44Z</time>
      </trkpt>
      <trkpt lat="45.86496" lon="4.71866">
        <ele>198</ele>
        <time>2018-09-23T09:51:45Z</time>
      </trkpt>
      <trkpt lat="45.86492" lon="4.71863">
        <ele>198</ele>
        <time>2018-09-23T09:51:46Z</time>
      </trkpt>
      <trkpt lat="45.86485" lon="4.71856">
        <ele>198</ele>
        <time>2018-09-23T09:51:48Z</time>
      </trkpt>
      <trkpt lat="45.86483" lon="4.71855">
        <ele>198</ele>
        <time>2018-09-23T09:51:49Z</time>
      </trkpt>
      <trkpt lat="45.86475" lon="4.71849">
        <ele>199</ele>
        <time>2018-09-23T09:51:51Z</time>
      </trkpt>
      <trkpt lat="45.86472" lon="4.71845">
        <ele>199</ele>
        <time>2018-09-23T09:51:52Z</time>
      </trkpt>
      <trkpt lat="45.86466" lon="4.71841">
        <ele>199</ele>
        <time>2018-09-23T09:51:53Z</time>
      </trkpt>
      <trkpt lat="45.86463" lon="4.71836">
        <ele>199</ele>
        <time>2018-09-23T09:51:54Z</time>
      </trkpt>
      <trkpt lat="45.86455" lon="4.71833">
        <ele>197</ele>
        <time>2018-09-23T09:51:55Z</time>
      </trkpt>
      <trkpt lat="45.86449" lon="4.71829">
        <ele>197</ele>
        <time>2018-09-23T09:51:56Z</time>
      </trkpt>
      <trkpt lat="45.86447" lon="4.71824">
        <ele>197</ele>
        <time>2018-09-23T09:51:57Z</time>
      </trkpt>
      <trkpt lat="45.8644" lon="4.71822">
        <ele>198</ele>
        <time>2018-09-23T09:51:58Z</time>
      </trkpt>
      <trkpt lat="45.86434" lon="4.71815">
        <ele>198</ele>
        <time>2018-09-23T09:52:00Z</time>
      </trkpt>
      <trkpt lat="45.86429" lon="4.71811">
        <ele>198</ele>
        <time>2018-09-23T09:52:01Z</time>
      </trkpt>
      <trkpt lat="45.86422" lon="4.71805">
        <ele>197</ele>
        <time>2018-09-23T09:52:03Z</time>
      </trkpt>
      <trkpt lat="45.8642" lon="4.71804">
        <ele>197</ele>
        <time>2018-09-23T09:52:04Z</time>
      </trkpt>
      <trkpt lat="45.86413" lon="4.71798">
        <ele>199</ele>
        <time>2018-09-23T09:52:06Z</time>
      </trkpt>
      <trkpt lat="45.86408" lon="4.71795">
        <ele>199</ele>
        <time>2018-09-23T09:52:07Z</time>
      </trkpt>
      <trkpt lat="45.86404" lon="4.7179">
        <ele>198</ele>
        <time>2018-09-23T09:52:09Z</time>
      </trkpt>
      <trkpt lat="45.86399" lon="4.71787">
        <ele>198</ele>
        <time>2018-09-23T09:52:10Z</time>
      </trkpt>
      <trkpt lat="45.86393" lon="4.7178">
        <ele>198</ele>
        <time>2018-09-23T09:52:12Z</time>
      </trkpt>
      <trkpt lat="45.86389" lon="4.71779">
        <ele>198</ele>
        <time>2018-09-23T09:52:13Z</time>
      </trkpt>
      <trkpt lat="45.86382" lon="4.71774">
        <ele>198</ele>
        <time>2018-09-23T09:52:15Z</time>
      </trkpt>
      <trkpt lat="45.86379" lon="4.71771">
        <ele>198</ele>
        <time>2018-09-23T09:52:16Z</time>
      </trkpt>
      <trkpt lat="45.86375" lon="4.71769">
        <ele>198</ele>
        <time>2018-09-23T09:52:17Z</time>
      </trkpt>
      <trkpt lat="45.8637" lon="4.71768">
        <ele>198</ele>
        <time>2018-09-23T09:52:18Z</time>
      </trkpt>
      <trkpt lat="45.86366" lon="4.71765">
        <ele>198</ele>
        <time>2018-09-23T09:52:19Z</time>
      </trkpt>
      <trkpt lat="45.86362" lon="4.71761">
        <ele>198</ele>
        <time>2018-09-23T09:52:20Z</time>
      </trkpt>
      <trkpt lat="45.86358" lon="4.71758">
        <ele>198</ele>
        <time>2018-09-23T09:52:21Z</time>
      </trkpt>
      <trkpt lat="45.86353" lon="4.71754">
        <ele>197</ele>
        <time>2018-09-23T09:52:22Z</time>
      </trkpt>
      <trkpt lat="45.8635" lon="4.7175">
        <ele>195</ele>
        <time>2018-09-23T09:52:23Z</time>
      </trkpt>
      <trkpt lat="45.86346" lon="4.71745">
        <ele>195</ele>
        <time>2018-09-23T09:52:24Z</time>
      </trkpt>
      <trkpt lat="45.86339" lon="4.71739">
        <ele>195</ele>
        <time>2018-09-23T09:52:26Z</time>
      </trkpt>
      <trkpt lat="45.86336" lon="4.71736">
        <ele>195</ele>
        <time>2018-09-23T09:52:27Z</time>
      </trkpt>
      <trkpt lat="45.86328" lon="4.71732">
        <ele>196</ele>
        <time>2018-09-23T09:52:29Z</time>
      </trkpt>
      <trkpt lat="45.86325" lon="4.71728">
        <ele>196</ele>
        <time>2018-09-23T09:52:30Z</time>
      </trkpt>
      <trkpt lat="45.8632" lon="4.71725">
        <ele>196</ele>
        <time>2018-09-23T09:52:31Z</time>
      </trkpt>
      <trkpt lat="45.86317" lon="4.71722">
        <ele>196</ele>
        <time>2018-09-23T09:52:32Z</time>
      </trkpt>
      <trkpt lat="45.8631" lon="4.71715">
        <ele>195</ele>
        <time>2018-09-23T09:52:34Z</time>
      </trkpt>
      <trkpt lat="45.86306" lon="4.71713">
        <ele>195</ele>
        <time>2018-09-23T09:52:35Z</time>
      </trkpt>
      <trkpt lat="45.86301" lon="4.7171">
        <ele>195</ele>
        <time>2018-09-23T09:52:36Z</time>
      </trkpt>
      <trkpt lat="45.86297" lon="4.71707">
        <ele>195</ele>
        <time>2018-09-23T09:52:37Z</time>
      </trkpt>
      <trkpt lat="45.86293" lon="4.71704">
        <ele>195</ele>
        <time>2018-09-23T09:52:38Z</time>
      </trkpt>
      <trkpt lat="45.86289" lon="4.717">
        <ele>195</ele>
        <time>2018-09-23T09:52:39Z</time>
      </trkpt>
      <trkpt lat="45.86285" lon="4.71697">
        <ele>195</ele>
        <time>2018-09-23T09:52:40Z</time>
      </trkpt>
      <trkpt lat="45.8628" lon="4.71694">
        <ele>195</ele>
        <time>2018-09-23T09:52:41Z</time>
      </trkpt>
      <trkpt lat="45.86275" lon="4.71691">
        <ele>195</ele>
        <time>2018-09-23T09:52:42Z</time>
      </trkpt>
      <trkpt lat="45.8627" lon="4.71687">
        <ele>195</ele>
        <time>2018-09-23T09:52:43Z</time>
      </trkpt>
      <trkpt lat="45.86265" lon="4.71684">
        <ele>195</ele>
        <time>2018-09-23T09:52:44Z</time>
      </trkpt>
      <trkpt lat="45.8626" lon="4.7168">
        <ele>195</ele>
        <time>2018-09-23T09:52:45Z</time>
      </trkpt>
      <trkpt lat="45.86255" lon="4.71676">
        <ele>195</ele>
        <time>2018-09-23T09:52:46Z</time>
      </trkpt>
      <trkpt lat="45.86251" lon="4.71671">
        <ele>195</ele>
        <time>2018-09-23T09:52:47Z</time>
      </trkpt>
      <trkpt lat="45.86243" lon="4.71665">
        <ele>195</ele>
        <time>2018-09-23T09:52:49Z</time>
      </trkpt>
      <trkpt lat="45.86243" lon="4.71663">
        <ele>195</ele>
        <time>2018-09-23T09:52:50Z</time>
      </trkpt>
      <trkpt lat="45.86237" lon="4.71658">
        <ele>195</ele>
        <time>2018-09-23T09:52:51Z</time>
      </trkpt>
      <trkpt lat="45.86234" lon="4.71653">
        <ele>195</ele>
        <time>2018-09-23T09:52:52Z</time>
      </trkpt>
      <trkpt lat="45.86229" lon="4.71651">
        <ele>195</ele>
        <time>2018-09-23T09:52:53Z</time>
      </trkpt>
      <trkpt lat="45.86225" lon="4.71648">
        <ele>195</ele>
        <time>2018-09-23T09:52:54Z</time>
      </trkpt>
      <trkpt lat="45.8622" lon="4.71643">
        <ele>195</ele>
        <time>2018-09-23T09:52:56Z</time>
      </trkpt>
      <trkpt lat="45.86216" lon="4.71637">
        <ele>195</ele>
        <time>2018-09-23T09:52:57Z</time>
      </trkpt>
      <trkpt lat="45.86215" lon="4.71625">
        <ele>195</ele>
        <time>2018-09-23T09:52:59Z</time>
      </trkpt>
      <trkpt lat="45.86214" lon="4.7162">
        <ele>195</ele>
        <time>2018-09-23T09:53:00Z</time>
      </trkpt>
      <trkpt lat="45.86213" lon="4.71608">
        <ele>195</ele>
        <time>2018-09-23T09:53:02Z</time>
      </trkpt>
      <trkpt lat="45.86209" lon="4.71605">
        <ele>195</ele>
        <time>2018-09-23T09:53:03Z</time>
      </trkpt>
      <trkpt lat="45.86206" lon="4.716">
        <ele>195</ele>
        <time>2018-09-23T09:53:04Z</time>
      </trkpt>
      <trkpt lat="45.86202" lon="4.71596">
        <ele>195</ele>
        <time>2018-09-23T09:53:05Z</time>
      </trkpt>
      <trkpt lat="45.86195" lon="4.71588">
        <ele>195</ele>
        <time>2018-09-23T09:53:07Z</time>
      </trkpt>
      <trkpt lat="45.86192" lon="4.71583">
        <ele>195</ele>
        <time>2018-09-23T09:53:08Z</time>
      </trkpt>
      <trkpt lat="45.86187" lon="4.71574">
        <ele>195</ele>
        <time>2018-09-23T09:53:10Z</time>
      </trkpt>
      <trkpt lat="45.86185" lon="4.7157">
        <ele>195</ele>
        <time>2018-09-23T09:53:11Z</time>
      </trkpt>
      <trkpt lat="45.8618" lon="4.71562">
        <ele>195</ele>
        <time>2018-09-23T09:53:13Z</time>
      </trkpt>
      <trkpt lat="45.86178" lon="4.71557">
        <ele>195</ele>
        <time>2018-09-23T09:53:14Z</time>
      </trkpt>
      <trkpt lat="45.86176" lon="4.71551">
        <ele>195</ele>
        <time>2018-09-23T09:53:15Z</time>
      </trkpt>
      <trkpt lat="45.86173" lon="4.71547">
        <ele>195</ele>
        <time>2018-09-23T09:53:16Z</time>
      </trkpt>
      <trkpt lat="45.86168" lon="4.71539">
        <ele>195</ele>
        <time>2018-09-23T09:53:18Z</time>
      </trkpt>
      <trkpt lat="45.86166" lon="4.71535">
        <ele>195</ele>
        <time>2018-09-23T09:53:19Z</time>
      </trkpt>
      <trkpt lat="45.86161" lon="4.71526">
        <ele>195</ele>
        <time>2018-09-23T09:53:21Z</time>
      </trkpt>
      <trkpt lat="45.86159" lon="4.71521">
        <ele>195</ele>
        <time>2018-09-23T09:53:22Z</time>
      </trkpt>
      <trkpt lat="45.86153" lon="4.71511">
        <ele>195</ele>
        <time>2018-09-23T09:53:25Z</time>
      </trkpt>
      <trkpt lat="45.86151" lon="4.71508">
        <ele>195</ele>
        <time>2018-09-23T09:53:26Z</time>
      </trkpt>
      <trkpt lat="45.8615" lon="4.71505">
        <ele>195</ele>
        <time>2018-09-23T09:53:27Z</time>
      </trkpt>
      <trkpt lat="45.86145" lon="4.71495">
        <ele>195</ele>
        <time>2018-09-23T09:53:28Z</time>
      </trkpt>
      <trkpt lat="45.8614" lon="4.71485">
        <ele>195</ele>
        <time>2018-09-23T09:53:30Z</time>
      </trkpt>
      <trkpt lat="45.86137" lon="4.71478">
        <ele>195</ele>
        <time>2018-09-23T09:53:31Z</time>
      </trkpt>
      <trkpt lat="45.86135" lon="4.71472">
        <ele>195</ele>
        <time>2018-09-23T09:53:32Z</time>
      </trkpt>
      <trkpt lat="45.86133" lon="4.71466">
        <ele>195</ele>
        <time>2018-09-23T09:53:33Z</time>
      </trkpt>
      <trkpt lat="45.8613" lon="4.71459">
        <ele>195</ele>
        <time>2018-09-23T09:53:34Z</time>
      </trkpt>
      <trkpt lat="45.86129" lon="4.71453">
        <ele>195</ele>
        <time>2018-09-23T09:53:35Z</time>
      </trkpt>
      <trkpt lat="45.86127" lon="4.71447">
        <ele>195</ele>
        <time>2018-09-23T09:53:36Z</time>
      </trkpt>
      <trkpt lat="45.86126" lon="4.71439">
        <ele>195</ele>
        <time>2018-09-23T09:53:37Z</time>
      </trkpt>
      <trkpt lat="45.86125" lon="4.71433">
        <ele>195</ele>
        <time>2018-09-23T09:53:38Z</time>
      </trkpt>
      <trkpt lat="45.86124" lon="4.71426">
        <ele>195</ele>
        <time>2018-09-23T09:53:39Z</time>
      </trkpt>
      <trkpt lat="45.86122" lon="4.71419">
        <ele>195</ele>
        <time>2018-09-23T09:53:40Z</time>
      </trkpt>
      <trkpt lat="45.86122" lon="4.71413">
        <ele>196</ele>
        <time>2018-09-23T09:53:41Z</time>
      </trkpt>
      <trkpt lat="45.8612" lon="4.71406">
        <ele>196</ele>
        <time>2018-09-23T09:53:42Z</time>
      </trkpt>
      <trkpt lat="45.8612" lon="4.714">
        <ele>196</ele>
        <time>2018-09-23T09:53:43Z</time>
      </trkpt>
      <trkpt lat="45.8612" lon="4.71388">
        <ele>196</ele>
        <time>2018-09-23T09:53:45Z</time>
      </trkpt>
      <trkpt lat="45.8612" lon="4.71382">
        <ele>196</ele>
        <time>2018-09-23T09:53:46Z</time>
      </trkpt>
      <trkpt lat="45.86121" lon="4.71372">
        <ele>196</ele>
        <time>2018-09-23T09:53:48Z</time>
      </trkpt>
      <trkpt lat="45.86119" lon="4.71363">
        <ele>196</ele>
        <time>2018-09-23T09:53:49Z</time>
      </trkpt>
      <trkpt lat="45.86118" lon="4.71353">
        <ele>196</ele>
        <time>2018-09-23T09:53:51Z</time>
      </trkpt>
      <trkpt lat="45.86118" lon="4.71345">
        <ele>196</ele>
        <time>2018-09-23T09:53:52Z</time>
      </trkpt>
      <trkpt lat="45.86117" lon="4.71338">
        <ele>196</ele>
        <time>2018-09-23T09:53:53Z</time>
      </trkpt>
      <trkpt lat="45.86114" lon="4.71331">
        <ele>196</ele>
        <time>2018-09-23T09:53:54Z</time>
      </trkpt>
      <trkpt lat="45.86113" lon="4.71324">
        <ele>196</ele>
        <time>2018-09-23T09:53:55Z</time>
      </trkpt>
      <trkpt lat="45.86111" lon="4.71318">
        <ele>196</ele>
        <time>2018-09-23T09:53:56Z</time>
      </trkpt>
      <trkpt lat="45.86109" lon="4.71311">
        <ele>196</ele>
        <time>2018-09-23T09:53:57Z</time>
      </trkpt>
      <trkpt lat="45.86107" lon="4.71304">
        <ele>196</ele>
        <time>2018-09-23T09:53:58Z</time>
      </trkpt>
      <trkpt lat="45.86105" lon="4.71292">
        <ele>197</ele>
        <time>2018-09-23T09:54:00Z</time>
      </trkpt>
      <trkpt lat="45.86104" lon="4.71286">
        <ele>197</ele>
        <time>2018-09-23T09:54:01Z</time>
      </trkpt>
      <trkpt lat="45.86102" lon="4.71274">
        <ele>197</ele>
        <time>2018-09-23T09:54:05Z</time>
      </trkpt>
      <trkpt lat="45.861" lon="4.7127">
        <ele>197</ele>
        <time>2018-09-23T09:54:06Z</time>
      </trkpt>
      <trkpt lat="45.86096" lon="4.71263">
        <ele>197</ele>
        <time>2018-09-23T09:54:08Z</time>
      </trkpt>
      <trkpt lat="45.86094" lon="4.71259">
        <ele>197</ele>
        <time>2018-09-23T09:54:09Z</time>
      </trkpt>
      <trkpt lat="45.8609" lon="4.71249">
        <ele>198</ele>
        <time>2018-09-23T09:54:10Z</time>
      </trkpt>
      <trkpt lat="45.8609" lon="4.71242">
        <ele>198</ele>
        <time>2018-09-23T09:54:11Z</time>
      </trkpt>
      <trkpt lat="45.8609" lon="4.71236">
        <ele>197</ele>
        <time>2018-09-23T09:54:12Z</time>
      </trkpt>
      <trkpt lat="45.8609" lon="4.71229">
        <ele>197</ele>
        <time>2018-09-23T09:54:13Z</time>
      </trkpt>
      <trkpt lat="45.8609" lon="4.71216">
        <ele>197</ele>
        <time>2018-09-23T09:54:16Z</time>
      </trkpt>
      <trkpt lat="45.8609" lon="4.71213">
        <ele>197</ele>
        <time>2018-09-23T09:54:17Z</time>
      </trkpt>
      <trkpt lat="45.86093" lon="4.71205">
        <ele>197</ele>
        <time>2018-09-23T09:54:18Z</time>
      </trkpt>
      <trkpt lat="45.86093" lon="4.712">
        <ele>197</ele>
        <time>2018-09-23T09:54:19Z</time>
      </trkpt>
      <trkpt lat="45.86094" lon="4.71195">
        <ele>197</ele>
        <time>2018-09-23T09:54:20Z</time>
      </trkpt>
      <trkpt lat="45.86096" lon="4.71187">
        <ele>197</ele>
        <time>2018-09-23T09:54:21Z</time>
      </trkpt>
      <trkpt lat="45.86097" lon="4.71176">
        <ele>197</ele>
        <time>2018-09-23T09:54:23Z</time>
      </trkpt>
      <trkpt lat="45.86097" lon="4.71169">
        <ele>197</ele>
        <time>2018-09-23T09:54:24Z</time>
      </trkpt>
      <trkpt lat="45.86097" lon="4.71157">
        <ele>197</ele>
        <time>2018-09-23T09:54:26Z</time>
      </trkpt>
      <trkpt lat="45.86096" lon="4.71151">
        <ele>197</ele>
        <time>2018-09-23T09:54:27Z</time>
      </trkpt>
      <trkpt lat="45.86095" lon="4.71145">
        <ele>197</ele>
        <time>2018-09-23T09:54:28Z</time>
      </trkpt>
      <trkpt lat="45.86093" lon="4.71139">
        <ele>197</ele>
        <time>2018-09-23T09:54:29Z</time>
      </trkpt>
      <trkpt lat="45.8609" lon="4.71134">
        <ele>197</ele>
        <time>2018-09-23T09:54:30Z</time>
      </trkpt>
      <trkpt lat="45.86086" lon="4.7113">
        <ele>196</ele>
        <time>2018-09-23T09:54:31Z</time>
      </trkpt>
      <trkpt lat="45.86081" lon="4.71127">
        <ele>197</ele>
        <time>2018-09-23T09:54:32Z</time>
      </trkpt>
      <trkpt lat="45.86076" lon="4.71125">
        <ele>197</ele>
        <time>2018-09-23T09:54:33Z</time>
      </trkpt>
      <trkpt lat="45.86068" lon="4.71122">
        <ele>197</ele>
        <time>2018-09-23T09:54:34Z</time>
      </trkpt>
      <trkpt lat="45.86066" lon="4.71118">
        <ele>197</ele>
        <time>2018-09-23T09:54:35Z</time>
      </trkpt>
      <trkpt lat="45.8606" lon="4.7111">
        <ele>197</ele>
        <time>2018-09-23T09:54:37Z</time>
      </trkpt>
      <trkpt lat="45.86056" lon="4.71109">
        <ele>197</ele>
        <time>2018-09-23T09:54:38Z</time>
      </trkpt>
      <trkpt lat="45.86053" lon="4.71105">
        <ele>197</ele>
        <time>2018-09-23T09:54:39Z</time>
      </trkpt>
      <trkpt lat="45.86049" lon="4.71101">
        <ele>197</ele>
        <time>2018-09-23T09:54:40Z</time>
      </trkpt>
      <trkpt lat="45.86047" lon="4.71095">
        <ele>197</ele>
        <time>2018-09-23T09:54:41Z</time>
      </trkpt>
      <trkpt lat="45.86044" lon="4.71089">
        <ele>197</ele>
        <time>2018-09-23T09:54:42Z</time>
      </trkpt>
      <trkpt lat="45.86041" lon="4.7108">
        <ele>197</ele>
        <time>2018-09-23T09:54:44Z</time>
      </trkpt>
      <trkpt lat="45.8604" lon="4.71074">
        <ele>197</ele>
        <time>2018-09-23T09:54:45Z</time>
      </trkpt>
      <trkpt lat="45.86037" lon="4.71062">
        <ele>197</ele>
        <time>2018-09-23T09:54:47Z</time>
      </trkpt>
      <trkpt lat="45.86036" lon="4.71054">
        <ele>197</ele>
        <time>2018-09-23T09:54:48Z</time>
      </trkpt>
      <trkpt lat="45.86036" lon="4.71047">
        <ele>197</ele>
        <time>2018-09-23T09:54:49Z</time>
      </trkpt>
      <trkpt lat="45.86034" lon="4.71041">
        <ele>197</ele>
        <time>2018-09-23T09:54:50Z</time>
      </trkpt>
      <trkpt lat="45.86031" lon="4.7103">
        <ele>197</ele>
        <time>2018-09-23T09:54:52Z</time>
      </trkpt>
      <trkpt lat="45.86029" lon="4.71025">
        <ele>197</ele>
        <time>2018-09-23T09:54:53Z</time>
      </trkpt>
      <trkpt lat="45.86026" lon="4.71015">
        <ele>197</ele>
        <time>2018-09-23T09:54:55Z</time>
      </trkpt>
      <trkpt lat="45.86024" lon="4.71009">
        <ele>197</ele>
        <time>2018-09-23T09:54:56Z</time>
      </trkpt>
      <trkpt lat="45.86021" lon="4.71004">
        <ele>197</ele>
        <time>2018-09-23T09:54:57Z</time>
      </trkpt>
      <trkpt lat="45.86016" lon="4.71001">
        <ele>197</ele>
        <time>2018-09-23T09:54:58Z</time>
      </trkpt>
      <trkpt lat="45.86009" lon="4.70996">
        <ele>197</ele>
        <time>2018-09-23T09:54:59Z</time>
      </trkpt>
      <trkpt lat="45.86004" lon="4.70992">
        <ele>197</ele>
        <time>2018-09-23T09:55:00Z</time>
      </trkpt>
      <trkpt lat="45.86" lon="4.70988">
        <ele>197</ele>
        <time>2018-09-23T09:55:01Z</time>
      </trkpt>
      <trkpt lat="45.85995" lon="4.70984">
        <ele>197</ele>
        <time>2018-09-23T09:55:02Z</time>
      </trkpt>
      <trkpt lat="45.85991" lon="4.70982">
        <ele>197</ele>
        <time>2018-09-23T09:55:03Z</time>
      </trkpt>
      <trkpt lat="45.85984" lon="4.7098">
        <ele>197</ele>
        <time>2018-09-23T09:55:04Z</time>
      </trkpt>
      <trkpt lat="45.8598" lon="4.70977">
        <ele>197</ele>
        <time>2018-09-23T09:55:05Z</time>
      </trkpt>
      <trkpt lat="45.85976" lon="4.70975">
        <ele>197</ele>
        <time>2018-09-23T09:55:06Z</time>
      </trkpt>
      <trkpt lat="45.85971" lon="4.70973">
        <ele>197</ele>
        <time>2018-09-23T09:55:07Z</time>
      </trkpt>
      <trkpt lat="45.85966" lon="4.70973">
        <ele>197</ele>
        <time>2018-09-23T09:55:08Z</time>
      </trkpt>
      <trkpt lat="45.85958" lon="4.70973">
        <ele>197</ele>
        <time>2018-09-23T09:55:10Z</time>
      </trkpt>
      <trkpt lat="45.85953" lon="4.70972">
        <ele>197</ele>
        <time>2018-09-23T09:55:11Z</time>
      </trkpt>
      <trkpt lat="45.85945" lon="4.70971">
        <ele>197</ele>
        <time>2018-09-23T09:55:14Z</time>
      </trkpt>
      <trkpt lat="45.85943" lon="4.70969">
        <ele>197</ele>
        <time>2018-09-23T09:55:15Z</time>
      </trkpt>
      <trkpt lat="45.85942" lon="4.70966">
        <ele>197</ele>
        <time>2018-09-23T09:55:16Z</time>
      </trkpt>
      <trkpt lat="45.85939" lon="4.70956">
        <ele>197</ele>
        <time>2018-09-23T09:55:17Z</time>
      </trkpt>
      <trkpt lat="45.85941" lon="4.70945">
        <ele>197</ele>
        <time>2018-09-23T09:55:19Z</time>
      </trkpt>
      <trkpt lat="45.85943" lon="4.70938">
        <ele>197</ele>
        <time>2018-09-23T09:55:20Z</time>
      </trkpt>
      <trkpt lat="45.85944" lon="4.70932">
        <ele>197</ele>
        <time>2018-09-23T09:55:21Z</time>
      </trkpt>
      <trkpt lat="45.85946" lon="4.70924">
        <ele>197</ele>
        <time>2018-09-23T09:55:22Z</time>
      </trkpt>
      <trkpt lat="45.85948" lon="4.70917">
        <ele>197</ele>
        <time>2018-09-23T09:55:23Z</time>
      </trkpt>
      <trkpt lat="45.85949" lon="4.70911">
        <ele>197</ele>
        <time>2018-09-23T09:55:24Z</time>
      </trkpt>
      <trkpt lat="45.8595" lon="4.70904">
        <ele>197</ele>
        <time>2018-09-23T09:55:25Z</time>
      </trkpt>
      <trkpt lat="45.85953" lon="4.70897">
        <ele>197</ele>
        <time>2018-09-23T09:55:26Z</time>
      </trkpt>
      <trkpt lat="45.85956" lon="4.7089">
        <ele>197</ele>
        <time>2018-09-23T09:55:27Z</time>
      </trkpt>
      <trkpt lat="45.85958" lon="4.70885">
        <ele>197</ele>
        <time>2018-09-23T09:55:28Z</time>
      </trkpt>
      <trkpt lat="45.85959" lon="4.70873">
        <ele>196</ele>
        <time>2018-09-23T09:55:30Z</time>
      </trkpt>
      <trkpt lat="45.85961" lon="4.70867">
        <ele>196</ele>
        <time>2018-09-23T09:55:31Z</time>
      </trkpt>
      <trkpt lat="45.85963" lon="4.70855">
        <ele>196</ele>
        <time>2018-09-23T09:55:33Z</time>
      </trkpt>
      <trkpt lat="45.85962" lon="4.7085">
        <ele>196</ele>
        <time>2018-09-23T09:55:34Z</time>
      </trkpt>
      <trkpt lat="45.85963" lon="4.70838">
        <ele>196</ele>
        <time>2018-09-23T09:55:36Z</time>
      </trkpt>
      <trkpt lat="45.85962" lon="4.70832">
        <ele>196</ele>
        <time>2018-09-23T09:55:37Z</time>
      </trkpt>
      <trkpt lat="45.85961" lon="4.70826">
        <ele>196</ele>
        <time>2018-09-23T09:55:38Z</time>
      </trkpt>
      <trkpt lat="45.8596" lon="4.70819">
        <ele>195</ele>
        <time>2018-09-23T09:55:39Z</time>
      </trkpt>
      <trkpt lat="45.85959" lon="4.70813">
        <ele>195</ele>
        <time>2018-09-23T09:55:40Z</time>
      </trkpt>
      <trkpt lat="45.85958" lon="4.70806">
        <ele>195</ele>
        <time>2018-09-23T09:55:41Z</time>
      </trkpt>
      <trkpt lat="45.85954" lon="4.70797">
        <ele>195</ele>
        <time>2018-09-23T09:55:42Z</time>
      </trkpt>
      <trkpt lat="45.85956" lon="4.70791">
        <ele>195</ele>
        <time>2018-09-23T09:55:43Z</time>
      </trkpt>
      <trkpt lat="45.85957" lon="4.70783">
        <ele>195</ele>
        <time>2018-09-23T09:55:44Z</time>
      </trkpt>
      <trkpt lat="45.85958" lon="4.70776">
        <ele>195</ele>
        <time>2018-09-23T09:55:45Z</time>
      </trkpt>
      <trkpt lat="45.85959" lon="4.70769">
        <ele>195</ele>
        <time>2018-09-23T09:55:46Z</time>
      </trkpt>
      <trkpt lat="45.8596" lon="4.70762">
        <ele>195</ele>
        <time>2018-09-23T09:55:47Z</time>
      </trkpt>
      <trkpt lat="45.8596" lon="4.7075">
        <ele>194</ele>
        <time>2018-09-23T09:55:49Z</time>
      </trkpt>
      <trkpt lat="45.8596" lon="4.70745">
        <ele>194</ele>
        <time>2018-09-23T09:55:50Z</time>
      </trkpt>
      <trkpt lat="45.85961" lon="4.70737">
        <ele>194</ele>
        <time>2018-09-23T09:55:51Z</time>
      </trkpt>
      <trkpt lat="45.85962" lon="4.70728">
        <ele>194</ele>
        <time>2018-09-23T09:55:52Z</time>
      </trkpt>
      <trkpt lat="45.85964" lon="4.70722">
        <ele>194</ele>
        <time>2018-09-23T09:55:53Z</time>
      </trkpt>
      <trkpt lat="45.85965" lon="4.70714">
        <ele>194</ele>
        <time>2018-09-23T09:55:54Z</time>
      </trkpt>
      <trkpt lat="45.85966" lon="4.70709">
        <ele>194</ele>
        <time>2018-09-23T09:55:55Z</time>
      </trkpt>
      <trkpt lat="45.85966" lon="4.70701">
        <ele>194</ele>
        <time>2018-09-23T09:55:56Z</time>
      </trkpt>
      <trkpt lat="45.85966" lon="4.70694">
        <ele>194</ele>
        <time>2018-09-23T09:55:57Z</time>
      </trkpt>
      <trkpt lat="45.85966" lon="4.70688">
        <ele>194</ele>
        <time>2018-09-23T09:55:58Z</time>
      </trkpt>
      <trkpt lat="45.85963" lon="4.7068">
        <ele>194</ele>
        <time>2018-09-23T09:55:59Z</time>
      </trkpt>
      <trkpt lat="45.85961" lon="4.70674">
        <ele>194</ele>
        <time>2018-09-23T09:56:00Z</time>
      </trkpt>
      <trkpt lat="45.85959" lon="4.70668">
        <ele>194</ele>
        <time>2018-09-23T09:56:01Z</time>
      </trkpt>
      <trkpt lat="45.85953" lon="4.70664">
        <ele>194</ele>
        <time>2018-09-23T09:56:02Z</time>
      </trkpt>
      <trkpt lat="45.85949" lon="4.70659">
        <ele>194</ele>
        <time>2018-09-23T09:56:03Z</time>
      </trkpt>
      <trkpt lat="45.85946" lon="4.70655">
        <ele>194</ele>
        <time>2018-09-23T09:56:04Z</time>
      </trkpt>
      <trkpt lat="45.85943" lon="4.7065">
        <ele>194</ele>
        <time>2018-09-23T09:56:05Z</time>
      </trkpt>
      <trkpt lat="45.8594" lon="4.70645">
        <ele>194</ele>
        <time>2018-09-23T09:56:06Z</time>
      </trkpt>
      <trkpt lat="45.85936" lon="4.70639">
        <ele>194</ele>
        <time>2018-09-23T09:56:07Z</time>
      </trkpt>
      <trkpt lat="45.85933" lon="4.70632">
        <ele>194</ele>
        <time>2018-09-23T09:56:08Z</time>
      </trkpt>
      <trkpt lat="45.85928" lon="4.70623">
        <ele>194</ele>
        <time>2018-09-23T09:56:10Z</time>
      </trkpt>
      <trkpt lat="45.85924" lon="4.70618">
        <ele>194</ele>
        <time>2018-09-23T09:56:11Z</time>
      </trkpt>
      <trkpt lat="45.85919" lon="4.70613">
        <ele>194</ele>
        <time>2018-09-23T09:56:12Z</time>
      </trkpt>
      <trkpt lat="45.85916" lon="4.70607">
        <ele>195</ele>
        <time>2018-09-23T09:56:13Z</time>
      </trkpt>
      <trkpt lat="45.85913" lon="4.70603">
        <ele>195</ele>
        <time>2018-09-23T09:56:14Z</time>
      </trkpt>
      <trkpt lat="45.85908" lon="4.70599">
        <ele>195</ele>
        <time>2018-09-23T09:56:15Z</time>
      </trkpt>
      <trkpt lat="45.85905" lon="4.70595">
        <ele>195</ele>
        <time>2018-09-23T09:56:16Z</time>
      </trkpt>
      <trkpt lat="45.859" lon="4.70591">
        <ele>195</ele>
        <time>2018-09-23T09:56:17Z</time>
      </trkpt>
      <trkpt lat="45.85893" lon="4.70586">
        <ele>195</ele>
        <time>2018-09-23T09:56:19Z</time>
      </trkpt>
      <trkpt lat="45.85889" lon="4.70585">
        <ele>195</ele>
        <time>2018-09-23T09:56:20Z</time>
      </trkpt>
      <trkpt lat="45.85882" lon="4.70582">
        <ele>195</ele>
        <time>2018-09-23T09:56:22Z</time>
      </trkpt>
      <trkpt lat="45.85878" lon="4.7058">
        <ele>195</ele>
        <time>2018-09-23T09:56:23Z</time>
      </trkpt>
      <trkpt lat="45.85874" lon="4.70577">
        <ele>195</ele>
        <time>2018-09-23T09:56:25Z</time>
      </trkpt>
      <trkpt lat="45.85869" lon="4.70573">
        <ele>195</ele>
        <time>2018-09-23T09:56:26Z</time>
      </trkpt>
      <trkpt lat="45.85867" lon="4.70571">
        <ele>195</ele>
        <time>2018-09-23T09:56:27Z</time>
      </trkpt>
      <trkpt lat="45.8586" lon="4.70566">
        <ele>195</ele>
        <time>2018-09-23T09:56:28Z</time>
      </trkpt>
      <trkpt lat="45.85852" lon="4.70563">
        <ele>195</ele>
        <time>2018-09-23T09:56:30Z</time>
      </trkpt>
      <trkpt lat="45.8585" lon="4.70562">
        <ele>195</ele>
        <time>2018-09-23T09:56:31Z</time>
      </trkpt>
      <trkpt lat="45.85845" lon="4.70561">
        <ele>195</ele>
        <time>2018-09-23T09:56:32Z</time>
      </trkpt>
      <trkpt lat="45.85841" lon="4.70559">
        <ele>195</ele>
        <time>2018-09-23T09:56:33Z</time>
      </trkpt>
      <trkpt lat="45.85836" lon="4.70558">
        <ele>195</ele>
        <time>2018-09-23T09:56:34Z</time>
      </trkpt>
      <trkpt lat="45.85831" lon="4.70557">
        <ele>195</ele>
        <time>2018-09-23T09:56:35Z</time>
      </trkpt>
      <trkpt lat="45.85827" lon="4.70556">
        <ele>195</ele>
        <time>2018-09-23T09:56:36Z</time>
      </trkpt>
      <trkpt lat="45.85823" lon="4.70554">
        <ele>195</ele>
        <time>2018-09-23T09:56:37Z</time>
      </trkpt>
      <trkpt lat="45.85817" lon="4.7055">
        <ele>195</ele>
        <time>2018-09-23T09:56:38Z</time>
      </trkpt>
      <trkpt lat="45.85811" lon="4.70548">
        <ele>195</ele>
        <time>2018-09-23T09:56:39Z</time>
      </trkpt>
      <trkpt lat="45.85803" lon="4.70543">
        <ele>195</ele>
        <time>2018-09-23T09:56:41Z</time>
      </trkpt>
      <trkpt lat="45.85799" lon="4.70541">
        <ele>195</ele>
        <time>2018-09-23T09:56:42Z</time>
      </trkpt>
      <trkpt lat="45.85794" lon="4.70538">
        <ele>195</ele>
        <time>2018-09-23T09:56:43Z</time>
      </trkpt>
      <trkpt lat="45.8579" lon="4.70535">
        <ele>196</ele>
        <time>2018-09-23T09:56:44Z</time>
      </trkpt>
      <trkpt lat="45.85783" lon="4.7053">
        <ele>196</ele>
        <time>2018-09-23T09:56:47Z</time>
      </trkpt>
      <trkpt lat="45.85777" lon="4.70525">
        <ele>196</ele>
        <time>2018-09-23T09:56:48Z</time>
      </trkpt>
      <trkpt lat="45.8577" lon="4.70519">
        <ele>196</ele>
        <time>2018-09-23T09:56:50Z</time>
      </trkpt>
      <trkpt lat="45.85767" lon="4.70517">
        <ele>196</ele>
        <time>2018-09-23T09:56:51Z</time>
      </trkpt>
      <trkpt lat="45.85764" lon="4.70515">
        <ele>196</ele>
        <time>2018-09-23T09:56:53Z</time>
      </trkpt>
      <trkpt lat="45.85758" lon="4.70511">
        <ele>196</ele>
        <time>2018-09-23T09:56:54Z</time>
      </trkpt>
      <trkpt lat="45.85751" lon="4.70507">
        <ele>196</ele>
        <time>2018-09-23T09:56:56Z</time>
      </trkpt>
      <trkpt lat="45.85748" lon="4.70504">
        <ele>196</ele>
        <time>2018-09-23T09:56:57Z</time>
      </trkpt>
      <trkpt lat="45.85742" lon="4.70496">
        <ele>196</ele>
        <time>2018-09-23T09:57:00Z</time>
      </trkpt>
      <trkpt lat="45.85741" lon="4.70494">
        <ele>196</ele>
        <time>2018-09-23T09:57:01Z</time>
      </trkpt>
      <trkpt lat="45.85737" lon="4.70485">
        <ele>196</ele>
        <time>2018-09-23T09:57:04Z</time>
      </trkpt>
      <trkpt lat="45.85734" lon="4.70473">
        <ele>196</ele>
        <time>2018-09-23T09:57:05Z</time>
      </trkpt>
      <trkpt lat="45.85733" lon="4.70467">
        <ele>196</ele>
        <time>2018-09-23T09:57:06Z</time>
      </trkpt>
      <trkpt lat="45.85734" lon="4.7046">
        <ele>196</ele>
        <time>2018-09-23T09:57:07Z</time>
      </trkpt>
      <trkpt lat="45.85732" lon="4.70449">
        <ele>196</ele>
        <time>2018-09-23T09:57:09Z</time>
      </trkpt>
      <trkpt lat="45.85732" lon="4.70441">
        <ele>196</ele>
        <time>2018-09-23T09:57:10Z</time>
      </trkpt>
      <trkpt lat="45.85731" lon="4.7043">
        <ele>196</ele>
        <time>2018-09-23T09:57:12Z</time>
      </trkpt>
      <trkpt lat="45.85732" lon="4.70422">
        <ele>197</ele>
        <time>2018-09-23T09:57:13Z</time>
      </trkpt>
      <trkpt lat="45.85732" lon="4.70414">
        <ele>197</ele>
        <time>2018-09-23T09:57:14Z</time>
      </trkpt>
      <trkpt lat="45.85731" lon="4.70408">
        <ele>197</ele>
        <time>2018-09-23T09:57:15Z</time>
      </trkpt>
      <trkpt lat="45.8573" lon="4.70401">
        <ele>196</ele>
        <time>2018-09-23T09:57:16Z</time>
      </trkpt>
      <trkpt lat="45.85728" lon="4.70395">
        <ele>196</ele>
        <time>2018-09-23T09:57:17Z</time>
      </trkpt>
      <trkpt lat="45.85727" lon="4.70388">
        <ele>196</ele>
        <time>2018-09-23T09:57:18Z</time>
      </trkpt>
      <trkpt lat="45.85725" lon="4.7038">
        <ele>196</ele>
        <time>2018-09-23T09:57:19Z</time>
      </trkpt>
      <trkpt lat="45.85723" lon="4.70372">
        <ele>196</ele>
        <time>2018-09-23T09:57:20Z</time>
      </trkpt>
      <trkpt lat="45.85722" lon="4.70363">
        <ele>196</ele>
        <time>2018-09-23T09:57:21Z</time>
      </trkpt>
      <trkpt lat="45.85721" lon="4.70355">
        <ele>196</ele>
        <time>2018-09-23T09:57:22Z</time>
      </trkpt>
      <trkpt lat="45.85721" lon="4.70348">
        <ele>196</ele>
        <time>2018-09-23T09:57:23Z</time>
      </trkpt>
      <trkpt lat="45.8572" lon="4.7034">
        <ele>196</ele>
        <time>2018-09-23T09:57:24Z</time>
      </trkpt>
      <trkpt lat="45.85719" lon="4.70334">
        <ele>196</ele>
        <time>2018-09-23T09:57:25Z</time>
      </trkpt>
      <trkpt lat="45.85717" lon="4.70325">
        <ele>197</ele>
        <time>2018-09-23T09:57:26Z</time>
      </trkpt>
      <trkpt lat="45.85717" lon="4.70317">
        <ele>197</ele>
        <time>2018-09-23T09:57:27Z</time>
      </trkpt>
      <trkpt lat="45.85717" lon="4.7031">
        <ele>197</ele>
        <time>2018-09-23T09:57:28Z</time>
      </trkpt>
      <trkpt lat="45.85716" lon="4.70302">
        <ele>197</ele>
        <time>2018-09-23T09:57:29Z</time>
      </trkpt>
      <trkpt lat="45.85714" lon="4.70294">
        <ele>197</ele>
        <time>2018-09-23T09:57:30Z</time>
      </trkpt>
      <trkpt lat="45.85713" lon="4.70286">
        <ele>197</ele>
        <time>2018-09-23T09:57:31Z</time>
      </trkpt>
      <trkpt lat="45.85712" lon="4.70279">
        <ele>197</ele>
        <time>2018-09-23T09:57:32Z</time>
      </trkpt>
      <trkpt lat="45.8571" lon="4.70271">
        <ele>197</ele>
        <time>2018-09-23T09:57:33Z</time>
      </trkpt>
      <trkpt lat="45.85708" lon="4.70264">
        <ele>197</ele>
        <time>2018-09-23T09:57:34Z</time>
      </trkpt>
      <trkpt lat="45.85707" lon="4.70258">
        <ele>197</ele>
        <time>2018-09-23T09:57:35Z</time>
      </trkpt>
      <trkpt lat="45.85706" lon="4.70251">
        <ele>197</ele>
        <time>2018-09-23T09:57:36Z</time>
      </trkpt>
      <trkpt lat="45.85705" lon="4.70245">
        <ele>197</ele>
        <time>2018-09-23T09:57:37Z</time>
      </trkpt>
      <trkpt lat="45.85703" lon="4.70233">
        <ele>197</ele>
        <time>2018-09-23T09:57:39Z</time>
      </trkpt>
      <trkpt lat="45.85703" lon="4.70228">
        <ele>197</ele>
        <time>2018-09-23T09:57:40Z</time>
      </trkpt>
      <trkpt lat="45.85703" lon="4.70216">
        <ele>197</ele>
        <time>2018-09-23T09:57:43Z</time>
      </trkpt>
      <trkpt lat="45.85701" lon="4.70209">
        <ele>197</ele>
        <time>2018-09-23T09:57:44Z</time>
      </trkpt>
      <trkpt lat="45.857" lon="4.70202">
        <ele>197</ele>
        <time>2018-09-23T09:57:45Z</time>
      </trkpt>
      <trkpt lat="45.85699" lon="4.70195">
        <ele>197</ele>
        <time>2018-09-23T09:57:46Z</time>
      </trkpt>
      <trkpt lat="45.85697" lon="4.70188">
        <ele>197</ele>
        <time>2018-09-23T09:57:47Z</time>
      </trkpt>
      <trkpt lat="45.85696" lon="4.70182">
        <ele>197</ele>
        <time>2018-09-23T09:57:48Z</time>
      </trkpt>
      <trkpt lat="45.85695" lon="4.70173">
        <ele>197</ele>
        <time>2018-09-23T09:57:50Z</time>
      </trkpt>
      <trkpt lat="45.85693" lon="4.70165">
        <ele>197</ele>
        <time>2018-09-23T09:57:51Z</time>
      </trkpt>
      <trkpt lat="45.85691" lon="4.70159">
        <ele>197</ele>
        <time>2018-09-23T09:57:52Z</time>
      </trkpt>
      <trkpt lat="45.85688" lon="4.70153">
        <ele>197</ele>
        <time>2018-09-23T09:57:53Z</time>
      </trkpt>
      <trkpt lat="45.85686" lon="4.70143">
        <ele>197</ele>
        <time>2018-09-23T09:57:55Z</time>
      </trkpt>
      <trkpt lat="45.85686" lon="4.70136">
        <ele>197</ele>
        <time>2018-09-23T09:57:56Z</time>
      </trkpt>
      <trkpt lat="45.85685" lon="4.7013">
        <ele>197</ele>
        <time>2018-09-23T09:57:57Z</time>
      </trkpt>
      <trkpt lat="45.85684" lon="4.70123">
        <ele>197</ele>
        <time>2018-09-23T09:57:58Z</time>
      </trkpt>
      <trkpt lat="45.85683" lon="4.7011">
        <ele>197</ele>
        <time>2018-09-23T09:58:00Z</time>
      </trkpt>
      <trkpt lat="45.85683" lon="4.70104">
        <ele>196</ele>
        <time>2018-09-23T09:58:01Z</time>
      </trkpt>
      <trkpt lat="45.85685" lon="4.70092">
        <ele>196</ele>
        <time>2018-09-23T09:58:03Z</time>
      </trkpt>
      <trkpt lat="45.85686" lon="4.70085">
        <ele>196</ele>
        <time>2018-09-23T09:58:04Z</time>
      </trkpt>
      <trkpt lat="45.85687" lon="4.70073">
        <ele>196</ele>
        <time>2018-09-23T09:58:06Z</time>
      </trkpt>
      <trkpt lat="45.85688" lon="4.70067">
        <ele>196</ele>
        <time>2018-09-23T09:58:07Z</time>
      </trkpt>
      <trkpt lat="45.8569" lon="4.70056">
        <ele>195</ele>
        <time>2018-09-23T09:58:10Z</time>
      </trkpt>
      <trkpt lat="45.85692" lon="4.70048">
        <ele>195</ele>
        <time>2018-09-23T09:58:11Z</time>
      </trkpt>
      <trkpt lat="45.85694" lon="4.70036">
        <ele>195</ele>
        <time>2018-09-23T09:58:13Z</time>
      </trkpt>
      <trkpt lat="45.85693" lon="4.70029">
        <ele>195</ele>
        <time>2018-09-23T09:58:14Z</time>
      </trkpt>
      <trkpt lat="45.85695" lon="4.70016">
        <ele>195</ele>
        <time>2018-09-23T09:58:16Z</time>
      </trkpt>
      <trkpt lat="45.85695" lon="4.7001">
        <ele>195</ele>
        <time>2018-09-23T09:58:17Z</time>
      </trkpt>
      <trkpt lat="45.85695" lon="4.69998">
        <ele>195</ele>
        <time>2018-09-23T09:58:19Z</time>
      </trkpt>
      <trkpt lat="45.85695" lon="4.69991">
        <ele>195</ele>
        <time>2018-09-23T09:58:20Z</time>
      </trkpt>
      <trkpt lat="45.85694" lon="4.69985">
        <ele>195</ele>
        <time>2018-09-23T09:58:21Z</time>
      </trkpt>
      <trkpt lat="45.85692" lon="4.69978">
        <ele>195</ele>
        <time>2018-09-23T09:58:22Z</time>
      </trkpt>
      <trkpt lat="45.85691" lon="4.6997">
        <ele>195</ele>
        <time>2018-09-23T09:58:23Z</time>
      </trkpt>
      <trkpt lat="45.8569" lon="4.69962">
        <ele>195</ele>
        <time>2018-09-23T09:58:24Z</time>
      </trkpt>
      <trkpt lat="45.85688" lon="4.69955">
        <ele>195</ele>
        <time>2018-09-23T09:58:25Z</time>
      </trkpt>
      <trkpt lat="45.85686" lon="4.69947">
        <ele>195</ele>
        <time>2018-09-23T09:58:26Z</time>
      </trkpt>
      <trkpt lat="45.85684" lon="4.69941">
        <ele>195</ele>
        <time>2018-09-23T09:58:27Z</time>
      </trkpt>
      <trkpt lat="45.85681" lon="4.69932">
        <ele>195</ele>
        <time>2018-09-23T09:58:28Z</time>
      </trkpt>
      <trkpt lat="45.8568" lon="4.69925">
        <ele>195</ele>
        <time>2018-09-23T09:58:29Z</time>
      </trkpt>
      <trkpt lat="45.85677" lon="4.69918">
        <ele>195</ele>
        <time>2018-09-23T09:58:30Z</time>
      </trkpt>
      <trkpt lat="45.85676" lon="4.6991">
        <ele>195</ele>
        <time>2018-09-23T09:58:31Z</time>
      </trkpt>
      <trkpt lat="45.85673" lon="4.69905">
        <ele>195</ele>
        <time>2018-09-23T09:58:32Z</time>
      </trkpt>
      <trkpt lat="45.85672" lon="4.69897">
        <ele>195</ele>
        <time>2018-09-23T09:58:33Z</time>
      </trkpt>
      <trkpt lat="45.85668" lon="4.69891">
        <ele>195</ele>
        <time>2018-09-23T09:58:34Z</time>
      </trkpt>
      <trkpt lat="45.85668" lon="4.69883">
        <ele>195</ele>
        <time>2018-09-23T09:58:35Z</time>
      </trkpt>
      <trkpt lat="45.85667" lon="4.69876">
        <ele>195</ele>
        <time>2018-09-23T09:58:36Z</time>
      </trkpt>
      <trkpt lat="45.85667" lon="4.69869">
        <ele>195</ele>
        <time>2018-09-23T09:58:37Z</time>
      </trkpt>
      <trkpt lat="45.85666" lon="4.69862">
        <ele>195</ele>
        <time>2018-09-23T09:58:38Z</time>
      </trkpt>
      <trkpt lat="45.85665" lon="4.69855">
        <ele>195</ele>
        <time>2018-09-23T09:58:39Z</time>
      </trkpt>
      <trkpt lat="45.85665" lon="4.69849">
        <ele>195</ele>
        <time>2018-09-23T09:58:40Z</time>
      </trkpt>
      <trkpt lat="45.85664" lon="4.69842">
        <ele>195</ele>
        <time>2018-09-23T09:58:41Z</time>
      </trkpt>
      <trkpt lat="45.85662" lon="4.69834">
        <ele>195</ele>
        <time>2018-09-23T09:58:42Z</time>
      </trkpt>
      <trkpt lat="45.85662" lon="4.69827">
        <ele>195</ele>
        <time>2018-09-23T09:58:43Z</time>
      </trkpt>
      <trkpt lat="45.85662" lon="4.6982">
        <ele>195</ele>
        <time>2018-09-23T09:58:44Z</time>
      </trkpt>
      <trkpt lat="45.85661" lon="4.69812">
        <ele>195</ele>
        <time>2018-09-23T09:58:45Z</time>
      </trkpt>
      <trkpt lat="45.85661" lon="4.69806">
        <ele>195</ele>
        <time>2018-09-23T09:58:46Z</time>
      </trkpt>
      <trkpt lat="45.85661" lon="4.69799">
        <ele>195</ele>
        <time>2018-09-23T09:58:47Z</time>
      </trkpt>
      <trkpt lat="45.8566" lon="4.69793">
        <ele>195</ele>
        <time>2018-09-23T09:58:48Z</time>
      </trkpt>
      <trkpt lat="45.85659" lon="4.69781">
        <ele>195</ele>
        <time>2018-09-23T09:58:50Z</time>
      </trkpt>
      <trkpt lat="45.85658" lon="4.69775">
        <ele>195</ele>
        <time>2018-09-23T09:58:51Z</time>
      </trkpt>
      <trkpt lat="45.85657" lon="4.69762">
        <ele>195</ele>
        <time>2018-09-23T09:58:53Z</time>
      </trkpt>
      <trkpt lat="45.85656" lon="4.69755">
        <ele>195</ele>
        <time>2018-09-23T09:58:54Z</time>
      </trkpt>
      <trkpt lat="45.85655" lon="4.69742">
        <ele>195</ele>
        <time>2018-09-23T09:58:56Z</time>
      </trkpt>
      <trkpt lat="45.85655" lon="4.69736">
        <ele>195</ele>
        <time>2018-09-23T09:58:57Z</time>
      </trkpt>
      <trkpt lat="45.85655" lon="4.69725">
        <ele>195</ele>
        <time>2018-09-23T09:58:59Z</time>
      </trkpt>
      <trkpt lat="45.85655" lon="4.69719">
        <ele>195</ele>
        <time>2018-09-23T09:59:00Z</time>
      </trkpt>
      <trkpt lat="45.85654" lon="4.69709">
        <ele>196</ele>
        <time>2018-09-23T09:59:02Z</time>
      </trkpt>
      <trkpt lat="45.85651" lon="4.69701">
        <ele>196</ele>
        <time>2018-09-23T09:59:03Z</time>
      </trkpt>
      <trkpt lat="45.85649" lon="4.69694">
        <ele>196</ele>
        <time>2018-09-23T09:59:04Z</time>
      </trkpt>
      <trkpt lat="45.85649" lon="4.69686">
        <ele>196</ele>
        <time>2018-09-23T09:59:05Z</time>
      </trkpt>
      <trkpt lat="45.85647" lon="4.69678">
        <ele>196</ele>
        <time>2018-09-23T09:59:06Z</time>
      </trkpt>
      <trkpt lat="45.85646" lon="4.69671">
        <ele>196</ele>
        <time>2018-09-23T09:59:07Z</time>
      </trkpt>
      <trkpt lat="45.85644" lon="4.69658">
        <ele>197</ele>
        <time>2018-09-23T09:59:09Z</time>
      </trkpt>
      <trkpt lat="45.85644" lon="4.69652">
        <ele>197</ele>
        <time>2018-09-23T09:59:10Z</time>
      </trkpt>
      <trkpt lat="45.85643" lon="4.69641">
        <ele>197</ele>
        <time>2018-09-23T09:59:12Z</time>
      </trkpt>
      <trkpt lat="45.85642" lon="4.69635">
        <ele>197</ele>
        <time>2018-09-23T09:59:13Z</time>
      </trkpt>
      <trkpt lat="45.85641" lon="4.69628">
        <ele>197</ele>
        <time>2018-09-23T09:59:14Z</time>
      </trkpt>
      <trkpt lat="45.8564" lon="4.69622">
        <ele>197</ele>
        <time>2018-09-23T09:59:15Z</time>
      </trkpt>
      <trkpt lat="45.85639" lon="4.6961">
        <ele>197</ele>
        <time>2018-09-23T09:59:17Z</time>
      </trkpt>
      <trkpt lat="45.85639" lon="4.69603">
        <ele>197</ele>
        <time>2018-09-23T09:59:18Z</time>
      </trkpt>
      <trkpt lat="45.85639" lon="4.69596">
        <ele>197</ele>
        <time>2018-09-23T09:59:19Z</time>
      </trkpt>
      <trkpt lat="45.85637" lon="4.69589">
        <ele>197</ele>
        <time>2018-09-23T09:59:20Z</time>
      </trkpt>
      <trkpt lat="45.85638" lon="4.69577">
        <ele>198</ele>
        <time>2018-09-23T09:59:22Z</time>
      </trkpt>
      <trkpt lat="45.85638" lon="4.69571">
        <ele>198</ele>
        <time>2018-09-23T09:59:23Z</time>
      </trkpt>
      <trkpt lat="45.85638" lon="4.69559">
        <ele>198</ele>
        <time>2018-09-23T09:59:25Z</time>
      </trkpt>
      <trkpt lat="45.85638" lon="4.69553">
        <ele>198</ele>
        <time>2018-09-23T09:59:26Z</time>
      </trkpt>
      <trkpt lat="45.85636" lon="4.69542">
        <ele>198</ele>
        <time>2018-09-23T09:59:28Z</time>
      </trkpt>
      <trkpt lat="45.85636" lon="4.6954">
        <ele>198</ele>
        <time>2018-09-23T09:59:29Z</time>
      </trkpt>
      <trkpt lat="45.85635" lon="4.69528">
        <ele>198</ele>
        <time>2018-09-23T09:59:31Z</time>
      </trkpt>
      <trkpt lat="45.85633" lon="4.6952">
        <ele>198</ele>
        <time>2018-09-23T09:59:32Z</time>
      </trkpt>
      <trkpt lat="45.85631" lon="4.69508">
        <ele>198</ele>
        <time>2018-09-23T09:59:34Z</time>
      </trkpt>
      <trkpt lat="45.85632" lon="4.69501">
        <ele>198</ele>
        <time>2018-09-23T09:59:35Z</time>
      </trkpt>
      <trkpt lat="45.85631" lon="4.69495">
        <ele>198</ele>
        <time>2018-09-23T09:59:36Z</time>
      </trkpt>
      <trkpt lat="45.8563" lon="4.69488">
        <ele>198</ele>
        <time>2018-09-23T09:59:37Z</time>
      </trkpt>
      <trkpt lat="45.85629" lon="4.69475">
        <ele>198</ele>
        <time>2018-09-23T09:59:39Z</time>
      </trkpt>
      <trkpt lat="45.85628" lon="4.69468">
        <ele>198</ele>
        <time>2018-09-23T09:59:40Z</time>
      </trkpt>
      <trkpt lat="45.85628" lon="4.69462">
        <ele>198</ele>
        <time>2018-09-23T09:59:41Z</time>
      </trkpt>
      <trkpt lat="45.85627" lon="4.69454">
        <ele>198</ele>
        <time>2018-09-23T09:59:42Z</time>
      </trkpt>
      <trkpt lat="45.85626" lon="4.69442">
        <ele>198</ele>
        <time>2018-09-23T09:59:44Z</time>
      </trkpt>
      <trkpt lat="45.85625" lon="4.69436">
        <ele>198</ele>
        <time>2018-09-23T09:59:45Z</time>
      </trkpt>
      <trkpt lat="45.85625" lon="4.6943">
        <ele>198</ele>
        <time>2018-09-23T09:59:46Z</time>
      </trkpt>
      <trkpt lat="45.85623" lon="4.69423">
        <ele>198</ele>
        <time>2018-09-23T09:59:47Z</time>
      </trkpt>
      <trkpt lat="45.85622" lon="4.69411">
        <ele>198</ele>
        <time>2018-09-23T09:59:49Z</time>
      </trkpt>
      <trkpt lat="45.85621" lon="4.69404">
        <ele>198</ele>
        <time>2018-09-23T09:59:50Z</time>
      </trkpt>
      <trkpt lat="45.8562" lon="4.69393">
        <ele>198</ele>
        <time>2018-09-23T09:59:52Z</time>
      </trkpt>
      <trkpt lat="45.8562" lon="4.69387">
        <ele>198</ele>
        <time>2018-09-23T09:59:53Z</time>
      </trkpt>
      <trkpt lat="45.85617" lon="4.69376">
        <ele>198</ele>
        <time>2018-09-23T09:59:55Z</time>
      </trkpt>
      <trkpt lat="45.85617" lon="4.69368">
        <ele>198</ele>
        <time>2018-09-23T09:59:56Z</time>
      </trkpt>
      <trkpt lat="45.85617" lon="4.6936">
        <ele>198</ele>
        <time>2018-09-23T09:59:57Z</time>
      </trkpt>
      <trkpt lat="45.85616" lon="4.69353">
        <ele>198</ele>
        <time>2018-09-23T09:59:58Z</time>
      </trkpt>
      <trkpt lat="45.85615" lon="4.69346">
        <ele>198</ele>
        <time>2018-09-23T09:59:59Z</time>
      </trkpt>
      <trkpt lat="45.85615" lon="4.69339">
        <ele>198</ele>
        <time>2018-09-23T10:00:00Z</time>
      </trkpt>
      <trkpt lat="45.85613" lon="4.69327">
        <ele>198</ele>
        <time>2018-09-23T10:00:02Z</time>
      </trkpt>
      <trkpt lat="45.85612" lon="4.69321">
        <ele>198</ele>
        <time>2018-09-23T10:00:03Z</time>
      </trkpt>
      <trkpt lat="45.85611" lon="4.69309">
        <ele>198</ele>
        <time>2018-09-23T10:00:05Z</time>
      </trkpt>
      <trkpt lat="45.8561" lon="4.69304">
        <ele>198</ele>
        <time>2018-09-23T10:00:06Z</time>
      </trkpt>
      <trkpt lat="45.85609" lon="4.69293">
        <ele>198</ele>
        <time>2018-09-23T10:00:08Z</time>
      </trkpt>
      <trkpt lat="45.85609" lon="4.69287">
        <ele>198</ele>
        <time>2018-09-23T10:00:09Z</time>
      </trkpt>
      <trkpt lat="45.8561" lon="4.69275">
        <ele>198</ele>
        <time>2018-09-23T10:00:11Z</time>
      </trkpt>
      <trkpt lat="45.85612" lon="4.69269">
        <ele>198</ele>
        <time>2018-09-23T10:00:12Z</time>
      </trkpt>
      <trkpt lat="45.85612" lon="4.69257">
        <ele>198</ele>
        <time>2018-09-23T10:00:14Z</time>
      </trkpt>
      <trkpt lat="45.85611" lon="4.69249">
        <ele>199</ele>
        <time>2018-09-23T10:00:15Z</time>
      </trkpt>
      <trkpt lat="45.85606" lon="4.69239">
        <ele>199</ele>
        <time>2018-09-23T10:00:17Z</time>
      </trkpt>
      <trkpt lat="45.85605" lon="4.69231">
        <ele>199</ele>
        <time>2018-09-23T10:00:18Z</time>
      </trkpt>
      <trkpt lat="45.85603" lon="4.69225">
        <ele>199</ele>
        <time>2018-09-23T10:00:19Z</time>
      </trkpt>
      <trkpt lat="45.85603" lon="4.69218">
        <ele>199</ele>
        <time>2018-09-23T10:00:20Z</time>
      </trkpt>
      <trkpt lat="45.85603" lon="4.69211">
        <ele>199</ele>
        <time>2018-09-23T10:00:21Z</time>
      </trkpt>
      <trkpt lat="45.85602" lon="4.69205">
        <ele>199</ele>
        <time>2018-09-23T10:00:22Z</time>
      </trkpt>
      <trkpt lat="45.85601" lon="4.69198">
        <ele>199</ele>
        <time>2018-09-23T10:00:23Z</time>
      </trkpt>
      <trkpt lat="45.85601" lon="4.69192">
        <ele>199</ele>
        <time>2018-09-23T10:00:24Z</time>
      </trkpt>
      <trkpt lat="45.85601" lon="4.69184">
        <ele>199</ele>
        <time>2018-09-23T10:00:25Z</time>
      </trkpt>
      <trkpt lat="45.856" lon="4.69178">
        <ele>199</ele>
        <time>2018-09-23T10:00:26Z</time>
      </trkpt>
      <trkpt lat="45.85599" lon="4.69172">
        <ele>199</ele>
        <time>2018-09-23T10:00:27Z</time>
      </trkpt>
      <trkpt lat="45.85598" lon="4.69165">
        <ele>199</ele>
        <time>2018-09-23T10:00:28Z</time>
      </trkpt>
      <trkpt lat="45.85598" lon="4.69156">
        <ele>199</ele>
        <time>2018-09-23T10:00:29Z</time>
      </trkpt>
      <trkpt lat="45.85598" lon="4.69149">
        <ele>199</ele>
        <time>2018-09-23T10:00:30Z</time>
      </trkpt>
      <trkpt lat="45.85597" lon="4.6914">
        <ele>199</ele>
        <time>2018-09-23T10:00:31Z</time>
      </trkpt>
      <trkpt lat="45.85596" lon="4.69132">
        <ele>198</ele>
        <time>2018-09-23T10:00:32Z</time>
      </trkpt>
      <trkpt lat="45.85596" lon="4.69125">
        <ele>198</ele>
        <time>2018-09-23T10:00:33Z</time>
      </trkpt>
      <trkpt lat="45.85595" lon="4.69118">
        <ele>198</ele>
        <time>2018-09-23T10:00:34Z</time>
      </trkpt>
      <trkpt lat="45.85594" lon="4.69111">
        <ele>199</ele>
        <time>2018-09-23T10:00:35Z</time>
      </trkpt>
      <trkpt lat="45.85594" lon="4.69105">
        <ele>199</ele>
        <time>2018-09-23T10:00:36Z</time>
      </trkpt>
      <trkpt lat="45.85593" lon="4.69093">
        <ele>199</ele>
        <time>2018-09-23T10:00:38Z</time>
      </trkpt>
      <trkpt lat="45.85592" lon="4.69087">
        <ele>199</ele>
        <time>2018-09-23T10:00:39Z</time>
      </trkpt>
      <trkpt lat="45.85592" lon="4.6908">
        <ele>199</ele>
        <time>2018-09-23T10:00:40Z</time>
      </trkpt>
      <trkpt lat="45.85591" lon="4.69072">
        <ele>199</ele>
        <time>2018-09-23T10:00:41Z</time>
      </trkpt>
      <trkpt lat="45.85592" lon="4.6906">
        <ele>199</ele>
        <time>2018-09-23T10:00:43Z</time>
      </trkpt>
      <trkpt lat="45.85591" lon="4.69052">
        <ele>199</ele>
        <time>2018-09-23T10:00:44Z</time>
      </trkpt>
      <trkpt lat="45.8559" lon="4.69045">
        <ele>199</ele>
        <time>2018-09-23T10:00:45Z</time>
      </trkpt>
      <trkpt lat="45.8559" lon="4.69037">
        <ele>199</ele>
        <time>2018-09-23T10:00:46Z</time>
      </trkpt>
      <trkpt lat="45.85589" lon="4.69029">
        <ele>199</ele>
        <time>2018-09-23T10:00:47Z</time>
      </trkpt>
      <trkpt lat="45.85587" lon="4.69021">
        <ele>199</ele>
        <time>2018-09-23T10:00:48Z</time>
      </trkpt>
      <trkpt lat="45.85586" lon="4.69014">
        <ele>199</ele>
        <time>2018-09-23T10:00:49Z</time>
      </trkpt>
      <trkpt lat="45.85585" lon="4.69006">
        <ele>200</ele>
        <time>2018-09-23T10:00:50Z</time>
      </trkpt>
      <trkpt lat="45.85584" lon="4.69">
        <ele>200</ele>
        <time>2018-09-23T10:00:51Z</time>
      </trkpt>
      <trkpt lat="45.85583" lon="4.68993">
        <ele>200</ele>
        <time>2018-09-23T10:00:52Z</time>
      </trkpt>
      <trkpt lat="45.85582" lon="4.68981">
        <ele>200</ele>
        <time>2018-09-23T10:00:54Z</time>
      </trkpt>
      <trkpt lat="45.85581" lon="4.68973">
        <ele>200</ele>
        <time>2018-09-23T10:00:55Z</time>
      </trkpt>
      <trkpt lat="45.85579" lon="4.68961">
        <ele>200</ele>
        <time>2018-09-23T10:00:57Z</time>
      </trkpt>
      <trkpt lat="45.8558" lon="4.68953">
        <ele>200</ele>
        <time>2018-09-23T10:00:58Z</time>
      </trkpt>
      <trkpt lat="45.8558" lon="4.68945">
        <ele>200</ele>
        <time>2018-09-23T10:00:59Z</time>
      </trkpt>
      <trkpt lat="45.85578" lon="4.68936">
        <ele>200</ele>
        <time>2018-09-23T10:01:00Z</time>
      </trkpt>
      <trkpt lat="45.85577" lon="4.68929">
        <ele>200</ele>
        <time>2018-09-23T10:01:01Z</time>
      </trkpt>
      <trkpt lat="45.85577" lon="4.6892">
        <ele>200</ele>
        <time>2018-09-23T10:01:02Z</time>
      </trkpt>
      <trkpt lat="45.85576" lon="4.68911">
        <ele>200</ele>
        <time>2018-09-23T10:01:03Z</time>
      </trkpt>
      <trkpt lat="45.85577" lon="4.68905">
        <ele>200</ele>
        <time>2018-09-23T10:01:04Z</time>
      </trkpt>
      <trkpt lat="45.85576" lon="4.68897">
        <ele>200</ele>
        <time>2018-09-23T10:01:05Z</time>
      </trkpt>
      <trkpt lat="45.85575" lon="4.6889">
        <ele>200</ele>
        <time>2018-09-23T10:01:06Z</time>
      </trkpt>
      <trkpt lat="45.85574" lon="4.68883">
        <ele>200</ele>
        <time>2018-09-23T10:01:07Z</time>
      </trkpt>
      <trkpt lat="45.85574" lon="4.68875">
        <ele>200</ele>
        <time>2018-09-23T10:01:08Z</time>
      </trkpt>
      <trkpt lat="45.85573" lon="4.68867">
        <ele>200</ele>
        <time>2018-09-23T10:01:09Z</time>
      </trkpt>
      <trkpt lat="45.85573" lon="4.68861">
        <ele>200</ele>
        <time>2018-09-23T10:01:10Z</time>
      </trkpt>
      <trkpt lat="45.85573" lon="4.68854">
        <ele>200</ele>
        <time>2018-09-23T10:01:11Z</time>
      </trkpt>
      <trkpt lat="45.85573" lon="4.68845">
        <ele>200</ele>
        <time>2018-09-23T10:01:12Z</time>
      </trkpt>
      <trkpt lat="45.85572" lon="4.68838">
        <ele>200</ele>
        <time>2018-09-23T10:01:13Z</time>
      </trkpt>
      <trkpt lat="45.85572" lon="4.68831">
        <ele>200</ele>
        <time>2018-09-23T10:01:14Z</time>
      </trkpt>
      <trkpt lat="45.8557" lon="4.68825">
        <ele>200</ele>
        <time>2018-09-23T10:01:15Z</time>
      </trkpt>
      <trkpt lat="45.8557" lon="4.68817">
        <ele>200</ele>
        <time>2018-09-23T10:01:16Z</time>
      </trkpt>
      <trkpt lat="45.85569" lon="4.68809">
        <ele>200</ele>
        <time>2018-09-23T10:01:17Z</time>
      </trkpt>
      <trkpt lat="45.85569" lon="4.68801">
        <ele>200</ele>
        <time>2018-09-23T10:01:18Z</time>
      </trkpt>
      <trkpt lat="45.85568" lon="4.68793">
        <ele>200</ele>
        <time>2018-09-23T10:01:19Z</time>
      </trkpt>
      <trkpt lat="45.85565" lon="4.68786">
        <ele>200</ele>
        <time>2018-09-23T10:01:20Z</time>
      </trkpt>
      <trkpt lat="45.85565" lon="4.68777">
        <ele>200</ele>
        <time>2018-09-23T10:01:21Z</time>
      </trkpt>
      <trkpt lat="45.85564" lon="4.6877">
        <ele>200</ele>
        <time>2018-09-23T10:01:22Z</time>
      </trkpt>
      <trkpt lat="45.85563" lon="4.68762">
        <ele>200</ele>
        <time>2018-09-23T10:01:23Z</time>
      </trkpt>
      <trkpt lat="45.85563" lon="4.68754">
        <ele>200</ele>
        <time>2018-09-23T10:01:24Z</time>
      </trkpt>
      <trkpt lat="45.85562" lon="4.68747">
        <ele>200</ele>
        <time>2018-09-23T10:01:25Z</time>
      </trkpt>
      <trkpt lat="45.85561" lon="4.6874">
        <ele>200</ele>
        <time>2018-09-23T10:01:26Z</time>
      </trkpt>
      <trkpt lat="45.85559" lon="4.68733">
        <ele>200</ele>
        <time>2018-09-23T10:01:27Z</time>
      </trkpt>
      <trkpt lat="45.85557" lon="4.68725">
        <ele>200</ele>
        <time>2018-09-23T10:01:28Z</time>
      </trkpt>
      <trkpt lat="45.85557" lon="4.68719">
        <ele>200</ele>
        <time>2018-09-23T10:01:29Z</time>
      </trkpt>
      <trkpt lat="45.85556" lon="4.68712">
        <ele>200</ele>
        <time>2018-09-23T10:01:30Z</time>
      </trkpt>
      <trkpt lat="45.85555" lon="4.68704">
        <ele>200</ele>
        <time>2018-09-23T10:01:31Z</time>
      </trkpt>
      <trkpt lat="45.85555" lon="4.68696">
        <ele>200</ele>
        <time>2018-09-23T10:01:32Z</time>
      </trkpt>
      <trkpt lat="45.85557" lon="4.6869">
        <ele>200</ele>
        <time>2018-09-23T10:01:33Z</time>
      </trkpt>
      <trkpt lat="45.85556" lon="4.68683">
        <ele>200</ele>
        <time>2018-09-23T10:01:34Z</time>
      </trkpt>
      <trkpt lat="45.85556" lon="4.68675">
        <ele>200</ele>
        <time>2018-09-23T10:01:35Z</time>
      </trkpt>
      <trkpt lat="45.85555" lon="4.68666">
        <ele>200</ele>
        <time>2018-09-23T10:01:36Z</time>
      </trkpt>
      <trkpt lat="45.85554" lon="4.68659">
        <ele>200</ele>
        <time>2018-09-23T10:01:37Z</time>
      </trkpt>
      <trkpt lat="45.85553" lon="4.68649">
        <ele>201</ele>
        <time>2018-09-23T10:01:38Z</time>
      </trkpt>
      <trkpt lat="45.85554" lon="4.68641">
        <ele>201</ele>
        <time>2018-09-23T10:01:39Z</time>
      </trkpt>
      <trkpt lat="45.85553" lon="4.68632">
        <ele>201</ele>
        <time>2018-09-23T10:01:40Z</time>
      </trkpt>
      <trkpt lat="45.85553" lon="4.68625">
        <ele>201</ele>
        <time>2018-09-23T10:01:41Z</time>
      </trkpt>
      <trkpt lat="45.85552" lon="4.68617">
        <ele>201</ele>
        <time>2018-09-23T10:01:42Z</time>
      </trkpt>
      <trkpt lat="45.85552" lon="4.68609">
        <ele>201</ele>
        <time>2018-09-23T10:01:43Z</time>
      </trkpt>
      <trkpt lat="45.85553" lon="4.686">
        <ele>201</ele>
        <time>2018-09-23T10:01:44Z</time>
      </trkpt>
      <trkpt lat="45.85552" lon="4.68592">
        <ele>201</ele>
        <time>2018-09-23T10:01:45Z</time>
      </trkpt>
      <trkpt lat="45.85551" lon="4.68585">
        <ele>201</ele>
        <time>2018-09-23T10:01:46Z</time>
      </trkpt>
      <trkpt lat="45.85552" lon="4.68572">
        <ele>201</ele>
        <time>2018-09-23T10:01:48Z</time>
      </trkpt>
      <trkpt lat="45.85553" lon="4.68567">
        <ele>201</ele>
        <time>2018-09-23T10:01:49Z</time>
      </trkpt>
      <trkpt lat="45.85554" lon="4.68559">
        <ele>201</ele>
        <time>2018-09-23T10:01:50Z</time>
      </trkpt>
      <trkpt lat="45.85553" lon="4.68553">
        <ele>201</ele>
        <time>2018-09-23T10:01:51Z</time>
      </trkpt>
      <trkpt lat="45.85553" lon="4.68544">
        <ele>201</ele>
        <time>2018-09-23T10:01:52Z</time>
      </trkpt>
      <trkpt lat="45.85551" lon="4.68534">
        <ele>201</ele>
        <time>2018-09-23T10:01:53Z</time>
      </trkpt>
      <trkpt lat="45.85551" lon="4.68525">
        <ele>201</ele>
        <time>2018-09-23T10:01:54Z</time>
      </trkpt>
      <trkpt lat="45.85549" lon="4.68517">
        <ele>201</ele>
        <time>2018-09-23T10:01:55Z</time>
      </trkpt>
      <trkpt lat="45.85548" lon="4.68509">
        <ele>201</ele>
        <time>2018-09-23T10:01:56Z</time>
      </trkpt>
      <trkpt lat="45.85548" lon="4.68503">
        <ele>201</ele>
        <time>2018-09-23T10:01:57Z</time>
      </trkpt>
      <trkpt lat="45.85546" lon="4.68497">
        <ele>200</ele>
        <time>2018-09-23T10:01:58Z</time>
      </trkpt>
      <trkpt lat="45.85544" lon="4.6849">
        <ele>200</ele>
        <time>2018-09-23T10:01:59Z</time>
      </trkpt>
      <trkpt lat="45.85543" lon="4.68477">
        <ele>200</ele>
        <time>2018-09-23T10:02:01Z</time>
      </trkpt>
      <trkpt lat="45.85543" lon="4.6847">
        <ele>200</ele>
        <time>2018-09-23T10:02:02Z</time>
      </trkpt>
      <trkpt lat="45.85542" lon="4.68464">
        <ele>200</ele>
        <time>2018-09-23T10:02:03Z</time>
      </trkpt>
      <trkpt lat="45.85542" lon="4.68456">
        <ele>200</ele>
        <time>2018-09-23T10:02:04Z</time>
      </trkpt>
      <trkpt lat="45.85542" lon="4.68448">
        <ele>200</ele>
        <time>2018-09-23T10:02:05Z</time>
      </trkpt>
      <trkpt lat="45.85541" lon="4.6844">
        <ele>200</ele>
        <time>2018-09-23T10:02:06Z</time>
      </trkpt>
      <trkpt lat="45.85539" lon="4.68431">
        <ele>200</ele>
        <time>2018-09-23T10:02:07Z</time>
      </trkpt>
      <trkpt lat="45.85538" lon="4.68423">
        <ele>200</ele>
        <time>2018-09-23T10:02:08Z</time>
      </trkpt>
      <trkpt lat="45.85538" lon="4.68416">
        <ele>200</ele>
        <time>2018-09-23T10:02:09Z</time>
      </trkpt>
      <trkpt lat="45.85537" lon="4.68409">
        <ele>200</ele>
        <time>2018-09-23T10:02:10Z</time>
      </trkpt>
      <trkpt lat="45.85536" lon="4.68402">
        <ele>200</ele>
        <time>2018-09-23T10:02:11Z</time>
      </trkpt>
      <trkpt lat="45.85535" lon="4.68395">
        <ele>200</ele>
        <time>2018-09-23T10:02:12Z</time>
      </trkpt>
      <trkpt lat="45.85534" lon="4.68386">
        <ele>200</ele>
        <time>2018-09-23T10:02:13Z</time>
      </trkpt>
      <trkpt lat="45.85535" lon="4.68378">
        <ele>201</ele>
        <time>2018-09-23T10:02:14Z</time>
      </trkpt>
      <trkpt lat="45.85533" lon="4.6837">
        <ele>201</ele>
        <time>2018-09-23T10:02:15Z</time>
      </trkpt>
      <trkpt lat="45.85532" lon="4.68361">
        <ele>201</ele>
        <time>2018-09-23T10:02:16Z</time>
      </trkpt>
      <trkpt lat="45.85532" lon="4.68354">
        <ele>201</ele>
        <time>2018-09-23T10:02:17Z</time>
      </trkpt>
      <trkpt lat="45.85532" lon="4.68347">
        <ele>201</ele>
        <time>2018-09-23T10:02:18Z</time>
      </trkpt>
      <trkpt lat="45.85529" lon="4.68339">
        <ele>201</ele>
        <time>2018-09-23T10:02:19Z</time>
      </trkpt>
      <trkpt lat="45.85528" lon="4.68334">
        <ele>201</ele>
        <time>2018-09-23T10:02:20Z</time>
      </trkpt>
      <trkpt lat="45.85527" lon="4.68328">
        <ele>202</ele>
        <time>2018-09-23T10:02:21Z</time>
      </trkpt>
      <trkpt lat="45.85525" lon="4.68321">
        <ele>202</ele>
        <time>2018-09-23T10:02:22Z</time>
      </trkpt>
      <trkpt lat="45.85521" lon="4.68316">
        <ele>202</ele>
        <time>2018-09-23T10:02:23Z</time>
      </trkpt>
      <trkpt lat="45.85518" lon="4.6831">
        <ele>202</ele>
        <time>2018-09-23T10:02:24Z</time>
      </trkpt>
      <trkpt lat="45.85515" lon="4.68299">
        <ele>202</ele>
        <time>2018-09-23T10:02:26Z</time>
      </trkpt>
      <trkpt lat="45.85515" lon="4.6829">
        <ele>202</ele>
        <time>2018-09-23T10:02:27Z</time>
      </trkpt>
      <trkpt lat="45.85514" lon="4.68282">
        <ele>202</ele>
        <time>2018-09-23T10:02:28Z</time>
      </trkpt>
      <trkpt lat="45.85513" lon="4.68275">
        <ele>202</ele>
        <time>2018-09-23T10:02:29Z</time>
      </trkpt>
      <trkpt lat="45.85514" lon="4.68267">
        <ele>202</ele>
        <time>2018-09-23T10:02:30Z</time>
      </trkpt>
      <trkpt lat="45.85513" lon="4.68261">
        <ele>203</ele>
        <time>2018-09-23T10:02:31Z</time>
      </trkpt>
      <trkpt lat="45.85513" lon="4.68255">
        <ele>203</ele>
        <time>2018-09-23T10:02:32Z</time>
      </trkpt>
      <trkpt lat="45.85513" lon="4.68248">
        <ele>203</ele>
        <time>2018-09-23T10:02:33Z</time>
      </trkpt>
      <trkpt lat="45.85512" lon="4.68242">
        <ele>203</ele>
        <time>2018-09-23T10:02:34Z</time>
      </trkpt>
      <trkpt lat="45.85511" lon="4.68235">
        <ele>203</ele>
        <time>2018-09-23T10:02:35Z</time>
      </trkpt>
      <trkpt lat="45.8551" lon="4.68228">
        <ele>203</ele>
        <time>2018-09-23T10:02:36Z</time>
      </trkpt>
      <trkpt lat="45.8551" lon="4.68222">
        <ele>203</ele>
        <time>2018-09-23T10:02:37Z</time>
      </trkpt>
      <trkpt lat="45.8551" lon="4.68214">
        <ele>203</ele>
        <time>2018-09-23T10:02:38Z</time>
      </trkpt>
      <trkpt lat="45.85511" lon="4.68206">
        <ele>203</ele>
        <time>2018-09-23T10:02:39Z</time>
      </trkpt>
      <trkpt lat="45.85512" lon="4.68193">
        <ele>203</ele>
        <time>2018-09-23T10:02:41Z</time>
      </trkpt>
      <trkpt lat="45.85511" lon="4.68185">
        <ele>203</ele>
        <time>2018-09-23T10:02:42Z</time>
      </trkpt>
      <trkpt lat="45.85511" lon="4.68172">
        <ele>204</ele>
        <time>2018-09-23T10:02:44Z</time>
      </trkpt>
      <trkpt lat="45.85508" lon="4.68165">
        <ele>204</ele>
        <time>2018-09-23T10:02:45Z</time>
      </trkpt>
      <trkpt lat="45.85506" lon="4.68158">
        <ele>204</ele>
        <time>2018-09-23T10:02:46Z</time>
      </trkpt>
      <trkpt lat="45.85505" lon="4.68151">
        <ele>203</ele>
        <time>2018-09-23T10:02:47Z</time>
      </trkpt>
      <trkpt lat="45.85505" lon="4.68144">
        <ele>203</ele>
        <time>2018-09-23T10:02:48Z</time>
      </trkpt>
      <trkpt lat="45.85505" lon="4.68137">
        <ele>203</ele>
        <time>2018-09-23T10:02:49Z</time>
      </trkpt>
      <trkpt lat="45.85504" lon="4.6813">
        <ele>203</ele>
        <time>2018-09-23T10:02:50Z</time>
      </trkpt>
      <trkpt lat="45.85503" lon="4.68121">
        <ele>203</ele>
        <time>2018-09-23T10:02:51Z</time>
      </trkpt>
      <trkpt lat="45.85503" lon="4.68114">
        <ele>203</ele>
        <time>2018-09-23T10:02:52Z</time>
      </trkpt>
      <trkpt lat="45.85504" lon="4.68107">
        <ele>203</ele>
        <time>2018-09-23T10:02:53Z</time>
      </trkpt>
      <trkpt lat="45.85504" lon="4.68101">
        <ele>203</ele>
        <time>2018-09-23T10:02:54Z</time>
      </trkpt>
      <trkpt lat="45.85505" lon="4.68094">
        <ele>203</ele>
        <time>2018-09-23T10:02:55Z</time>
      </trkpt>
      <trkpt lat="45.85504" lon="4.68087">
        <ele>204</ele>
        <time>2018-09-23T10:02:56Z</time>
      </trkpt>
      <trkpt lat="45.85503" lon="4.68081">
        <ele>204</ele>
        <time>2018-09-23T10:02:57Z</time>
      </trkpt>
      <trkpt lat="45.85503" lon="4.68068">
        <ele>203</ele>
        <time>2018-09-23T10:02:59Z</time>
      </trkpt>
      <trkpt lat="45.85502" lon="4.68063">
        <ele>203</ele>
        <time>2018-09-23T10:03:00Z</time>
      </trkpt>
      <trkpt lat="45.855" lon="4.68052">
        <ele>203</ele>
        <time>2018-09-23T10:03:02Z</time>
      </trkpt>
      <trkpt lat="45.855" lon="4.68046">
        <ele>206</ele>
        <time>2018-09-23T10:03:03Z</time>
      </trkpt>
      <trkpt lat="45.85499" lon="4.68036">
        <ele>206</ele>
        <time>2018-09-23T10:03:05Z</time>
      </trkpt>
      <trkpt lat="45.85498" lon="4.68031">
        <ele>207</ele>
        <time>2018-09-23T10:03:06Z</time>
      </trkpt>
      <trkpt lat="45.85498" lon="4.68022">
        <ele>207</ele>
        <time>2018-09-23T10:03:08Z</time>
      </trkpt>
      <trkpt lat="45.85498" lon="4.68014">
        <ele>207</ele>
        <time>2018-09-23T10:03:09Z</time>
      </trkpt>
      <trkpt lat="45.85503" lon="4.68003">
        <ele>205</ele>
        <time>2018-09-23T10:03:11Z</time>
      </trkpt>
      <trkpt lat="45.85505" lon="4.67998">
        <ele>206</ele>
        <time>2018-09-23T10:03:12Z</time>
      </trkpt>
      <trkpt lat="45.85509" lon="4.67993">
        <ele>206</ele>
        <time>2018-09-23T10:03:13Z</time>
      </trkpt>
      <trkpt lat="45.85511" lon="4.67988">
        <ele>206</ele>
        <time>2018-09-23T10:03:14Z</time>
      </trkpt>
      <trkpt lat="45.85516" lon="4.67983">
        <ele>206</ele>
        <time>2018-09-23T10:03:15Z</time>
      </trkpt>
      <trkpt lat="45.8552" lon="4.67979">
        <ele>206</ele>
        <time>2018-09-23T10:03:16Z</time>
      </trkpt>
      <trkpt lat="45.85525" lon="4.67973">
        <ele>205</ele>
        <time>2018-09-23T10:03:17Z</time>
      </trkpt>
      <trkpt lat="45.85529" lon="4.67969">
        <ele>205</ele>
        <time>2018-09-23T10:03:18Z</time>
      </trkpt>
      <trkpt lat="45.85535" lon="4.67963">
        <ele>205</ele>
        <time>2018-09-23T10:03:20Z</time>
      </trkpt>
      <trkpt lat="45.85537" lon="4.67962">
        <ele>205</ele>
        <time>2018-09-23T10:03:21Z</time>
      </trkpt>
      <trkpt lat="45.85544" lon="4.67958">
        <ele>205</ele>
        <time>2018-09-23T10:03:22Z</time>
      </trkpt>
      <trkpt lat="45.85548" lon="4.67952">
        <ele>205</ele>
        <time>2018-09-23T10:03:23Z</time>
      </trkpt>
      <trkpt lat="45.85553" lon="4.67948">
        <ele>205</ele>
        <time>2018-09-23T10:03:24Z</time>
      </trkpt>
      <trkpt lat="45.85556" lon="4.67945">
        <ele>205</ele>
        <time>2018-09-23T10:03:25Z</time>
      </trkpt>
      <trkpt lat="45.85561" lon="4.67936">
        <ele>205</ele>
        <time>2018-09-23T10:03:27Z</time>
      </trkpt>
      <trkpt lat="45.85563" lon="4.67934">
        <ele>205</ele>
        <time>2018-09-23T10:03:28Z</time>
      </trkpt>
      <trkpt lat="45.85571" lon="4.67928">
        <ele>205</ele>
        <time>2018-09-23T10:03:30Z</time>
      </trkpt>
      <trkpt lat="45.85576" lon="4.67927">
        <ele>205</ele>
        <time>2018-09-23T10:03:31Z</time>
      </trkpt>
      <trkpt lat="45.85577" lon="4.67934">
        <ele>205</ele>
        <time>2018-09-23T10:03:32Z</time>
      </trkpt>
      <trkpt lat="45.85581" lon="4.67939">
        <ele>205</ele>
        <time>2018-09-23T10:03:33Z</time>
      </trkpt>
      <trkpt lat="45.85585" lon="4.6795">
        <ele>204</ele>
        <time>2018-09-23T10:03:35Z</time>
      </trkpt>
      <trkpt lat="45.85587" lon="4.67956">
        <ele>203</ele>
        <time>2018-09-23T10:03:36Z</time>
      </trkpt>
      <trkpt lat="45.85588" lon="4.67964">
        <ele>203</ele>
        <time>2018-09-23T10:03:37Z</time>
      </trkpt>
      <trkpt lat="45.85591" lon="4.67971">
        <ele>203</ele>
        <time>2018-09-23T10:03:38Z</time>
      </trkpt>
      <trkpt lat="45.85594" lon="4.67978">
        <ele>203</ele>
        <time>2018-09-23T10:03:39Z</time>
      </trkpt>
      <trkpt lat="45.85597" lon="4.67984">
        <ele>202</ele>
        <time>2018-09-23T10:03:40Z</time>
      </trkpt>
      <trkpt lat="45.856" lon="4.6799">
        <ele>202</ele>
        <time>2018-09-23T10:03:41Z</time>
      </trkpt>
      <trkpt lat="45.85603" lon="4.67997">
        <ele>202</ele>
        <time>2018-09-23T10:03:42Z</time>
      </trkpt>
      <trkpt lat="45.85606" lon="4.68003">
        <ele>201</ele>
        <time>2018-09-23T10:03:43Z</time>
      </trkpt>
      <trkpt lat="45.8561" lon="4.68008">
        <ele>201</ele>
        <time>2018-09-23T10:03:44Z</time>
      </trkpt>
      <trkpt lat="45.85614" lon="4.68019">
        <ele>201</ele>
        <time>2018-09-23T10:03:47Z</time>
      </trkpt>
      <trkpt lat="45.85615" lon="4.68022">
        <ele>201</ele>
        <time>2018-09-23T10:03:48Z</time>
      </trkpt>
      <trkpt lat="45.85618" lon="4.68032">
        <ele>201</ele>
        <time>2018-09-23T10:03:58Z</time>
      </trkpt>
      <trkpt lat="45.85618" lon="4.68032">
        <ele>201</ele>
        <time>2018-09-23T10:03:59Z</time>
      </trkpt>
      <trkpt lat="45.85618" lon="4.68032">
        <ele>201</ele>
        <time>2018-09-23T10:04:00Z</time>
      </trkpt>
      <trkpt lat="45.85619" lon="4.68032">
        <ele>201</ele>
        <time>2018-09-23T10:04:01Z</time>
      </trkpt>
      <trkpt lat="45.85618" lon="4.68035">
        <ele>201</ele>
        <time>2018-09-23T10:04:06Z</time>
      </trkpt>
      <trkpt lat="45.85618" lon="4.68035">
        <ele>201</ele>
        <time>2018-09-23T10:04:07Z</time>
      </trkpt>
      <trkpt lat="45.85618" lon="4.68036">
        <ele>201</ele>
        <time>2018-09-23T10:04:08Z</time>
      </trkpt>
      <trkpt lat="45.85617" lon="4.68035">
        <ele>201</ele>
        <time>2018-09-23T10:04:55Z</time>
      </trkpt>
      <trkpt lat="45.85617" lon="4.68035">
        <ele>201</ele>
        <time>2018-09-23T10:04:56Z</time>
      </trkpt>
      <trkpt lat="45.85616" lon="4.68037">
        <ele>201</ele>
        <time>2018-09-23T10:06:52Z</time>
      </trkpt>
      <trkpt lat="45.85615" lon="4.68037">
        <ele>201</ele>
        <time>2018-09-23T10:06:53Z</time>
      </trkpt>
      <trkpt lat="45.85622" lon="4.68045">
        <ele>200</ele>
        <time>2018-09-23T10:16:54Z</time>
      </trkpt>
      <trkpt lat="45.85623" lon="4.68047">
        <ele>200</ele>
        <time>2018-09-23T10:16:55Z</time>
      </trkpt>
      <trkpt lat="45.85627" lon="4.68055">
        <ele>200</ele>
        <time>2018-09-23T10:16:58Z</time>
      </trkpt>
      <trkpt lat="45.85629" lon="4.68058">
        <ele>200</ele>
        <time>2018-09-23T10:16:59Z</time>
      </trkpt>
      <trkpt lat="45.85634" lon="4.68064">
        <ele>200</ele>
        <time>2018-09-23T10:17:01Z</time>
      </trkpt>
      <trkpt lat="45.85642" lon="4.68072">
        <ele>200</ele>
        <time>2018-09-23T10:17:02Z</time>
      </trkpt>
      <trkpt lat="45.85648" lon="4.68072">
        <ele>200</ele>
        <time>2018-09-23T10:17:03Z</time>
      </trkpt>
      <trkpt lat="45.85651" lon="4.68076">
        <ele>200</ele>
        <time>2018-09-23T10:17:04Z</time>
      </trkpt>
      <trkpt lat="45.85656" lon="4.68085">
        <ele>200</ele>
        <time>2018-09-23T10:17:06Z</time>
      </trkpt>
      <trkpt lat="45.8566" lon="4.68091">
        <ele>200</ele>
        <time>2018-09-23T10:17:07Z</time>
      </trkpt>
      <trkpt lat="45.85666" lon="4.68098">
        <ele>200</ele>
        <time>2018-09-23T10:17:09Z</time>
      </trkpt>
      <trkpt lat="45.85671" lon="4.68102">
        <ele>200</ele>
        <time>2018-09-23T10:17:10Z</time>
      </trkpt>
      <trkpt lat="45.85676" lon="4.68106">
        <ele>200</ele>
        <time>2018-09-23T10:17:11Z</time>
      </trkpt>
      <trkpt lat="45.85679" lon="4.6811">
        <ele>200</ele>
        <time>2018-09-23T10:17:12Z</time>
      </trkpt>
      <trkpt lat="45.85685" lon="4.68116">
        <ele>200</ele>
        <time>2018-09-23T10:17:14Z</time>
      </trkpt>
      <trkpt lat="45.85688" lon="4.68122">
        <ele>200</ele>
        <time>2018-09-23T10:17:15Z</time>
      </trkpt>
      <trkpt lat="45.85692" lon="4.68127">
        <ele>200</ele>
        <time>2018-09-23T10:17:16Z</time>
      </trkpt>
      <trkpt lat="45.85696" lon="4.6813">
        <ele>200</ele>
        <time>2018-09-23T10:17:17Z</time>
      </trkpt>
      <trkpt lat="45.85697" lon="4.68137">
        <ele>200</ele>
        <time>2018-09-23T10:17:18Z</time>
      </trkpt>
      <trkpt lat="45.85702" lon="4.68142">
        <ele>200</ele>
        <time>2018-09-23T10:17:19Z</time>
      </trkpt>
      <trkpt lat="45.85706" lon="4.68146">
        <ele>200</ele>
        <time>2018-09-23T10:17:20Z</time>
      </trkpt>
      <trkpt lat="45.85711" lon="4.6815">
        <ele>200</ele>
        <time>2018-09-23T10:17:21Z</time>
      </trkpt>
      <trkpt lat="45.85715" lon="4.68156">
        <ele>200</ele>
        <time>2018-09-23T10:17:22Z</time>
      </trkpt>
      <trkpt lat="45.85719" lon="4.68162">
        <ele>200</ele>
        <time>2018-09-23T10:17:23Z</time>
      </trkpt>
      <trkpt lat="45.85724" lon="4.68165">
        <ele>200</ele>
        <time>2018-09-23T10:17:24Z</time>
      </trkpt>
      <trkpt lat="45.85728" lon="4.6817">
        <ele>199</ele>
        <time>2018-09-23T10:17:25Z</time>
      </trkpt>
      <trkpt lat="45.85733" lon="4.68174">
        <ele>200</ele>
        <time>2018-09-23T10:17:26Z</time>
      </trkpt>
      <trkpt lat="45.85738" lon="4.68181">
        <ele>200</ele>
        <time>2018-09-23T10:17:27Z</time>
      </trkpt>
      <trkpt lat="45.85742" lon="4.68187">
        <ele>200</ele>
        <time>2018-09-23T10:17:28Z</time>
      </trkpt>
      <trkpt lat="45.85746" lon="4.68193">
        <ele>199</ele>
        <time>2018-09-23T10:17:29Z</time>
      </trkpt>
      <trkpt lat="45.85751" lon="4.68196">
        <ele>202</ele>
        <time>2018-09-23T10:17:30Z</time>
      </trkpt>
      <trkpt lat="45.85755" lon="4.68202">
        <ele>202</ele>
        <time>2018-09-23T10:17:31Z</time>
      </trkpt>
      <trkpt lat="45.85758" lon="4.68207">
        <ele>202</ele>
        <time>2018-09-23T10:17:32Z</time>
      </trkpt>
      <trkpt lat="45.85763" lon="4.68212">
        <ele>202</ele>
        <time>2018-09-23T10:17:33Z</time>
      </trkpt>
      <trkpt lat="45.85766" lon="4.68216">
        <ele>202</ele>
        <time>2018-09-23T10:17:34Z</time>
      </trkpt>
      <trkpt lat="45.8577" lon="4.68222">
        <ele>202</ele>
        <time>2018-09-23T10:17:35Z</time>
      </trkpt>
      <trkpt lat="45.85773" lon="4.68226">
        <ele>202</ele>
        <time>2018-09-23T10:17:36Z</time>
      </trkpt>
      <trkpt lat="45.85777" lon="4.68233">
        <ele>202</ele>
        <time>2018-09-23T10:17:37Z</time>
      </trkpt>
      <trkpt lat="45.85782" lon="4.68239">
        <ele>202</ele>
        <time>2018-09-23T10:17:38Z</time>
      </trkpt>
      <trkpt lat="45.85787" lon="4.68244">
        <ele>202</ele>
        <time>2018-09-23T10:17:39Z</time>
      </trkpt>
      <trkpt lat="45.85792" lon="4.6825">
        <ele>201</ele>
        <time>2018-09-23T10:17:40Z</time>
      </trkpt>
      <trkpt lat="45.85796" lon="4.68256">
        <ele>201</ele>
        <time>2018-09-23T10:17:41Z</time>
      </trkpt>
      <trkpt lat="45.85801" lon="4.68261">
        <ele>201</ele>
        <time>2018-09-23T10:17:42Z</time>
      </trkpt>
      <trkpt lat="45.85804" lon="4.68269">
        <ele>201</ele>
        <time>2018-09-23T10:17:43Z</time>
      </trkpt>
      <trkpt lat="45.85808" lon="4.68276">
        <ele>201</ele>
        <time>2018-09-23T10:17:44Z</time>
      </trkpt>
      <trkpt lat="45.85812" lon="4.68281">
        <ele>201</ele>
        <time>2018-09-23T10:17:45Z</time>
      </trkpt>
      <trkpt lat="45.85815" lon="4.68286">
        <ele>201</ele>
        <time>2018-09-23T10:17:46Z</time>
      </trkpt>
      <trkpt lat="45.85819" lon="4.68291">
        <ele>201</ele>
        <time>2018-09-23T10:17:47Z</time>
      </trkpt>
      <trkpt lat="45.85823" lon="4.68296">
        <ele>201</ele>
        <time>2018-09-23T10:17:48Z</time>
      </trkpt>
      <trkpt lat="45.85826" lon="4.68302">
        <ele>201</ele>
        <time>2018-09-23T10:17:49Z</time>
      </trkpt>
      <trkpt lat="45.8583" lon="4.68307">
        <ele>200</ele>
        <time>2018-09-23T10:17:50Z</time>
      </trkpt>
      <trkpt lat="45.85832" lon="4.68312">
        <ele>200</ele>
        <time>2018-09-23T10:17:51Z</time>
      </trkpt>
      <trkpt lat="45.85834" lon="4.68318">
        <ele>202</ele>
        <time>2018-09-23T10:17:52Z</time>
      </trkpt>
      <trkpt lat="45.85837" lon="4.68324">
        <ele>201</ele>
        <time>2018-09-23T10:17:53Z</time>
      </trkpt>
      <trkpt lat="45.8584" lon="4.68331">
        <ele>201</ele>
        <time>2018-09-23T10:17:54Z</time>
      </trkpt>
      <trkpt lat="45.85842" lon="4.68337">
        <ele>200</ele>
        <time>2018-09-23T10:17:55Z</time>
      </trkpt>
      <trkpt lat="45.85844" lon="4.68343">
        <ele>201</ele>
        <time>2018-09-23T10:17:56Z</time>
      </trkpt>
      <trkpt lat="45.85846" lon="4.68348">
        <ele>201</ele>
        <time>2018-09-23T10:17:57Z</time>
      </trkpt>
      <trkpt lat="45.85851" lon="4.68355">
        <ele>201</ele>
        <time>2018-09-23T10:17:58Z</time>
      </trkpt>
      <trkpt lat="45.85855" lon="4.68362">
        <ele>201</ele>
        <time>2018-09-23T10:17:59Z</time>
      </trkpt>
      <trkpt lat="45.85857" lon="4.68369">
        <ele>201</ele>
        <time>2018-09-23T10:18:00Z</time>
      </trkpt>
      <trkpt lat="45.85861" lon="4.68377">
        <ele>201</ele>
        <time>2018-09-23T10:18:01Z</time>
      </trkpt>
      <trkpt lat="45.85863" lon="4.68384">
        <ele>201</ele>
        <time>2018-09-23T10:18:02Z</time>
      </trkpt>
      <trkpt lat="45.85865" lon="4.68392">
        <ele>201</ele>
        <time>2018-09-23T10:18:03Z</time>
      </trkpt>
      <trkpt lat="45.85864" lon="4.68402">
        <ele>201</ele>
        <time>2018-09-23T10:18:04Z</time>
      </trkpt>
      <trkpt lat="45.85866" lon="4.68409">
        <ele>201</ele>
        <time>2018-09-23T10:18:05Z</time>
      </trkpt>
      <trkpt lat="45.85867" lon="4.68416">
        <ele>201</ele>
        <time>2018-09-23T10:18:06Z</time>
      </trkpt>
      <trkpt lat="45.8587" lon="4.68424">
        <ele>200</ele>
        <time>2018-09-23T10:18:07Z</time>
      </trkpt>
      <trkpt lat="45.85872" lon="4.6843">
        <ele>200</ele>
        <time>2018-09-23T10:18:08Z</time>
      </trkpt>
      <trkpt lat="45.85875" lon="4.68435">
        <ele>201</ele>
        <time>2018-09-23T10:18:09Z</time>
      </trkpt>
      <trkpt lat="45.8588" lon="4.68443">
        <ele>201</ele>
        <time>2018-09-23T10:18:10Z</time>
      </trkpt>
      <trkpt lat="45.85881" lon="4.68449">
        <ele>201</ele>
        <time>2018-09-23T10:18:11Z</time>
      </trkpt>
      <trkpt lat="45.85881" lon="4.68456">
        <ele>201</ele>
        <time>2018-09-23T10:18:12Z</time>
      </trkpt>
      <trkpt lat="45.85883" lon="4.68463">
        <ele>201</ele>
        <time>2018-09-23T10:18:13Z</time>
      </trkpt>
      <trkpt lat="45.85884" lon="4.68472">
        <ele>201</ele>
        <time>2018-09-23T10:18:14Z</time>
      </trkpt>
      <trkpt lat="45.85886" lon="4.68478">
        <ele>201</ele>
        <time>2018-09-23T10:18:15Z</time>
      </trkpt>
      <trkpt lat="45.85887" lon="4.68486">
        <ele>201</ele>
        <time>2018-09-23T10:18:16Z</time>
      </trkpt>
      <trkpt lat="45.85888" lon="4.68492">
        <ele>201</ele>
        <time>2018-09-23T10:18:17Z</time>
      </trkpt>
      <trkpt lat="45.85888" lon="4.68499">
        <ele>201</ele>
        <time>2018-09-23T10:18:18Z</time>
      </trkpt>
      <trkpt lat="45.85889" lon="4.68506">
        <ele>200</ele>
        <time>2018-09-23T10:18:19Z</time>
      </trkpt>
      <trkpt lat="45.8589" lon="4.68518">
        <ele>200</ele>
        <time>2018-09-23T10:18:21Z</time>
      </trkpt>
      <trkpt lat="45.8589" lon="4.68525">
        <ele>200</ele>
        <time>2018-09-23T10:18:22Z</time>
      </trkpt>
      <trkpt lat="45.85891" lon="4.68531">
        <ele>200</ele>
        <time>2018-09-23T10:18:23Z</time>
      </trkpt>
      <trkpt lat="45.85893" lon="4.68538">
        <ele>200</ele>
        <time>2018-09-23T10:18:24Z</time>
      </trkpt>
      <trkpt lat="45.85893" lon="4.68546">
        <ele>200</ele>
        <time>2018-09-23T10:18:25Z</time>
      </trkpt>
      <trkpt lat="45.85894" lon="4.68554">
        <ele>200</ele>
        <time>2018-09-23T10:18:26Z</time>
      </trkpt>
      <trkpt lat="45.85894" lon="4.68562">
        <ele>200</ele>
        <time>2018-09-23T10:18:27Z</time>
      </trkpt>
      <trkpt lat="45.85895" lon="4.68568">
        <ele>200</ele>
        <time>2018-09-23T10:18:28Z</time>
      </trkpt>
      <trkpt lat="45.85894" lon="4.68576">
        <ele>199</ele>
        <time>2018-09-23T10:18:29Z</time>
      </trkpt>
      <trkpt lat="45.85896" lon="4.68583">
        <ele>199</ele>
        <time>2018-09-23T10:18:30Z</time>
      </trkpt>
      <trkpt lat="45.85896" lon="4.68592">
        <ele>199</ele>
        <time>2018-09-23T10:18:31Z</time>
      </trkpt>
      <trkpt lat="45.85898" lon="4.68601">
        <ele>199</ele>
        <time>2018-09-23T10:18:32Z</time>
      </trkpt>
      <trkpt lat="45.85898" lon="4.68608">
        <ele>199</ele>
        <time>2018-09-23T10:18:33Z</time>
      </trkpt>
      <trkpt lat="45.859" lon="4.68615">
        <ele>199</ele>
        <time>2018-09-23T10:18:34Z</time>
      </trkpt>
      <trkpt lat="45.859" lon="4.68623">
        <ele>199</ele>
        <time>2018-09-23T10:18:35Z</time>
      </trkpt>
      <trkpt lat="45.859" lon="4.6863">
        <ele>198</ele>
        <time>2018-09-23T10:18:36Z</time>
      </trkpt>
      <trkpt lat="45.85901" lon="4.68638">
        <ele>198</ele>
        <time>2018-09-23T10:18:37Z</time>
      </trkpt>
      <trkpt lat="45.85901" lon="4.68646">
        <ele>198</ele>
        <time>2018-09-23T10:18:38Z</time>
      </trkpt>
      <trkpt lat="45.85902" lon="4.68654">
        <ele>198</ele>
        <time>2018-09-23T10:18:39Z</time>
      </trkpt>
      <trkpt lat="45.85902" lon="4.68662">
        <ele>198</ele>
        <time>2018-09-23T10:18:40Z</time>
      </trkpt>
      <trkpt lat="45.85902" lon="4.6867">
        <ele>198</ele>
        <time>2018-09-23T10:18:41Z</time>
      </trkpt>
      <trkpt lat="45.85903" lon="4.68678">
        <ele>198</ele>
        <time>2018-09-23T10:18:42Z</time>
      </trkpt>
      <trkpt lat="45.85901" lon="4.68686">
        <ele>198</ele>
        <time>2018-09-23T10:18:43Z</time>
      </trkpt>
      <trkpt lat="45.85901" lon="4.68695">
        <ele>198</ele>
        <time>2018-09-23T10:18:44Z</time>
      </trkpt>
      <trkpt lat="45.85899" lon="4.68701">
        <ele>198</ele>
        <time>2018-09-23T10:18:45Z</time>
      </trkpt>
      <trkpt lat="45.85899" lon="4.68708">
        <ele>198</ele>
        <time>2018-09-23T10:18:46Z</time>
      </trkpt>
      <trkpt lat="45.85898" lon="4.68715">
        <ele>198</ele>
        <time>2018-09-23T10:18:47Z</time>
      </trkpt>
      <trkpt lat="45.85896" lon="4.68722">
        <ele>198</ele>
        <time>2018-09-23T10:18:48Z</time>
      </trkpt>
      <trkpt lat="45.85895" lon="4.68729">
        <ele>198</ele>
        <time>2018-09-23T10:18:49Z</time>
      </trkpt>
      <trkpt lat="45.85892" lon="4.68735">
        <ele>198</ele>
        <time>2018-09-23T10:18:50Z</time>
      </trkpt>
      <trkpt lat="45.85892" lon="4.68744">
        <ele>198</ele>
        <time>2018-09-23T10:18:51Z</time>
      </trkpt>
      <trkpt lat="45.8589" lon="4.68751">
        <ele>198</ele>
        <time>2018-09-23T10:18:52Z</time>
      </trkpt>
      <trkpt lat="45.85888" lon="4.68759">
        <ele>198</ele>
        <time>2018-09-23T10:18:53Z</time>
      </trkpt>
      <trkpt lat="45.85886" lon="4.68764">
        <ele>198</ele>
        <time>2018-09-23T10:18:54Z</time>
      </trkpt>
      <trkpt lat="45.85887" lon="4.68773">
        <ele>198</ele>
        <time>2018-09-23T10:18:55Z</time>
      </trkpt>
      <trkpt lat="45.85887" lon="4.68781">
        <ele>198</ele>
        <time>2018-09-23T10:18:56Z</time>
      </trkpt>
      <trkpt lat="45.85886" lon="4.6879">
        <ele>198</ele>
        <time>2018-09-23T10:18:57Z</time>
      </trkpt>
      <trkpt lat="45.85885" lon="4.68798">
        <ele>198</ele>
        <time>2018-09-23T10:18:58Z</time>
      </trkpt>
      <trkpt lat="45.85884" lon="4.68806">
        <ele>198</ele>
        <time>2018-09-23T10:18:59Z</time>
      </trkpt>
      <trkpt lat="45.85883" lon="4.68812">
        <ele>198</ele>
        <time>2018-09-23T10:19:00Z</time>
      </trkpt>
      <trkpt lat="45.85881" lon="4.6882">
        <ele>198</ele>
        <time>2018-09-23T10:19:01Z</time>
      </trkpt>
      <trkpt lat="45.8588" lon="4.68828">
        <ele>198</ele>
        <time>2018-09-23T10:19:02Z</time>
      </trkpt>
      <trkpt lat="45.8588" lon="4.68838">
        <ele>198</ele>
        <time>2018-09-23T10:19:03Z</time>
      </trkpt>
      <trkpt lat="45.85878" lon="4.68848">
        <ele>198</ele>
        <time>2018-09-23T10:19:04Z</time>
      </trkpt>
      <trkpt lat="45.85877" lon="4.68856">
        <ele>198</ele>
        <time>2018-09-23T10:19:05Z</time>
      </trkpt>
      <trkpt lat="45.85877" lon="4.68864">
        <ele>198</ele>
        <time>2018-09-23T10:19:06Z</time>
      </trkpt>
      <trkpt lat="45.85876" lon="4.68872">
        <ele>198</ele>
        <time>2018-09-23T10:19:07Z</time>
      </trkpt>
      <trkpt lat="45.85875" lon="4.6888">
        <ele>197</ele>
        <time>2018-09-23T10:19:08Z</time>
      </trkpt>
      <trkpt lat="45.85875" lon="4.68887">
        <ele>197</ele>
        <time>2018-09-23T10:19:09Z</time>
      </trkpt>
      <trkpt lat="45.85874" lon="4.68894">
        <ele>197</ele>
        <time>2018-09-23T10:19:10Z</time>
      </trkpt>
      <trkpt lat="45.85874" lon="4.68902">
        <ele>197</ele>
        <time>2018-09-23T10:19:11Z</time>
      </trkpt>
      <trkpt lat="45.85872" lon="4.68908">
        <ele>197</ele>
        <time>2018-09-23T10:19:12Z</time>
      </trkpt>
      <trkpt lat="45.85871" lon="4.68915">
        <ele>197</ele>
        <time>2018-09-23T10:19:13Z</time>
      </trkpt>
      <trkpt lat="45.85871" lon="4.68923">
        <ele>197</ele>
        <time>2018-09-23T10:19:14Z</time>
      </trkpt>
      <trkpt lat="45.85872" lon="4.68934">
        <ele>197</ele>
        <time>2018-09-23T10:19:16Z</time>
      </trkpt>
      <trkpt lat="45.85871" lon="4.68941">
        <ele>197</ele>
        <time>2018-09-23T10:19:17Z</time>
      </trkpt>
      <trkpt lat="45.85871" lon="4.68948">
        <ele>197</ele>
        <time>2018-09-23T10:19:18Z</time>
      </trkpt>
      <trkpt lat="45.85871" lon="4.68957">
        <ele>197</ele>
        <time>2018-09-23T10:19:19Z</time>
      </trkpt>
      <trkpt lat="45.85869" lon="4.68963">
        <ele>197</ele>
        <time>2018-09-23T10:19:20Z</time>
      </trkpt>
      <trkpt lat="45.8587" lon="4.68972">
        <ele>197</ele>
        <time>2018-09-23T10:19:21Z</time>
      </trkpt>
      <trkpt lat="45.85871" lon="4.68978">
        <ele>197</ele>
        <time>2018-09-23T10:19:22Z</time>
      </trkpt>
      <trkpt lat="45.85871" lon="4.68985">
        <ele>197</ele>
        <time>2018-09-23T10:19:23Z</time>
      </trkpt>
      <trkpt lat="45.85874" lon="4.68997">
        <ele>197</ele>
        <time>2018-09-23T10:19:25Z</time>
      </trkpt>
      <trkpt lat="45.85876" lon="4.69004">
        <ele>198</ele>
        <time>2018-09-23T10:19:26Z</time>
      </trkpt>
      <trkpt lat="45.85878" lon="4.69014">
        <ele>198</ele>
        <time>2018-09-23T10:19:27Z</time>
      </trkpt>
      <trkpt lat="45.85881" lon="4.69021">
        <ele>198</ele>
        <time>2018-09-23T10:19:28Z</time>
      </trkpt>
      <trkpt lat="45.85883" lon="4.69028">
        <ele>198</ele>
        <time>2018-09-23T10:19:29Z</time>
      </trkpt>
      <trkpt lat="45.85886" lon="4.69035">
        <ele>198</ele>
        <time>2018-09-23T10:19:30Z</time>
      </trkpt>
      <trkpt lat="45.85888" lon="4.69041">
        <ele>198</ele>
        <time>2018-09-23T10:19:31Z</time>
      </trkpt>
      <trkpt lat="45.85891" lon="4.69047">
        <ele>198</ele>
        <time>2018-09-23T10:19:32Z</time>
      </trkpt>
      <trkpt lat="45.85894" lon="4.69052">
        <ele>198</ele>
        <time>2018-09-23T10:19:33Z</time>
      </trkpt>
      <trkpt lat="45.85897" lon="4.69058">
        <ele>198</ele>
        <time>2018-09-23T10:19:34Z</time>
      </trkpt>
      <trkpt lat="45.85899" lon="4.69062">
        <ele>198</ele>
        <time>2018-09-23T10:19:35Z</time>
      </trkpt>
      <trkpt lat="45.85904" lon="4.69067">
        <ele>198</ele>
        <time>2018-09-23T10:19:36Z</time>
      </trkpt>
      <trkpt lat="45.8591" lon="4.69074">
        <ele>198</ele>
        <time>2018-09-23T10:19:38Z</time>
      </trkpt>
      <trkpt lat="45.85914" lon="4.69078">
        <ele>198</ele>
        <time>2018-09-23T10:19:39Z</time>
      </trkpt>
      <trkpt lat="45.85922" lon="4.69083">
        <ele>198</ele>
        <time>2018-09-23T10:19:41Z</time>
      </trkpt>
      <trkpt lat="45.85926" lon="4.69086">
        <ele>198</ele>
        <time>2018-09-23T10:19:42Z</time>
      </trkpt>
      <trkpt lat="45.85932" lon="4.69088">
        <ele>198</ele>
        <time>2018-09-23T10:19:44Z</time>
      </trkpt>
      <trkpt lat="45.85936" lon="4.6909">
        <ele>197</ele>
        <time>2018-09-23T10:19:45Z</time>
      </trkpt>
      <trkpt lat="45.85942" lon="4.69091">
        <ele>197</ele>
        <time>2018-09-23T10:19:46Z</time>
      </trkpt>
      <trkpt lat="45.85946" lon="4.69093">
        <ele>197</ele>
        <time>2018-09-23T10:19:47Z</time>
      </trkpt>
      <trkpt lat="45.85951" lon="4.69096">
        <ele>197</ele>
        <time>2018-09-23T10:19:48Z</time>
      </trkpt>
      <trkpt lat="45.85955" lon="4.69096">
        <ele>197</ele>
        <time>2018-09-23T10:19:49Z</time>
      </trkpt>
      <trkpt lat="45.8596" lon="4.69096">
        <ele>197</ele>
        <time>2018-09-23T10:19:50Z</time>
      </trkpt>
      <trkpt lat="45.85965" lon="4.69097">
        <ele>197</ele>
        <time>2018-09-23T10:19:51Z</time>
      </trkpt>
      <trkpt lat="45.8597" lon="4.69098">
        <ele>197</ele>
        <time>2018-09-23T10:19:52Z</time>
      </trkpt>
      <trkpt lat="45.85976" lon="4.69098">
        <ele>197</ele>
        <time>2018-09-23T10:19:53Z</time>
      </trkpt>
      <trkpt lat="45.85981" lon="4.69098">
        <ele>197</ele>
        <time>2018-09-23T10:19:54Z</time>
      </trkpt>
      <trkpt lat="45.85986" lon="4.69098">
        <ele>197</ele>
        <time>2018-09-23T10:19:55Z</time>
      </trkpt>
      <trkpt lat="45.85991" lon="4.69098">
        <ele>196</ele>
        <time>2018-09-23T10:19:56Z</time>
      </trkpt>
      <trkpt lat="45.85997" lon="4.69097">
        <ele>196</ele>
        <time>2018-09-23T10:19:57Z</time>
      </trkpt>
      <trkpt lat="45.86002" lon="4.69097">
        <ele>196</ele>
        <time>2018-09-23T10:19:58Z</time>
      </trkpt>
      <trkpt lat="45.86008" lon="4.69095">
        <ele>197</ele>
        <time>2018-09-23T10:19:59Z</time>
      </trkpt>
      <trkpt lat="45.86013" lon="4.69094">
        <ele>197</ele>
        <time>2018-09-23T10:20:00Z</time>
      </trkpt>
      <trkpt lat="45.86017" lon="4.69094">
        <ele>197</ele>
        <time>2018-09-23T10:20:01Z</time>
      </trkpt>
      <trkpt lat="45.86022" lon="4.69094">
        <ele>197</ele>
        <time>2018-09-23T10:20:02Z</time>
      </trkpt>
      <trkpt lat="45.86026" lon="4.69094">
        <ele>197</ele>
        <time>2018-09-23T10:20:03Z</time>
      </trkpt>
      <trkpt lat="45.86034" lon="4.69094">
        <ele>197</ele>
        <time>2018-09-23T10:20:05Z</time>
      </trkpt>
      <trkpt lat="45.86039" lon="4.69096">
        <ele>197</ele>
        <time>2018-09-23T10:20:06Z</time>
      </trkpt>
      <trkpt lat="45.86044" lon="4.69096">
        <ele>197</ele>
        <time>2018-09-23T10:20:07Z</time>
      </trkpt>
      <trkpt lat="45.8605" lon="4.69095">
        <ele>197</ele>
        <time>2018-09-23T10:20:08Z</time>
      </trkpt>
      <trkpt lat="45.86055" lon="4.69094">
        <ele>197</ele>
        <time>2018-09-23T10:20:09Z</time>
      </trkpt>
      <trkpt lat="45.8606" lon="4.69092">
        <ele>197</ele>
        <time>2018-09-23T10:20:10Z</time>
      </trkpt>
      <trkpt lat="45.86063" lon="4.69088">
        <ele>198</ele>
        <time>2018-09-23T10:20:11Z</time>
      </trkpt>
      <trkpt lat="45.86069" lon="4.69087">
        <ele>198</ele>
        <time>2018-09-23T10:20:12Z</time>
      </trkpt>
      <trkpt lat="45.86074" lon="4.69088">
        <ele>198</ele>
        <time>2018-09-23T10:20:13Z</time>
      </trkpt>
      <trkpt lat="45.86079" lon="4.69088">
        <ele>198</ele>
        <time>2018-09-23T10:20:14Z</time>
      </trkpt>
      <trkpt lat="45.86083" lon="4.69086">
        <ele>198</ele>
        <time>2018-09-23T10:20:15Z</time>
      </trkpt>
      <trkpt lat="45.86088" lon="4.69086">
        <ele>199</ele>
        <time>2018-09-23T10:20:16Z</time>
      </trkpt>
      <trkpt lat="45.86093" lon="4.69086">
        <ele>199</ele>
        <time>2018-09-23T10:20:17Z</time>
      </trkpt>
      <trkpt lat="45.86098" lon="4.69085">
        <ele>200</ele>
        <time>2018-09-23T10:20:18Z</time>
      </trkpt>
      <trkpt lat="45.86104" lon="4.69083">
        <ele>201</ele>
        <time>2018-09-23T10:20:19Z</time>
      </trkpt>
      <trkpt lat="45.86109" lon="4.69081">
        <ele>201</ele>
        <time>2018-09-23T10:20:20Z</time>
      </trkpt>
      <trkpt lat="45.86113" lon="4.69082">
        <ele>202</ele>
        <time>2018-09-23T10:20:21Z</time>
      </trkpt>
      <trkpt lat="45.86118" lon="4.69082">
        <ele>202</ele>
        <time>2018-09-23T10:20:22Z</time>
      </trkpt>
      <trkpt lat="45.86124" lon="4.69081">
        <ele>203</ele>
        <time>2018-09-23T10:20:24Z</time>
      </trkpt>
      <trkpt lat="45.86129" lon="4.69081">
        <ele>203</ele>
        <time>2018-09-23T10:20:25Z</time>
      </trkpt>
      <trkpt lat="45.86136" lon="4.69082">
        <ele>203</ele>
        <time>2018-09-23T10:20:28Z</time>
      </trkpt>
      <trkpt lat="45.86139" lon="4.69081">
        <ele>203</ele>
        <time>2018-09-23T10:20:29Z</time>
      </trkpt>
      <trkpt lat="45.86147" lon="4.69081">
        <ele>204</ele>
        <time>2018-09-23T10:20:32Z</time>
      </trkpt>
      <trkpt lat="45.8615" lon="4.6908">
        <ele>204</ele>
        <time>2018-09-23T10:20:33Z</time>
      </trkpt>
      <trkpt lat="45.86158" lon="4.69079">
        <ele>204</ele>
        <time>2018-09-23T10:20:36Z</time>
      </trkpt>
      <trkpt lat="45.86161" lon="4.69079">
        <ele>205</ele>
        <time>2018-09-23T10:20:37Z</time>
      </trkpt>
      <trkpt lat="45.86168" lon="4.69079">
        <ele>206</ele>
        <time>2018-09-23T10:20:40Z</time>
      </trkpt>
      <trkpt lat="45.8617" lon="4.6908">
        <ele>206</ele>
        <time>2018-09-23T10:20:41Z</time>
      </trkpt>
      <trkpt lat="45.86178" lon="4.69081">
        <ele>207</ele>
        <time>2018-09-23T10:20:44Z</time>
      </trkpt>
      <trkpt lat="45.86181" lon="4.69081">
        <ele>207</ele>
        <time>2018-09-23T10:20:45Z</time>
      </trkpt>
      <trkpt lat="45.8619" lon="4.69081">
        <ele>208</ele>
        <time>2018-09-23T10:20:48Z</time>
      </trkpt>
      <trkpt lat="45.86192" lon="4.69081">
        <ele>209</ele>
        <time>2018-09-23T10:20:49Z</time>
      </trkpt>
      <trkpt lat="45.86201" lon="4.69081">
        <ele>209</ele>
        <time>2018-09-23T10:20:52Z</time>
      </trkpt>
      <trkpt lat="45.86203" lon="4.69081">
        <ele>209</ele>
        <time>2018-09-23T10:20:53Z</time>
      </trkpt>
      <trkpt lat="45.86212" lon="4.69081">
        <ele>210</ele>
        <time>2018-09-23T10:20:57Z</time>
      </trkpt>
      <trkpt lat="45.86215" lon="4.69081">
        <ele>210</ele>
        <time>2018-09-23T10:20:58Z</time>
      </trkpt>
      <trkpt lat="45.86222" lon="4.6908">
        <ele>210</ele>
        <time>2018-09-23T10:21:01Z</time>
      </trkpt>
      <trkpt lat="45.86224" lon="4.69081">
        <ele>210</ele>
        <time>2018-09-23T10:21:02Z</time>
      </trkpt>
      <trkpt lat="45.86231" lon="4.69081">
        <ele>211</ele>
        <time>2018-09-23T10:21:04Z</time>
      </trkpt>
      <trkpt lat="45.86234" lon="4.69082">
        <ele>211</ele>
        <time>2018-09-23T10:21:05Z</time>
      </trkpt>
      <trkpt lat="45.86242" lon="4.69082">
        <ele>211</ele>
        <time>2018-09-23T10:21:08Z</time>
      </trkpt>
      <trkpt lat="45.86244" lon="4.69083">
        <ele>211</ele>
        <time>2018-09-23T10:21:09Z</time>
      </trkpt>
      <trkpt lat="45.86253" lon="4.69084">
        <ele>211</ele>
        <time>2018-09-23T10:21:12Z</time>
      </trkpt>
      <trkpt lat="45.86256" lon="4.69085">
        <ele>212</ele>
        <time>2018-09-23T10:21:13Z</time>
      </trkpt>
      <trkpt lat="45.86264" lon="4.69086">
        <ele>212</ele>
        <time>2018-09-23T10:21:16Z</time>
      </trkpt>
      <trkpt lat="45.86267" lon="4.69087">
        <ele>212</ele>
        <time>2018-09-23T10:21:17Z</time>
      </trkpt>
      <trkpt lat="45.86275" lon="4.69091">
        <ele>213</ele>
        <time>2018-09-23T10:21:20Z</time>
      </trkpt>
      <trkpt lat="45.86278" lon="4.69093">
        <ele>213</ele>
        <time>2018-09-23T10:21:21Z</time>
      </trkpt>
      <trkpt lat="45.86284" lon="4.69095">
        <ele>213</ele>
        <time>2018-09-23T10:21:23Z</time>
      </trkpt>
      <trkpt lat="45.86287" lon="4.69097">
        <ele>213</ele>
        <time>2018-09-23T10:21:24Z</time>
      </trkpt>
      <trkpt lat="45.86295" lon="4.69102">
        <ele>214</ele>
        <time>2018-09-23T10:21:27Z</time>
      </trkpt>
      <trkpt lat="45.86298" lon="4.69103">
        <ele>214</ele>
        <time>2018-09-23T10:21:28Z</time>
      </trkpt>
      <trkpt lat="45.86305" lon="4.69109">
        <ele>214</ele>
        <time>2018-09-23T10:21:31Z</time>
      </trkpt>
      <trkpt lat="45.86308" lon="4.69111">
        <ele>214</ele>
        <time>2018-09-23T10:21:32Z</time>
      </trkpt>
      <trkpt lat="45.86314" lon="4.69117">
        <ele>214</ele>
        <time>2018-09-23T10:21:35Z</time>
      </trkpt>
      <trkpt lat="45.86316" lon="4.6912">
        <ele>214</ele>
        <time>2018-09-23T10:21:36Z</time>
      </trkpt>
      <trkpt lat="45.86323" lon="4.69128">
        <ele>215</ele>
        <time>2018-09-23T10:21:39Z</time>
      </trkpt>
      <trkpt lat="45.86325" lon="4.69131">
        <ele>215</ele>
        <time>2018-09-23T10:21:40Z</time>
      </trkpt>
      <trkpt lat="45.86331" lon="4.69139">
        <ele>215</ele>
        <time>2018-09-23T10:21:43Z</time>
      </trkpt>
      <trkpt lat="45.86333" lon="4.69142">
        <ele>215</ele>
        <time>2018-09-23T10:21:44Z</time>
      </trkpt>
      <trkpt lat="45.86338" lon="4.69151">
        <ele>217</ele>
        <time>2018-09-23T10:21:47Z</time>
      </trkpt>
      <trkpt lat="45.8634" lon="4.69154">
        <ele>217</ele>
        <time>2018-09-23T10:21:48Z</time>
      </trkpt>
      <trkpt lat="45.86345" lon="4.69164">
        <ele>217</ele>
        <time>2018-09-23T10:21:51Z</time>
      </trkpt>
      <trkpt lat="45.86347" lon="4.69167">
        <ele>218</ele>
        <time>2018-09-23T10:21:52Z</time>
      </trkpt>
      <trkpt lat="45.86352" lon="4.69176">
        <ele>218</ele>
        <time>2018-09-23T10:21:55Z</time>
      </trkpt>
      <trkpt lat="45.86354" lon="4.69179">
        <ele>218</ele>
        <time>2018-09-23T10:21:56Z</time>
      </trkpt>
      <trkpt lat="45.86359" lon="4.69189">
        <ele>218</ele>
        <time>2018-09-23T10:21:59Z</time>
      </trkpt>
      <trkpt lat="45.86361" lon="4.69193">
        <ele>218</ele>
        <time>2018-09-23T10:22:00Z</time>
      </trkpt>
      <trkpt lat="45.86365" lon="4.69199">
        <ele>219</ele>
        <time>2018-09-23T10:22:02Z</time>
      </trkpt>
      <trkpt lat="45.86367" lon="4.69203">
        <ele>219</ele>
        <time>2018-09-23T10:22:03Z</time>
      </trkpt>
      <trkpt lat="45.86371" lon="4.6921">
        <ele>219</ele>
        <time>2018-09-23T10:22:05Z</time>
      </trkpt>
      <trkpt lat="45.86372" lon="4.69213">
        <ele>219</ele>
        <time>2018-09-23T10:22:06Z</time>
      </trkpt>
      <trkpt lat="45.86376" lon="4.69221">
        <ele>219</ele>
        <time>2018-09-23T10:22:08Z</time>
      </trkpt>
      <trkpt lat="45.86381" lon="4.69232">
        <ele>219</ele>
        <time>2018-09-23T10:22:09Z</time>
      </trkpt>
      <trkpt lat="45.86384" lon="4.69237">
        <ele>219</ele>
        <time>2018-09-23T10:22:11Z</time>
      </trkpt>
      <trkpt lat="45.86387" lon="4.69244">
        <ele>219</ele>
        <time>2018-09-23T10:22:12Z</time>
      </trkpt>
      <trkpt lat="45.86391" lon="4.69253">
        <ele>219</ele>
        <time>2018-09-23T10:22:14Z</time>
      </trkpt>
      <trkpt lat="45.86393" lon="4.69258">
        <ele>220</ele>
        <time>2018-09-23T10:22:15Z</time>
      </trkpt>
      <trkpt lat="45.86398" lon="4.69267">
        <ele>219</ele>
        <time>2018-09-23T10:22:17Z</time>
      </trkpt>
      <trkpt lat="45.86401" lon="4.69272">
        <ele>219</ele>
        <time>2018-09-23T10:22:18Z</time>
      </trkpt>
      <trkpt lat="45.86405" lon="4.69282">
        <ele>219</ele>
        <time>2018-09-23T10:22:20Z</time>
      </trkpt>
      <trkpt lat="45.86407" lon="4.69285">
        <ele>219</ele>
        <time>2018-09-23T10:22:21Z</time>
      </trkpt>
      <trkpt lat="45.8641" lon="4.69291">
        <ele>219</ele>
        <time>2018-09-23T10:22:22Z</time>
      </trkpt>
      <trkpt lat="45.86412" lon="4.69296">
        <ele>219</ele>
        <time>2018-09-23T10:22:23Z</time>
      </trkpt>
      <trkpt lat="45.86414" lon="4.69301">
        <ele>219</ele>
        <time>2018-09-23T10:22:24Z</time>
      </trkpt>
      <trkpt lat="45.86417" lon="4.69306">
        <ele>220</ele>
        <time>2018-09-23T10:22:25Z</time>
      </trkpt>
      <trkpt lat="45.86422" lon="4.69317">
        <ele>219</ele>
        <time>2018-09-23T10:22:27Z</time>
      </trkpt>
      <trkpt lat="45.86424" lon="4.69323">
        <ele>219</ele>
        <time>2018-09-23T10:22:28Z</time>
      </trkpt>
      <trkpt lat="45.86427" lon="4.69329">
        <ele>219</ele>
        <time>2018-09-23T10:22:29Z</time>
      </trkpt>
      <trkpt lat="45.8643" lon="4.69335">
        <ele>219</ele>
        <time>2018-09-23T10:22:30Z</time>
      </trkpt>
      <trkpt lat="45.86432" lon="4.69341">
        <ele>219</ele>
        <time>2018-09-23T10:22:31Z</time>
      </trkpt>
      <trkpt lat="45.86434" lon="4.69348">
        <ele>219</ele>
        <time>2018-09-23T10:22:32Z</time>
      </trkpt>
      <trkpt lat="45.86437" lon="4.69354">
        <ele>219</ele>
        <time>2018-09-23T10:22:33Z</time>
      </trkpt>
      <trkpt lat="45.8644" lon="4.69363">
        <ele>219</ele>
        <time>2018-09-23T10:22:34Z</time>
      </trkpt>
      <trkpt lat="45.86443" lon="4.6937">
        <ele>219</ele>
        <time>2018-09-23T10:22:35Z</time>
      </trkpt>
      <trkpt lat="45.86448" lon="4.69377">
        <ele>219</ele>
        <time>2018-09-23T10:22:36Z</time>
      </trkpt>
      <trkpt lat="45.8645" lon="4.69383">
        <ele>219</ele>
        <time>2018-09-23T10:22:37Z</time>
      </trkpt>
      <trkpt lat="45.86454" lon="4.69388">
        <ele>219</ele>
        <time>2018-09-23T10:22:38Z</time>
      </trkpt>
      <trkpt lat="45.8646" lon="4.69396">
        <ele>219</ele>
        <time>2018-09-23T10:22:40Z</time>
      </trkpt>
      <trkpt lat="45.86462" lon="4.69402">
        <ele>219</ele>
        <time>2018-09-23T10:22:41Z</time>
      </trkpt>
      <trkpt lat="45.86466" lon="4.69408">
        <ele>219</ele>
        <time>2018-09-23T10:22:42Z</time>
      </trkpt>
      <trkpt lat="45.86469" lon="4.69414">
        <ele>219</ele>
        <time>2018-09-23T10:22:43Z</time>
      </trkpt>
      <trkpt lat="45.86471" lon="4.6942">
        <ele>218</ele>
        <time>2018-09-23T10:22:44Z</time>
      </trkpt>
      <trkpt lat="45.86474" lon="4.69426">
        <ele>218</ele>
        <time>2018-09-23T10:22:45Z</time>
      </trkpt>
      <trkpt lat="45.86478" lon="4.69431">
        <ele>218</ele>
        <time>2018-09-23T10:22:46Z</time>
      </trkpt>
      <trkpt lat="45.8648" lon="4.69437">
        <ele>218</ele>
        <time>2018-09-23T10:22:47Z</time>
      </trkpt>
      <trkpt lat="45.86483" lon="4.69441">
        <ele>218</ele>
        <time>2018-09-23T10:22:48Z</time>
      </trkpt>
      <trkpt lat="45.86486" lon="4.69447">
        <ele>218</ele>
        <time>2018-09-23T10:22:49Z</time>
      </trkpt>
      <trkpt lat="45.86489" lon="4.69451">
        <ele>218</ele>
        <time>2018-09-23T10:22:50Z</time>
      </trkpt>
      <trkpt lat="45.86492" lon="4.69456">
        <ele>218</ele>
        <time>2018-09-23T10:22:51Z</time>
      </trkpt>
      <trkpt lat="45.86495" lon="4.69461">
        <ele>218</ele>
        <time>2018-09-23T10:22:52Z</time>
      </trkpt>
      <trkpt lat="45.86499" lon="4.69467">
        <ele>218</ele>
        <time>2018-09-23T10:22:53Z</time>
      </trkpt>
      <trkpt lat="45.86502" lon="4.69472">
        <ele>219</ele>
        <time>2018-09-23T10:22:54Z</time>
      </trkpt>
      <trkpt lat="45.86506" lon="4.69477">
        <ele>219</ele>
        <time>2018-09-23T10:22:55Z</time>
      </trkpt>
      <trkpt lat="45.86512" lon="4.69483">
        <ele>219</ele>
        <time>2018-09-23T10:22:57Z</time>
      </trkpt>
      <trkpt lat="45.86517" lon="4.69487">
        <ele>219</ele>
        <time>2018-09-23T10:22:58Z</time>
      </trkpt>
      <trkpt lat="45.86521" lon="4.69492">
        <ele>219</ele>
        <time>2018-09-23T10:22:59Z</time>
      </trkpt>
      <trkpt lat="45.86523" lon="4.69498">
        <ele>219</ele>
        <time>2018-09-23T10:23:00Z</time>
      </trkpt>
      <trkpt lat="45.86527" lon="4.69502">
        <ele>219</ele>
        <time>2018-09-23T10:23:01Z</time>
      </trkpt>
      <trkpt lat="45.86532" lon="4.69509">
        <ele>219</ele>
        <time>2018-09-23T10:23:02Z</time>
      </trkpt>
      <trkpt lat="45.86535" lon="4.69514">
        <ele>219</ele>
        <time>2018-09-23T10:23:03Z</time>
      </trkpt>
      <trkpt lat="45.86538" lon="4.69521">
        <ele>219</ele>
        <time>2018-09-23T10:23:04Z</time>
      </trkpt>
      <trkpt lat="45.86541" lon="4.69527">
        <ele>219</ele>
        <time>2018-09-23T10:23:05Z</time>
      </trkpt>
      <trkpt lat="45.86544" lon="4.69532">
        <ele>219</ele>
        <time>2018-09-23T10:23:06Z</time>
      </trkpt>
      <trkpt lat="45.8655" lon="4.69541">
        <ele>219</ele>
        <time>2018-09-23T10:23:08Z</time>
      </trkpt>
      <trkpt lat="45.86553" lon="4.69545">
        <ele>219</ele>
        <time>2018-09-23T10:23:09Z</time>
      </trkpt>
      <trkpt lat="45.86557" lon="4.69551">
        <ele>219</ele>
        <time>2018-09-23T10:23:10Z</time>
      </trkpt>
      <trkpt lat="45.86561" lon="4.69557">
        <ele>219</ele>
        <time>2018-09-23T10:23:11Z</time>
      </trkpt>
      <trkpt lat="45.86564" lon="4.69562">
        <ele>219</ele>
        <time>2018-09-23T10:23:12Z</time>
      </trkpt>
      <trkpt lat="45.86569" lon="4.69566">
        <ele>219</ele>
        <time>2018-09-23T10:23:13Z</time>
      </trkpt>
      <trkpt lat="45.86573" lon="4.69572">
        <ele>219</ele>
        <time>2018-09-23T10:23:14Z</time>
      </trkpt>
      <trkpt lat="45.86577" lon="4.69578">
        <ele>219</ele>
        <time>2018-09-23T10:23:15Z</time>
      </trkpt>
      <trkpt lat="45.86582" lon="4.69583">
        <ele>219</ele>
        <time>2018-09-23T10:23:16Z</time>
      </trkpt>
      <trkpt lat="45.86586" lon="4.69587">
        <ele>219</ele>
        <time>2018-09-23T10:23:17Z</time>
      </trkpt>
      <trkpt lat="45.8659" lon="4.69593">
        <ele>219</ele>
        <time>2018-09-23T10:23:18Z</time>
      </trkpt>
      <trkpt lat="45.86593" lon="4.69599">
        <ele>219</ele>
        <time>2018-09-23T10:23:19Z</time>
      </trkpt>
      <trkpt lat="45.86596" lon="4.69606">
        <ele>219</ele>
        <time>2018-09-23T10:23:20Z</time>
      </trkpt>
      <trkpt lat="45.866" lon="4.69612">
        <ele>219</ele>
        <time>2018-09-23T10:23:21Z</time>
      </trkpt>
      <trkpt lat="45.86604" lon="4.69617">
        <ele>219</ele>
        <time>2018-09-23T10:23:22Z</time>
      </trkpt>
      <trkpt lat="45.86607" lon="4.69622">
        <ele>219</ele>
        <time>2018-09-23T10:23:23Z</time>
      </trkpt>
      <trkpt lat="45.86611" lon="4.69625">
        <ele>219</ele>
        <time>2018-09-23T10:23:24Z</time>
      </trkpt>
      <trkpt lat="45.86614" lon="4.69631">
        <ele>219</ele>
        <time>2018-09-23T10:23:25Z</time>
      </trkpt>
      <trkpt lat="45.86616" lon="4.69636">
        <ele>219</ele>
        <time>2018-09-23T10:23:26Z</time>
      </trkpt>
      <trkpt lat="45.86619" lon="4.69642">
        <ele>219</ele>
        <time>2018-09-23T10:23:27Z</time>
      </trkpt>
      <trkpt lat="45.86624" lon="4.69648">
        <ele>219</ele>
        <time>2018-09-23T10:23:28Z</time>
      </trkpt>
      <trkpt lat="45.86628" lon="4.69653">
        <ele>218</ele>
        <time>2018-09-23T10:23:29Z</time>
      </trkpt>
      <trkpt lat="45.86632" lon="4.69659">
        <ele>218</ele>
        <time>2018-09-23T10:23:30Z</time>
      </trkpt>
      <trkpt lat="45.86636" lon="4.69665">
        <ele>218</ele>
        <time>2018-09-23T10:23:31Z</time>
      </trkpt>
      <trkpt lat="45.86639" lon="4.6967">
        <ele>218</ele>
        <time>2018-09-23T10:23:32Z</time>
      </trkpt>
      <trkpt lat="45.86644" lon="4.69676">
        <ele>218</ele>
        <time>2018-09-23T10:23:33Z</time>
      </trkpt>
      <trkpt lat="45.86651" lon="4.6968">
        <ele>218</ele>
        <time>2018-09-23T10:23:34Z</time>
      </trkpt>
      <trkpt lat="45.86655" lon="4.69686">
        <ele>218</ele>
        <time>2018-09-23T10:23:35Z</time>
      </trkpt>
      <trkpt lat="45.8666" lon="4.69691">
        <ele>218</ele>
        <time>2018-09-23T10:23:36Z</time>
      </trkpt>
      <trkpt lat="45.86664" lon="4.69696">
        <ele>218</ele>
        <time>2018-09-23T10:23:37Z</time>
      </trkpt>
      <trkpt lat="45.86669" lon="4.69701">
        <ele>217</ele>
        <time>2018-09-23T10:23:38Z</time>
      </trkpt>
      <trkpt lat="45.86674" lon="4.69702">
        <ele>217</ele>
        <time>2018-09-23T10:23:39Z</time>
      </trkpt>
      <trkpt lat="45.86679" lon="4.69708">
        <ele>217</ele>
        <time>2018-09-23T10:23:40Z</time>
      </trkpt>
      <trkpt lat="45.86683" lon="4.69713">
        <ele>217</ele>
        <time>2018-09-23T10:23:41Z</time>
      </trkpt>
      <trkpt lat="45.86687" lon="4.69715">
        <ele>217</ele>
        <time>2018-09-23T10:23:42Z</time>
      </trkpt>
      <trkpt lat="45.8669" lon="4.69721">
        <ele>217</ele>
        <time>2018-09-23T10:23:43Z</time>
      </trkpt>
      <trkpt lat="45.86693" lon="4.69726">
        <ele>217</ele>
        <time>2018-09-23T10:23:44Z</time>
      </trkpt>
      <trkpt lat="45.86698" lon="4.6973">
        <ele>217</ele>
        <time>2018-09-23T10:23:45Z</time>
      </trkpt>
      <trkpt lat="45.86702" lon="4.69735">
        <ele>217</ele>
        <time>2018-09-23T10:23:46Z</time>
      </trkpt>
      <trkpt lat="45.86707" lon="4.69739">
        <ele>217</ele>
        <time>2018-09-23T10:23:47Z</time>
      </trkpt>
      <trkpt lat="45.86711" lon="4.69743">
        <ele>217</ele>
        <time>2018-09-23T10:23:48Z</time>
      </trkpt>
      <trkpt lat="45.86716" lon="4.69747">
        <ele>217</ele>
        <time>2018-09-23T10:23:49Z</time>
      </trkpt>
      <trkpt lat="45.86719" lon="4.6975">
        <ele>217</ele>
        <time>2018-09-23T10:23:50Z</time>
      </trkpt>
      <trkpt lat="45.86726" lon="4.69757">
        <ele>217</ele>
        <time>2018-09-23T10:23:51Z</time>
      </trkpt>
      <trkpt lat="45.86731" lon="4.69761">
        <ele>217</ele>
        <time>2018-09-23T10:23:52Z</time>
      </trkpt>
      <trkpt lat="45.86735" lon="4.69766">
        <ele>217</ele>
        <time>2018-09-23T10:23:53Z</time>
      </trkpt>
      <trkpt lat="45.8674" lon="4.69771">
        <ele>217</ele>
        <time>2018-09-23T10:23:54Z</time>
      </trkpt>
      <trkpt lat="45.86746" lon="4.69775">
        <ele>217</ele>
        <time>2018-09-23T10:23:55Z</time>
      </trkpt>
      <trkpt lat="45.86751" lon="4.6978">
        <ele>217</ele>
        <time>2018-09-23T10:23:56Z</time>
      </trkpt>
      <trkpt lat="45.86753" lon="4.69786">
        <ele>217</ele>
        <time>2018-09-23T10:23:57Z</time>
      </trkpt>
      <trkpt lat="45.86757" lon="4.6979">
        <ele>217</ele>
        <time>2018-09-23T10:23:58Z</time>
      </trkpt>
      <trkpt lat="45.86763" lon="4.69793">
        <ele>217</ele>
        <time>2018-09-23T10:23:59Z</time>
      </trkpt>
      <trkpt lat="45.86769" lon="4.69797">
        <ele>217</ele>
        <time>2018-09-23T10:24:00Z</time>
      </trkpt>
      <trkpt lat="45.86774" lon="4.69801">
        <ele>217</ele>
        <time>2018-09-23T10:24:01Z</time>
      </trkpt>
      <trkpt lat="45.86779" lon="4.69807">
        <ele>217</ele>
        <time>2018-09-23T10:24:02Z</time>
      </trkpt>
      <trkpt lat="45.86784" lon="4.69811">
        <ele>217</ele>
        <time>2018-09-23T10:24:03Z</time>
      </trkpt>
      <trkpt lat="45.8679" lon="4.69816">
        <ele>217</ele>
        <time>2018-09-23T10:24:04Z</time>
      </trkpt>
      <trkpt lat="45.86795" lon="4.69821">
        <ele>217</ele>
        <time>2018-09-23T10:24:05Z</time>
      </trkpt>
      <trkpt lat="45.86799" lon="4.69825">
        <ele>217</ele>
        <time>2018-09-23T10:24:06Z</time>
      </trkpt>
      <trkpt lat="45.86805" lon="4.6983">
        <ele>217</ele>
        <time>2018-09-23T10:24:07Z</time>
      </trkpt>
      <trkpt lat="45.8681" lon="4.69835">
        <ele>217</ele>
        <time>2018-09-23T10:24:08Z</time>
      </trkpt>
      <trkpt lat="45.86814" lon="4.6984">
        <ele>217</ele>
        <time>2018-09-23T10:24:09Z</time>
      </trkpt>
      <trkpt lat="45.86818" lon="4.69849">
        <ele>217</ele>
        <time>2018-09-23T10:24:10Z</time>
      </trkpt>
      <trkpt lat="45.86821" lon="4.69852">
        <ele>217</ele>
        <time>2018-09-23T10:24:11Z</time>
      </trkpt>
      <trkpt lat="45.86828" lon="4.69857">
        <ele>217</ele>
        <time>2018-09-23T10:24:13Z</time>
      </trkpt>
      <trkpt lat="45.86832" lon="4.69861">
        <ele>216</ele>
        <time>2018-09-23T10:24:14Z</time>
      </trkpt>
      <trkpt lat="45.86836" lon="4.69865">
        <ele>217</ele>
        <time>2018-09-23T10:24:15Z</time>
      </trkpt>
      <trkpt lat="45.8684" lon="4.69869">
        <ele>217</ele>
        <time>2018-09-23T10:24:16Z</time>
      </trkpt>
      <trkpt lat="45.86847" lon="4.69875">
        <ele>217</ele>
        <time>2018-09-23T10:24:17Z</time>
      </trkpt>
      <trkpt lat="45.86852" lon="4.69879">
        <ele>217</ele>
        <time>2018-09-23T10:24:18Z</time>
      </trkpt>
      <trkpt lat="45.86857" lon="4.69883">
        <ele>217</ele>
        <time>2018-09-23T10:24:19Z</time>
      </trkpt>
      <trkpt lat="45.86862" lon="4.69887">
        <ele>217</ele>
        <time>2018-09-23T10:24:20Z</time>
      </trkpt>
      <trkpt lat="45.86867" lon="4.69892">
        <ele>217</ele>
        <time>2018-09-23T10:24:21Z</time>
      </trkpt>
      <trkpt lat="45.86871" lon="4.69896">
        <ele>217</ele>
        <time>2018-09-23T10:24:22Z</time>
      </trkpt>
      <trkpt lat="45.86877" lon="4.69905">
        <ele>217</ele>
        <time>2018-09-23T10:24:24Z</time>
      </trkpt>
      <trkpt lat="45.86881" lon="4.69909">
        <ele>217</ele>
        <time>2018-09-23T10:24:25Z</time>
      </trkpt>
      <trkpt lat="45.86886" lon="4.69912">
        <ele>217</ele>
        <time>2018-09-23T10:24:26Z</time>
      </trkpt>
      <trkpt lat="45.8689" lon="4.69916">
        <ele>217</ele>
        <time>2018-09-23T10:24:27Z</time>
      </trkpt>
      <trkpt lat="45.86898" lon="4.69922">
        <ele>217</ele>
        <time>2018-09-23T10:24:29Z</time>
      </trkpt>
      <trkpt lat="45.86903" lon="4.69924">
        <ele>217</ele>
        <time>2018-09-23T10:24:30Z</time>
      </trkpt>
      <trkpt lat="45.86911" lon="4.6993">
        <ele>217</ele>
        <time>2018-09-23T10:24:32Z</time>
      </trkpt>
      <trkpt lat="45.86915" lon="4.69932">
        <ele>217</ele>
        <time>2018-09-23T10:24:33Z</time>
      </trkpt>
      <trkpt lat="45.86918" lon="4.69937">
        <ele>217</ele>
        <time>2018-09-23T10:24:34Z</time>
      </trkpt>
      <trkpt lat="45.86922" lon="4.69941">
        <ele>217</ele>
        <time>2018-09-23T10:24:35Z</time>
      </trkpt>
      <trkpt lat="45.86929" lon="4.69948">
        <ele>217</ele>
        <time>2018-09-23T10:24:37Z</time>
      </trkpt>
      <trkpt lat="45.86934" lon="4.6995">
        <ele>217</ele>
        <time>2018-09-23T10:24:38Z</time>
      </trkpt>
      <trkpt lat="45.86939" lon="4.69953">
        <ele>217</ele>
        <time>2018-09-23T10:24:39Z</time>
      </trkpt>
      <trkpt lat="45.86944" lon="4.69956">
        <ele>217</ele>
        <time>2018-09-23T10:24:40Z</time>
      </trkpt>
      <trkpt lat="45.86949" lon="4.69959">
        <ele>217</ele>
        <time>2018-09-23T10:24:41Z</time>
      </trkpt>
      <trkpt lat="45.86953" lon="4.69962">
        <ele>217</ele>
        <time>2018-09-23T10:24:42Z</time>
      </trkpt>
      <trkpt lat="45.86959" lon="4.69965">
        <ele>217</ele>
        <time>2018-09-23T10:24:43Z</time>
      </trkpt>
      <trkpt lat="45.86964" lon="4.6997">
        <ele>217</ele>
        <time>2018-09-23T10:24:44Z</time>
      </trkpt>
      <trkpt lat="45.86967" lon="4.69975">
        <ele>217</ele>
        <time>2018-09-23T10:24:45Z</time>
      </trkpt>
      <trkpt lat="45.8697" lon="4.6998">
        <ele>217</ele>
        <time>2018-09-23T10:24:46Z</time>
      </trkpt>
      <trkpt lat="45.86977" lon="4.69987">
        <ele>217</ele>
        <time>2018-09-23T10:24:48Z</time>
      </trkpt>
      <trkpt lat="45.86979" lon="4.69992">
        <ele>217</ele>
        <time>2018-09-23T10:24:49Z</time>
      </trkpt>
      <trkpt lat="45.86985" lon="4.7">
        <ele>217</ele>
        <time>2018-09-23T10:24:51Z</time>
      </trkpt>
      <trkpt lat="45.86988" lon="4.70001">
        <ele>217</ele>
        <time>2018-09-23T10:24:52Z</time>
      </trkpt>
      <trkpt lat="45.86994" lon="4.70003">
        <ele>217</ele>
        <time>2018-09-23T10:24:53Z</time>
      </trkpt>
      <trkpt lat="45.86998" lon="4.70003">
        <ele>217</ele>
        <time>2018-09-23T10:24:54Z</time>
      </trkpt>
      <trkpt lat="45.87003" lon="4.70003">
        <ele>217</ele>
        <time>2018-09-23T10:24:55Z</time>
      </trkpt>
      <trkpt lat="45.87008" lon="4.70002">
        <ele>217</ele>
        <time>2018-09-23T10:24:56Z</time>
      </trkpt>
      <trkpt lat="45.87012" lon="4.70004">
        <ele>217</ele>
        <time>2018-09-23T10:24:57Z</time>
      </trkpt>
      <trkpt lat="45.87017" lon="4.70005">
        <ele>217</ele>
        <time>2018-09-23T10:24:58Z</time>
      </trkpt>
      <trkpt lat="45.87022" lon="4.70007">
        <ele>217</ele>
        <time>2018-09-23T10:24:59Z</time>
      </trkpt>
      <trkpt lat="45.87026" lon="4.70012">
        <ele>217</ele>
        <time>2018-09-23T10:25:00Z</time>
      </trkpt>
      <trkpt lat="45.8703" lon="4.70017">
        <ele>217</ele>
        <time>2018-09-23T10:25:01Z</time>
      </trkpt>
      <trkpt lat="45.87034" lon="4.70022">
        <ele>217</ele>
        <time>2018-09-23T10:25:02Z</time>
      </trkpt>
      <trkpt lat="45.87038" lon="4.70031">
        <ele>217</ele>
        <time>2018-09-23T10:25:03Z</time>
      </trkpt>
      <trkpt lat="45.87041" lon="4.70037">
        <ele>217</ele>
        <time>2018-09-23T10:25:04Z</time>
      </trkpt>
      <trkpt lat="45.87043" lon="4.70043">
        <ele>217</ele>
        <time>2018-09-23T10:25:05Z</time>
      </trkpt>
      <trkpt lat="45.87047" lon="4.70049">
        <ele>217</ele>
        <time>2018-09-23T10:25:06Z</time>
      </trkpt>
      <trkpt lat="45.8705" lon="4.70055">
        <ele>217</ele>
        <time>2018-09-23T10:25:07Z</time>
      </trkpt>
      <trkpt lat="45.87054" lon="4.70061">
        <ele>217</ele>
        <time>2018-09-23T10:25:08Z</time>
      </trkpt>
      <trkpt lat="45.87057" lon="4.70067">
        <ele>217</ele>
        <time>2018-09-23T10:25:09Z</time>
      </trkpt>
      <trkpt lat="45.8706" lon="4.70073">
        <ele>217</ele>
        <time>2018-09-23T10:25:10Z</time>
      </trkpt>
      <trkpt lat="45.87064" lon="4.70079">
        <ele>217</ele>
        <time>2018-09-23T10:25:11Z</time>
      </trkpt>
      <trkpt lat="45.87068" lon="4.70085">
        <ele>217</ele>
        <time>2018-09-23T10:25:12Z</time>
      </trkpt>
      <trkpt lat="45.87071" lon="4.7009">
        <ele>217</ele>
        <time>2018-09-23T10:25:13Z</time>
      </trkpt>
      <trkpt lat="45.87075" lon="4.70097">
        <ele>217</ele>
        <time>2018-09-23T10:25:14Z</time>
      </trkpt>
      <trkpt lat="45.87077" lon="4.70102">
        <ele>217</ele>
        <time>2018-09-23T10:25:15Z</time>
      </trkpt>
      <trkpt lat="45.8708" lon="4.70109">
        <ele>217</ele>
        <time>2018-09-23T10:25:16Z</time>
      </trkpt>
      <trkpt lat="45.87084" lon="4.70115">
        <ele>217</ele>
        <time>2018-09-23T10:25:17Z</time>
      </trkpt>
      <trkpt lat="45.87088" lon="4.70122">
        <ele>217</ele>
        <time>2018-09-23T10:25:18Z</time>
      </trkpt>
      <trkpt lat="45.87091" lon="4.70129">
        <ele>217</ele>
        <time>2018-09-23T10:25:19Z</time>
      </trkpt>
      <trkpt lat="45.87093" lon="4.70136">
        <ele>217</ele>
        <time>2018-09-23T10:25:20Z</time>
      </trkpt>
      <trkpt lat="45.87097" lon="4.7014">
        <ele>217</ele>
        <time>2018-09-23T10:25:21Z</time>
      </trkpt>
      <trkpt lat="45.87101" lon="4.70146">
        <ele>217</ele>
        <time>2018-09-23T10:25:22Z</time>
      </trkpt>
      <trkpt lat="45.87106" lon="4.70156">
        <ele>217</ele>
        <time>2018-09-23T10:25:24Z</time>
      </trkpt>
      <trkpt lat="45.8711" lon="4.70162">
        <ele>217</ele>
        <time>2018-09-23T10:25:25Z</time>
      </trkpt>
      <trkpt lat="45.87113" lon="4.70167">
        <ele>216</ele>
        <time>2018-09-23T10:25:26Z</time>
      </trkpt>
      <trkpt lat="45.87116" lon="4.70174">
        <ele>216</ele>
        <time>2018-09-23T10:25:27Z</time>
      </trkpt>
      <trkpt lat="45.87121" lon="4.7018">
        <ele>216</ele>
        <time>2018-09-23T10:25:28Z</time>
      </trkpt>
      <trkpt lat="45.87125" lon="4.70186">
        <ele>216</ele>
        <time>2018-09-23T10:25:29Z</time>
      </trkpt>
      <trkpt lat="45.87129" lon="4.70191">
        <ele>216</ele>
        <time>2018-09-23T10:25:30Z</time>
      </trkpt>
      <trkpt lat="45.87134" lon="4.70197">
        <ele>216</ele>
        <time>2018-09-23T10:25:31Z</time>
      </trkpt>
      <trkpt lat="45.87137" lon="4.70202">
        <ele>216</ele>
        <time>2018-09-23T10:25:32Z</time>
      </trkpt>
      <trkpt lat="45.87142" lon="4.70209">
        <ele>216</ele>
        <time>2018-09-23T10:25:33Z</time>
      </trkpt>
      <trkpt lat="45.87146" lon="4.70212">
        <ele>216</ele>
        <time>2018-09-23T10:25:34Z</time>
      </trkpt>
      <trkpt lat="45.87151" lon="4.70219">
        <ele>216</ele>
        <time>2018-09-23T10:25:35Z</time>
      </trkpt>
      <trkpt lat="45.87156" lon="4.70224">
        <ele>216</ele>
        <time>2018-09-23T10:25:36Z</time>
      </trkpt>
      <trkpt lat="45.8716" lon="4.70231">
        <ele>216</ele>
        <time>2018-09-23T10:25:37Z</time>
      </trkpt>
      <trkpt lat="45.87164" lon="4.70236">
        <ele>216</ele>
        <time>2018-09-23T10:25:38Z</time>
      </trkpt>
      <trkpt lat="45.87168" lon="4.70241">
        <ele>216</ele>
        <time>2018-09-23T10:25:39Z</time>
      </trkpt>
      <trkpt lat="45.87173" lon="4.70247">
        <ele>216</ele>
        <time>2018-09-23T10:25:40Z</time>
      </trkpt>
      <trkpt lat="45.87177" lon="4.70254">
        <ele>216</ele>
        <time>2018-09-23T10:25:41Z</time>
      </trkpt>
      <trkpt lat="45.8718" lon="4.70259">
        <ele>216</ele>
        <time>2018-09-23T10:25:42Z</time>
      </trkpt>
      <trkpt lat="45.87184" lon="4.70265">
        <ele>216</ele>
        <time>2018-09-23T10:25:43Z</time>
      </trkpt>
      <trkpt lat="45.87188" lon="4.7027">
        <ele>217</ele>
        <time>2018-09-23T10:25:44Z</time>
      </trkpt>
      <trkpt lat="45.87193" lon="4.70274">
        <ele>217</ele>
        <time>2018-09-23T10:25:45Z</time>
      </trkpt>
      <trkpt lat="45.87197" lon="4.7028">
        <ele>217</ele>
        <time>2018-09-23T10:25:46Z</time>
      </trkpt>
      <trkpt lat="45.87201" lon="4.70285">
        <ele>217</ele>
        <time>2018-09-23T10:25:47Z</time>
      </trkpt>
      <trkpt lat="45.87206" lon="4.70291">
        <ele>217</ele>
        <time>2018-09-23T10:25:48Z</time>
      </trkpt>
      <trkpt lat="45.87212" lon="4.70297">
        <ele>217</ele>
        <time>2018-09-23T10:25:49Z</time>
      </trkpt>
      <trkpt lat="45.87216" lon="4.70303">
        <ele>217</ele>
        <time>2018-09-23T10:25:50Z</time>
      </trkpt>
      <trkpt lat="45.87221" lon="4.70308">
        <ele>217</ele>
        <time>2018-09-23T10:25:51Z</time>
      </trkpt>
      <trkpt lat="45.87225" lon="4.70313">
        <ele>217</ele>
        <time>2018-09-23T10:25:52Z</time>
      </trkpt>
      <trkpt lat="45.8723" lon="4.70319">
        <ele>217</ele>
        <time>2018-09-23T10:25:53Z</time>
      </trkpt>
      <trkpt lat="45.87234" lon="4.70323">
        <ele>217</ele>
        <time>2018-09-23T10:25:54Z</time>
      </trkpt>
      <trkpt lat="45.87238" lon="4.70328">
        <ele>217</ele>
        <time>2018-09-23T10:25:55Z</time>
      </trkpt>
      <trkpt lat="45.87242" lon="4.70334">
        <ele>217</ele>
        <time>2018-09-23T10:25:56Z</time>
      </trkpt>
      <trkpt lat="45.87246" lon="4.70342">
        <ele>217</ele>
        <time>2018-09-23T10:25:57Z</time>
      </trkpt>
      <trkpt lat="45.87251" lon="4.70349">
        <ele>217</ele>
        <time>2018-09-23T10:25:58Z</time>
      </trkpt>
      <trkpt lat="45.87255" lon="4.70354">
        <ele>216</ele>
        <time>2018-09-23T10:25:59Z</time>
      </trkpt>
      <trkpt lat="45.87258" lon="4.7036">
        <ele>216</ele>
        <time>2018-09-23T10:26:00Z</time>
      </trkpt>
      <trkpt lat="45.87263" lon="4.70365">
        <ele>216</ele>
        <time>2018-09-23T10:26:01Z</time>
      </trkpt>
      <trkpt lat="45.87267" lon="4.70371">
        <ele>216</ele>
        <time>2018-09-23T10:26:02Z</time>
      </trkpt>
      <trkpt lat="45.8727" lon="4.70376">
        <ele>216</ele>
        <time>2018-09-23T10:26:03Z</time>
      </trkpt>
      <trkpt lat="45.87273" lon="4.70383">
        <ele>216</ele>
        <time>2018-09-23T10:26:04Z</time>
      </trkpt>
      <trkpt lat="45.87276" lon="4.7039">
        <ele>216</ele>
        <time>2018-09-23T10:26:05Z</time>
      </trkpt>
      <trkpt lat="45.87279" lon="4.70399">
        <ele>216</ele>
        <time>2018-09-23T10:26:06Z</time>
      </trkpt>
      <trkpt lat="45.87282" lon="4.70405">
        <ele>216</ele>
        <time>2018-09-23T10:26:07Z</time>
      </trkpt>
      <trkpt lat="45.87286" lon="4.7041">
        <ele>216</ele>
        <time>2018-09-23T10:26:08Z</time>
      </trkpt>
      <trkpt lat="45.87292" lon="4.70414">
        <ele>215</ele>
        <time>2018-09-23T10:26:09Z</time>
      </trkpt>
      <trkpt lat="45.87296" lon="4.70419">
        <ele>214</ele>
        <time>2018-09-23T10:26:10Z</time>
      </trkpt>
      <trkpt lat="45.87301" lon="4.70423">
        <ele>214</ele>
        <time>2018-09-23T10:26:11Z</time>
      </trkpt>
      <trkpt lat="45.87306" lon="4.70431">
        <ele>214</ele>
        <time>2018-09-23T10:26:12Z</time>
      </trkpt>
      <trkpt lat="45.8731" lon="4.70437">
        <ele>214</ele>
        <time>2018-09-23T10:26:13Z</time>
      </trkpt>
      <trkpt lat="45.87313" lon="4.70444">
        <ele>214</ele>
        <time>2018-09-23T10:26:14Z</time>
      </trkpt>
      <trkpt lat="45.87318" lon="4.7045">
        <ele>214</ele>
        <time>2018-09-23T10:26:15Z</time>
      </trkpt>
      <trkpt lat="45.87322" lon="4.70457">
        <ele>214</ele>
        <time>2018-09-23T10:26:16Z</time>
      </trkpt>
      <trkpt lat="45.87329" lon="4.70461">
        <ele>214</ele>
        <time>2018-09-23T10:26:17Z</time>
      </trkpt>
      <trkpt lat="45.87333" lon="4.70468">
        <ele>214</ele>
        <time>2018-09-23T10:26:18Z</time>
      </trkpt>
      <trkpt lat="45.87336" lon="4.70477">
        <ele>213</ele>
        <time>2018-09-23T10:26:19Z</time>
      </trkpt>
      <trkpt lat="45.8734" lon="4.70485">
        <ele>213</ele>
        <time>2018-09-23T10:26:20Z</time>
      </trkpt>
      <trkpt lat="45.87346" lon="4.70493">
        <ele>213</ele>
        <time>2018-09-23T10:26:21Z</time>
      </trkpt>
      <trkpt lat="45.8735" lon="4.70502">
        <ele>212</ele>
        <time>2018-09-23T10:26:22Z</time>
      </trkpt>
      <trkpt lat="45.87355" lon="4.70512">
        <ele>212</ele>
        <time>2018-09-23T10:26:23Z</time>
      </trkpt>
      <trkpt lat="45.87361" lon="4.70519">
        <ele>212</ele>
        <time>2018-09-23T10:26:24Z</time>
      </trkpt>
      <trkpt lat="45.87367" lon="4.70529">
        <ele>212</ele>
        <time>2018-09-23T10:26:25Z</time>
      </trkpt>
      <trkpt lat="45.87373" lon="4.70538">
        <ele>212</ele>
        <time>2018-09-23T10:26:26Z</time>
      </trkpt>
      <trkpt lat="45.87378" lon="4.70546">
        <ele>212</ele>
        <time>2018-09-23T10:26:27Z</time>
      </trkpt>
      <trkpt lat="45.87383" lon="4.70555">
        <ele>212</ele>
        <time>2018-09-23T10:26:28Z</time>
      </trkpt>
      <trkpt lat="45.8739" lon="4.70564">
        <ele>211</ele>
        <time>2018-09-23T10:26:29Z</time>
      </trkpt>
      <trkpt lat="45.87395" lon="4.70573">
        <ele>211</ele>
        <time>2018-09-23T10:26:30Z</time>
      </trkpt>
      <trkpt lat="45.87401" lon="4.7058">
        <ele>211</ele>
        <time>2018-09-23T10:26:31Z</time>
      </trkpt>
      <trkpt lat="45.87406" lon="4.70589">
        <ele>210</ele>
        <time>2018-09-23T10:26:32Z</time>
      </trkpt>
      <trkpt lat="45.87411" lon="4.70598">
        <ele>210</ele>
        <time>2018-09-23T10:26:33Z</time>
      </trkpt>
      <trkpt lat="45.87415" lon="4.70607">
        <ele>210</ele>
        <time>2018-09-23T10:26:34Z</time>
      </trkpt>
      <trkpt lat="45.87418" lon="4.70617">
        <ele>210</ele>
        <time>2018-09-23T10:26:35Z</time>
      </trkpt>
      <trkpt lat="45.8742" lon="4.70627">
        <ele>210</ele>
        <time>2018-09-23T10:26:36Z</time>
      </trkpt>
      <trkpt lat="45.87422" lon="4.70638">
        <ele>209</ele>
        <time>2018-09-23T10:26:37Z</time>
      </trkpt>
      <trkpt lat="45.87424" lon="4.70647">
        <ele>209</ele>
        <time>2018-09-23T10:26:38Z</time>
      </trkpt>
      <trkpt lat="45.87425" lon="4.70658">
        <ele>208</ele>
        <time>2018-09-23T10:26:39Z</time>
      </trkpt>
      <trkpt lat="45.87427" lon="4.70667">
        <ele>208</ele>
        <time>2018-09-23T10:26:40Z</time>
      </trkpt>
      <trkpt lat="45.87428" lon="4.70674">
        <ele>208</ele>
        <time>2018-09-23T10:26:41Z</time>
      </trkpt>
      <trkpt lat="45.87429" lon="4.70683">
        <ele>209</ele>
        <time>2018-09-23T10:26:42Z</time>
      </trkpt>
      <trkpt lat="45.87431" lon="4.70692">
        <ele>209</ele>
        <time>2018-09-23T10:26:43Z</time>
      </trkpt>
      <trkpt lat="45.87432" lon="4.707">
        <ele>209</ele>
        <time>2018-09-23T10:26:44Z</time>
      </trkpt>
      <trkpt lat="45.87432" lon="4.70707">
        <ele>209</ele>
        <time>2018-09-23T10:26:45Z</time>
      </trkpt>
      <trkpt lat="45.87432" lon="4.70715">
        <ele>209</ele>
        <time>2018-09-23T10:26:46Z</time>
      </trkpt>
      <trkpt lat="45.87433" lon="4.70723">
        <ele>209</ele>
        <time>2018-09-23T10:26:47Z</time>
      </trkpt>
      <trkpt lat="45.87436" lon="4.70731">
        <ele>209</ele>
        <time>2018-09-23T10:26:48Z</time>
      </trkpt>
      <trkpt lat="45.87438" lon="4.70737">
        <ele>209</ele>
        <time>2018-09-23T10:26:49Z</time>
      </trkpt>
      <trkpt lat="45.87439" lon="4.70744">
        <ele>209</ele>
        <time>2018-09-23T10:26:50Z</time>
      </trkpt>
      <trkpt lat="45.87441" lon="4.70751">
        <ele>210</ele>
        <time>2018-09-23T10:26:51Z</time>
      </trkpt>
      <trkpt lat="45.87442" lon="4.70758">
        <ele>210</ele>
        <time>2018-09-23T10:26:52Z</time>
      </trkpt>
      <trkpt lat="45.87444" lon="4.70764">
        <ele>210</ele>
        <time>2018-09-23T10:26:53Z</time>
      </trkpt>
      <trkpt lat="45.87446" lon="4.7077">
        <ele>210</ele>
        <time>2018-09-23T10:26:54Z</time>
      </trkpt>
      <trkpt lat="45.87447" lon="4.70777">
        <ele>211</ele>
        <time>2018-09-23T10:26:55Z</time>
      </trkpt>
      <trkpt lat="45.87451" lon="4.70789">
        <ele>211</ele>
        <time>2018-09-23T10:26:57Z</time>
      </trkpt>
      <trkpt lat="45.87451" lon="4.70794">
        <ele>211</ele>
        <time>2018-09-23T10:26:58Z</time>
      </trkpt>
      <trkpt lat="45.87454" lon="4.70806">
        <ele>211</ele>
        <time>2018-09-23T10:27:00Z</time>
      </trkpt>
      <trkpt lat="45.87455" lon="4.70811">
        <ele>211</ele>
        <time>2018-09-23T10:27:01Z</time>
      </trkpt>
      <trkpt lat="45.87458" lon="4.70823">
        <ele>211</ele>
        <time>2018-09-23T10:27:03Z</time>
      </trkpt>
      <trkpt lat="45.87459" lon="4.70829">
        <ele>212</ele>
        <time>2018-09-23T10:27:04Z</time>
      </trkpt>
      <trkpt lat="45.87461" lon="4.7084">
        <ele>213</ele>
        <time>2018-09-23T10:27:06Z</time>
      </trkpt>
      <trkpt lat="45.87462" lon="4.70845">
        <ele>213</ele>
        <time>2018-09-23T10:27:07Z</time>
      </trkpt>
      <trkpt lat="45.87463" lon="4.70852">
        <ele>213</ele>
        <time>2018-09-23T10:27:08Z</time>
      </trkpt>
      <trkpt lat="45.87464" lon="4.70859">
        <ele>213</ele>
        <time>2018-09-23T10:27:09Z</time>
      </trkpt>
      <trkpt lat="45.87466" lon="4.7087">
        <ele>213</ele>
        <time>2018-09-23T10:27:11Z</time>
      </trkpt>
      <trkpt lat="45.87468" lon="4.70876">
        <ele>214</ele>
        <time>2018-09-23T10:27:12Z</time>
      </trkpt>
      <trkpt lat="45.87469" lon="4.70887">
        <ele>214</ele>
        <time>2018-09-23T10:27:14Z</time>
      </trkpt>
      <trkpt lat="45.8747" lon="4.70894">
        <ele>214</ele>
        <time>2018-09-23T10:27:15Z</time>
      </trkpt>
      <trkpt lat="45.87472" lon="4.70901">
        <ele>214</ele>
        <time>2018-09-23T10:27:16Z</time>
      </trkpt>
      <trkpt lat="45.87473" lon="4.70908">
        <ele>214</ele>
        <time>2018-09-23T10:27:17Z</time>
      </trkpt>
      <trkpt lat="45.87477" lon="4.70917">
        <ele>215</ele>
        <time>2018-09-23T10:27:18Z</time>
      </trkpt>
      <trkpt lat="45.87478" lon="4.70924">
        <ele>215</ele>
        <time>2018-09-23T10:27:19Z</time>
      </trkpt>
      <trkpt lat="45.87481" lon="4.70931">
        <ele>215</ele>
        <time>2018-09-23T10:27:20Z</time>
      </trkpt>
      <trkpt lat="45.87483" lon="4.70937">
        <ele>215</ele>
        <time>2018-09-23T10:27:21Z</time>
      </trkpt>
      <trkpt lat="45.87485" lon="4.70943">
        <ele>215</ele>
        <time>2018-09-23T10:27:22Z</time>
      </trkpt>
      <trkpt lat="45.87488" lon="4.70949">
        <ele>215</ele>
        <time>2018-09-23T10:27:23Z</time>
      </trkpt>
      <trkpt lat="45.87488" lon="4.70956">
        <ele>215</ele>
        <time>2018-09-23T10:27:24Z</time>
      </trkpt>
      <trkpt lat="45.8749" lon="4.70962">
        <ele>215</ele>
        <time>2018-09-23T10:27:25Z</time>
      </trkpt>
      <trkpt lat="45.87494" lon="4.70973">
        <ele>215</ele>
        <time>2018-09-23T10:27:27Z</time>
      </trkpt>
      <trkpt lat="45.87496" lon="4.70978">
        <ele>215</ele>
        <time>2018-09-23T10:27:28Z</time>
      </trkpt>
      <trkpt lat="45.87497" lon="4.70987">
        <ele>214</ele>
        <time>2018-09-23T10:27:30Z</time>
      </trkpt>
      <trkpt lat="45.87501" lon="4.70993">
        <ele>214</ele>
        <time>2018-09-23T10:27:31Z</time>
      </trkpt>
      <trkpt lat="45.87504" lon="4.70999">
        <ele>214</ele>
        <time>2018-09-23T10:27:32Z</time>
      </trkpt>
      <trkpt lat="45.87506" lon="4.71003">
        <ele>214</ele>
        <time>2018-09-23T10:27:33Z</time>
      </trkpt>
      <trkpt lat="45.87511" lon="4.71008">
        <ele>214</ele>
        <time>2018-09-23T10:27:34Z</time>
      </trkpt>
      <trkpt lat="45.87514" lon="4.71013">
        <ele>215</ele>
        <time>2018-09-23T10:27:35Z</time>
      </trkpt>
      <trkpt lat="45.87517" lon="4.71018">
        <ele>215</ele>
        <time>2018-09-23T10:27:36Z</time>
      </trkpt>
      <trkpt lat="45.87521" lon="4.71023">
        <ele>215</ele>
        <time>2018-09-23T10:27:37Z</time>
      </trkpt>
      <trkpt lat="45.87523" lon="4.71029">
        <ele>215</ele>
        <time>2018-09-23T10:27:38Z</time>
      </trkpt>
      <trkpt lat="45.87526" lon="4.71035">
        <ele>215</ele>
        <time>2018-09-23T10:27:39Z</time>
      </trkpt>
      <trkpt lat="45.87528" lon="4.7104">
        <ele>215</ele>
        <time>2018-09-23T10:27:40Z</time>
      </trkpt>
      <trkpt lat="45.87533" lon="4.71045">
        <ele>215</ele>
        <time>2018-09-23T10:27:41Z</time>
      </trkpt>
      <trkpt lat="45.87539" lon="4.71054">
        <ele>215</ele>
        <time>2018-09-23T10:27:43Z</time>
      </trkpt>
      <trkpt lat="45.87543" lon="4.71059">
        <ele>216</ele>
        <time>2018-09-23T10:27:44Z</time>
      </trkpt>
      <trkpt lat="45.87548" lon="4.71067">
        <ele>216</ele>
        <time>2018-09-23T10:27:47Z</time>
      </trkpt>
      <trkpt lat="45.87549" lon="4.71069">
        <ele>216</ele>
        <time>2018-09-23T10:27:48Z</time>
      </trkpt>
      <trkpt lat="45.87556" lon="4.71075">
        <ele>216</ele>
        <time>2018-09-23T10:27:52Z</time>
      </trkpt>
      <trkpt lat="45.87559" lon="4.71077">
        <ele>216</ele>
        <time>2018-09-23T10:27:53Z</time>
      </trkpt>
      <trkpt lat="45.87567" lon="4.71081">
        <ele>216</ele>
        <time>2018-09-23T10:27:59Z</time>
      </trkpt>
      <trkpt lat="45.87567" lon="4.71081">
        <ele>216</ele>
        <time>2018-09-23T10:28:00Z</time>
      </trkpt>
      <trkpt lat="45.87573" lon="4.7109">
        <ele>217</ele>
        <time>2018-09-23T10:28:56Z</time>
      </trkpt>
      <trkpt lat="45.87574" lon="4.71091">
        <ele>217</ele>
        <time>2018-09-23T10:28:57Z</time>
      </trkpt>
      <trkpt lat="45.87581" lon="4.71095">
        <ele>218</ele>
        <time>2018-09-23T10:29:01Z</time>
      </trkpt>
      <trkpt lat="45.87583" lon="4.71095">
        <ele>218</ele>
        <time>2018-09-23T10:29:02Z</time>
      </trkpt>
      <trkpt lat="45.87592" lon="4.71093">
        <ele>218</ele>
        <time>2018-09-23T10:29:05Z</time>
      </trkpt>
      <trkpt lat="45.87601" lon="4.71089">
        <ele>219</ele>
        <time>2018-09-23T10:29:06Z</time>
      </trkpt>
      <trkpt lat="45.87608" lon="4.71085">
        <ele>219</ele>
        <time>2018-09-23T10:29:08Z</time>
      </trkpt>
      <trkpt lat="45.8761" lon="4.71084">
        <ele>219</ele>
        <time>2018-09-23T10:29:09Z</time>
      </trkpt>
      <trkpt lat="45.87617" lon="4.7108">
        <ele>217</ele>
        <time>2018-09-23T10:29:13Z</time>
      </trkpt>
      <trkpt lat="45.8762" lon="4.71078">
        <ele>217</ele>
        <time>2018-09-23T10:29:14Z</time>
      </trkpt>
      <trkpt lat="45.87627" lon="4.71074">
        <ele>218</ele>
        <time>2018-09-23T10:29:17Z</time>
      </trkpt>
      <trkpt lat="45.8763" lon="4.71073">
        <ele>218</ele>
        <time>2018-09-23T10:29:18Z</time>
      </trkpt>
      <trkpt lat="45.87633" lon="4.71072">
        <ele>218</ele>
        <time>2018-09-23T10:29:19Z</time>
      </trkpt>
      <trkpt lat="45.87642" lon="4.71069">
        <ele>218</ele>
        <time>2018-09-23T10:29:20Z</time>
      </trkpt>
      <trkpt lat="45.8765" lon="4.71066">
        <ele>218</ele>
        <time>2018-09-23T10:29:23Z</time>
      </trkpt>
      <trkpt lat="45.87656" lon="4.71063">
        <ele>218</ele>
        <time>2018-09-23T10:29:24Z</time>
      </trkpt>
      <trkpt lat="45.87661" lon="4.71061">
        <ele>218</ele>
        <time>2018-09-23T10:29:26Z</time>
      </trkpt>
      <trkpt lat="45.87667" lon="4.71059">
        <ele>220</ele>
        <time>2018-09-23T10:29:27Z</time>
      </trkpt>
      <trkpt lat="45.87675" lon="4.71056">
        <ele>220</ele>
        <time>2018-09-23T10:29:29Z</time>
      </trkpt>
      <trkpt lat="45.87678" lon="4.71055">
        <ele>220</ele>
        <time>2018-09-23T10:29:30Z</time>
      </trkpt>
      <trkpt lat="45.87684" lon="4.71053">
        <ele>220</ele>
        <time>2018-09-23T10:29:32Z</time>
      </trkpt>
      <trkpt lat="45.87689" lon="4.71053">
        <ele>220</ele>
        <time>2018-09-23T10:29:33Z</time>
      </trkpt>
      <trkpt lat="45.87698" lon="4.71053">
        <ele>220</ele>
        <time>2018-09-23T10:29:37Z</time>
      </trkpt>
      <trkpt lat="45.87705" lon="4.71053">
        <ele>220</ele>
        <time>2018-09-23T10:29:38Z</time>
      </trkpt>
      <trkpt lat="45.87712" lon="4.71051">
        <ele>220</ele>
        <time>2018-09-23T10:29:42Z</time>
      </trkpt>
      <trkpt lat="45.87715" lon="4.7105">
        <ele>220</ele>
        <time>2018-09-23T10:29:43Z</time>
      </trkpt>
      <trkpt lat="45.87723" lon="4.71048">
        <ele>220</ele>
        <time>2018-09-23T10:29:46Z</time>
      </trkpt>
      <trkpt lat="45.87726" lon="4.71046">
        <ele>220</ele>
        <time>2018-09-23T10:29:47Z</time>
      </trkpt>
      <trkpt lat="45.87732" lon="4.71043">
        <ele>220</ele>
        <time>2018-09-23T10:29:49Z</time>
      </trkpt>
      <trkpt lat="45.87735" lon="4.71042">
        <ele>220</ele>
        <time>2018-09-23T10:29:50Z</time>
      </trkpt>
      <trkpt lat="45.87742" lon="4.71039">
        <ele>220</ele>
        <time>2018-09-23T10:29:52Z</time>
      </trkpt>
      <trkpt lat="45.87745" lon="4.71038">
        <ele>220</ele>
        <time>2018-09-23T10:29:53Z</time>
      </trkpt>
      <trkpt lat="45.87753" lon="4.71035">
        <ele>222</ele>
        <time>2018-09-23T10:29:55Z</time>
      </trkpt>
      <trkpt lat="45.87757" lon="4.71033">
        <ele>222</ele>
        <time>2018-09-23T10:29:56Z</time>
      </trkpt>
      <trkpt lat="45.87763" lon="4.7103">
        <ele>222</ele>
        <time>2018-09-23T10:29:58Z</time>
      </trkpt>
      <trkpt lat="45.87766" lon="4.71029">
        <ele>222</ele>
        <time>2018-09-23T10:29:59Z</time>
      </trkpt>
      <trkpt lat="45.87772" lon="4.71025">
        <ele>222</ele>
        <time>2018-09-23T10:30:01Z</time>
      </trkpt>
      <trkpt lat="45.87782" lon="4.7102">
        <ele>222</ele>
        <time>2018-09-23T10:30:02Z</time>
      </trkpt>
      <trkpt lat="45.87789" lon="4.71017">
        <ele>223</ele>
        <time>2018-09-23T10:30:05Z</time>
      </trkpt>
      <trkpt lat="45.87791" lon="4.71017">
        <ele>223</ele>
        <time>2018-09-23T10:30:06Z</time>
      </trkpt>
      <trkpt lat="45.87798" lon="4.71014">
        <ele>223</ele>
        <time>2018-09-23T10:30:09Z</time>
      </trkpt>
      <trkpt lat="45.87801" lon="4.71013">
        <ele>223</ele>
        <time>2018-09-23T10:30:10Z</time>
      </trkpt>
      <trkpt lat="45.87804" lon="4.71012">
        <ele>223</ele>
        <time>2018-09-23T10:30:11Z</time>
      </trkpt>
      <trkpt lat="45.87814" lon="4.71008">
        <ele>223</ele>
        <time>2018-09-23T10:30:12Z</time>
      </trkpt>
      <trkpt lat="45.87821" lon="4.71006">
        <ele>224</ele>
        <time>2018-09-23T10:30:14Z</time>
      </trkpt>
      <trkpt lat="45.87825" lon="4.71004">
        <ele>224</ele>
        <time>2018-09-23T10:30:15Z</time>
      </trkpt>
      <trkpt lat="45.87832" lon="4.71001">
        <ele>224</ele>
        <time>2018-09-23T10:30:18Z</time>
      </trkpt>
      <trkpt lat="45.87834" lon="4.71">
        <ele>224</ele>
        <time>2018-09-23T10:30:19Z</time>
      </trkpt>
      <trkpt lat="45.87842" lon="4.70995">
        <ele>224</ele>
        <time>2018-09-23T10:30:21Z</time>
      </trkpt>
      <trkpt lat="45.87843" lon="4.70994">
        <ele>224</ele>
        <time>2018-09-23T10:30:22Z</time>
      </trkpt>
      <trkpt lat="45.87851" lon="4.70991">
        <ele>224</ele>
        <time>2018-09-23T10:30:24Z</time>
      </trkpt>
      <trkpt lat="45.87853" lon="4.7099">
        <ele>224</ele>
        <time>2018-09-23T10:30:25Z</time>
      </trkpt>
      <trkpt lat="45.8786" lon="4.70987">
        <ele>224</ele>
        <time>2018-09-23T10:30:28Z</time>
      </trkpt>
      <trkpt lat="45.87863" lon="4.70985">
        <ele>224</ele>
        <time>2018-09-23T10:30:29Z</time>
      </trkpt>
      <trkpt lat="45.87866" lon="4.70983">
        <ele>225</ele>
        <time>2018-09-23T10:30:30Z</time>
      </trkpt>
      <trkpt lat="45.87874" lon="4.70978">
        <ele>225</ele>
        <time>2018-09-23T10:30:31Z</time>
      </trkpt>
      <trkpt lat="45.87878" lon="4.70976">
        <ele>225</ele>
        <time>2018-09-23T10:30:33Z</time>
      </trkpt>
      <trkpt lat="45.87883" lon="4.70973">
        <ele>225</ele>
        <time>2018-09-23T10:30:34Z</time>
      </trkpt>
      <trkpt lat="45.8789" lon="4.70969">
        <ele>225</ele>
        <time>2018-09-23T10:30:36Z</time>
      </trkpt>
      <trkpt lat="45.87891" lon="4.70968">
        <ele>225</ele>
        <time>2018-09-23T10:30:37Z</time>
      </trkpt>
      <trkpt lat="45.87899" lon="4.70962">
        <ele>225</ele>
        <time>2018-09-23T10:30:39Z</time>
      </trkpt>
      <trkpt lat="45.87901" lon="4.7096">
        <ele>225</ele>
        <time>2018-09-23T10:30:40Z</time>
      </trkpt>
      <trkpt lat="45.87908" lon="4.70956">
        <ele>225</ele>
        <time>2018-09-23T10:30:43Z</time>
      </trkpt>
      <trkpt lat="45.87911" lon="4.70954">
        <ele>225</ele>
        <time>2018-09-23T10:30:44Z</time>
      </trkpt>
      <trkpt lat="45.87919" lon="4.7095">
        <ele>225</ele>
        <time>2018-09-23T10:30:45Z</time>
      </trkpt>
      <trkpt lat="45.87921" lon="4.70949">
        <ele>225</ele>
        <time>2018-09-23T10:30:46Z</time>
      </trkpt>
      <trkpt lat="45.87925" lon="4.70945">
        <ele>225</ele>
        <time>2018-09-23T10:30:47Z</time>
      </trkpt>
      <trkpt lat="45.87929" lon="4.70942">
        <ele>225</ele>
        <time>2018-09-23T10:30:48Z</time>
      </trkpt>
      <trkpt lat="45.87936" lon="4.70937">
        <ele>225</ele>
        <time>2018-09-23T10:30:50Z</time>
      </trkpt>
      <trkpt lat="45.8794" lon="4.70934">
        <ele>225</ele>
        <time>2018-09-23T10:30:51Z</time>
      </trkpt>
      <trkpt lat="45.87947" lon="4.70929">
        <ele>225</ele>
        <time>2018-09-23T10:30:53Z</time>
      </trkpt>
      <trkpt lat="45.87951" lon="4.70926">
        <ele>225</ele>
        <time>2018-09-23T10:30:54Z</time>
      </trkpt>
      <trkpt lat="45.87957" lon="4.70922">
        <ele>225</ele>
        <time>2018-09-23T10:30:56Z</time>
      </trkpt>
      <trkpt lat="45.87962" lon="4.70918">
        <ele>225</ele>
        <time>2018-09-23T10:30:57Z</time>
      </trkpt>
      <trkpt lat="45.87967" lon="4.70914">
        <ele>225</ele>
        <time>2018-09-23T10:31:00Z</time>
      </trkpt>
      <trkpt lat="45.87975" lon="4.7091">
        <ele>225</ele>
        <time>2018-09-23T10:31:01Z</time>
      </trkpt>
      <trkpt lat="45.8798" lon="4.70907">
        <ele>225</ele>
        <time>2018-09-23T10:31:03Z</time>
      </trkpt>
      <trkpt lat="45.87985" lon="4.70903">
        <ele>225</ele>
        <time>2018-09-23T10:31:04Z</time>
      </trkpt>
      <trkpt lat="45.87992" lon="4.70897">
        <ele>225</ele>
        <time>2018-09-23T10:31:06Z</time>
      </trkpt>
      <trkpt lat="45.87994" lon="4.70896">
        <ele>225</ele>
        <time>2018-09-23T10:31:07Z</time>
      </trkpt>
      <trkpt lat="45.87999" lon="4.70893">
        <ele>225</ele>
        <time>2018-09-23T10:31:08Z</time>
      </trkpt>
      <trkpt lat="45.88003" lon="4.70891">
        <ele>226</ele>
        <time>2018-09-23T10:31:09Z</time>
      </trkpt>
      <trkpt lat="45.8801" lon="4.70885">
        <ele>226</ele>
        <time>2018-09-23T10:31:11Z</time>
      </trkpt>
      <trkpt lat="45.88011" lon="4.70884">
        <ele>226</ele>
        <time>2018-09-23T10:31:12Z</time>
      </trkpt>
      <trkpt lat="45.88018" lon="4.7088">
        <ele>226</ele>
        <time>2018-09-23T10:31:14Z</time>
      </trkpt>
      <trkpt lat="45.88023" lon="4.70877">
        <ele>226</ele>
        <time>2018-09-23T10:31:15Z</time>
      </trkpt>
      <trkpt lat="45.88027" lon="4.70875">
        <ele>226</ele>
        <time>2018-09-23T10:31:17Z</time>
      </trkpt>
      <trkpt lat="45.88033" lon="4.70872">
        <ele>226</ele>
        <time>2018-09-23T10:31:18Z</time>
      </trkpt>
      <trkpt lat="45.8804" lon="4.70867">
        <ele>227</ele>
        <time>2018-09-23T10:31:20Z</time>
      </trkpt>
      <trkpt lat="45.88043" lon="4.70865">
        <ele>227</ele>
        <time>2018-09-23T10:31:21Z</time>
      </trkpt>
      <trkpt lat="45.8805" lon="4.7086">
        <ele>227</ele>
        <time>2018-09-23T10:31:23Z</time>
      </trkpt>
      <trkpt lat="45.88054" lon="4.70857">
        <ele>227</ele>
        <time>2018-09-23T10:31:24Z</time>
      </trkpt>
      <trkpt lat="45.8806" lon="4.70852">
        <ele>227</ele>
        <time>2018-09-23T10:31:26Z</time>
      </trkpt>
      <trkpt lat="45.88063" lon="4.7085">
        <ele>227</ele>
        <time>2018-09-23T10:31:27Z</time>
      </trkpt>
      <trkpt lat="45.88071" lon="4.70844">
        <ele>228</ele>
        <time>2018-09-23T10:31:29Z</time>
      </trkpt>
      <trkpt lat="45.88075" lon="4.70841">
        <ele>228</ele>
        <time>2018-09-23T10:31:30Z</time>
      </trkpt>
      <trkpt lat="45.88082" lon="4.70839">
        <ele>228</ele>
        <time>2018-09-23T10:31:32Z</time>
      </trkpt>
      <trkpt lat="45.88086" lon="4.70842">
        <ele>229</ele>
        <time>2018-09-23T10:31:33Z</time>
      </trkpt>
      <trkpt lat="45.88091" lon="4.70844">
        <ele>229</ele>
        <time>2018-09-23T10:31:34Z</time>
      </trkpt>
      <trkpt lat="45.88096" lon="4.70846">
        <ele>229</ele>
        <time>2018-09-23T10:31:35Z</time>
      </trkpt>
      <trkpt lat="45.88105" lon="4.70847">
        <ele>229</ele>
        <time>2018-09-23T10:31:37Z</time>
      </trkpt>
      <trkpt lat="45.88109" lon="4.70844">
        <ele>229</ele>
        <time>2018-09-23T10:31:38Z</time>
      </trkpt>
      <trkpt lat="45.88114" lon="4.70835">
        <ele>229</ele>
        <time>2018-09-23T10:31:42Z</time>
      </trkpt>
      <trkpt lat="45.88115" lon="4.70832">
        <ele>230</ele>
        <time>2018-09-23T10:31:43Z</time>
      </trkpt>
      <trkpt lat="45.88119" lon="4.70824">
        <ele>230</ele>
        <time>2018-09-23T10:31:45Z</time>
      </trkpt>
      <trkpt lat="45.88121" lon="4.7082">
        <ele>230</ele>
        <time>2018-09-23T10:31:46Z</time>
      </trkpt>
      <trkpt lat="45.88126" lon="4.70813">
        <ele>230</ele>
        <time>2018-09-23T10:31:48Z</time>
      </trkpt>
      <trkpt lat="45.88128" lon="4.7081">
        <ele>230</ele>
        <time>2018-09-23T10:31:49Z</time>
      </trkpt>
      <trkpt lat="45.88133" lon="4.70804">
        <ele>231</ele>
        <time>2018-09-23T10:31:51Z</time>
      </trkpt>
      <trkpt lat="45.88142" lon="4.70795">
        <ele>231</ele>
        <time>2018-09-23T10:31:52Z</time>
      </trkpt>
      <trkpt lat="45.88149" lon="4.70788">
        <ele>231</ele>
        <time>2018-09-23T10:31:54Z</time>
      </trkpt>
      <trkpt lat="45.88153" lon="4.70785">
        <ele>231</ele>
        <time>2018-09-23T10:31:55Z</time>
      </trkpt>
      <trkpt lat="45.8816" lon="4.7078">
        <ele>231</ele>
        <time>2018-09-23T10:31:57Z</time>
      </trkpt>
      <trkpt lat="45.88163" lon="4.70777">
        <ele>231</ele>
        <time>2018-09-23T10:31:58Z</time>
      </trkpt>
      <trkpt lat="45.8817" lon="4.70773">
        <ele>232</ele>
        <time>2018-09-23T10:32:00Z</time>
      </trkpt>
      <trkpt lat="45.88174" lon="4.70771">
        <ele>232</ele>
        <time>2018-09-23T10:32:01Z</time>
      </trkpt>
      <trkpt lat="45.88182" lon="4.70766">
        <ele>232</ele>
        <time>2018-09-23T10:32:03Z</time>
      </trkpt>
      <trkpt lat="45.88186" lon="4.70764">
        <ele>232</ele>
        <time>2018-09-23T10:32:04Z</time>
      </trkpt>
      <trkpt lat="45.88194" lon="4.70759">
        <ele>232</ele>
        <time>2018-09-23T10:32:06Z</time>
      </trkpt>
      <trkpt lat="45.88197" lon="4.70757">
        <ele>232</ele>
        <time>2018-09-23T10:32:07Z</time>
      </trkpt>
      <trkpt lat="45.88205" lon="4.70752">
        <ele>232</ele>
        <time>2018-09-23T10:32:09Z</time>
      </trkpt>
      <trkpt lat="45.88209" lon="4.7075">
        <ele>235</ele>
        <time>2018-09-23T10:32:10Z</time>
      </trkpt>
      <trkpt lat="45.88217" lon="4.70745">
        <ele>235</ele>
        <time>2018-09-23T10:32:12Z</time>
      </trkpt>
      <trkpt lat="45.88221" lon="4.70742">
        <ele>235</ele>
        <time>2018-09-23T10:32:13Z</time>
      </trkpt>
      <trkpt lat="45.88229" lon="4.70736">
        <ele>235</ele>
        <time>2018-09-23T10:32:15Z</time>
      </trkpt>
      <trkpt lat="45.88233" lon="4.70732">
        <ele>235</ele>
        <time>2018-09-23T10:32:16Z</time>
      </trkpt>
      <trkpt lat="45.8824" lon="4.70726">
        <ele>235</ele>
        <time>2018-09-23T10:32:18Z</time>
      </trkpt>
      <trkpt lat="45.88243" lon="4.70723">
        <ele>235</ele>
        <time>2018-09-23T10:32:19Z</time>
      </trkpt>
      <trkpt lat="45.8825" lon="4.70716">
        <ele>234</ele>
        <time>2018-09-23T10:32:21Z</time>
      </trkpt>
      <trkpt lat="45.88254" lon="4.70713">
        <ele>235</ele>
        <time>2018-09-23T10:32:22Z</time>
      </trkpt>
      <trkpt lat="45.88261" lon="4.70706">
        <ele>235</ele>
        <time>2018-09-23T10:32:24Z</time>
      </trkpt>
      <trkpt lat="45.88264" lon="4.70701">
        <ele>235</ele>
        <time>2018-09-23T10:32:25Z</time>
      </trkpt>
      <trkpt lat="45.88268" lon="4.70696">
        <ele>235</ele>
        <time>2018-09-23T10:32:26Z</time>
      </trkpt>
      <trkpt lat="45.88273" lon="4.70692">
        <ele>235</ele>
        <time>2018-09-23T10:32:27Z</time>
      </trkpt>
      <trkpt lat="45.88281" lon="4.70687">
        <ele>235</ele>
        <time>2018-09-23T10:32:29Z</time>
      </trkpt>
      <trkpt lat="45.88285" lon="4.70684">
        <ele>235</ele>
        <time>2018-09-23T10:32:30Z</time>
      </trkpt>
      <trkpt lat="45.88289" lon="4.7068">
        <ele>235</ele>
        <time>2018-09-23T10:32:31Z</time>
      </trkpt>
      <trkpt lat="45.88294" lon="4.70676">
        <ele>235</ele>
        <time>2018-09-23T10:32:32Z</time>
      </trkpt>
      <trkpt lat="45.88299" lon="4.70673">
        <ele>235</ele>
        <time>2018-09-23T10:32:33Z</time>
      </trkpt>
      <trkpt lat="45.88303" lon="4.70669">
        <ele>235</ele>
        <time>2018-09-23T10:32:34Z</time>
      </trkpt>
      <trkpt lat="45.88307" lon="4.70665">
        <ele>238</ele>
        <time>2018-09-23T10:32:35Z</time>
      </trkpt>
      <trkpt lat="45.88313" lon="4.70658">
        <ele>238</ele>
        <time>2018-09-23T10:32:36Z</time>
      </trkpt>
      <trkpt lat="45.8832" lon="4.70653">
        <ele>238</ele>
        <time>2018-09-23T10:32:38Z</time>
      </trkpt>
      <trkpt lat="45.88325" lon="4.70649">
        <ele>238</ele>
        <time>2018-09-23T10:32:39Z</time>
      </trkpt>
      <trkpt lat="45.88333" lon="4.70646">
        <ele>238</ele>
        <time>2018-09-23T10:32:41Z</time>
      </trkpt>
      <trkpt lat="45.88337" lon="4.70644">
        <ele>235</ele>
        <time>2018-09-23T10:32:42Z</time>
      </trkpt>
      <trkpt lat="45.88344" lon="4.70639">
        <ele>235</ele>
        <time>2018-09-23T10:32:44Z</time>
      </trkpt>
      <trkpt lat="45.88347" lon="4.70634">
        <ele>235</ele>
        <time>2018-09-23T10:32:45Z</time>
      </trkpt>
      <trkpt lat="45.88355" lon="4.70631">
        <ele>235</ele>
        <time>2018-09-23T10:32:47Z</time>
      </trkpt>
      <trkpt lat="45.88359" lon="4.70632">
        <ele>235</ele>
        <time>2018-09-23T10:32:48Z</time>
      </trkpt>
      <trkpt lat="45.88366" lon="4.70627">
        <ele>235</ele>
        <time>2018-09-23T10:32:50Z</time>
      </trkpt>
      <trkpt lat="45.88371" lon="4.70624">
        <ele>235</ele>
        <time>2018-09-23T10:32:51Z</time>
      </trkpt>
      <trkpt lat="45.88377" lon="4.7062">
        <ele>235</ele>
        <time>2018-09-23T10:32:52Z</time>
      </trkpt>
      <trkpt lat="45.88382" lon="4.70616">
        <ele>235</ele>
        <time>2018-09-23T10:32:53Z</time>
      </trkpt>
      <trkpt lat="45.88387" lon="4.70612">
        <ele>235</ele>
        <time>2018-09-23T10:32:54Z</time>
      </trkpt>
      <trkpt lat="45.88394" lon="4.70605">
        <ele>235</ele>
        <time>2018-09-23T10:32:55Z</time>
      </trkpt>
      <trkpt lat="45.884" lon="4.706">
        <ele>235</ele>
        <time>2018-09-23T10:32:56Z</time>
      </trkpt>
      <trkpt lat="45.88404" lon="4.70596">
        <ele>235</ele>
        <time>2018-09-23T10:32:57Z</time>
      </trkpt>
      <trkpt lat="45.88409" lon="4.70592">
        <ele>235</ele>
        <time>2018-09-23T10:32:58Z</time>
      </trkpt>
      <trkpt lat="45.88415" lon="4.70589">
        <ele>235</ele>
        <time>2018-09-23T10:32:59Z</time>
      </trkpt>
      <trkpt lat="45.8842" lon="4.70586">
        <ele>234</ele>
        <time>2018-09-23T10:33:00Z</time>
      </trkpt>
      <trkpt lat="45.88425" lon="4.70577">
        <ele>235</ele>
        <time>2018-09-23T10:33:01Z</time>
      </trkpt>
      <trkpt lat="45.88432" lon="4.70571">
        <ele>235</ele>
        <time>2018-09-23T10:33:02Z</time>
      </trkpt>
      <trkpt lat="45.88436" lon="4.70568">
        <ele>234</ele>
        <time>2018-09-23T10:33:03Z</time>
      </trkpt>
      <trkpt lat="45.8844" lon="4.70566">
        <ele>234</ele>
        <time>2018-09-23T10:33:04Z</time>
      </trkpt>
      <trkpt lat="45.88445" lon="4.70564">
        <ele>234</ele>
        <time>2018-09-23T10:33:05Z</time>
      </trkpt>
      <trkpt lat="45.88449" lon="4.70561">
        <ele>234</ele>
        <time>2018-09-23T10:33:06Z</time>
      </trkpt>
      <trkpt lat="45.88454" lon="4.70557">
        <ele>234</ele>
        <time>2018-09-23T10:33:07Z</time>
      </trkpt>
      <trkpt lat="45.88459" lon="4.70555">
        <ele>234</ele>
        <time>2018-09-23T10:33:08Z</time>
      </trkpt>
      <trkpt lat="45.88463" lon="4.70554">
        <ele>234</ele>
        <time>2018-09-23T10:33:09Z</time>
      </trkpt>
      <trkpt lat="45.88468" lon="4.70546">
        <ele>234</ele>
        <time>2018-09-23T10:33:10Z</time>
      </trkpt>
      <trkpt lat="45.88472" lon="4.70542">
        <ele>234</ele>
        <time>2018-09-23T10:33:11Z</time>
      </trkpt>
      <trkpt lat="45.8848" lon="4.70536">
        <ele>234</ele>
        <time>2018-09-23T10:33:13Z</time>
      </trkpt>
      <trkpt lat="45.88485" lon="4.70531">
        <ele>234</ele>
        <time>2018-09-23T10:33:14Z</time>
      </trkpt>
      <trkpt lat="45.88491" lon="4.70526">
        <ele>234</ele>
        <time>2018-09-23T10:33:15Z</time>
      </trkpt>
      <trkpt lat="45.88495" lon="4.70522">
        <ele>233</ele>
        <time>2018-09-23T10:33:16Z</time>
      </trkpt>
      <trkpt lat="45.885" lon="4.70519">
        <ele>233</ele>
        <time>2018-09-23T10:33:17Z</time>
      </trkpt>
      <trkpt lat="45.88504" lon="4.70515">
        <ele>231</ele>
        <time>2018-09-23T10:33:18Z</time>
      </trkpt>
      <trkpt lat="45.88509" lon="4.70511">
        <ele>231</ele>
        <time>2018-09-23T10:33:19Z</time>
      </trkpt>
      <trkpt lat="45.88513" lon="4.70508">
        <ele>231</ele>
        <time>2018-09-23T10:33:20Z</time>
      </trkpt>
      <trkpt lat="45.88518" lon="4.70505">
        <ele>230</ele>
        <time>2018-09-23T10:33:21Z</time>
      </trkpt>
      <trkpt lat="45.88522" lon="4.70501">
        <ele>230</ele>
        <time>2018-09-23T10:33:22Z</time>
      </trkpt>
      <trkpt lat="45.88527" lon="4.70497">
        <ele>232</ele>
        <time>2018-09-23T10:33:23Z</time>
      </trkpt>
      <trkpt lat="45.88531" lon="4.70494">
        <ele>232</ele>
        <time>2018-09-23T10:33:24Z</time>
      </trkpt>
      <trkpt lat="45.88535" lon="4.70491">
        <ele>232</ele>
        <time>2018-09-23T10:33:25Z</time>
      </trkpt>
      <trkpt lat="45.8854" lon="4.70489">
        <ele>232</ele>
        <time>2018-09-23T10:33:26Z</time>
      </trkpt>
      <trkpt lat="45.88546" lon="4.70485">
        <ele>232</ele>
        <time>2018-09-23T10:33:27Z</time>
      </trkpt>
      <trkpt lat="45.88552" lon="4.70479">
        <ele>231</ele>
        <time>2018-09-23T10:33:28Z</time>
      </trkpt>
      <trkpt lat="45.88557" lon="4.70474">
        <ele>231</ele>
        <time>2018-09-23T10:33:29Z</time>
      </trkpt>
      <trkpt lat="45.88562" lon="4.7047">
        <ele>231</ele>
        <time>2018-09-23T10:33:30Z</time>
      </trkpt>
      <trkpt lat="45.88567" lon="4.70468">
        <ele>231</ele>
        <time>2018-09-23T10:33:31Z</time>
      </trkpt>
      <trkpt lat="45.88573" lon="4.70466">
        <ele>231</ele>
        <time>2018-09-23T10:33:32Z</time>
      </trkpt>
      <trkpt lat="45.88577" lon="4.70462">
        <ele>231</ele>
        <time>2018-09-23T10:33:33Z</time>
      </trkpt>
      <trkpt lat="45.88583" lon="4.70456">
        <ele>231</ele>
        <time>2018-09-23T10:33:34Z</time>
      </trkpt>
      <trkpt lat="45.88587" lon="4.70452">
        <ele>228</ele>
        <time>2018-09-23T10:33:35Z</time>
      </trkpt>
      <trkpt lat="45.88591" lon="4.70449">
        <ele>228</ele>
        <time>2018-09-23T10:33:36Z</time>
      </trkpt>
      <trkpt lat="45.88596" lon="4.70444">
        <ele>228</ele>
        <time>2018-09-23T10:33:37Z</time>
      </trkpt>
      <trkpt lat="45.88601" lon="4.7044">
        <ele>228</ele>
        <time>2018-09-23T10:33:38Z</time>
      </trkpt>
      <trkpt lat="45.88606" lon="4.70436">
        <ele>228</ele>
        <time>2018-09-23T10:33:39Z</time>
      </trkpt>
      <trkpt lat="45.8861" lon="4.70434">
        <ele>228</ele>
        <time>2018-09-23T10:33:40Z</time>
      </trkpt>
      <trkpt lat="45.88614" lon="4.70431">
        <ele>228</ele>
        <time>2018-09-23T10:33:41Z</time>
      </trkpt>
      <trkpt lat="45.88618" lon="4.70424">
        <ele>228</ele>
        <time>2018-09-23T10:33:42Z</time>
      </trkpt>
      <trkpt lat="45.88623" lon="4.70423">
        <ele>228</ele>
        <time>2018-09-23T10:33:43Z</time>
      </trkpt>
      <trkpt lat="45.88627" lon="4.70419">
        <ele>228</ele>
        <time>2018-09-23T10:33:44Z</time>
      </trkpt>
      <trkpt lat="45.88632" lon="4.70416">
        <ele>230</ele>
        <time>2018-09-23T10:33:45Z</time>
      </trkpt>
      <trkpt lat="45.88636" lon="4.70413">
        <ele>230</ele>
        <time>2018-09-23T10:33:46Z</time>
      </trkpt>
      <trkpt lat="45.88641" lon="4.70408">
        <ele>230</ele>
        <time>2018-09-23T10:33:47Z</time>
      </trkpt>
      <trkpt lat="45.88646" lon="4.70404">
        <ele>230</ele>
        <time>2018-09-23T10:33:48Z</time>
      </trkpt>
      <trkpt lat="45.88652" lon="4.70401">
        <ele>229</ele>
        <time>2018-09-23T10:33:49Z</time>
      </trkpt>
      <trkpt lat="45.88657" lon="4.70397">
        <ele>229</ele>
        <time>2018-09-23T10:33:50Z</time>
      </trkpt>
      <trkpt lat="45.88663" lon="4.70393">
        <ele>230</ele>
        <time>2018-09-23T10:33:51Z</time>
      </trkpt>
      <trkpt lat="45.88668" lon="4.70388">
        <ele>228</ele>
        <time>2018-09-23T10:33:52Z</time>
      </trkpt>
      <trkpt lat="45.88673" lon="4.70384">
        <ele>228</ele>
        <time>2018-09-23T10:33:53Z</time>
      </trkpt>
      <trkpt lat="45.88678" lon="4.70381">
        <ele>228</ele>
        <time>2018-09-23T10:33:54Z</time>
      </trkpt>
      <trkpt lat="45.88683" lon="4.70377">
        <ele>228</ele>
        <time>2018-09-23T10:33:55Z</time>
      </trkpt>
      <trkpt lat="45.88687" lon="4.70374">
        <ele>228</ele>
        <time>2018-09-23T10:33:56Z</time>
      </trkpt>
      <trkpt lat="45.88692" lon="4.7037">
        <ele>229</ele>
        <time>2018-09-23T10:33:57Z</time>
      </trkpt>
      <trkpt lat="45.88696" lon="4.70366">
        <ele>229</ele>
        <time>2018-09-23T10:33:58Z</time>
      </trkpt>
      <trkpt lat="45.88698" lon="4.70366">
        <ele>229</ele>
        <time>2018-09-23T10:33:59Z</time>
      </trkpt>
      <trkpt lat="45.88703" lon="4.70356">
        <ele>229</ele>
        <time>2018-09-23T10:34:00Z</time>
      </trkpt>
      <trkpt lat="45.88712" lon="4.70353">
        <ele>229</ele>
        <time>2018-09-23T10:34:02Z</time>
      </trkpt>
      <trkpt lat="45.88718" lon="4.70349">
        <ele>229</ele>
        <time>2018-09-23T10:34:03Z</time>
      </trkpt>
      <trkpt lat="45.88723" lon="4.70346">
        <ele>229</ele>
        <time>2018-09-23T10:34:04Z</time>
      </trkpt>
      <trkpt lat="45.8873" lon="4.70336">
        <ele>229</ele>
        <time>2018-09-23T10:34:05Z</time>
      </trkpt>
      <trkpt lat="45.88735" lon="4.70332">
        <ele>232</ele>
        <time>2018-09-23T10:34:06Z</time>
      </trkpt>
      <trkpt lat="45.88742" lon="4.70327">
        <ele>231</ele>
        <time>2018-09-23T10:34:07Z</time>
      </trkpt>
      <trkpt lat="45.88745" lon="4.70325">
        <ele>231</ele>
        <time>2018-09-23T10:34:08Z</time>
      </trkpt>
      <trkpt lat="45.88751" lon="4.70321">
        <ele>231</ele>
        <time>2018-09-23T10:34:09Z</time>
      </trkpt>
      <trkpt lat="45.88757" lon="4.70316">
        <ele>232</ele>
        <time>2018-09-23T10:34:10Z</time>
      </trkpt>
      <trkpt lat="45.88762" lon="4.70311">
        <ele>232</ele>
        <time>2018-09-23T10:34:11Z</time>
      </trkpt>
      <trkpt lat="45.88768" lon="4.70307">
        <ele>233</ele>
        <time>2018-09-23T10:34:12Z</time>
      </trkpt>
      <trkpt lat="45.88773" lon="4.70304">
        <ele>233</ele>
        <time>2018-09-23T10:34:13Z</time>
      </trkpt>
      <trkpt lat="45.88778" lon="4.703">
        <ele>233</ele>
        <time>2018-09-23T10:34:14Z</time>
      </trkpt>
      <trkpt lat="45.88783" lon="4.70295">
        <ele>233</ele>
        <time>2018-09-23T10:34:15Z</time>
      </trkpt>
      <trkpt lat="45.88787" lon="4.7029">
        <ele>234</ele>
        <time>2018-09-23T10:34:16Z</time>
      </trkpt>
      <trkpt lat="45.88792" lon="4.70285">
        <ele>234</ele>
        <time>2018-09-23T10:34:17Z</time>
      </trkpt>
      <trkpt lat="45.88796" lon="4.7028">
        <ele>234</ele>
        <time>2018-09-23T10:34:18Z</time>
      </trkpt>
      <trkpt lat="45.888" lon="4.70278">
        <ele>234</ele>
        <time>2018-09-23T10:34:19Z</time>
      </trkpt>
      <trkpt lat="45.88804" lon="4.70274">
        <ele>234</ele>
        <time>2018-09-23T10:34:20Z</time>
      </trkpt>
      <trkpt lat="45.88809" lon="4.70272">
        <ele>234</ele>
        <time>2018-09-23T10:34:21Z</time>
      </trkpt>
      <trkpt lat="45.88811" lon="4.70267">
        <ele>235</ele>
        <time>2018-09-23T10:34:22Z</time>
      </trkpt>
      <trkpt lat="45.88816" lon="4.70263">
        <ele>235</ele>
        <time>2018-09-23T10:34:23Z</time>
      </trkpt>
      <trkpt lat="45.8882" lon="4.7026">
        <ele>235</ele>
        <time>2018-09-23T10:34:24Z</time>
      </trkpt>
      <trkpt lat="45.88824" lon="4.70257">
        <ele>236</ele>
        <time>2018-09-23T10:34:25Z</time>
      </trkpt>
      <trkpt lat="45.88829" lon="4.70253">
        <ele>236</ele>
        <time>2018-09-23T10:34:26Z</time>
      </trkpt>
      <trkpt lat="45.88834" lon="4.70248">
        <ele>237</ele>
        <time>2018-09-23T10:34:27Z</time>
      </trkpt>
      <trkpt lat="45.88838" lon="4.70244">
        <ele>238</ele>
        <time>2018-09-23T10:34:28Z</time>
      </trkpt>
      <trkpt lat="45.88844" lon="4.70241">
        <ele>238</ele>
        <time>2018-09-23T10:34:29Z</time>
      </trkpt>
      <trkpt lat="45.88849" lon="4.7024">
        <ele>238</ele>
        <time>2018-09-23T10:34:30Z</time>
      </trkpt>
      <trkpt lat="45.88855" lon="4.70237">
        <ele>238</ele>
        <time>2018-09-23T10:34:31Z</time>
      </trkpt>
      <trkpt lat="45.8886" lon="4.70236">
        <ele>238</ele>
        <time>2018-09-23T10:34:32Z</time>
      </trkpt>
      <trkpt lat="45.88865" lon="4.70234">
        <ele>238</ele>
        <time>2018-09-23T10:34:33Z</time>
      </trkpt>
      <trkpt lat="45.88871" lon="4.70231">
        <ele>238</ele>
        <time>2018-09-23T10:34:34Z</time>
      </trkpt>
      <trkpt lat="45.88877" lon="4.70227">
        <ele>238</ele>
        <time>2018-09-23T10:34:35Z</time>
      </trkpt>
      <trkpt lat="45.88881" lon="4.70226">
        <ele>238</ele>
        <time>2018-09-23T10:34:36Z</time>
      </trkpt>
      <trkpt lat="45.88887" lon="4.70223">
        <ele>238</ele>
        <time>2018-09-23T10:34:37Z</time>
      </trkpt>
      <trkpt lat="45.88892" lon="4.70221">
        <ele>238</ele>
        <time>2018-09-23T10:34:38Z</time>
      </trkpt>
      <trkpt lat="45.88898" lon="4.70219">
        <ele>238</ele>
        <time>2018-09-23T10:34:39Z</time>
      </trkpt>
      <trkpt lat="45.88903" lon="4.70217">
        <ele>238</ele>
        <time>2018-09-23T10:34:40Z</time>
      </trkpt>
      <trkpt lat="45.88908" lon="4.70215">
        <ele>238</ele>
        <time>2018-09-23T10:34:41Z</time>
      </trkpt>
      <trkpt lat="45.88914" lon="4.70211">
        <ele>238</ele>
        <time>2018-09-23T10:34:42Z</time>
      </trkpt>
      <trkpt lat="45.88919" lon="4.70208">
        <ele>234</ele>
        <time>2018-09-23T10:34:43Z</time>
      </trkpt>
      <trkpt lat="45.88923" lon="4.70206">
        <ele>234</ele>
        <time>2018-09-23T10:34:44Z</time>
      </trkpt>
      <trkpt lat="45.88928" lon="4.70201">
        <ele>235</ele>
        <time>2018-09-23T10:34:45Z</time>
      </trkpt>
      <trkpt lat="45.88932" lon="4.70198">
        <ele>235</ele>
        <time>2018-09-23T10:34:46Z</time>
      </trkpt>
      <trkpt lat="45.88938" lon="4.70197">
        <ele>235</ele>
        <time>2018-09-23T10:34:47Z</time>
      </trkpt>
      <trkpt lat="45.88943" lon="4.70194">
        <ele>234</ele>
        <time>2018-09-23T10:34:48Z</time>
      </trkpt>
      <trkpt lat="45.88948" lon="4.7019">
        <ele>234</ele>
        <time>2018-09-23T10:34:49Z</time>
      </trkpt>
      <trkpt lat="45.88954" lon="4.70188">
        <ele>234</ele>
        <time>2018-09-23T10:34:50Z</time>
      </trkpt>
      <trkpt lat="45.88959" lon="4.70187">
        <ele>234</ele>
        <time>2018-09-23T10:34:51Z</time>
      </trkpt>
      <trkpt lat="45.88964" lon="4.70185">
        <ele>234</ele>
        <time>2018-09-23T10:34:52Z</time>
      </trkpt>
      <trkpt lat="45.88968" lon="4.70182">
        <ele>233</ele>
        <time>2018-09-23T10:34:53Z</time>
      </trkpt>
      <trkpt lat="45.88973" lon="4.70179">
        <ele>233</ele>
        <time>2018-09-23T10:34:54Z</time>
      </trkpt>
      <trkpt lat="45.88977" lon="4.70178">
        <ele>233</ele>
        <time>2018-09-23T10:34:55Z</time>
      </trkpt>
      <trkpt lat="45.88982" lon="4.70173">
        <ele>233</ele>
        <time>2018-09-23T10:34:56Z</time>
      </trkpt>
      <trkpt lat="45.88985" lon="4.70168">
        <ele>233</ele>
        <time>2018-09-23T10:34:57Z</time>
      </trkpt>
      <trkpt lat="45.88991" lon="4.70163">
        <ele>234</ele>
        <time>2018-09-23T10:34:59Z</time>
      </trkpt>
      <trkpt lat="45.88996" lon="4.7016">
        <ele>234</ele>
        <time>2018-09-23T10:35:00Z</time>
      </trkpt>
      <trkpt lat="45.89001" lon="4.70158">
        <ele>232</ele>
        <time>2018-09-23T10:35:01Z</time>
      </trkpt>
      <trkpt lat="45.89005" lon="4.70154">
        <ele>232</ele>
        <time>2018-09-23T10:35:02Z</time>
      </trkpt>
      <trkpt lat="45.8901" lon="4.70152">
        <ele>232</ele>
        <time>2018-09-23T10:35:03Z</time>
      </trkpt>
      <trkpt lat="45.89016" lon="4.70145">
        <ele>231</ele>
        <time>2018-09-23T10:35:04Z</time>
      </trkpt>
      <trkpt lat="45.89022" lon="4.70143">
        <ele>231</ele>
        <time>2018-09-23T10:35:05Z</time>
      </trkpt>
      <trkpt lat="45.89027" lon="4.7014">
        <ele>231</ele>
        <time>2018-09-23T10:35:06Z</time>
      </trkpt>
      <trkpt lat="45.89031" lon="4.70136">
        <ele>231</ele>
        <time>2018-09-23T10:35:07Z</time>
      </trkpt>
      <trkpt lat="45.89035" lon="4.70134">
        <ele>231</ele>
        <time>2018-09-23T10:35:08Z</time>
      </trkpt>
      <trkpt lat="45.89042" lon="4.70129">
        <ele>231</ele>
        <time>2018-09-23T10:35:10Z</time>
      </trkpt>
      <trkpt lat="45.89046" lon="4.70127">
        <ele>231</ele>
        <time>2018-09-23T10:35:11Z</time>
      </trkpt>
      <trkpt lat="45.8905" lon="4.70124">
        <ele>231</ele>
        <time>2018-09-23T10:35:12Z</time>
      </trkpt>
      <trkpt lat="45.89055" lon="4.70122">
        <ele>231</ele>
        <time>2018-09-23T10:35:13Z</time>
      </trkpt>
      <trkpt lat="45.89059" lon="4.70119">
        <ele>230</ele>
        <time>2018-09-23T10:35:14Z</time>
      </trkpt>
      <trkpt lat="45.89064" lon="4.70116">
        <ele>230</ele>
        <time>2018-09-23T10:35:15Z</time>
      </trkpt>
      <trkpt lat="45.89069" lon="4.70113">
        <ele>230</ele>
        <time>2018-09-23T10:35:16Z</time>
      </trkpt>
      <trkpt lat="45.89074" lon="4.7011">
        <ele>230</ele>
        <time>2018-09-23T10:35:17Z</time>
      </trkpt>
      <trkpt lat="45.8908" lon="4.70106">
        <ele>230</ele>
        <time>2018-09-23T10:35:18Z</time>
      </trkpt>
      <trkpt lat="45.89084" lon="4.70103">
        <ele>228</ele>
        <time>2018-09-23T10:35:19Z</time>
      </trkpt>
      <trkpt lat="45.89089" lon="4.701">
        <ele>228</ele>
        <time>2018-09-23T10:35:20Z</time>
      </trkpt>
      <trkpt lat="45.89095" lon="4.70097">
        <ele>228</ele>
        <time>2018-09-23T10:35:21Z</time>
      </trkpt>
      <trkpt lat="45.891" lon="4.70094">
        <ele>228</ele>
        <time>2018-09-23T10:35:22Z</time>
      </trkpt>
      <trkpt lat="45.89105" lon="4.70092">
        <ele>228</ele>
        <time>2018-09-23T10:35:23Z</time>
      </trkpt>
      <trkpt lat="45.89109" lon="4.7009">
        <ele>228</ele>
        <time>2018-09-23T10:35:24Z</time>
      </trkpt>
      <trkpt lat="45.89114" lon="4.70087">
        <ele>228</ele>
        <time>2018-09-23T10:35:25Z</time>
      </trkpt>
      <trkpt lat="45.89119" lon="4.70084">
        <ele>228</ele>
        <time>2018-09-23T10:35:26Z</time>
      </trkpt>
      <trkpt lat="45.89123" lon="4.70081">
        <ele>231</ele>
        <time>2018-09-23T10:35:27Z</time>
      </trkpt>
      <trkpt lat="45.89128" lon="4.70078">
        <ele>231</ele>
        <time>2018-09-23T10:35:28Z</time>
      </trkpt>
      <trkpt lat="45.89133" lon="4.70077">
        <ele>231</ele>
        <time>2018-09-23T10:35:29Z</time>
      </trkpt>
      <trkpt lat="45.89138" lon="4.70075">
        <ele>231</ele>
        <time>2018-09-23T10:35:30Z</time>
      </trkpt>
      <trkpt lat="45.89143" lon="4.7007">
        <ele>231</ele>
        <time>2018-09-23T10:35:31Z</time>
      </trkpt>
      <trkpt lat="45.89148" lon="4.70062">
        <ele>231</ele>
        <time>2018-09-23T10:35:32Z</time>
      </trkpt>
      <trkpt lat="45.89153" lon="4.70059">
        <ele>231</ele>
        <time>2018-09-23T10:35:33Z</time>
      </trkpt>
      <trkpt lat="45.89159" lon="4.70058">
        <ele>231</ele>
        <time>2018-09-23T10:35:34Z</time>
      </trkpt>
      <trkpt lat="45.89164" lon="4.70055">
        <ele>231</ele>
        <time>2018-09-23T10:35:35Z</time>
      </trkpt>
      <trkpt lat="45.8917" lon="4.70055">
        <ele>229</ele>
        <time>2018-09-23T10:35:36Z</time>
      </trkpt>
      <trkpt lat="45.89175" lon="4.70052">
        <ele>229</ele>
        <time>2018-09-23T10:35:37Z</time>
      </trkpt>
      <trkpt lat="45.8918" lon="4.70047">
        <ele>229</ele>
        <time>2018-09-23T10:35:38Z</time>
      </trkpt>
      <trkpt lat="45.89186" lon="4.70045">
        <ele>229</ele>
        <time>2018-09-23T10:35:39Z</time>
      </trkpt>
      <trkpt lat="45.89193" lon="4.70044">
        <ele>229</ele>
        <time>2018-09-23T10:35:40Z</time>
      </trkpt>
      <trkpt lat="45.89198" lon="4.70041">
        <ele>229</ele>
        <time>2018-09-23T10:35:41Z</time>
      </trkpt>
      <trkpt lat="45.89204" lon="4.70041">
        <ele>229</ele>
        <time>2018-09-23T10:35:42Z</time>
      </trkpt>
      <trkpt lat="45.89209" lon="4.70039">
        <ele>229</ele>
        <time>2018-09-23T10:35:43Z</time>
      </trkpt>
      <trkpt lat="45.89215" lon="4.70037">
        <ele>228</ele>
        <time>2018-09-23T10:35:44Z</time>
      </trkpt>
      <trkpt lat="45.8922" lon="4.70035">
        <ele>228</ele>
        <time>2018-09-23T10:35:45Z</time>
      </trkpt>
      <trkpt lat="45.89225" lon="4.70033">
        <ele>228</ele>
        <time>2018-09-23T10:35:46Z</time>
      </trkpt>
      <trkpt lat="45.89231" lon="4.7003">
        <ele>228</ele>
        <time>2018-09-23T10:35:47Z</time>
      </trkpt>
      <trkpt lat="45.89236" lon="4.7003">
        <ele>228</ele>
        <time>2018-09-23T10:35:48Z</time>
      </trkpt>
      <trkpt lat="45.89241" lon="4.70028">
        <ele>228</ele>
        <time>2018-09-23T10:35:49Z</time>
      </trkpt>
      <trkpt lat="45.89246" lon="4.70026">
        <ele>228</ele>
        <time>2018-09-23T10:35:50Z</time>
      </trkpt>
      <trkpt lat="45.8925" lon="4.70021">
        <ele>229</ele>
        <time>2018-09-23T10:35:51Z</time>
      </trkpt>
      <trkpt lat="45.89255" lon="4.70022">
        <ele>227</ele>
        <time>2018-09-23T10:35:52Z</time>
      </trkpt>
      <trkpt lat="45.8926" lon="4.7002">
        <ele>227</ele>
        <time>2018-09-23T10:35:53Z</time>
      </trkpt>
      <trkpt lat="45.89265" lon="4.70018">
        <ele>227</ele>
        <time>2018-09-23T10:35:54Z</time>
      </trkpt>
      <trkpt lat="45.89271" lon="4.70016">
        <ele>227</ele>
        <time>2018-09-23T10:35:55Z</time>
      </trkpt>
      <trkpt lat="45.89277" lon="4.70014">
        <ele>226</ele>
        <time>2018-09-23T10:35:56Z</time>
      </trkpt>
      <trkpt lat="45.89284" lon="4.70013">
        <ele>226</ele>
        <time>2018-09-23T10:35:57Z</time>
      </trkpt>
      <trkpt lat="45.89289" lon="4.7001">
        <ele>226</ele>
        <time>2018-09-23T10:35:58Z</time>
      </trkpt>
      <trkpt lat="45.89294" lon="4.70008">
        <ele>226</ele>
        <time>2018-09-23T10:35:59Z</time>
      </trkpt>
      <trkpt lat="45.893" lon="4.70006">
        <ele>226</ele>
        <time>2018-09-23T10:36:00Z</time>
      </trkpt>
      <trkpt lat="45.89305" lon="4.70004">
        <ele>226</ele>
        <time>2018-09-23T10:36:01Z</time>
      </trkpt>
      <trkpt lat="45.89311" lon="4.70003">
        <ele>226</ele>
        <time>2018-09-23T10:36:02Z</time>
      </trkpt>
      <trkpt lat="45.89317" lon="4.70001">
        <ele>226</ele>
        <time>2018-09-23T10:36:03Z</time>
      </trkpt>
      <trkpt lat="45.89324" lon="4.7">
        <ele>227</ele>
        <time>2018-09-23T10:36:04Z</time>
      </trkpt>
      <trkpt lat="45.8933" lon="4.70002">
        <ele>226</ele>
        <time>2018-09-23T10:36:05Z</time>
      </trkpt>
      <trkpt lat="45.89336" lon="4.70001">
        <ele>226</ele>
        <time>2018-09-23T10:36:06Z</time>
      </trkpt>
      <trkpt lat="45.89343" lon="4.7">
        <ele>226</ele>
        <time>2018-09-23T10:36:07Z</time>
      </trkpt>
      <trkpt lat="45.89349" lon="4.7">
        <ele>225</ele>
        <time>2018-09-23T10:36:08Z</time>
      </trkpt>
      <trkpt lat="45.89356" lon="4.7">
        <ele>225</ele>
        <time>2018-09-23T10:36:09Z</time>
      </trkpt>
      <trkpt lat="45.89363" lon="4.70001">
        <ele>225</ele>
        <time>2018-09-23T10:36:10Z</time>
      </trkpt>
      <trkpt lat="45.89369" lon="4.70003">
        <ele>225</ele>
        <time>2018-09-23T10:36:11Z</time>
      </trkpt>
      <trkpt lat="45.89375" lon="4.70004">
        <ele>225</ele>
        <time>2018-09-23T10:36:12Z</time>
      </trkpt>
      <trkpt lat="45.89381" lon="4.70006">
        <ele>225</ele>
        <time>2018-09-23T10:36:13Z</time>
      </trkpt>
      <trkpt lat="45.89387" lon="4.70007">
        <ele>226</ele>
        <time>2018-09-23T10:36:14Z</time>
      </trkpt>
      <trkpt lat="45.89394" lon="4.70008">
        <ele>226</ele>
        <time>2018-09-23T10:36:15Z</time>
      </trkpt>
      <trkpt lat="45.894" lon="4.70003">
        <ele>226</ele>
        <time>2018-09-23T10:36:16Z</time>
      </trkpt>
      <trkpt lat="45.89406" lon="4.70004">
        <ele>226</ele>
        <time>2018-09-23T10:36:17Z</time>
      </trkpt>
      <trkpt lat="45.89412" lon="4.70008">
        <ele>226</ele>
        <time>2018-09-23T10:36:18Z</time>
      </trkpt>
      <trkpt lat="45.89418" lon="4.70009">
        <ele>226</ele>
        <time>2018-09-23T10:36:19Z</time>
      </trkpt>
      <trkpt lat="45.89423" lon="4.70013">
        <ele>226</ele>
        <time>2018-09-23T10:36:20Z</time>
      </trkpt>
      <trkpt lat="45.89428" lon="4.70013">
        <ele>226</ele>
        <time>2018-09-23T10:36:21Z</time>
      </trkpt>
      <trkpt lat="45.89434" lon="4.70015">
        <ele>225</ele>
        <time>2018-09-23T10:36:22Z</time>
      </trkpt>
      <trkpt lat="45.8944" lon="4.70014">
        <ele>225</ele>
        <time>2018-09-23T10:36:23Z</time>
      </trkpt>
      <trkpt lat="45.89446" lon="4.70014">
        <ele>225</ele>
        <time>2018-09-23T10:36:24Z</time>
      </trkpt>
      <trkpt lat="45.89452" lon="4.70015">
        <ele>225</ele>
        <time>2018-09-23T10:36:25Z</time>
      </trkpt>
      <trkpt lat="45.89458" lon="4.70016">
        <ele>225</ele>
        <time>2018-09-23T10:36:26Z</time>
      </trkpt>
      <trkpt lat="45.89464" lon="4.70017">
        <ele>225</ele>
        <time>2018-09-23T10:36:27Z</time>
      </trkpt>
      <trkpt lat="45.8947" lon="4.7002">
        <ele>225</ele>
        <time>2018-09-23T10:36:28Z</time>
      </trkpt>
      <trkpt lat="45.89476" lon="4.70021">
        <ele>224</ele>
        <time>2018-09-23T10:36:29Z</time>
      </trkpt>
      <trkpt lat="45.89482" lon="4.70022">
        <ele>224</ele>
        <time>2018-09-23T10:36:30Z</time>
      </trkpt>
      <trkpt lat="45.89486" lon="4.70025">
        <ele>224</ele>
        <time>2018-09-23T10:36:31Z</time>
      </trkpt>
      <trkpt lat="45.89492" lon="4.70026">
        <ele>224</ele>
        <time>2018-09-23T10:36:32Z</time>
      </trkpt>
      <trkpt lat="45.89499" lon="4.70027">
        <ele>224</ele>
        <time>2018-09-23T10:36:33Z</time>
      </trkpt>
      <trkpt lat="45.89505" lon="4.70028">
        <ele>223</ele>
        <time>2018-09-23T10:36:34Z</time>
      </trkpt>
      <trkpt lat="45.8951" lon="4.7003">
        <ele>223</ele>
        <time>2018-09-23T10:36:35Z</time>
      </trkpt>
      <trkpt lat="45.89516" lon="4.70031">
        <ele>223</ele>
        <time>2018-09-23T10:36:36Z</time>
      </trkpt>
      <trkpt lat="45.89523" lon="4.70032">
        <ele>223</ele>
        <time>2018-09-23T10:36:37Z</time>
      </trkpt>
      <trkpt lat="45.89529" lon="4.70033">
        <ele>223</ele>
        <time>2018-09-23T10:36:38Z</time>
      </trkpt>
      <trkpt lat="45.89535" lon="4.70033">
        <ele>223</ele>
        <time>2018-09-23T10:36:39Z</time>
      </trkpt>
      <trkpt lat="45.89541" lon="4.70034">
        <ele>222</ele>
        <time>2018-09-23T10:36:40Z</time>
      </trkpt>
      <trkpt lat="45.89547" lon="4.70035">
        <ele>222</ele>
        <time>2018-09-23T10:36:41Z</time>
      </trkpt>
      <trkpt lat="45.89553" lon="4.70036">
        <ele>222</ele>
        <time>2018-09-23T10:36:42Z</time>
      </trkpt>
      <trkpt lat="45.89559" lon="4.70037">
        <ele>222</ele>
        <time>2018-09-23T10:36:43Z</time>
      </trkpt>
      <trkpt lat="45.89565" lon="4.70038">
        <ele>222</ele>
        <time>2018-09-23T10:36:44Z</time>
      </trkpt>
      <trkpt lat="45.89571" lon="4.70039">
        <ele>222</ele>
        <time>2018-09-23T10:36:45Z</time>
      </trkpt>
      <trkpt lat="45.89578" lon="4.7004">
        <ele>222</ele>
        <time>2018-09-23T10:36:46Z</time>
      </trkpt>
      <trkpt lat="45.89583" lon="4.70043">
        <ele>222</ele>
        <time>2018-09-23T10:36:47Z</time>
      </trkpt>
      <trkpt lat="45.89589" lon="4.70043">
        <ele>222</ele>
        <time>2018-09-23T10:36:48Z</time>
      </trkpt>
      <trkpt lat="45.89596" lon="4.70046">
        <ele>222</ele>
        <time>2018-09-23T10:36:49Z</time>
      </trkpt>
      <trkpt lat="45.89602" lon="4.70046">
        <ele>222</ele>
        <time>2018-09-23T10:36:50Z</time>
      </trkpt>
      <trkpt lat="45.89608" lon="4.70047">
        <ele>222</ele>
        <time>2018-09-23T10:36:51Z</time>
      </trkpt>
      <trkpt lat="45.89614" lon="4.70048">
        <ele>222</ele>
        <time>2018-09-23T10:36:52Z</time>
      </trkpt>
      <trkpt lat="45.89621" lon="4.70049">
        <ele>222</ele>
        <time>2018-09-23T10:36:53Z</time>
      </trkpt>
      <trkpt lat="45.89627" lon="4.70049">
        <ele>222</ele>
        <time>2018-09-23T10:36:54Z</time>
      </trkpt>
      <trkpt lat="45.89633" lon="4.7005">
        <ele>222</ele>
        <time>2018-09-23T10:36:55Z</time>
      </trkpt>
      <trkpt lat="45.89639" lon="4.70051">
        <ele>222</ele>
        <time>2018-09-23T10:36:56Z</time>
      </trkpt>
      <trkpt lat="45.89646" lon="4.70052">
        <ele>222</ele>
        <time>2018-09-23T10:36:57Z</time>
      </trkpt>
      <trkpt lat="45.89652" lon="4.70053">
        <ele>222</ele>
        <time>2018-09-23T10:36:58Z</time>
      </trkpt>
      <trkpt lat="45.89659" lon="4.70055">
        <ele>222</ele>
        <time>2018-09-23T10:36:59Z</time>
      </trkpt>
      <trkpt lat="45.89665" lon="4.70056">
        <ele>222</ele>
        <time>2018-09-23T10:37:00Z</time>
      </trkpt>
      <trkpt lat="45.89671" lon="4.70057">
        <ele>222</ele>
        <time>2018-09-23T10:37:01Z</time>
      </trkpt>
      <trkpt lat="45.89677" lon="4.70058">
        <ele>222</ele>
        <time>2018-09-23T10:37:02Z</time>
      </trkpt>
      <trkpt lat="45.89683" lon="4.70058">
        <ele>222</ele>
        <time>2018-09-23T10:37:03Z</time>
      </trkpt>
      <trkpt lat="45.89689" lon="4.70057">
        <ele>222</ele>
        <time>2018-09-23T10:37:04Z</time>
      </trkpt>
      <trkpt lat="45.89696" lon="4.70059">
        <ele>222</ele>
        <time>2018-09-23T10:37:05Z</time>
      </trkpt>
      <trkpt lat="45.89703" lon="4.7006">
        <ele>221</ele>
        <time>2018-09-23T10:37:06Z</time>
      </trkpt>
      <trkpt lat="45.8971" lon="4.70062">
        <ele>221</ele>
        <time>2018-09-23T10:37:07Z</time>
      </trkpt>
      <trkpt lat="45.89717" lon="4.70063">
        <ele>221</ele>
        <time>2018-09-23T10:37:08Z</time>
      </trkpt>
      <trkpt lat="45.89724" lon="4.70064">
        <ele>221</ele>
        <time>2018-09-23T10:37:09Z</time>
      </trkpt>
      <trkpt lat="45.8973" lon="4.70066">
        <ele>221</ele>
        <time>2018-09-23T10:37:10Z</time>
      </trkpt>
      <trkpt lat="45.89737" lon="4.70068">
        <ele>221</ele>
        <time>2018-09-23T10:37:11Z</time>
      </trkpt>
      <trkpt lat="45.89744" lon="4.7007">
        <ele>220</ele>
        <time>2018-09-23T10:37:12Z</time>
      </trkpt>
      <trkpt lat="45.89751" lon="4.70072">
        <ele>220</ele>
        <time>2018-09-23T10:37:13Z</time>
      </trkpt>
      <trkpt lat="45.89758" lon="4.70074">
        <ele>220</ele>
        <time>2018-09-23T10:37:14Z</time>
      </trkpt>
      <trkpt lat="45.89764" lon="4.70075">
        <ele>220</ele>
        <time>2018-09-23T10:37:15Z</time>
      </trkpt>
      <trkpt lat="45.89769" lon="4.70076">
        <ele>220</ele>
        <time>2018-09-23T10:37:16Z</time>
      </trkpt>
      <trkpt lat="45.89776" lon="4.70077">
        <ele>220</ele>
        <time>2018-09-23T10:37:17Z</time>
      </trkpt>
      <trkpt lat="45.89781" lon="4.70075">
        <ele>221</ele>
        <time>2018-09-23T10:37:18Z</time>
      </trkpt>
      <trkpt lat="45.89787" lon="4.70076">
        <ele>221</ele>
        <time>2018-09-23T10:37:19Z</time>
      </trkpt>
      <trkpt lat="45.89794" lon="4.70076">
        <ele>221</ele>
        <time>2018-09-23T10:37:20Z</time>
      </trkpt>
      <trkpt lat="45.89799" lon="4.70077">
        <ele>221</ele>
        <time>2018-09-23T10:37:21Z</time>
      </trkpt>
      <trkpt lat="45.89805" lon="4.70075">
        <ele>221</ele>
        <time>2018-09-23T10:37:22Z</time>
      </trkpt>
      <trkpt lat="45.89812" lon="4.70073">
        <ele>221</ele>
        <time>2018-09-23T10:37:23Z</time>
      </trkpt>
      <trkpt lat="45.89819" lon="4.70074">
        <ele>221</ele>
        <time>2018-09-23T10:37:24Z</time>
      </trkpt>
      <trkpt lat="45.89824" lon="4.70077">
        <ele>220</ele>
        <time>2018-09-23T10:37:25Z</time>
      </trkpt>
      <trkpt lat="45.89828" lon="4.70077">
        <ele>220</ele>
        <time>2018-09-23T10:37:26Z</time>
      </trkpt>
      <trkpt lat="45.89834" lon="4.70077">
        <ele>220</ele>
        <time>2018-09-23T10:37:27Z</time>
      </trkpt>
      <trkpt lat="45.89838" lon="4.70076">
        <ele>221</ele>
        <time>2018-09-23T10:37:28Z</time>
      </trkpt>
      <trkpt lat="45.89843" lon="4.70076">
        <ele>221</ele>
        <time>2018-09-23T10:37:29Z</time>
      </trkpt>
      <trkpt lat="45.89849" lon="4.70076">
        <ele>221</ele>
        <time>2018-09-23T10:37:30Z</time>
      </trkpt>
      <trkpt lat="45.89854" lon="4.70076">
        <ele>221</ele>
        <time>2018-09-23T10:37:31Z</time>
      </trkpt>
      <trkpt lat="45.89861" lon="4.70076">
        <ele>221</ele>
        <time>2018-09-23T10:37:32Z</time>
      </trkpt>
      <trkpt lat="45.89867" lon="4.70076">
        <ele>221</ele>
        <time>2018-09-23T10:37:33Z</time>
      </trkpt>
      <trkpt lat="45.89872" lon="4.70076">
        <ele>221</ele>
        <time>2018-09-23T10:37:34Z</time>
      </trkpt>
      <trkpt lat="45.89877" lon="4.70076">
        <ele>221</ele>
        <time>2018-09-23T10:37:35Z</time>
      </trkpt>
      <trkpt lat="45.89884" lon="4.7008">
        <ele>221</ele>
        <time>2018-09-23T10:37:36Z</time>
      </trkpt>
      <trkpt lat="45.89889" lon="4.7008">
        <ele>221</ele>
        <time>2018-09-23T10:37:37Z</time>
      </trkpt>
      <trkpt lat="45.89894" lon="4.70082">
        <ele>221</ele>
        <time>2018-09-23T10:37:38Z</time>
      </trkpt>
      <trkpt lat="45.89899" lon="4.70082">
        <ele>221</ele>
        <time>2018-09-23T10:37:39Z</time>
      </trkpt>
      <trkpt lat="45.89907" lon="4.70084">
        <ele>221</ele>
        <time>2018-09-23T10:37:41Z</time>
      </trkpt>
      <trkpt lat="45.89911" lon="4.70084">
        <ele>221</ele>
        <time>2018-09-23T10:37:42Z</time>
      </trkpt>
      <trkpt lat="45.89917" lon="4.70083">
        <ele>221</ele>
        <time>2018-09-23T10:37:43Z</time>
      </trkpt>
      <trkpt lat="45.89921" lon="4.70083">
        <ele>221</ele>
        <time>2018-09-23T10:37:44Z</time>
      </trkpt>
      <trkpt lat="45.89929" lon="4.70083">
        <ele>222</ele>
        <time>2018-09-23T10:37:46Z</time>
      </trkpt>
      <trkpt lat="45.89934" lon="4.70084">
        <ele>221</ele>
        <time>2018-09-23T10:37:47Z</time>
      </trkpt>
      <trkpt lat="45.89939" lon="4.70083">
        <ele>222</ele>
        <time>2018-09-23T10:37:48Z</time>
      </trkpt>
      <trkpt lat="45.89943" lon="4.70083">
        <ele>222</ele>
        <time>2018-09-23T10:37:49Z</time>
      </trkpt>
      <trkpt lat="45.89949" lon="4.70086">
        <ele>221</ele>
        <time>2018-09-23T10:37:51Z</time>
      </trkpt>
      <trkpt lat="45.89954" lon="4.70086">
        <ele>221</ele>
        <time>2018-09-23T10:37:52Z</time>
      </trkpt>
      <trkpt lat="45.89962" lon="4.70089">
        <ele>221</ele>
        <time>2018-09-23T10:37:54Z</time>
      </trkpt>
      <trkpt lat="45.89968" lon="4.70089">
        <ele>221</ele>
        <time>2018-09-23T10:37:55Z</time>
      </trkpt>
      <trkpt lat="45.89977" lon="4.7009">
        <ele>221</ele>
        <time>2018-09-23T10:37:57Z</time>
      </trkpt>
      <trkpt lat="45.89984" lon="4.7009">
        <ele>221</ele>
        <time>2018-09-23T10:37:58Z</time>
      </trkpt>
      <trkpt lat="45.89989" lon="4.7009">
        <ele>222</ele>
        <time>2018-09-23T10:37:59Z</time>
      </trkpt>
      <trkpt lat="45.89994" lon="4.7009">
        <ele>222</ele>
        <time>2018-09-23T10:38:00Z</time>
      </trkpt>
      <trkpt lat="45.89999" lon="4.7009">
        <ele>222</ele>
        <time>2018-09-23T10:38:01Z</time>
      </trkpt>
      <trkpt lat="45.90004" lon="4.7009">
        <ele>222</ele>
        <time>2018-09-23T10:38:02Z</time>
      </trkpt>
      <trkpt lat="45.90012" lon="4.70092">
        <ele>222</ele>
        <time>2018-09-23T10:38:04Z</time>
      </trkpt>
      <trkpt lat="45.90017" lon="4.70091">
        <ele>222</ele>
        <time>2018-09-23T10:38:05Z</time>
      </trkpt>
      <trkpt lat="45.90025" lon="4.70091">
        <ele>222</ele>
        <time>2018-09-23T10:38:07Z</time>
      </trkpt>
      <trkpt lat="45.9003" lon="4.70091">
        <ele>222</ele>
        <time>2018-09-23T10:38:08Z</time>
      </trkpt>
      <trkpt lat="45.90038" lon="4.70093">
        <ele>222</ele>
        <time>2018-09-23T10:38:10Z</time>
      </trkpt>
      <trkpt lat="45.90043" lon="4.70092">
        <ele>222</ele>
        <time>2018-09-23T10:38:11Z</time>
      </trkpt>
      <trkpt lat="45.90048" lon="4.70093">
        <ele>222</ele>
        <time>2018-09-23T10:38:12Z</time>
      </trkpt>
      <trkpt lat="45.90052" lon="4.70094">
        <ele>222</ele>
        <time>2018-09-23T10:38:13Z</time>
      </trkpt>
      <trkpt lat="45.90061" lon="4.70095">
        <ele>223</ele>
        <time>2018-09-23T10:38:15Z</time>
      </trkpt>
      <trkpt lat="45.90065" lon="4.70095">
        <ele>223</ele>
        <time>2018-09-23T10:38:16Z</time>
      </trkpt>
      <trkpt lat="45.90074" lon="4.70094">
        <ele>223</ele>
        <time>2018-09-23T10:38:18Z</time>
      </trkpt>
      <trkpt lat="45.90079" lon="4.70094">
        <ele>223</ele>
        <time>2018-09-23T10:38:19Z</time>
      </trkpt>
      <trkpt lat="45.90084" lon="4.70093">
        <ele>224</ele>
        <time>2018-09-23T10:38:20Z</time>
      </trkpt>
      <trkpt lat="45.90089" lon="4.70092">
        <ele>224</ele>
        <time>2018-09-23T10:38:21Z</time>
      </trkpt>
      <trkpt lat="45.90093" lon="4.70091">
        <ele>224</ele>
        <time>2018-09-23T10:38:22Z</time>
      </trkpt>
      <trkpt lat="45.90098" lon="4.70091">
        <ele>223</ele>
        <time>2018-09-23T10:38:23Z</time>
      </trkpt>
      <trkpt lat="45.90102" lon="4.70091">
        <ele>223</ele>
        <time>2018-09-23T10:38:24Z</time>
      </trkpt>
      <trkpt lat="45.90107" lon="4.7009">
        <ele>223</ele>
        <time>2018-09-23T10:38:25Z</time>
      </trkpt>
      <trkpt lat="45.90112" lon="4.70089">
        <ele>223</ele>
        <time>2018-09-23T10:38:26Z</time>
      </trkpt>
      <trkpt lat="45.90116" lon="4.70089">
        <ele>223</ele>
        <time>2018-09-23T10:38:27Z</time>
      </trkpt>
      <trkpt lat="45.90121" lon="4.70088">
        <ele>223</ele>
        <time>2018-09-23T10:38:28Z</time>
      </trkpt>
      <trkpt lat="45.90126" lon="4.70088">
        <ele>223</ele>
        <time>2018-09-23T10:38:29Z</time>
      </trkpt>
      <trkpt lat="45.90131" lon="4.70087">
        <ele>223</ele>
        <time>2018-09-23T10:38:30Z</time>
      </trkpt>
      <trkpt lat="45.90136" lon="4.70087">
        <ele>224</ele>
        <time>2018-09-23T10:38:31Z</time>
      </trkpt>
      <trkpt lat="45.9014" lon="4.70086">
        <ele>224</ele>
        <time>2018-09-23T10:38:32Z</time>
      </trkpt>
      <trkpt lat="45.90145" lon="4.70085">
        <ele>224</ele>
        <time>2018-09-23T10:38:33Z</time>
      </trkpt>
      <trkpt lat="45.90153" lon="4.70085">
        <ele>224</ele>
        <time>2018-09-23T10:38:35Z</time>
      </trkpt>
      <trkpt lat="45.90156" lon="4.70083">
        <ele>224</ele>
        <time>2018-09-23T10:38:36Z</time>
      </trkpt>
      <trkpt lat="45.9016" lon="4.70083">
        <ele>225</ele>
        <time>2018-09-23T10:38:37Z</time>
      </trkpt>
      <trkpt lat="45.90165" lon="4.70082">
        <ele>225</ele>
        <time>2018-09-23T10:38:38Z</time>
      </trkpt>
      <trkpt lat="45.90169" lon="4.7008">
        <ele>225</ele>
        <time>2018-09-23T10:38:39Z</time>
      </trkpt>
      <trkpt lat="45.90176" lon="4.70078">
        <ele>225</ele>
        <time>2018-09-23T10:38:40Z</time>
      </trkpt>
      <trkpt lat="45.9018" lon="4.70078">
        <ele>225</ele>
        <time>2018-09-23T10:38:41Z</time>
      </trkpt>
      <trkpt lat="45.90185" lon="4.70077">
        <ele>226</ele>
        <time>2018-09-23T10:38:42Z</time>
      </trkpt>
      <trkpt lat="45.9019" lon="4.70075">
        <ele>226</ele>
        <time>2018-09-23T10:38:43Z</time>
      </trkpt>
      <trkpt lat="45.90194" lon="4.70076">
        <ele>226</ele>
        <time>2018-09-23T10:38:44Z</time>
      </trkpt>
      <trkpt lat="45.90199" lon="4.70076">
        <ele>226</ele>
        <time>2018-09-23T10:38:45Z</time>
      </trkpt>
      <trkpt lat="45.90203" lon="4.70073">
        <ele>226</ele>
        <time>2018-09-23T10:38:46Z</time>
      </trkpt>
      <trkpt lat="45.90208" lon="4.70073">
        <ele>226</ele>
        <time>2018-09-23T10:38:47Z</time>
      </trkpt>
      <trkpt lat="45.90213" lon="4.70072">
        <ele>225</ele>
        <time>2018-09-23T10:38:48Z</time>
      </trkpt>
      <trkpt lat="45.90217" lon="4.70071">
        <ele>225</ele>
        <time>2018-09-23T10:38:49Z</time>
      </trkpt>
      <trkpt lat="45.90222" lon="4.70069">
        <ele>225</ele>
        <time>2018-09-23T10:38:50Z</time>
      </trkpt>
      <trkpt lat="45.90227" lon="4.70068">
        <ele>225</ele>
        <time>2018-09-23T10:38:51Z</time>
      </trkpt>
      <trkpt lat="45.90233" lon="4.70068">
        <ele>225</ele>
        <time>2018-09-23T10:38:52Z</time>
      </trkpt>
      <trkpt lat="45.90241" lon="4.70065">
        <ele>225</ele>
        <time>2018-09-23T10:38:54Z</time>
      </trkpt>
      <trkpt lat="45.90245" lon="4.70065">
        <ele>225</ele>
        <time>2018-09-23T10:38:55Z</time>
      </trkpt>
      <trkpt lat="45.9025" lon="4.70064">
        <ele>224</ele>
        <time>2018-09-23T10:38:56Z</time>
      </trkpt>
      <trkpt lat="45.90256" lon="4.70063">
        <ele>224</ele>
        <time>2018-09-23T10:38:57Z</time>
      </trkpt>
      <trkpt lat="45.90261" lon="4.7006">
        <ele>224</ele>
        <time>2018-09-23T10:38:58Z</time>
      </trkpt>
      <trkpt lat="45.90265" lon="4.70059">
        <ele>224</ele>
        <time>2018-09-23T10:38:59Z</time>
      </trkpt>
      <trkpt lat="45.90269" lon="4.70058">
        <ele>224</ele>
        <time>2018-09-23T10:39:00Z</time>
      </trkpt>
      <trkpt lat="45.90274" lon="4.70058">
        <ele>224</ele>
        <time>2018-09-23T10:39:01Z</time>
      </trkpt>
      <trkpt lat="45.90281" lon="4.70049">
        <ele>224</ele>
        <time>2018-09-23T10:39:02Z</time>
      </trkpt>
      <trkpt lat="45.9029" lon="4.70048">
        <ele>224</ele>
        <time>2018-09-23T10:39:04Z</time>
      </trkpt>
      <trkpt lat="45.90295" lon="4.70047">
        <ele>224</ele>
        <time>2018-09-23T10:39:05Z</time>
      </trkpt>
      <trkpt lat="45.90302" lon="4.70044">
        <ele>224</ele>
        <time>2018-09-23T10:39:07Z</time>
      </trkpt>
      <trkpt lat="45.90307" lon="4.70042">
        <ele>224</ele>
        <time>2018-09-23T10:39:08Z</time>
      </trkpt>
      <trkpt lat="45.90311" lon="4.70042">
        <ele>224</ele>
        <time>2018-09-23T10:39:09Z</time>
      </trkpt>
      <trkpt lat="45.90316" lon="4.70041">
        <ele>224</ele>
        <time>2018-09-23T10:39:10Z</time>
      </trkpt>
      <trkpt lat="45.90321" lon="4.70041">
        <ele>224</ele>
        <time>2018-09-23T10:39:11Z</time>
      </trkpt>
      <trkpt lat="45.90326" lon="4.70042">
        <ele>224</ele>
        <time>2018-09-23T10:39:12Z</time>
      </trkpt>
      <trkpt lat="45.90331" lon="4.70042">
        <ele>224</ele>
        <time>2018-09-23T10:39:13Z</time>
      </trkpt>
      <trkpt lat="45.90337" lon="4.70041">
        <ele>224</ele>
        <time>2018-09-23T10:39:14Z</time>
      </trkpt>
      <trkpt lat="45.90342" lon="4.7004">
        <ele>224</ele>
        <time>2018-09-23T10:39:15Z</time>
      </trkpt>
      <trkpt lat="45.90348" lon="4.7004">
        <ele>224</ele>
        <time>2018-09-23T10:39:16Z</time>
      </trkpt>
      <trkpt lat="45.90354" lon="4.70039">
        <ele>224</ele>
        <time>2018-09-23T10:39:17Z</time>
      </trkpt>
      <trkpt lat="45.90359" lon="4.70037">
        <ele>224</ele>
        <time>2018-09-23T10:39:18Z</time>
      </trkpt>
      <trkpt lat="45.90364" lon="4.70036">
        <ele>224</ele>
        <time>2018-09-23T10:39:19Z</time>
      </trkpt>
      <trkpt lat="45.90371" lon="4.70038">
        <ele>224</ele>
        <time>2018-09-23T10:39:20Z</time>
      </trkpt>
      <trkpt lat="45.90376" lon="4.70036">
        <ele>224</ele>
        <time>2018-09-23T10:39:21Z</time>
      </trkpt>
      <trkpt lat="45.90381" lon="4.70034">
        <ele>225</ele>
        <time>2018-09-23T10:39:22Z</time>
      </trkpt>
      <trkpt lat="45.90386" lon="4.70034">
        <ele>225</ele>
        <time>2018-09-23T10:39:23Z</time>
      </trkpt>
      <trkpt lat="45.90391" lon="4.70034">
        <ele>225</ele>
        <time>2018-09-23T10:39:24Z</time>
      </trkpt>
      <trkpt lat="45.90396" lon="4.70033">
        <ele>225</ele>
        <time>2018-09-23T10:39:25Z</time>
      </trkpt>
      <trkpt lat="45.90401" lon="4.70033">
        <ele>225</ele>
        <time>2018-09-23T10:39:26Z</time>
      </trkpt>
      <trkpt lat="45.90407" lon="4.70031">
        <ele>225</ele>
        <time>2018-09-23T10:39:27Z</time>
      </trkpt>
      <trkpt lat="45.90411" lon="4.7003">
        <ele>225</ele>
        <time>2018-09-23T10:39:28Z</time>
      </trkpt>
      <trkpt lat="45.90416" lon="4.70028">
        <ele>225</ele>
        <time>2018-09-23T10:39:29Z</time>
      </trkpt>
      <trkpt lat="45.90421" lon="4.70029">
        <ele>225</ele>
        <time>2018-09-23T10:39:30Z</time>
      </trkpt>
      <trkpt lat="45.90425" lon="4.7003">
        <ele>225</ele>
        <time>2018-09-23T10:39:31Z</time>
      </trkpt>
      <trkpt lat="45.9043" lon="4.7003">
        <ele>225</ele>
        <time>2018-09-23T10:39:32Z</time>
      </trkpt>
      <trkpt lat="45.90439" lon="4.70028">
        <ele>225</ele>
        <time>2018-09-23T10:39:34Z</time>
      </trkpt>
      <trkpt lat="45.90443" lon="4.70028">
        <ele>225</ele>
        <time>2018-09-23T10:39:35Z</time>
      </trkpt>
      <trkpt lat="45.90448" lon="4.70027">
        <ele>225</ele>
        <time>2018-09-23T10:39:36Z</time>
      </trkpt>
      <trkpt lat="45.90454" lon="4.70027">
        <ele>225</ele>
        <time>2018-09-23T10:39:37Z</time>
      </trkpt>
      <trkpt lat="45.90459" lon="4.70028">
        <ele>225</ele>
        <time>2018-09-23T10:39:38Z</time>
      </trkpt>
      <trkpt lat="45.90466" lon="4.70029">
        <ele>225</ele>
        <time>2018-09-23T10:39:39Z</time>
      </trkpt>
      <trkpt lat="45.90472" lon="4.70029">
        <ele>225</ele>
        <time>2018-09-23T10:39:40Z</time>
      </trkpt>
      <trkpt lat="45.90478" lon="4.7003">
        <ele>225</ele>
        <time>2018-09-23T10:39:41Z</time>
      </trkpt>
      <trkpt lat="45.90485" lon="4.70031">
        <ele>225</ele>
        <time>2018-09-23T10:39:42Z</time>
      </trkpt>
      <trkpt lat="45.90492" lon="4.70032">
        <ele>225</ele>
        <time>2018-09-23T10:39:43Z</time>
      </trkpt>
      <trkpt lat="45.90498" lon="4.70033">
        <ele>225</ele>
        <time>2018-09-23T10:39:44Z</time>
      </trkpt>
      <trkpt lat="45.90504" lon="4.70034">
        <ele>224</ele>
        <time>2018-09-23T10:39:45Z</time>
      </trkpt>
      <trkpt lat="45.9051" lon="4.70036">
        <ele>224</ele>
        <time>2018-09-23T10:39:46Z</time>
      </trkpt>
      <trkpt lat="45.90517" lon="4.70037">
        <ele>224</ele>
        <time>2018-09-23T10:39:47Z</time>
      </trkpt>
      <trkpt lat="45.90523" lon="4.70039">
        <ele>224</ele>
        <time>2018-09-23T10:39:48Z</time>
      </trkpt>
      <trkpt lat="45.90528" lon="4.70042">
        <ele>224</ele>
        <time>2018-09-23T10:39:49Z</time>
      </trkpt>
      <trkpt lat="45.90535" lon="4.70045">
        <ele>224</ele>
        <time>2018-09-23T10:39:50Z</time>
      </trkpt>
      <trkpt lat="45.90541" lon="4.70047">
        <ele>224</ele>
        <time>2018-09-23T10:39:51Z</time>
      </trkpt>
      <trkpt lat="45.90547" lon="4.7005">
        <ele>224</ele>
        <time>2018-09-23T10:39:52Z</time>
      </trkpt>
      <trkpt lat="45.90553" lon="4.70053">
        <ele>224</ele>
        <time>2018-09-23T10:39:53Z</time>
      </trkpt>
      <trkpt lat="45.90558" lon="4.70051">
        <ele>224</ele>
        <time>2018-09-23T10:39:54Z</time>
      </trkpt>
      <trkpt lat="45.90564" lon="4.70055">
        <ele>223</ele>
        <time>2018-09-23T10:39:55Z</time>
      </trkpt>
      <trkpt lat="45.9057" lon="4.70057">
        <ele>223</ele>
        <time>2018-09-23T10:39:56Z</time>
      </trkpt>
      <trkpt lat="45.90573" lon="4.70063">
        <ele>223</ele>
        <time>2018-09-23T10:39:57Z</time>
      </trkpt>
      <trkpt lat="45.90579" lon="4.70062">
        <ele>223</ele>
        <time>2018-09-23T10:39:58Z</time>
      </trkpt>
      <trkpt lat="45.90586" lon="4.70065">
        <ele>223</ele>
        <time>2018-09-23T10:39:59Z</time>
      </trkpt>
      <trkpt lat="45.90592" lon="4.70067">
        <ele>223</ele>
        <time>2018-09-23T10:40:00Z</time>
      </trkpt>
      <trkpt lat="45.90598" lon="4.70071">
        <ele>223</ele>
        <time>2018-09-23T10:40:01Z</time>
      </trkpt>
      <trkpt lat="45.90604" lon="4.70076">
        <ele>223</ele>
        <time>2018-09-23T10:40:02Z</time>
      </trkpt>
      <trkpt lat="45.90612" lon="4.70079">
        <ele>223</ele>
        <time>2018-09-23T10:40:03Z</time>
      </trkpt>
      <trkpt lat="45.90618" lon="4.70083">
        <ele>224</ele>
        <time>2018-09-23T10:40:04Z</time>
      </trkpt>
      <trkpt lat="45.90623" lon="4.70086">
        <ele>221</ele>
        <time>2018-09-23T10:40:05Z</time>
      </trkpt>
      <trkpt lat="45.90629" lon="4.70089">
        <ele>221</ele>
        <time>2018-09-23T10:40:06Z</time>
      </trkpt>
      <trkpt lat="45.90636" lon="4.70092">
        <ele>221</ele>
        <time>2018-09-23T10:40:07Z</time>
      </trkpt>
      <trkpt lat="45.90642" lon="4.70096">
        <ele>221</ele>
        <time>2018-09-23T10:40:08Z</time>
      </trkpt>
      <trkpt lat="45.90647" lon="4.70099">
        <ele>221</ele>
        <time>2018-09-23T10:40:09Z</time>
      </trkpt>
      <trkpt lat="45.90653" lon="4.70102">
        <ele>222</ele>
        <time>2018-09-23T10:40:10Z</time>
      </trkpt>
      <trkpt lat="45.90659" lon="4.70104">
        <ele>222</ele>
        <time>2018-09-23T10:40:11Z</time>
      </trkpt>
      <trkpt lat="45.90665" lon="4.70108">
        <ele>222</ele>
        <time>2018-09-23T10:40:12Z</time>
      </trkpt>
      <trkpt lat="45.9067" lon="4.70112">
        <ele>222</ele>
        <time>2018-09-23T10:40:13Z</time>
      </trkpt>
      <trkpt lat="45.90675" lon="4.70116">
        <ele>222</ele>
        <time>2018-09-23T10:40:14Z</time>
      </trkpt>
      <trkpt lat="45.9068" lon="4.70122">
        <ele>221</ele>
        <time>2018-09-23T10:40:15Z</time>
      </trkpt>
      <trkpt lat="45.90687" lon="4.70129">
        <ele>221</ele>
        <time>2018-09-23T10:40:16Z</time>
      </trkpt>
      <trkpt lat="45.90691" lon="4.70134">
        <ele>221</ele>
        <time>2018-09-23T10:40:17Z</time>
      </trkpt>
      <trkpt lat="45.90696" lon="4.7014">
        <ele>221</ele>
        <time>2018-09-23T10:40:18Z</time>
      </trkpt>
      <trkpt lat="45.90702" lon="4.70143">
        <ele>221</ele>
        <time>2018-09-23T10:40:19Z</time>
      </trkpt>
      <trkpt lat="45.90708" lon="4.70145">
        <ele>220</ele>
        <time>2018-09-23T10:40:20Z</time>
      </trkpt>
      <trkpt lat="45.90715" lon="4.70143">
        <ele>220</ele>
        <time>2018-09-23T10:40:21Z</time>
      </trkpt>
      <trkpt lat="45.9072" lon="4.70142">
        <ele>220</ele>
        <time>2018-09-23T10:40:22Z</time>
      </trkpt>
      <trkpt lat="45.90726" lon="4.70141">
        <ele>220</ele>
        <time>2018-09-23T10:40:23Z</time>
      </trkpt>
      <trkpt lat="45.90731" lon="4.7014">
        <ele>220</ele>
        <time>2018-09-23T10:40:24Z</time>
      </trkpt>
      <trkpt lat="45.90738" lon="4.70142">
        <ele>220</ele>
        <time>2018-09-23T10:40:25Z</time>
      </trkpt>
      <trkpt lat="45.90744" lon="4.70143">
        <ele>220</ele>
        <time>2018-09-23T10:40:26Z</time>
      </trkpt>
      <trkpt lat="45.9075" lon="4.70143">
        <ele>219</ele>
        <time>2018-09-23T10:40:27Z</time>
      </trkpt>
      <trkpt lat="45.90757" lon="4.70143">
        <ele>219</ele>
        <time>2018-09-23T10:40:28Z</time>
      </trkpt>
      <trkpt lat="45.90763" lon="4.70143">
        <ele>219</ele>
        <time>2018-09-23T10:40:29Z</time>
      </trkpt>
      <trkpt lat="45.9077" lon="4.70142">
        <ele>219</ele>
        <time>2018-09-23T10:40:30Z</time>
      </trkpt>
      <trkpt lat="45.90775" lon="4.70142">
        <ele>219</ele>
        <time>2018-09-23T10:40:31Z</time>
      </trkpt>
      <trkpt lat="45.90782" lon="4.70141">
        <ele>219</ele>
        <time>2018-09-23T10:40:32Z</time>
      </trkpt>
      <trkpt lat="45.90788" lon="4.70141">
        <ele>219</ele>
        <time>2018-09-23T10:40:33Z</time>
      </trkpt>
      <trkpt lat="45.90793" lon="4.70139">
        <ele>219</ele>
        <time>2018-09-23T10:40:34Z</time>
      </trkpt>
      <trkpt lat="45.908" lon="4.70138">
        <ele>219</ele>
        <time>2018-09-23T10:40:35Z</time>
      </trkpt>
      <trkpt lat="45.90806" lon="4.70139">
        <ele>219</ele>
        <time>2018-09-23T10:40:36Z</time>
      </trkpt>
      <trkpt lat="45.90812" lon="4.7014">
        <ele>219</ele>
        <time>2018-09-23T10:40:37Z</time>
      </trkpt>
      <trkpt lat="45.90819" lon="4.70138">
        <ele>219</ele>
        <time>2018-09-23T10:40:38Z</time>
      </trkpt>
      <trkpt lat="45.90825" lon="4.70138">
        <ele>219</ele>
        <time>2018-09-23T10:40:39Z</time>
      </trkpt>
      <trkpt lat="45.90832" lon="4.70138">
        <ele>218</ele>
        <time>2018-09-23T10:40:40Z</time>
      </trkpt>
      <trkpt lat="45.90837" lon="4.70138">
        <ele>218</ele>
        <time>2018-09-23T10:40:41Z</time>
      </trkpt>
      <trkpt lat="45.90842" lon="4.70136">
        <ele>218</ele>
        <time>2018-09-23T10:40:42Z</time>
      </trkpt>
      <trkpt lat="45.90848" lon="4.70136">
        <ele>218</ele>
        <time>2018-09-23T10:40:43Z</time>
      </trkpt>
      <trkpt lat="45.90855" lon="4.70136">
        <ele>218</ele>
        <time>2018-09-23T10:40:44Z</time>
      </trkpt>
      <trkpt lat="45.90862" lon="4.70135">
        <ele>218</ele>
        <time>2018-09-23T10:40:45Z</time>
      </trkpt>
      <trkpt lat="45.90868" lon="4.70136">
        <ele>218</ele>
        <time>2018-09-23T10:40:46Z</time>
      </trkpt>
      <trkpt lat="45.90874" lon="4.70137">
        <ele>218</ele>
        <time>2018-09-23T10:40:47Z</time>
      </trkpt>
      <trkpt lat="45.9088" lon="4.70137">
        <ele>218</ele>
        <time>2018-09-23T10:40:48Z</time>
      </trkpt>
      <trkpt lat="45.90886" lon="4.70138">
        <ele>218</ele>
        <time>2018-09-23T10:40:49Z</time>
      </trkpt>
      <trkpt lat="45.90892" lon="4.70138">
        <ele>218</ele>
        <time>2018-09-23T10:40:50Z</time>
      </trkpt>
      <trkpt lat="45.90897" lon="4.70138">
        <ele>218</ele>
        <time>2018-09-23T10:40:51Z</time>
      </trkpt>
      <trkpt lat="45.90903" lon="4.70136">
        <ele>218</ele>
        <time>2018-09-23T10:40:52Z</time>
      </trkpt>
      <trkpt lat="45.90909" lon="4.70135">
        <ele>218</ele>
        <time>2018-09-23T10:40:53Z</time>
      </trkpt>
      <trkpt lat="45.90914" lon="4.70136">
        <ele>218</ele>
        <time>2018-09-23T10:40:54Z</time>
      </trkpt>
      <trkpt lat="45.90919" lon="4.70134">
        <ele>218</ele>
        <time>2018-09-23T10:40:55Z</time>
      </trkpt>
      <trkpt lat="45.90926" lon="4.70134">
        <ele>219</ele>
        <time>2018-09-23T10:40:56Z</time>
      </trkpt>
      <trkpt lat="45.90932" lon="4.70135">
        <ele>219</ele>
        <time>2018-09-23T10:40:57Z</time>
      </trkpt>
      <trkpt lat="45.90938" lon="4.70135">
        <ele>219</ele>
        <time>2018-09-23T10:40:58Z</time>
      </trkpt>
      <trkpt lat="45.90944" lon="4.70136">
        <ele>219</ele>
        <time>2018-09-23T10:40:59Z</time>
      </trkpt>
      <trkpt lat="45.90952" lon="4.70136">
        <ele>219</ele>
        <time>2018-09-23T10:41:00Z</time>
      </trkpt>
      <trkpt lat="45.90958" lon="4.70137">
        <ele>219</ele>
        <time>2018-09-23T10:41:01Z</time>
      </trkpt>
      <trkpt lat="45.90964" lon="4.70138">
        <ele>219</ele>
        <time>2018-09-23T10:41:02Z</time>
      </trkpt>
      <trkpt lat="45.9097" lon="4.70141">
        <ele>218</ele>
        <time>2018-09-23T10:41:03Z</time>
      </trkpt>
      <trkpt lat="45.90976" lon="4.70141">
        <ele>218</ele>
        <time>2018-09-23T10:41:04Z</time>
      </trkpt>
      <trkpt lat="45.90981" lon="4.70143">
        <ele>218</ele>
        <time>2018-09-23T10:41:05Z</time>
      </trkpt>
      <trkpt lat="45.90987" lon="4.70144">
        <ele>218</ele>
        <time>2018-09-23T10:41:06Z</time>
      </trkpt>
      <trkpt lat="45.90993" lon="4.70146">
        <ele>218</ele>
        <time>2018-09-23T10:41:07Z</time>
      </trkpt>
      <trkpt lat="45.90999" lon="4.70148">
        <ele>218</ele>
        <time>2018-09-23T10:41:08Z</time>
      </trkpt>
      <trkpt lat="45.91006" lon="4.70149">
        <ele>218</ele>
        <time>2018-09-23T10:41:09Z</time>
      </trkpt>
      <trkpt lat="45.91013" lon="4.7015">
        <ele>218</ele>
        <time>2018-09-23T10:41:10Z</time>
      </trkpt>
      <trkpt lat="45.91019" lon="4.70151">
        <ele>218</ele>
        <time>2018-09-23T10:41:11Z</time>
      </trkpt>
      <trkpt lat="45.91026" lon="4.70154">
        <ele>218</ele>
        <time>2018-09-23T10:41:12Z</time>
      </trkpt>
      <trkpt lat="45.91032" lon="4.70156">
        <ele>218</ele>
        <time>2018-09-23T10:41:13Z</time>
      </trkpt>
      <trkpt lat="45.91038" lon="4.70158">
        <ele>218</ele>
        <time>2018-09-23T10:41:14Z</time>
      </trkpt>
      <trkpt lat="45.91045" lon="4.70161">
        <ele>218</ele>
        <time>2018-09-23T10:41:15Z</time>
      </trkpt>
      <trkpt lat="45.91051" lon="4.70163">
        <ele>218</ele>
        <time>2018-09-23T10:41:16Z</time>
      </trkpt>
      <trkpt lat="45.91057" lon="4.70164">
        <ele>218</ele>
        <time>2018-09-23T10:41:17Z</time>
      </trkpt>
      <trkpt lat="45.91064" lon="4.70166">
        <ele>218</ele>
        <time>2018-09-23T10:41:18Z</time>
      </trkpt>
      <trkpt lat="45.91071" lon="4.70169">
        <ele>216</ele>
        <time>2018-09-23T10:41:19Z</time>
      </trkpt>
      <trkpt lat="45.91078" lon="4.70172">
        <ele>216</ele>
        <time>2018-09-23T10:41:20Z</time>
      </trkpt>
      <trkpt lat="45.91086" lon="4.70175">
        <ele>216</ele>
        <time>2018-09-23T10:41:21Z</time>
      </trkpt>
      <trkpt lat="45.91092" lon="4.70178">
        <ele>216</ele>
        <time>2018-09-23T10:41:22Z</time>
      </trkpt>
      <trkpt lat="45.91098" lon="4.7018">
        <ele>216</ele>
        <time>2018-09-23T10:41:23Z</time>
      </trkpt>
      <trkpt lat="45.91105" lon="4.70181">
        <ele>215</ele>
        <time>2018-09-23T10:41:24Z</time>
      </trkpt>
      <trkpt lat="45.91114" lon="4.70185">
        <ele>215</ele>
        <time>2018-09-23T10:41:25Z</time>
      </trkpt>
      <trkpt lat="45.91121" lon="4.70187">
        <ele>215</ele>
        <time>2018-09-23T10:41:26Z</time>
      </trkpt>
      <trkpt lat="45.91129" lon="4.70189">
        <ele>215</ele>
        <time>2018-09-23T10:41:27Z</time>
      </trkpt>
      <trkpt lat="45.91138" lon="4.70192">
        <ele>215</ele>
        <time>2018-09-23T10:41:28Z</time>
      </trkpt>
      <trkpt lat="45.91146" lon="4.70196">
        <ele>215</ele>
        <time>2018-09-23T10:41:29Z</time>
      </trkpt>
      <trkpt lat="45.91154" lon="4.70198">
        <ele>215</ele>
        <time>2018-09-23T10:41:30Z</time>
      </trkpt>
      <trkpt lat="45.91161" lon="4.70201">
        <ele>215</ele>
        <time>2018-09-23T10:41:31Z</time>
      </trkpt>
      <trkpt lat="45.9117" lon="4.70202">
        <ele>214</ele>
        <time>2018-09-23T10:41:32Z</time>
      </trkpt>
      <trkpt lat="45.91177" lon="4.70204">
        <ele>214</ele>
        <time>2018-09-23T10:41:33Z</time>
      </trkpt>
      <trkpt lat="45.91185" lon="4.70208">
        <ele>214</ele>
        <time>2018-09-23T10:41:34Z</time>
      </trkpt>
      <trkpt lat="45.91193" lon="4.70211">
        <ele>214</ele>
        <time>2018-09-23T10:41:35Z</time>
      </trkpt>
      <trkpt lat="45.91198" lon="4.70215">
        <ele>214</ele>
        <time>2018-09-23T10:41:36Z</time>
      </trkpt>
      <trkpt lat="45.91205" lon="4.70216">
        <ele>214</ele>
        <time>2018-09-23T10:41:37Z</time>
      </trkpt>
      <trkpt lat="45.91211" lon="4.70222">
        <ele>214</ele>
        <time>2018-09-23T10:41:38Z</time>
      </trkpt>
      <trkpt lat="45.91219" lon="4.70224">
        <ele>213</ele>
        <time>2018-09-23T10:41:39Z</time>
      </trkpt>
      <trkpt lat="45.91227" lon="4.70226">
        <ele>213</ele>
        <time>2018-09-23T10:41:40Z</time>
      </trkpt>
      <trkpt lat="45.91234" lon="4.70228">
        <ele>213</ele>
        <time>2018-09-23T10:41:41Z</time>
      </trkpt>
      <trkpt lat="45.91241" lon="4.7023">
        <ele>213</ele>
        <time>2018-09-23T10:41:42Z</time>
      </trkpt>
      <trkpt lat="45.91248" lon="4.70232">
        <ele>213</ele>
        <time>2018-09-23T10:41:43Z</time>
      </trkpt>
      <trkpt lat="45.91254" lon="4.70236">
        <ele>213</ele>
        <time>2018-09-23T10:41:44Z</time>
      </trkpt>
      <trkpt lat="45.91261" lon="4.70238">
        <ele>213</ele>
        <time>2018-09-23T10:41:45Z</time>
      </trkpt>
      <trkpt lat="45.91268" lon="4.70241">
        <ele>213</ele>
        <time>2018-09-23T10:41:46Z</time>
      </trkpt>
      <trkpt lat="45.91277" lon="4.70242">
        <ele>213</ele>
        <time>2018-09-23T10:41:47Z</time>
      </trkpt>
      <trkpt lat="45.91284" lon="4.70245">
        <ele>213</ele>
        <time>2018-09-23T10:41:48Z</time>
      </trkpt>
      <trkpt lat="45.91291" lon="4.70247">
        <ele>214</ele>
        <time>2018-09-23T10:41:49Z</time>
      </trkpt>
      <trkpt lat="45.91298" lon="4.7025">
        <ele>210</ele>
        <time>2018-09-23T10:41:50Z</time>
      </trkpt>
      <trkpt lat="45.91305" lon="4.70255">
        <ele>210</ele>
        <time>2018-09-23T10:41:51Z</time>
      </trkpt>
      <trkpt lat="45.91311" lon="4.70259">
        <ele>210</ele>
        <time>2018-09-23T10:41:52Z</time>
      </trkpt>
      <trkpt lat="45.91318" lon="4.7026">
        <ele>210</ele>
        <time>2018-09-23T10:41:53Z</time>
      </trkpt>
      <trkpt lat="45.91324" lon="4.70264">
        <ele>211</ele>
        <time>2018-09-23T10:41:54Z</time>
      </trkpt>
      <trkpt lat="45.9133" lon="4.70268">
        <ele>210</ele>
        <time>2018-09-23T10:41:55Z</time>
      </trkpt>
      <trkpt lat="45.91335" lon="4.70272">
        <ele>210</ele>
        <time>2018-09-23T10:41:56Z</time>
      </trkpt>
      <trkpt lat="45.91341" lon="4.70277">
        <ele>210</ele>
        <time>2018-09-23T10:41:57Z</time>
      </trkpt>
      <trkpt lat="45.91347" lon="4.70281">
        <ele>210</ele>
        <time>2018-09-23T10:41:58Z</time>
      </trkpt>
      <trkpt lat="45.91351" lon="4.70284">
        <ele>210</ele>
        <time>2018-09-23T10:41:59Z</time>
      </trkpt>
      <trkpt lat="45.91356" lon="4.70289">
        <ele>210</ele>
        <time>2018-09-23T10:42:00Z</time>
      </trkpt>
      <trkpt lat="45.91364" lon="4.70293">
        <ele>209</ele>
        <time>2018-09-23T10:42:01Z</time>
      </trkpt>
      <trkpt lat="45.9137" lon="4.70297">
        <ele>209</ele>
        <time>2018-09-23T10:42:02Z</time>
      </trkpt>
      <trkpt lat="45.91376" lon="4.70302">
        <ele>209</ele>
        <time>2018-09-23T10:42:03Z</time>
      </trkpt>
      <trkpt lat="45.91382" lon="4.70304">
        <ele>209</ele>
        <time>2018-09-23T10:42:04Z</time>
      </trkpt>
      <trkpt lat="45.91388" lon="4.70308">
        <ele>209</ele>
        <time>2018-09-23T10:42:05Z</time>
      </trkpt>
      <trkpt lat="45.91392" lon="4.70315">
        <ele>209</ele>
        <time>2018-09-23T10:42:06Z</time>
      </trkpt>
      <trkpt lat="45.91397" lon="4.7032">
        <ele>209</ele>
        <time>2018-09-23T10:42:07Z</time>
      </trkpt>
      <trkpt lat="45.91403" lon="4.70325">
        <ele>209</ele>
        <time>2018-09-23T10:42:08Z</time>
      </trkpt>
      <trkpt lat="45.91409" lon="4.70329">
        <ele>208</ele>
        <time>2018-09-23T10:42:09Z</time>
      </trkpt>
      <trkpt lat="45.91415" lon="4.70334">
        <ele>208</ele>
        <time>2018-09-23T10:42:10Z</time>
      </trkpt>
      <trkpt lat="45.91421" lon="4.70339">
        <ele>208</ele>
        <time>2018-09-23T10:42:11Z</time>
      </trkpt>
      <trkpt lat="45.91426" lon="4.70344">
        <ele>207</ele>
        <time>2018-09-23T10:42:12Z</time>
      </trkpt>
      <trkpt lat="45.91432" lon="4.70349">
        <ele>207</ele>
        <time>2018-09-23T10:42:13Z</time>
      </trkpt>
      <trkpt lat="45.91437" lon="4.70352">
        <ele>207</ele>
        <time>2018-09-23T10:42:14Z</time>
      </trkpt>
      <trkpt lat="45.91443" lon="4.70357">
        <ele>207</ele>
        <time>2018-09-23T10:42:15Z</time>
      </trkpt>
      <trkpt lat="45.91448" lon="4.70362">
        <ele>206</ele>
        <time>2018-09-23T10:42:16Z</time>
      </trkpt>
      <trkpt lat="45.91454" lon="4.70368">
        <ele>206</ele>
        <time>2018-09-23T10:42:17Z</time>
      </trkpt>
      <trkpt lat="45.91462" lon="4.70371">
        <ele>206</ele>
        <time>2018-09-23T10:42:18Z</time>
      </trkpt>
      <trkpt lat="45.91468" lon="4.70376">
        <ele>206</ele>
        <time>2018-09-23T10:42:19Z</time>
      </trkpt>
      <trkpt lat="45.91474" lon="4.70381">
        <ele>206</ele>
        <time>2018-09-23T10:42:20Z</time>
      </trkpt>
      <trkpt lat="45.9148" lon="4.70386">
        <ele>206</ele>
        <time>2018-09-23T10:42:21Z</time>
      </trkpt>
      <trkpt lat="45.91485" lon="4.70391">
        <ele>205</ele>
        <time>2018-09-23T10:42:22Z</time>
      </trkpt>
      <trkpt lat="45.91491" lon="4.70396">
        <ele>205</ele>
        <time>2018-09-23T10:42:23Z</time>
      </trkpt>
      <trkpt lat="45.91497" lon="4.70401">
        <ele>205</ele>
        <time>2018-09-23T10:42:24Z</time>
      </trkpt>
      <trkpt lat="45.91504" lon="4.70406">
        <ele>205</ele>
        <time>2018-09-23T10:42:25Z</time>
      </trkpt>
      <trkpt lat="45.91508" lon="4.70412">
        <ele>204</ele>
        <time>2018-09-23T10:42:26Z</time>
      </trkpt>
      <trkpt lat="45.91515" lon="4.70418">
        <ele>203</ele>
        <time>2018-09-23T10:42:27Z</time>
      </trkpt>
      <trkpt lat="45.9152" lon="4.70422">
        <ele>203</ele>
        <time>2018-09-23T10:42:28Z</time>
      </trkpt>
      <trkpt lat="45.91526" lon="4.70428">
        <ele>203</ele>
        <time>2018-09-23T10:42:29Z</time>
      </trkpt>
      <trkpt lat="45.91532" lon="4.70432">
        <ele>203</ele>
        <time>2018-09-23T10:42:30Z</time>
      </trkpt>
      <trkpt lat="45.91538" lon="4.70437">
        <ele>203</ele>
        <time>2018-09-23T10:42:31Z</time>
      </trkpt>
      <trkpt lat="45.91545" lon="4.70442">
        <ele>203</ele>
        <time>2018-09-23T10:42:32Z</time>
      </trkpt>
      <trkpt lat="45.9155" lon="4.70448">
        <ele>203</ele>
        <time>2018-09-23T10:42:33Z</time>
      </trkpt>
      <trkpt lat="45.91557" lon="4.70453">
        <ele>203</ele>
        <time>2018-09-23T10:42:34Z</time>
      </trkpt>
      <trkpt lat="45.91563" lon="4.70458">
        <ele>203</ele>
        <time>2018-09-23T10:42:35Z</time>
      </trkpt>
      <trkpt lat="45.9157" lon="4.70461">
        <ele>203</ele>
        <time>2018-09-23T10:42:36Z</time>
      </trkpt>
      <trkpt lat="45.91577" lon="4.70466">
        <ele>203</ele>
        <time>2018-09-23T10:42:37Z</time>
      </trkpt>
      <trkpt lat="45.91583" lon="4.70471">
        <ele>203</ele>
        <time>2018-09-23T10:42:38Z</time>
      </trkpt>
      <trkpt lat="45.91588" lon="4.70476">
        <ele>202</ele>
        <time>2018-09-23T10:42:39Z</time>
      </trkpt>
      <trkpt lat="45.91595" lon="4.7048">
        <ele>202</ele>
        <time>2018-09-23T10:42:40Z</time>
      </trkpt>
      <trkpt lat="45.91601" lon="4.70485">
        <ele>202</ele>
        <time>2018-09-23T10:42:41Z</time>
      </trkpt>
      <trkpt lat="45.91607" lon="4.70491">
        <ele>202</ele>
        <time>2018-09-23T10:42:42Z</time>
      </trkpt>
      <trkpt lat="45.91613" lon="4.70496">
        <ele>202</ele>
        <time>2018-09-23T10:42:43Z</time>
      </trkpt>
      <trkpt lat="45.91619" lon="4.705">
        <ele>199</ele>
        <time>2018-09-23T10:42:44Z</time>
      </trkpt>
      <trkpt lat="45.91625" lon="4.70505">
        <ele>199</ele>
        <time>2018-09-23T10:42:45Z</time>
      </trkpt>
      <trkpt lat="45.91631" lon="4.70509">
        <ele>199</ele>
        <time>2018-09-23T10:42:46Z</time>
      </trkpt>
      <trkpt lat="45.91634" lon="4.70514">
        <ele>199</ele>
        <time>2018-09-23T10:42:47Z</time>
      </trkpt>
      <trkpt lat="45.91639" lon="4.70519">
        <ele>199</ele>
        <time>2018-09-23T10:42:48Z</time>
      </trkpt>
      <trkpt lat="45.91645" lon="4.70523">
        <ele>199</ele>
        <time>2018-09-23T10:42:49Z</time>
      </trkpt>
      <trkpt lat="45.91649" lon="4.70528">
        <ele>198</ele>
        <time>2018-09-23T10:42:50Z</time>
      </trkpt>
      <trkpt lat="45.91655" lon="4.70533">
        <ele>198</ele>
        <time>2018-09-23T10:42:51Z</time>
      </trkpt>
      <trkpt lat="45.9166" lon="4.70536">
        <ele>198</ele>
        <time>2018-09-23T10:42:52Z</time>
      </trkpt>
      <trkpt lat="45.91665" lon="4.70542">
        <ele>198</ele>
        <time>2018-09-23T10:42:53Z</time>
      </trkpt>
      <trkpt lat="45.91671" lon="4.70546">
        <ele>198</ele>
        <time>2018-09-23T10:42:54Z</time>
      </trkpt>
      <trkpt lat="45.91677" lon="4.70551">
        <ele>198</ele>
        <time>2018-09-23T10:42:55Z</time>
      </trkpt>
      <trkpt lat="45.91684" lon="4.70553">
        <ele>198</ele>
        <time>2018-09-23T10:42:56Z</time>
      </trkpt>
      <trkpt lat="45.91692" lon="4.70556">
        <ele>198</ele>
        <time>2018-09-23T10:42:57Z</time>
      </trkpt>
      <trkpt lat="45.91696" lon="4.70561">
        <ele>198</ele>
        <time>2018-09-23T10:42:58Z</time>
      </trkpt>
      <trkpt lat="45.91701" lon="4.70567">
        <ele>197</ele>
        <time>2018-09-23T10:42:59Z</time>
      </trkpt>
      <trkpt lat="45.91704" lon="4.70574">
        <ele>197</ele>
        <time>2018-09-23T10:43:00Z</time>
      </trkpt>
      <trkpt lat="45.91708" lon="4.70582">
        <ele>197</ele>
        <time>2018-09-23T10:43:01Z</time>
      </trkpt>
      <trkpt lat="45.91711" lon="4.70587">
        <ele>196</ele>
        <time>2018-09-23T10:43:02Z</time>
      </trkpt>
      <trkpt lat="45.91716" lon="4.70592">
        <ele>195</ele>
        <time>2018-09-23T10:43:03Z</time>
      </trkpt>
      <trkpt lat="45.91721" lon="4.70596">
        <ele>195</ele>
        <time>2018-09-23T10:43:04Z</time>
      </trkpt>
      <trkpt lat="45.9173" lon="4.70594">
        <ele>195</ele>
        <time>2018-09-23T10:43:06Z</time>
      </trkpt>
      <trkpt lat="45.91733" lon="4.70594">
        <ele>196</ele>
        <time>2018-09-23T10:43:07Z</time>
      </trkpt>
      <trkpt lat="45.91738" lon="4.70598">
        <ele>196</ele>
        <time>2018-09-23T10:43:08Z</time>
      </trkpt>
      <trkpt lat="45.91744" lon="4.70601">
        <ele>195</ele>
        <time>2018-09-23T10:43:09Z</time>
      </trkpt>
      <trkpt lat="45.91748" lon="4.70604">
        <ele>195</ele>
        <time>2018-09-23T10:43:10Z</time>
      </trkpt>
      <trkpt lat="45.91755" lon="4.70606">
        <ele>195</ele>
        <time>2018-09-23T10:43:11Z</time>
      </trkpt>
      <trkpt lat="45.9176" lon="4.70609">
        <ele>195</ele>
        <time>2018-09-23T10:43:12Z</time>
      </trkpt>
      <trkpt lat="45.91765" lon="4.70611">
        <ele>195</ele>
        <time>2018-09-23T10:43:13Z</time>
      </trkpt>
      <trkpt lat="45.9177" lon="4.70613">
        <ele>195</ele>
        <time>2018-09-23T10:43:14Z</time>
      </trkpt>
      <trkpt lat="45.91776" lon="4.70615">
        <ele>195</ele>
        <time>2018-09-23T10:43:15Z</time>
      </trkpt>
      <trkpt lat="45.91782" lon="4.70617">
        <ele>194</ele>
        <time>2018-09-23T10:43:16Z</time>
      </trkpt>
      <trkpt lat="45.91788" lon="4.70618">
        <ele>194</ele>
        <time>2018-09-23T10:43:17Z</time>
      </trkpt>
      <trkpt lat="45.91794" lon="4.70618">
        <ele>194</ele>
        <time>2018-09-23T10:43:18Z</time>
      </trkpt>
      <trkpt lat="45.918" lon="4.70619">
        <ele>194</ele>
        <time>2018-09-23T10:43:19Z</time>
      </trkpt>
      <trkpt lat="45.91806" lon="4.7062">
        <ele>194</ele>
        <time>2018-09-23T10:43:20Z</time>
      </trkpt>
      <trkpt lat="45.91813" lon="4.70618">
        <ele>194</ele>
        <time>2018-09-23T10:43:21Z</time>
      </trkpt>
      <trkpt lat="45.91819" lon="4.70618">
        <ele>194</ele>
        <time>2018-09-23T10:43:22Z</time>
      </trkpt>
      <trkpt lat="45.91825" lon="4.70618">
        <ele>194</ele>
        <time>2018-09-23T10:43:23Z</time>
      </trkpt>
      <trkpt lat="45.91832" lon="4.70618">
        <ele>194</ele>
        <time>2018-09-23T10:43:24Z</time>
      </trkpt>
      <trkpt lat="45.91837" lon="4.70618">
        <ele>194</ele>
        <time>2018-09-23T10:43:25Z</time>
      </trkpt>
      <trkpt lat="45.91844" lon="4.70617">
        <ele>194</ele>
        <time>2018-09-23T10:43:26Z</time>
      </trkpt>
      <trkpt lat="45.9185" lon="4.70616">
        <ele>194</ele>
        <time>2018-09-23T10:43:27Z</time>
      </trkpt>
      <trkpt lat="45.91856" lon="4.70617">
        <ele>194</ele>
        <time>2018-09-23T10:43:28Z</time>
      </trkpt>
      <trkpt lat="45.91862" lon="4.70616">
        <ele>194</ele>
        <time>2018-09-23T10:43:29Z</time>
      </trkpt>
      <trkpt lat="45.91868" lon="4.70617">
        <ele>194</ele>
        <time>2018-09-23T10:43:30Z</time>
      </trkpt>
      <trkpt lat="45.91875" lon="4.70617">
        <ele>194</ele>
        <time>2018-09-23T10:43:31Z</time>
      </trkpt>
      <trkpt lat="45.91883" lon="4.70614">
        <ele>194</ele>
        <time>2018-09-23T10:43:32Z</time>
      </trkpt>
      <trkpt lat="45.91889" lon="4.70614">
        <ele>194</ele>
        <time>2018-09-23T10:43:33Z</time>
      </trkpt>
      <trkpt lat="45.91895" lon="4.70613">
        <ele>194</ele>
        <time>2018-09-23T10:43:34Z</time>
      </trkpt>
      <trkpt lat="45.919" lon="4.70613">
        <ele>194</ele>
        <time>2018-09-23T10:43:35Z</time>
      </trkpt>
      <trkpt lat="45.91906" lon="4.70613">
        <ele>194</ele>
        <time>2018-09-23T10:43:36Z</time>
      </trkpt>
      <trkpt lat="45.91911" lon="4.70613">
        <ele>194</ele>
        <time>2018-09-23T10:43:37Z</time>
      </trkpt>
      <trkpt lat="45.91916" lon="4.70613">
        <ele>195</ele>
        <time>2018-09-23T10:43:38Z</time>
      </trkpt>
      <trkpt lat="45.9192" lon="4.70613">
        <ele>195</ele>
        <time>2018-09-23T10:43:39Z</time>
      </trkpt>
      <trkpt lat="45.91925" lon="4.70613">
        <ele>195</ele>
        <time>2018-09-23T10:43:40Z</time>
      </trkpt>
      <trkpt lat="45.91931" lon="4.70614">
        <ele>194</ele>
        <time>2018-09-23T10:43:41Z</time>
      </trkpt>
      <trkpt lat="45.91937" lon="4.70614">
        <ele>194</ele>
        <time>2018-09-23T10:43:42Z</time>
      </trkpt>
      <trkpt lat="45.91942" lon="4.7061">
        <ele>194</ele>
        <time>2018-09-23T10:43:43Z</time>
      </trkpt>
      <trkpt lat="45.91948" lon="4.70609">
        <ele>194</ele>
        <time>2018-09-23T10:43:44Z</time>
      </trkpt>
      <trkpt lat="45.91952" lon="4.7061">
        <ele>194</ele>
        <time>2018-09-23T10:43:45Z</time>
      </trkpt>
      <trkpt lat="45.91957" lon="4.70609">
        <ele>194</ele>
        <time>2018-09-23T10:43:46Z</time>
      </trkpt>
      <trkpt lat="45.91963" lon="4.70608">
        <ele>194</ele>
        <time>2018-09-23T10:43:47Z</time>
      </trkpt>
      <trkpt lat="45.91968" lon="4.70607">
        <ele>194</ele>
        <time>2018-09-23T10:43:48Z</time>
      </trkpt>
      <trkpt lat="45.91974" lon="4.70606">
        <ele>194</ele>
        <time>2018-09-23T10:43:49Z</time>
      </trkpt>
      <trkpt lat="45.91979" lon="4.70605">
        <ele>194</ele>
        <time>2018-09-23T10:43:50Z</time>
      </trkpt>
      <trkpt lat="45.91985" lon="4.70603">
        <ele>194</ele>
        <time>2018-09-23T10:43:51Z</time>
      </trkpt>
      <trkpt lat="45.91989" lon="4.70604">
        <ele>194</ele>
        <time>2018-09-23T10:43:52Z</time>
      </trkpt>
      <trkpt lat="45.91995" lon="4.70604">
        <ele>194</ele>
        <time>2018-09-23T10:43:53Z</time>
      </trkpt>
      <trkpt lat="45.92" lon="4.70603">
        <ele>194</ele>
        <time>2018-09-23T10:43:54Z</time>
      </trkpt>
      <trkpt lat="45.92005" lon="4.70603">
        <ele>194</ele>
        <time>2018-09-23T10:43:55Z</time>
      </trkpt>
      <trkpt lat="45.92011" lon="4.70604">
        <ele>194</ele>
        <time>2018-09-23T10:43:56Z</time>
      </trkpt>
      <trkpt lat="45.92015" lon="4.70603">
        <ele>194</ele>
        <time>2018-09-23T10:43:57Z</time>
      </trkpt>
      <trkpt lat="45.9202" lon="4.70602">
        <ele>194</ele>
        <time>2018-09-23T10:43:58Z</time>
      </trkpt>
      <trkpt lat="45.92026" lon="4.70601">
        <ele>194</ele>
        <time>2018-09-23T10:43:59Z</time>
      </trkpt>
      <trkpt lat="45.92031" lon="4.706">
        <ele>194</ele>
        <time>2018-09-23T10:44:00Z</time>
      </trkpt>
      <trkpt lat="45.92036" lon="4.70601">
        <ele>193</ele>
        <time>2018-09-23T10:44:01Z</time>
      </trkpt>
      <trkpt lat="45.92043" lon="4.70599">
        <ele>193</ele>
        <time>2018-09-23T10:44:03Z</time>
      </trkpt>
      <trkpt lat="45.92049" lon="4.70598">
        <ele>193</ele>
        <time>2018-09-23T10:44:04Z</time>
      </trkpt>
      <trkpt lat="45.92053" lon="4.70597">
        <ele>193</ele>
        <time>2018-09-23T10:44:05Z</time>
      </trkpt>
      <trkpt lat="45.92058" lon="4.70597">
        <ele>193</ele>
        <time>2018-09-23T10:44:06Z</time>
      </trkpt>
      <trkpt lat="45.92064" lon="4.70597">
        <ele>193</ele>
        <time>2018-09-23T10:44:07Z</time>
      </trkpt>
      <trkpt lat="45.92069" lon="4.70597">
        <ele>193</ele>
        <time>2018-09-23T10:44:08Z</time>
      </trkpt>
      <trkpt lat="45.92075" lon="4.70596">
        <ele>194</ele>
        <time>2018-09-23T10:44:09Z</time>
      </trkpt>
      <trkpt lat="45.9208" lon="4.70597">
        <ele>194</ele>
        <time>2018-09-23T10:44:10Z</time>
      </trkpt>
      <trkpt lat="45.92085" lon="4.70597">
        <ele>193</ele>
        <time>2018-09-23T10:44:11Z</time>
      </trkpt>
      <trkpt lat="45.92091" lon="4.70597">
        <ele>192</ele>
        <time>2018-09-23T10:44:12Z</time>
      </trkpt>
      <trkpt lat="45.92097" lon="4.70597">
        <ele>192</ele>
        <time>2018-09-23T10:44:13Z</time>
      </trkpt>
      <trkpt lat="45.92105" lon="4.70594">
        <ele>192</ele>
        <time>2018-09-23T10:44:14Z</time>
      </trkpt>
      <trkpt lat="45.92111" lon="4.70593">
        <ele>192</ele>
        <time>2018-09-23T10:44:15Z</time>
      </trkpt>
      <trkpt lat="45.92116" lon="4.70592">
        <ele>191</ele>
        <time>2018-09-23T10:44:16Z</time>
      </trkpt>
      <trkpt lat="45.92121" lon="4.70592">
        <ele>191</ele>
        <time>2018-09-23T10:44:17Z</time>
      </trkpt>
      <trkpt lat="45.92126" lon="4.70592">
        <ele>191</ele>
        <time>2018-09-23T10:44:18Z</time>
      </trkpt>
      <trkpt lat="45.92131" lon="4.7059">
        <ele>191</ele>
        <time>2018-09-23T10:44:19Z</time>
      </trkpt>
      <trkpt lat="45.92135" lon="4.7059">
        <ele>191</ele>
        <time>2018-09-23T10:44:20Z</time>
      </trkpt>
      <trkpt lat="45.9214" lon="4.70589">
        <ele>191</ele>
        <time>2018-09-23T10:44:21Z</time>
      </trkpt>
      <trkpt lat="45.92145" lon="4.70589">
        <ele>191</ele>
        <time>2018-09-23T10:44:22Z</time>
      </trkpt>
      <trkpt lat="45.92153" lon="4.70588">
        <ele>190</ele>
        <time>2018-09-23T10:44:24Z</time>
      </trkpt>
      <trkpt lat="45.92159" lon="4.70589">
        <ele>190</ele>
        <time>2018-09-23T10:44:25Z</time>
      </trkpt>
      <trkpt lat="45.92164" lon="4.7059">
        <ele>190</ele>
        <time>2018-09-23T10:44:26Z</time>
      </trkpt>
      <trkpt lat="45.92169" lon="4.7059">
        <ele>191</ele>
        <time>2018-09-23T10:44:27Z</time>
      </trkpt>
      <trkpt lat="45.92174" lon="4.7059">
        <ele>191</ele>
        <time>2018-09-23T10:44:28Z</time>
      </trkpt>
      <trkpt lat="45.92179" lon="4.7059">
        <ele>191</ele>
        <time>2018-09-23T10:44:29Z</time>
      </trkpt>
      <trkpt lat="45.92184" lon="4.70592">
        <ele>191</ele>
        <time>2018-09-23T10:44:30Z</time>
      </trkpt>
      <trkpt lat="45.92189" lon="4.70593">
        <ele>192</ele>
        <time>2018-09-23T10:44:31Z</time>
      </trkpt>
      <trkpt lat="45.92195" lon="4.70594">
        <ele>192</ele>
        <time>2018-09-23T10:44:32Z</time>
      </trkpt>
      <trkpt lat="45.92199" lon="4.70595">
        <ele>192</ele>
        <time>2018-09-23T10:44:33Z</time>
      </trkpt>
      <trkpt lat="45.92204" lon="4.70596">
        <ele>192</ele>
        <time>2018-09-23T10:44:34Z</time>
      </trkpt>
      <trkpt lat="45.92209" lon="4.70598">
        <ele>192</ele>
        <time>2018-09-23T10:44:35Z</time>
      </trkpt>
      <trkpt lat="45.92216" lon="4.70599">
        <ele>193</ele>
        <time>2018-09-23T10:44:37Z</time>
      </trkpt>
      <trkpt lat="45.9222" lon="4.70597">
        <ele>193</ele>
        <time>2018-09-23T10:44:38Z</time>
      </trkpt>
      <trkpt lat="45.92225" lon="4.70598">
        <ele>193</ele>
        <time>2018-09-23T10:44:39Z</time>
      </trkpt>
      <trkpt lat="45.9223" lon="4.70599">
        <ele>194</ele>
        <time>2018-09-23T10:44:40Z</time>
      </trkpt>
      <trkpt lat="45.92234" lon="4.706">
        <ele>194</ele>
        <time>2018-09-23T10:44:41Z</time>
      </trkpt>
      <trkpt lat="45.92239" lon="4.70601">
        <ele>194</ele>
        <time>2018-09-23T10:44:42Z</time>
      </trkpt>
      <trkpt lat="45.92247" lon="4.70605">
        <ele>194</ele>
        <time>2018-09-23T10:44:44Z</time>
      </trkpt>
      <trkpt lat="45.92251" lon="4.70609">
        <ele>196</ele>
        <time>2018-09-23T10:44:45Z</time>
      </trkpt>
      <trkpt lat="45.92258" lon="4.70613">
        <ele>196</ele>
        <time>2018-09-23T10:44:47Z</time>
      </trkpt>
      <trkpt lat="45.92264" lon="4.70614">
        <ele>196</ele>
        <time>2018-09-23T10:44:48Z</time>
      </trkpt>
      <trkpt lat="45.92271" lon="4.70618">
        <ele>196</ele>
        <time>2018-09-23T10:44:50Z</time>
      </trkpt>
      <trkpt lat="45.92277" lon="4.7062">
        <ele>196</ele>
        <time>2018-09-23T10:44:51Z</time>
      </trkpt>
      <trkpt lat="45.92285" lon="4.70624">
        <ele>196</ele>
        <time>2018-09-23T10:44:53Z</time>
      </trkpt>
      <trkpt lat="45.92289" lon="4.70626">
        <ele>196</ele>
        <time>2018-09-23T10:44:54Z</time>
      </trkpt>
      <trkpt lat="45.92294" lon="4.70627">
        <ele>196</ele>
        <time>2018-09-23T10:44:55Z</time>
      </trkpt>
      <trkpt lat="45.923" lon="4.70627">
        <ele>196</ele>
        <time>2018-09-23T10:44:56Z</time>
      </trkpt>
      <trkpt lat="45.92304" lon="4.7063">
        <ele>196</ele>
        <time>2018-09-23T10:44:57Z</time>
      </trkpt>
      <trkpt lat="45.92309" lon="4.70632">
        <ele>196</ele>
        <time>2018-09-23T10:44:58Z</time>
      </trkpt>
      <trkpt lat="45.92314" lon="4.70635">
        <ele>196</ele>
        <time>2018-09-23T10:44:59Z</time>
      </trkpt>
      <trkpt lat="45.9232" lon="4.70637">
        <ele>196</ele>
        <time>2018-09-23T10:45:00Z</time>
      </trkpt>
      <trkpt lat="45.92327" lon="4.70643">
        <ele>196</ele>
        <time>2018-09-23T10:45:02Z</time>
      </trkpt>
      <trkpt lat="45.92331" lon="4.70645">
        <ele>196</ele>
        <time>2018-09-23T10:45:03Z</time>
      </trkpt>
      <trkpt lat="45.92337" lon="4.70648">
        <ele>196</ele>
        <time>2018-09-23T10:45:04Z</time>
      </trkpt>
      <trkpt lat="45.92342" lon="4.70651">
        <ele>196</ele>
        <time>2018-09-23T10:45:05Z</time>
      </trkpt>
      <trkpt lat="45.92346" lon="4.70654">
        <ele>196</ele>
        <time>2018-09-23T10:45:06Z</time>
      </trkpt>
      <trkpt lat="45.92351" lon="4.70657">
        <ele>196</ele>
        <time>2018-09-23T10:45:07Z</time>
      </trkpt>
      <trkpt lat="45.92356" lon="4.70661">
        <ele>196</ele>
        <time>2018-09-23T10:45:08Z</time>
      </trkpt>
      <trkpt lat="45.9236" lon="4.70664">
        <ele>196</ele>
        <time>2018-09-23T10:45:09Z</time>
      </trkpt>
      <trkpt lat="45.92365" lon="4.70664">
        <ele>196</ele>
        <time>2018-09-23T10:45:10Z</time>
      </trkpt>
      <trkpt lat="45.92369" lon="4.70667">
        <ele>194</ele>
        <time>2018-09-23T10:45:11Z</time>
      </trkpt>
      <trkpt lat="45.92375" lon="4.70668">
        <ele>194</ele>
        <time>2018-09-23T10:45:12Z</time>
      </trkpt>
      <trkpt lat="45.9238" lon="4.70672">
        <ele>194</ele>
        <time>2018-09-23T10:45:13Z</time>
      </trkpt>
      <trkpt lat="45.92385" lon="4.70674">
        <ele>194</ele>
        <time>2018-09-23T10:45:14Z</time>
      </trkpt>
      <trkpt lat="45.92389" lon="4.70678">
        <ele>194</ele>
        <time>2018-09-23T10:45:15Z</time>
      </trkpt>
      <trkpt lat="45.92394" lon="4.70682">
        <ele>194</ele>
        <time>2018-09-23T10:45:16Z</time>
      </trkpt>
      <trkpt lat="45.92399" lon="4.70686">
        <ele>194</ele>
        <time>2018-09-23T10:45:17Z</time>
      </trkpt>
      <trkpt lat="45.92405" lon="4.70688">
        <ele>194</ele>
        <time>2018-09-23T10:45:18Z</time>
      </trkpt>
      <trkpt lat="45.92411" lon="4.70691">
        <ele>194</ele>
        <time>2018-09-23T10:45:19Z</time>
      </trkpt>
      <trkpt lat="45.92415" lon="4.70694">
        <ele>194</ele>
        <time>2018-09-23T10:45:20Z</time>
      </trkpt>
      <trkpt lat="45.9242" lon="4.70697">
        <ele>195</ele>
        <time>2018-09-23T10:45:21Z</time>
      </trkpt>
      <trkpt lat="45.92426" lon="4.707">
        <ele>194</ele>
        <time>2018-09-23T10:45:22Z</time>
      </trkpt>
      <trkpt lat="45.92431" lon="4.70702">
        <ele>194</ele>
        <time>2018-09-23T10:45:23Z</time>
      </trkpt>
      <trkpt lat="45.92436" lon="4.70706">
        <ele>194</ele>
        <time>2018-09-23T10:45:24Z</time>
      </trkpt>
      <trkpt lat="45.92441" lon="4.70709">
        <ele>194</ele>
        <time>2018-09-23T10:45:25Z</time>
      </trkpt>
      <trkpt lat="45.92445" lon="4.70711">
        <ele>194</ele>
        <time>2018-09-23T10:45:26Z</time>
      </trkpt>
      <trkpt lat="45.9245" lon="4.70714">
        <ele>194</ele>
        <time>2018-09-23T10:45:27Z</time>
      </trkpt>
      <trkpt lat="45.92455" lon="4.70717">
        <ele>194</ele>
        <time>2018-09-23T10:45:28Z</time>
      </trkpt>
      <trkpt lat="45.92461" lon="4.7072">
        <ele>194</ele>
        <time>2018-09-23T10:45:29Z</time>
      </trkpt>
      <trkpt lat="45.92466" lon="4.70723">
        <ele>194</ele>
        <time>2018-09-23T10:45:30Z</time>
      </trkpt>
      <trkpt lat="45.92471" lon="4.70725">
        <ele>194</ele>
        <time>2018-09-23T10:45:31Z</time>
      </trkpt>
      <trkpt lat="45.92476" lon="4.70728">
        <ele>194</ele>
        <time>2018-09-23T10:45:32Z</time>
      </trkpt>
      <trkpt lat="45.92481" lon="4.7073">
        <ele>194</ele>
        <time>2018-09-23T10:45:33Z</time>
      </trkpt>
      <trkpt lat="45.92489" lon="4.70733">
        <ele>194</ele>
        <time>2018-09-23T10:45:35Z</time>
      </trkpt>
      <trkpt lat="45.92493" lon="4.70736">
        <ele>194</ele>
        <time>2018-09-23T10:45:36Z</time>
      </trkpt>
      <trkpt lat="45.92499" lon="4.7074">
        <ele>194</ele>
        <time>2018-09-23T10:45:37Z</time>
      </trkpt>
      <trkpt lat="45.92503" lon="4.70744">
        <ele>195</ele>
        <time>2018-09-23T10:45:38Z</time>
      </trkpt>
      <trkpt lat="45.92508" lon="4.70747">
        <ele>195</ele>
        <time>2018-09-23T10:45:39Z</time>
      </trkpt>
      <trkpt lat="45.92513" lon="4.7075">
        <ele>194</ele>
        <time>2018-09-23T10:45:40Z</time>
      </trkpt>
      <trkpt lat="45.92518" lon="4.70753">
        <ele>195</ele>
        <time>2018-09-23T10:45:41Z</time>
      </trkpt>
      <trkpt lat="45.92522" lon="4.70756">
        <ele>195</ele>
        <time>2018-09-23T10:45:42Z</time>
      </trkpt>
      <trkpt lat="45.92526" lon="4.70759">
        <ele>195</ele>
        <time>2018-09-23T10:45:43Z</time>
      </trkpt>
      <trkpt lat="45.92531" lon="4.70763">
        <ele>195</ele>
        <time>2018-09-23T10:45:44Z</time>
      </trkpt>
      <trkpt lat="45.92535" lon="4.70766">
        <ele>195</ele>
        <time>2018-09-23T10:45:45Z</time>
      </trkpt>
      <trkpt lat="45.9254" lon="4.70769">
        <ele>195</ele>
        <time>2018-09-23T10:45:46Z</time>
      </trkpt>
      <trkpt lat="45.92544" lon="4.70772">
        <ele>195</ele>
        <time>2018-09-23T10:45:47Z</time>
      </trkpt>
      <trkpt lat="45.92548" lon="4.70774">
        <ele>195</ele>
        <time>2018-09-23T10:45:48Z</time>
      </trkpt>
      <trkpt lat="45.92557" lon="4.70778">
        <ele>196</ele>
        <time>2018-09-23T10:45:50Z</time>
      </trkpt>
      <trkpt lat="45.92561" lon="4.70781">
        <ele>196</ele>
        <time>2018-09-23T10:45:51Z</time>
      </trkpt>
      <trkpt lat="45.92569" lon="4.70787">
        <ele>196</ele>
        <time>2018-09-23T10:45:53Z</time>
      </trkpt>
      <trkpt lat="45.92573" lon="4.7079">
        <ele>196</ele>
        <time>2018-09-23T10:45:54Z</time>
      </trkpt>
      <trkpt lat="45.92577" lon="4.70794">
        <ele>196</ele>
        <time>2018-09-23T10:45:55Z</time>
      </trkpt>
      <trkpt lat="45.9258" lon="4.70797">
        <ele>196</ele>
        <time>2018-09-23T10:45:56Z</time>
      </trkpt>
      <trkpt lat="45.92584" lon="4.708">
        <ele>198</ele>
        <time>2018-09-23T10:45:57Z</time>
      </trkpt>
      <trkpt lat="45.92588" lon="4.70804">
        <ele>198</ele>
        <time>2018-09-23T10:45:58Z</time>
      </trkpt>
      <trkpt lat="45.92592" lon="4.70806">
        <ele>198</ele>
        <time>2018-09-23T10:45:59Z</time>
      </trkpt>
      <trkpt lat="45.92596" lon="4.70811">
        <ele>198</ele>
        <time>2018-09-23T10:46:00Z</time>
      </trkpt>
      <trkpt lat="45.92603" lon="4.70819">
        <ele>198</ele>
        <time>2018-09-23T10:46:02Z</time>
      </trkpt>
      <trkpt lat="45.92607" lon="4.70824">
        <ele>198</ele>
        <time>2018-09-23T10:46:03Z</time>
      </trkpt>
      <trkpt lat="45.92615" lon="4.70832">
        <ele>198</ele>
        <time>2018-09-23T10:46:05Z</time>
      </trkpt>
      <trkpt lat="45.92619" lon="4.70836">
        <ele>197</ele>
        <time>2018-09-23T10:46:06Z</time>
      </trkpt>
      <trkpt lat="45.92623" lon="4.70839">
        <ele>197</ele>
        <time>2018-09-23T10:46:07Z</time>
      </trkpt>
      <trkpt lat="45.92627" lon="4.70843">
        <ele>198</ele>
        <time>2018-09-23T10:46:08Z</time>
      </trkpt>
      <trkpt lat="45.92631" lon="4.70846">
        <ele>198</ele>
        <time>2018-09-23T10:46:09Z</time>
      </trkpt>
      <trkpt lat="45.92637" lon="4.70849">
        <ele>198</ele>
        <time>2018-09-23T10:46:10Z</time>
      </trkpt>
      <trkpt lat="45.92642" lon="4.70852">
        <ele>198</ele>
        <time>2018-09-23T10:46:11Z</time>
      </trkpt>
      <trkpt lat="45.92647" lon="4.70858">
        <ele>198</ele>
        <time>2018-09-23T10:46:12Z</time>
      </trkpt>
      <trkpt lat="45.92655" lon="4.70861">
        <ele>198</ele>
        <time>2018-09-23T10:46:13Z</time>
      </trkpt>
      <trkpt lat="45.92659" lon="4.70864">
        <ele>198</ele>
        <time>2018-09-23T10:46:14Z</time>
      </trkpt>
      <trkpt lat="45.92663" lon="4.70869">
        <ele>198</ele>
        <time>2018-09-23T10:46:15Z</time>
      </trkpt>
      <trkpt lat="45.92668" lon="4.70874">
        <ele>198</ele>
        <time>2018-09-23T10:46:16Z</time>
      </trkpt>
      <trkpt lat="45.92672" lon="4.70879">
        <ele>198</ele>
        <time>2018-09-23T10:46:17Z</time>
      </trkpt>
      <trkpt lat="45.92676" lon="4.70883">
        <ele>198</ele>
        <time>2018-09-23T10:46:18Z</time>
      </trkpt>
      <trkpt lat="45.92681" lon="4.70887">
        <ele>198</ele>
        <time>2018-09-23T10:46:19Z</time>
      </trkpt>
      <trkpt lat="45.92686" lon="4.70892">
        <ele>198</ele>
        <time>2018-09-23T10:46:20Z</time>
      </trkpt>
      <trkpt lat="45.92691" lon="4.70894">
        <ele>198</ele>
        <time>2018-09-23T10:46:21Z</time>
      </trkpt>
      <trkpt lat="45.92697" lon="4.70897">
        <ele>198</ele>
        <time>2018-09-23T10:46:22Z</time>
      </trkpt>
      <trkpt lat="45.92701" lon="4.70901">
        <ele>197</ele>
        <time>2018-09-23T10:46:23Z</time>
      </trkpt>
      <trkpt lat="45.92706" lon="4.70905">
        <ele>197</ele>
        <time>2018-09-23T10:46:24Z</time>
      </trkpt>
      <trkpt lat="45.92712" lon="4.70909">
        <ele>197</ele>
        <time>2018-09-23T10:46:25Z</time>
      </trkpt>
      <trkpt lat="45.92717" lon="4.70911">
        <ele>197</ele>
        <time>2018-09-23T10:46:26Z</time>
      </trkpt>
      <trkpt lat="45.92723" lon="4.70915">
        <ele>197</ele>
        <time>2018-09-23T10:46:27Z</time>
      </trkpt>
      <trkpt lat="45.92728" lon="4.70918">
        <ele>195</ele>
        <time>2018-09-23T10:46:28Z</time>
      </trkpt>
      <trkpt lat="45.92733" lon="4.7092">
        <ele>195</ele>
        <time>2018-09-23T10:46:29Z</time>
      </trkpt>
      <trkpt lat="45.92738" lon="4.70921">
        <ele>195</ele>
        <time>2018-09-23T10:46:30Z</time>
      </trkpt>
      <trkpt lat="45.92743" lon="4.70922">
        <ele>195</ele>
        <time>2018-09-23T10:46:31Z</time>
      </trkpt>
      <trkpt lat="45.92751" lon="4.70925">
        <ele>196</ele>
        <time>2018-09-23T10:46:33Z</time>
      </trkpt>
      <trkpt lat="45.92756" lon="4.70927">
        <ele>196</ele>
        <time>2018-09-23T10:46:34Z</time>
      </trkpt>
      <trkpt lat="45.92761" lon="4.70927">
        <ele>196</ele>
        <time>2018-09-23T10:46:35Z</time>
      </trkpt>
      <trkpt lat="45.92765" lon="4.70928">
        <ele>196</ele>
        <time>2018-09-23T10:46:36Z</time>
      </trkpt>
      <trkpt lat="45.9277" lon="4.70926">
        <ele>196</ele>
        <time>2018-09-23T10:46:37Z</time>
      </trkpt>
      <trkpt lat="45.92774" lon="4.7093">
        <ele>196</ele>
        <time>2018-09-23T10:46:38Z</time>
      </trkpt>
      <trkpt lat="45.92783" lon="4.70926">
        <ele>196</ele>
        <time>2018-09-23T10:46:40Z</time>
      </trkpt>
      <trkpt lat="45.92787" lon="4.70927">
        <ele>196</ele>
        <time>2018-09-23T10:46:41Z</time>
      </trkpt>
      <trkpt lat="45.92792" lon="4.70928">
        <ele>196</ele>
        <time>2018-09-23T10:46:42Z</time>
      </trkpt>
      <trkpt lat="45.92796" lon="4.7093">
        <ele>196</ele>
        <time>2018-09-23T10:46:43Z</time>
      </trkpt>
      <trkpt lat="45.92803" lon="4.70938">
        <ele>196</ele>
        <time>2018-09-23T10:46:45Z</time>
      </trkpt>
      <trkpt lat="45.92808" lon="4.70942">
        <ele>196</ele>
        <time>2018-09-23T10:46:46Z</time>
      </trkpt>
      <trkpt lat="45.92813" lon="4.70945">
        <ele>197</ele>
        <time>2018-09-23T10:46:47Z</time>
      </trkpt>
      <trkpt lat="45.92819" lon="4.70947">
        <ele>197</ele>
        <time>2018-09-23T10:46:48Z</time>
      </trkpt>
      <trkpt lat="45.92824" lon="4.70948">
        <ele>197</ele>
        <time>2018-09-23T10:46:49Z</time>
      </trkpt>
      <trkpt lat="45.92828" lon="4.70942">
        <ele>197</ele>
        <time>2018-09-23T10:46:50Z</time>
      </trkpt>
      <trkpt lat="45.92832" lon="4.70936">
        <ele>197</ele>
        <time>2018-09-23T10:46:51Z</time>
      </trkpt>
      <trkpt lat="45.92839" lon="4.70939">
        <ele>198</ele>
        <time>2018-09-23T10:46:52Z</time>
      </trkpt>
      <trkpt lat="45.92848" lon="4.70942">
        <ele>198</ele>
        <time>2018-09-23T10:46:54Z</time>
      </trkpt>
      <trkpt lat="45.92852" lon="4.70943">
        <ele>198</ele>
        <time>2018-09-23T10:46:55Z</time>
      </trkpt>
      <trkpt lat="45.92856" lon="4.70944">
        <ele>198</ele>
        <time>2018-09-23T10:46:56Z</time>
      </trkpt>
      <trkpt lat="45.92862" lon="4.70946">
        <ele>198</ele>
        <time>2018-09-23T10:46:57Z</time>
      </trkpt>
      <trkpt lat="45.92867" lon="4.70947">
        <ele>198</ele>
        <time>2018-09-23T10:46:58Z</time>
      </trkpt>
      <trkpt lat="45.92873" lon="4.70948">
        <ele>198</ele>
        <time>2018-09-23T10:46:59Z</time>
      </trkpt>
      <trkpt lat="45.92879" lon="4.7095">
        <ele>198</ele>
        <time>2018-09-23T10:47:00Z</time>
      </trkpt>
      <trkpt lat="45.92884" lon="4.70952">
        <ele>198</ele>
        <time>2018-09-23T10:47:01Z</time>
      </trkpt>
      <trkpt lat="45.9289" lon="4.70954">
        <ele>198</ele>
        <time>2018-09-23T10:47:02Z</time>
      </trkpt>
      <trkpt lat="45.92895" lon="4.70955">
        <ele>198</ele>
        <time>2018-09-23T10:47:03Z</time>
      </trkpt>
      <trkpt lat="45.929" lon="4.70958">
        <ele>198</ele>
        <time>2018-09-23T10:47:04Z</time>
      </trkpt>
      <trkpt lat="45.92905" lon="4.70959">
        <ele>197</ele>
        <time>2018-09-23T10:47:05Z</time>
      </trkpt>
      <trkpt lat="45.92909" lon="4.7096">
        <ele>197</ele>
        <time>2018-09-23T10:47:06Z</time>
      </trkpt>
      <trkpt lat="45.92915" lon="4.70962">
        <ele>197</ele>
        <time>2018-09-23T10:47:07Z</time>
      </trkpt>
      <trkpt lat="45.9292" lon="4.70963">
        <ele>198</ele>
        <time>2018-09-23T10:47:08Z</time>
      </trkpt>
      <trkpt lat="45.92926" lon="4.70964">
        <ele>198</ele>
        <time>2018-09-23T10:47:09Z</time>
      </trkpt>
      <trkpt lat="45.92931" lon="4.70966">
        <ele>198</ele>
        <time>2018-09-23T10:47:10Z</time>
      </trkpt>
      <trkpt lat="45.92937" lon="4.70967">
        <ele>198</ele>
        <time>2018-09-23T10:47:11Z</time>
      </trkpt>
      <trkpt lat="45.92942" lon="4.70967">
        <ele>198</ele>
        <time>2018-09-23T10:47:12Z</time>
      </trkpt>
      <trkpt lat="45.92948" lon="4.70971">
        <ele>198</ele>
        <time>2018-09-23T10:47:13Z</time>
      </trkpt>
      <trkpt lat="45.92954" lon="4.70972">
        <ele>198</ele>
        <time>2018-09-23T10:47:14Z</time>
      </trkpt>
      <trkpt lat="45.92959" lon="4.70973">
        <ele>198</ele>
        <time>2018-09-23T10:47:15Z</time>
      </trkpt>
      <trkpt lat="45.92965" lon="4.70976">
        <ele>198</ele>
        <time>2018-09-23T10:47:16Z</time>
      </trkpt>
      <trkpt lat="45.92969" lon="4.70977">
        <ele>198</ele>
        <time>2018-09-23T10:47:17Z</time>
      </trkpt>
      <trkpt lat="45.92975" lon="4.70979">
        <ele>198</ele>
        <time>2018-09-23T10:47:18Z</time>
      </trkpt>
      <trkpt lat="45.92981" lon="4.70982">
        <ele>198</ele>
        <time>2018-09-23T10:47:19Z</time>
      </trkpt>
      <trkpt lat="45.92986" lon="4.70984">
        <ele>198</ele>
        <time>2018-09-23T10:47:20Z</time>
      </trkpt>
      <trkpt lat="45.92992" lon="4.70985">
        <ele>198</ele>
        <time>2018-09-23T10:47:21Z</time>
      </trkpt>
      <trkpt lat="45.92997" lon="4.70988">
        <ele>197</ele>
        <time>2018-09-23T10:47:22Z</time>
      </trkpt>
      <trkpt lat="45.93004" lon="4.70988">
        <ele>198</ele>
        <time>2018-09-23T10:47:23Z</time>
      </trkpt>
      <trkpt lat="45.9301" lon="4.7099">
        <ele>198</ele>
        <time>2018-09-23T10:47:24Z</time>
      </trkpt>
      <trkpt lat="45.93016" lon="4.70993">
        <ele>198</ele>
        <time>2018-09-23T10:47:25Z</time>
      </trkpt>
      <trkpt lat="45.93021" lon="4.70996">
        <ele>198</ele>
        <time>2018-09-23T10:47:26Z</time>
      </trkpt>
      <trkpt lat="45.93026" lon="4.70999">
        <ele>198</ele>
        <time>2018-09-23T10:47:27Z</time>
      </trkpt>
      <trkpt lat="45.93032" lon="4.71003">
        <ele>197</ele>
        <time>2018-09-23T10:47:28Z</time>
      </trkpt>
      <trkpt lat="45.93037" lon="4.71007">
        <ele>197</ele>
        <time>2018-09-23T10:47:29Z</time>
      </trkpt>
      <trkpt lat="45.93044" lon="4.7101">
        <ele>197</ele>
        <time>2018-09-23T10:47:30Z</time>
      </trkpt>
      <trkpt lat="45.9305" lon="4.71015">
        <ele>197</ele>
        <time>2018-09-23T10:47:31Z</time>
      </trkpt>
      <trkpt lat="45.93054" lon="4.71021">
        <ele>197</ele>
        <time>2018-09-23T10:47:32Z</time>
      </trkpt>
      <trkpt lat="45.9306" lon="4.71027">
        <ele>197</ele>
        <time>2018-09-23T10:47:33Z</time>
      </trkpt>
      <trkpt lat="45.93066" lon="4.71032">
        <ele>197</ele>
        <time>2018-09-23T10:47:34Z</time>
      </trkpt>
      <trkpt lat="45.93071" lon="4.71038">
        <ele>196</ele>
        <time>2018-09-23T10:47:35Z</time>
      </trkpt>
      <trkpt lat="45.93077" lon="4.71044">
        <ele>196</ele>
        <time>2018-09-23T10:47:36Z</time>
      </trkpt>
      <trkpt lat="45.93083" lon="4.71049">
        <ele>196</ele>
        <time>2018-09-23T10:47:37Z</time>
      </trkpt>
      <trkpt lat="45.9309" lon="4.71054">
        <ele>196</ele>
        <time>2018-09-23T10:47:38Z</time>
      </trkpt>
      <trkpt lat="45.93095" lon="4.71063">
        <ele>195</ele>
        <time>2018-09-23T10:47:39Z</time>
      </trkpt>
      <trkpt lat="45.93099" lon="4.7107">
        <ele>195</ele>
        <time>2018-09-23T10:47:40Z</time>
      </trkpt>
      <trkpt lat="45.93104" lon="4.71077">
        <ele>195</ele>
        <time>2018-09-23T10:47:41Z</time>
      </trkpt>
      <trkpt lat="45.93109" lon="4.71084">
        <ele>193</ele>
        <time>2018-09-23T10:47:42Z</time>
      </trkpt>
      <trkpt lat="45.93113" lon="4.71092">
        <ele>193</ele>
        <time>2018-09-23T10:47:43Z</time>
      </trkpt>
      <trkpt lat="45.93117" lon="4.711">
        <ele>193</ele>
        <time>2018-09-23T10:47:44Z</time>
      </trkpt>
      <trkpt lat="45.93122" lon="4.71109">
        <ele>192</ele>
        <time>2018-09-23T10:47:45Z</time>
      </trkpt>
      <trkpt lat="45.93127" lon="4.71118">
        <ele>192</ele>
        <time>2018-09-23T10:47:46Z</time>
      </trkpt>
      <trkpt lat="45.93131" lon="4.71127">
        <ele>192</ele>
        <time>2018-09-23T10:47:47Z</time>
      </trkpt>
      <trkpt lat="45.93136" lon="4.71137">
        <ele>192</ele>
        <time>2018-09-23T10:47:48Z</time>
      </trkpt>
      <trkpt lat="45.9314" lon="4.71146">
        <ele>191</ele>
        <time>2018-09-23T10:47:49Z</time>
      </trkpt>
      <trkpt lat="45.93144" lon="4.71156">
        <ele>191</ele>
        <time>2018-09-23T10:47:50Z</time>
      </trkpt>
      <trkpt lat="45.93149" lon="4.71165">
        <ele>191</ele>
        <time>2018-09-23T10:47:51Z</time>
      </trkpt>
      <trkpt lat="45.93154" lon="4.71173">
        <ele>190</ele>
        <time>2018-09-23T10:47:52Z</time>
      </trkpt>
      <trkpt lat="45.93159" lon="4.71183">
        <ele>190</ele>
        <time>2018-09-23T10:47:53Z</time>
      </trkpt>
      <trkpt lat="45.93164" lon="4.71193">
        <ele>190</ele>
        <time>2018-09-23T10:47:54Z</time>
      </trkpt>
      <trkpt lat="45.93169" lon="4.71204">
        <ele>190</ele>
        <time>2018-09-23T10:47:55Z</time>
      </trkpt>
      <trkpt lat="45.93172" lon="4.71213">
        <ele>190</ele>
        <time>2018-09-23T10:47:56Z</time>
      </trkpt>
      <trkpt lat="45.9318" lon="4.71225">
        <ele>190</ele>
        <time>2018-09-23T10:47:57Z</time>
      </trkpt>
      <trkpt lat="45.93183" lon="4.71234">
        <ele>190</ele>
        <time>2018-09-23T10:47:58Z</time>
      </trkpt>
      <trkpt lat="45.93188" lon="4.71243">
        <ele>190</ele>
        <time>2018-09-23T10:47:59Z</time>
      </trkpt>
      <trkpt lat="45.93192" lon="4.71253">
        <ele>189</ele>
        <time>2018-09-23T10:48:00Z</time>
      </trkpt>
      <trkpt lat="45.93197" lon="4.71263">
        <ele>189</ele>
        <time>2018-09-23T10:48:01Z</time>
      </trkpt>
      <trkpt lat="45.93201" lon="4.71273">
        <ele>188</ele>
        <time>2018-09-23T10:48:02Z</time>
      </trkpt>
      <trkpt lat="45.93205" lon="4.71282">
        <ele>188</ele>
        <time>2018-09-23T10:48:03Z</time>
      </trkpt>
      <trkpt lat="45.93211" lon="4.71289">
        <ele>188</ele>
        <time>2018-09-23T10:48:04Z</time>
      </trkpt>
      <trkpt lat="45.93215" lon="4.71298">
        <ele>188</ele>
        <time>2018-09-23T10:48:05Z</time>
      </trkpt>
      <trkpt lat="45.93219" lon="4.71308">
        <ele>188</ele>
        <time>2018-09-23T10:48:06Z</time>
      </trkpt>
      <trkpt lat="45.93223" lon="4.71318">
        <ele>187</ele>
        <time>2018-09-23T10:48:07Z</time>
      </trkpt>
      <trkpt lat="45.93227" lon="4.71327">
        <ele>187</ele>
        <time>2018-09-23T10:48:08Z</time>
      </trkpt>
      <trkpt lat="45.93231" lon="4.71337">
        <ele>186</ele>
        <time>2018-09-23T10:48:09Z</time>
      </trkpt>
      <trkpt lat="45.93234" lon="4.71345">
        <ele>186</ele>
        <time>2018-09-23T10:48:10Z</time>
      </trkpt>
      <trkpt lat="45.93237" lon="4.71354">
        <ele>186</ele>
        <time>2018-09-23T10:48:11Z</time>
      </trkpt>
      <trkpt lat="45.93241" lon="4.71363">
        <ele>186</ele>
        <time>2018-09-23T10:48:12Z</time>
      </trkpt>
      <trkpt lat="45.93245" lon="4.7137">
        <ele>186</ele>
        <time>2018-09-23T10:48:13Z</time>
      </trkpt>
      <trkpt lat="45.93248" lon="4.71378">
        <ele>186</ele>
        <time>2018-09-23T10:48:14Z</time>
      </trkpt>
      <trkpt lat="45.93251" lon="4.71385">
        <ele>186</ele>
        <time>2018-09-23T10:48:15Z</time>
      </trkpt>
      <trkpt lat="45.93255" lon="4.71394">
        <ele>186</ele>
        <time>2018-09-23T10:48:16Z</time>
      </trkpt>
      <trkpt lat="45.93258" lon="4.71402">
        <ele>186</ele>
        <time>2018-09-23T10:48:17Z</time>
      </trkpt>
      <trkpt lat="45.93262" lon="4.71408">
        <ele>186</ele>
        <time>2018-09-23T10:48:18Z</time>
      </trkpt>
      <trkpt lat="45.93264" lon="4.71416">
        <ele>186</ele>
        <time>2018-09-23T10:48:19Z</time>
      </trkpt>
      <trkpt lat="45.93267" lon="4.71424">
        <ele>186</ele>
        <time>2018-09-23T10:48:20Z</time>
      </trkpt>
      <trkpt lat="45.93271" lon="4.71431">
        <ele>185</ele>
        <time>2018-09-23T10:48:21Z</time>
      </trkpt>
      <trkpt lat="45.93274" lon="4.71439">
        <ele>185</ele>
        <time>2018-09-23T10:48:22Z</time>
      </trkpt>
      <trkpt lat="45.93277" lon="4.71444">
        <ele>185</ele>
        <time>2018-09-23T10:48:23Z</time>
      </trkpt>
      <trkpt lat="45.9328" lon="4.7145">
        <ele>185</ele>
        <time>2018-09-23T10:48:24Z</time>
      </trkpt>
      <trkpt lat="45.93283" lon="4.71456">
        <ele>185</ele>
        <time>2018-09-23T10:48:25Z</time>
      </trkpt>
      <trkpt lat="45.93286" lon="4.71464">
        <ele>185</ele>
        <time>2018-09-23T10:48:26Z</time>
      </trkpt>
      <trkpt lat="45.93288" lon="4.71471">
        <ele>185</ele>
        <time>2018-09-23T10:48:27Z</time>
      </trkpt>
      <trkpt lat="45.93292" lon="4.71478">
        <ele>185</ele>
        <time>2018-09-23T10:48:28Z</time>
      </trkpt>
      <trkpt lat="45.93295" lon="4.71484">
        <ele>185</ele>
        <time>2018-09-23T10:48:29Z</time>
      </trkpt>
      <trkpt lat="45.93299" lon="4.7149">
        <ele>185</ele>
        <time>2018-09-23T10:48:30Z</time>
      </trkpt>
      <trkpt lat="45.93302" lon="4.71496">
        <ele>185</ele>
        <time>2018-09-23T10:48:31Z</time>
      </trkpt>
      <trkpt lat="45.93306" lon="4.71504">
        <ele>184</ele>
        <time>2018-09-23T10:48:32Z</time>
      </trkpt>
      <trkpt lat="45.93308" lon="4.7151">
        <ele>184</ele>
        <time>2018-09-23T10:48:33Z</time>
      </trkpt>
      <trkpt lat="45.93311" lon="4.71516">
        <ele>184</ele>
        <time>2018-09-23T10:48:34Z</time>
      </trkpt>
      <trkpt lat="45.93313" lon="4.71521">
        <ele>184</ele>
        <time>2018-09-23T10:48:35Z</time>
      </trkpt>
      <trkpt lat="45.93316" lon="4.71528">
        <ele>184</ele>
        <time>2018-09-23T10:48:36Z</time>
      </trkpt>
      <trkpt lat="45.93319" lon="4.71534">
        <ele>184</ele>
        <time>2018-09-23T10:48:37Z</time>
      </trkpt>
      <trkpt lat="45.93321" lon="4.7154">
        <ele>184</ele>
        <time>2018-09-23T10:48:38Z</time>
      </trkpt>
      <trkpt lat="45.93325" lon="4.71547">
        <ele>184</ele>
        <time>2018-09-23T10:48:39Z</time>
      </trkpt>
      <trkpt lat="45.93327" lon="4.71555">
        <ele>184</ele>
        <time>2018-09-23T10:48:40Z</time>
      </trkpt>
      <trkpt lat="45.93328" lon="4.71562">
        <ele>185</ele>
        <time>2018-09-23T10:48:41Z</time>
      </trkpt>
      <trkpt lat="45.93332" lon="4.71569">
        <ele>185</ele>
        <time>2018-09-23T10:48:42Z</time>
      </trkpt>
      <trkpt lat="45.93334" lon="4.71576">
        <ele>185</ele>
        <time>2018-09-23T10:48:43Z</time>
      </trkpt>
      <trkpt lat="45.93338" lon="4.71581">
        <ele>185</ele>
        <time>2018-09-23T10:48:44Z</time>
      </trkpt>
      <trkpt lat="45.93341" lon="4.71588">
        <ele>185</ele>
        <time>2018-09-23T10:48:45Z</time>
      </trkpt>
      <trkpt lat="45.93344" lon="4.71595">
        <ele>185</ele>
        <time>2018-09-23T10:48:46Z</time>
      </trkpt>
      <trkpt lat="45.93347" lon="4.71603">
        <ele>185</ele>
        <time>2018-09-23T10:48:47Z</time>
      </trkpt>
      <trkpt lat="45.9335" lon="4.71609">
        <ele>185</ele>
        <time>2018-09-23T10:48:48Z</time>
      </trkpt>
      <trkpt lat="45.93354" lon="4.71615">
        <ele>185</ele>
        <time>2018-09-23T10:48:49Z</time>
      </trkpt>
      <trkpt lat="45.93357" lon="4.71622">
        <ele>185</ele>
        <time>2018-09-23T10:48:50Z</time>
      </trkpt>
      <trkpt lat="45.93359" lon="4.7163">
        <ele>185</ele>
        <time>2018-09-23T10:48:51Z</time>
      </trkpt>
      <trkpt lat="45.93362" lon="4.71637">
        <ele>185</ele>
        <time>2018-09-23T10:48:52Z</time>
      </trkpt>
      <trkpt lat="45.93366" lon="4.71645">
        <ele>185</ele>
        <time>2018-09-23T10:48:53Z</time>
      </trkpt>
      <trkpt lat="45.93369" lon="4.71652">
        <ele>185</ele>
        <time>2018-09-23T10:48:54Z</time>
      </trkpt>
      <trkpt lat="45.93371" lon="4.71659">
        <ele>185</ele>
        <time>2018-09-23T10:48:55Z</time>
      </trkpt>
      <trkpt lat="45.93374" lon="4.71666">
        <ele>185</ele>
        <time>2018-09-23T10:48:56Z</time>
      </trkpt>
      <trkpt lat="45.93377" lon="4.71675">
        <ele>185</ele>
        <time>2018-09-23T10:48:57Z</time>
      </trkpt>
      <trkpt lat="45.93382" lon="4.71683">
        <ele>185</ele>
        <time>2018-09-23T10:48:58Z</time>
      </trkpt>
      <trkpt lat="45.93385" lon="4.7169">
        <ele>184</ele>
        <time>2018-09-23T10:48:59Z</time>
      </trkpt>
      <trkpt lat="45.93389" lon="4.71699">
        <ele>184</ele>
        <time>2018-09-23T10:49:00Z</time>
      </trkpt>
      <trkpt lat="45.93393" lon="4.71707">
        <ele>184</ele>
        <time>2018-09-23T10:49:01Z</time>
      </trkpt>
      <trkpt lat="45.93395" lon="4.71715">
        <ele>184</ele>
        <time>2018-09-23T10:49:02Z</time>
      </trkpt>
      <trkpt lat="45.93399" lon="4.71723">
        <ele>184</ele>
        <time>2018-09-23T10:49:03Z</time>
      </trkpt>
      <trkpt lat="45.93403" lon="4.71731">
        <ele>184</ele>
        <time>2018-09-23T10:49:04Z</time>
      </trkpt>
      <trkpt lat="45.93404" lon="4.71736">
        <ele>184</ele>
        <time>2018-09-23T10:49:05Z</time>
      </trkpt>
      <trkpt lat="45.93406" lon="4.71745">
        <ele>184</ele>
        <time>2018-09-23T10:49:06Z</time>
      </trkpt>
      <trkpt lat="45.93412" lon="4.71754">
        <ele>183</ele>
        <time>2018-09-23T10:49:07Z</time>
      </trkpt>
      <trkpt lat="45.93415" lon="4.71762">
        <ele>183</ele>
        <time>2018-09-23T10:49:08Z</time>
      </trkpt>
      <trkpt lat="45.93419" lon="4.71771">
        <ele>182</ele>
        <time>2018-09-23T10:49:09Z</time>
      </trkpt>
      <trkpt lat="45.93423" lon="4.71778">
        <ele>182</ele>
        <time>2018-09-23T10:49:10Z</time>
      </trkpt>
      <trkpt lat="45.93428" lon="4.71787">
        <ele>182</ele>
        <time>2018-09-23T10:49:11Z</time>
      </trkpt>
      <trkpt lat="45.93432" lon="4.71797">
        <ele>182</ele>
        <time>2018-09-23T10:49:12Z</time>
      </trkpt>
      <trkpt lat="45.93436" lon="4.71806">
        <ele>182</ele>
        <time>2018-09-23T10:49:13Z</time>
      </trkpt>
      <trkpt lat="45.93439" lon="4.71814">
        <ele>182</ele>
        <time>2018-09-23T10:49:14Z</time>
      </trkpt>
      <trkpt lat="45.93443" lon="4.71822">
        <ele>182</ele>
        <time>2018-09-23T10:49:15Z</time>
      </trkpt>
      <trkpt lat="45.93447" lon="4.7183">
        <ele>182</ele>
        <time>2018-09-23T10:49:16Z</time>
      </trkpt>
      <trkpt lat="45.9345" lon="4.71838">
        <ele>181</ele>
        <time>2018-09-23T10:49:17Z</time>
      </trkpt>
      <trkpt lat="45.93457" lon="4.71845">
        <ele>181</ele>
        <time>2018-09-23T10:49:18Z</time>
      </trkpt>
      <trkpt lat="45.93463" lon="4.7185">
        <ele>180</ele>
        <time>2018-09-23T10:49:19Z</time>
      </trkpt>
      <trkpt lat="45.93469" lon="4.71855">
        <ele>180</ele>
        <time>2018-09-23T10:49:20Z</time>
      </trkpt>
      <trkpt lat="45.93477" lon="4.71856">
        <ele>180</ele>
        <time>2018-09-23T10:49:21Z</time>
      </trkpt>
      <trkpt lat="45.93484" lon="4.71855">
        <ele>180</ele>
        <time>2018-09-23T10:49:22Z</time>
      </trkpt>
      <trkpt lat="45.9349" lon="4.71851">
        <ele>180</ele>
        <time>2018-09-23T10:49:23Z</time>
      </trkpt>
      <trkpt lat="45.93496" lon="4.71852">
        <ele>180</ele>
        <time>2018-09-23T10:49:24Z</time>
      </trkpt>
      <trkpt lat="45.93501" lon="4.71849">
        <ele>179</ele>
        <time>2018-09-23T10:49:25Z</time>
      </trkpt>
      <trkpt lat="45.93511" lon="4.71848">
        <ele>179</ele>
        <time>2018-09-23T10:49:26Z</time>
      </trkpt>
      <trkpt lat="45.93519" lon="4.71847">
        <ele>179</ele>
        <time>2018-09-23T10:49:27Z</time>
      </trkpt>
      <trkpt lat="45.93526" lon="4.71847">
        <ele>179</ele>
        <time>2018-09-23T10:49:28Z</time>
      </trkpt>
      <trkpt lat="45.93533" lon="4.71844">
        <ele>179</ele>
        <time>2018-09-23T10:49:29Z</time>
      </trkpt>
      <trkpt lat="45.9354" lon="4.71842">
        <ele>179</ele>
        <time>2018-09-23T10:49:30Z</time>
      </trkpt>
      <trkpt lat="45.93547" lon="4.7184">
        <ele>179</ele>
        <time>2018-09-23T10:49:31Z</time>
      </trkpt>
      <trkpt lat="45.9355" lon="4.71844">
        <ele>179</ele>
        <time>2018-09-23T10:49:32Z</time>
      </trkpt>
      <trkpt lat="45.93559" lon="4.71844">
        <ele>179</ele>
        <time>2018-09-23T10:49:33Z</time>
      </trkpt>
      <trkpt lat="45.93566" lon="4.71843">
        <ele>179</ele>
        <time>2018-09-23T10:49:34Z</time>
      </trkpt>
      <trkpt lat="45.93573" lon="4.71843">
        <ele>179</ele>
        <time>2018-09-23T10:49:35Z</time>
      </trkpt>
      <trkpt lat="45.93578" lon="4.71841">
        <ele>180</ele>
        <time>2018-09-23T10:49:36Z</time>
      </trkpt>
      <trkpt lat="45.93586" lon="4.71839">
        <ele>179</ele>
        <time>2018-09-23T10:49:37Z</time>
      </trkpt>
      <trkpt lat="45.93591" lon="4.71837">
        <ele>179</ele>
        <time>2018-09-23T10:49:38Z</time>
      </trkpt>
      <trkpt lat="45.93596" lon="4.71835">
        <ele>179</ele>
        <time>2018-09-23T10:49:39Z</time>
      </trkpt>
      <trkpt lat="45.93601" lon="4.71829">
        <ele>179</ele>
        <time>2018-09-23T10:49:40Z</time>
      </trkpt>
      <trkpt lat="45.93606" lon="4.71825">
        <ele>179</ele>
        <time>2018-09-23T10:49:41Z</time>
      </trkpt>
      <trkpt lat="45.93611" lon="4.71819">
        <ele>179</ele>
        <time>2018-09-23T10:49:42Z</time>
      </trkpt>
      <trkpt lat="45.93615" lon="4.71816">
        <ele>179</ele>
        <time>2018-09-23T10:49:43Z</time>
      </trkpt>
      <trkpt lat="45.9362" lon="4.71813">
        <ele>179</ele>
        <time>2018-09-23T10:49:44Z</time>
      </trkpt>
      <trkpt lat="45.93624" lon="4.7181">
        <ele>179</ele>
        <time>2018-09-23T10:49:45Z</time>
      </trkpt>
      <trkpt lat="45.9363" lon="4.71809">
        <ele>179</ele>
        <time>2018-09-23T10:49:46Z</time>
      </trkpt>
      <trkpt lat="45.93636" lon="4.71806">
        <ele>179</ele>
        <time>2018-09-23T10:49:47Z</time>
      </trkpt>
      <trkpt lat="45.9364" lon="4.71806">
        <ele>179</ele>
        <time>2018-09-23T10:49:48Z</time>
      </trkpt>
      <trkpt lat="45.93646" lon="4.71802">
        <ele>179</ele>
        <time>2018-09-23T10:49:49Z</time>
      </trkpt>
      <trkpt lat="45.93652" lon="4.71801">
        <ele>179</ele>
        <time>2018-09-23T10:49:50Z</time>
      </trkpt>
      <trkpt lat="45.93659" lon="4.718">
        <ele>179</ele>
        <time>2018-09-23T10:49:51Z</time>
      </trkpt>
      <trkpt lat="45.93663" lon="4.71797">
        <ele>179</ele>
        <time>2018-09-23T10:49:52Z</time>
      </trkpt>
      <trkpt lat="45.93669" lon="4.71794">
        <ele>177</ele>
        <time>2018-09-23T10:49:53Z</time>
      </trkpt>
      <trkpt lat="45.93674" lon="4.71795">
        <ele>177</ele>
        <time>2018-09-23T10:49:54Z</time>
      </trkpt>
      <trkpt lat="45.93682" lon="4.71797">
        <ele>177</ele>
        <time>2018-09-23T10:50:01Z</time>
      </trkpt>
      <trkpt lat="45.93684" lon="4.71806">
        <ele>177</ele>
        <time>2018-09-23T10:50:02Z</time>
      </trkpt>
      <trkpt lat="45.93685" lon="4.71812">
        <ele>177</ele>
        <time>2018-09-23T10:50:03Z</time>
      </trkpt>
      <trkpt lat="45.93687" lon="4.71819">
        <ele>177</ele>
        <time>2018-09-23T10:50:04Z</time>
      </trkpt>
      <trkpt lat="45.93687" lon="4.7183">
        <ele>176</ele>
        <time>2018-09-23T10:50:06Z</time>
      </trkpt>
      <trkpt lat="45.93689" lon="4.71837">
        <ele>176</ele>
        <time>2018-09-23T10:50:07Z</time>
      </trkpt>
      <trkpt lat="45.93689" lon="4.71844">
        <ele>175</ele>
        <time>2018-09-23T10:50:08Z</time>
      </trkpt>
      <trkpt lat="45.93689" lon="4.7185">
        <ele>175</ele>
        <time>2018-09-23T10:50:09Z</time>
      </trkpt>
      <trkpt lat="45.9369" lon="4.71855">
        <ele>175</ele>
        <time>2018-09-23T10:50:10Z</time>
      </trkpt>
      <trkpt lat="45.93688" lon="4.71864">
        <ele>175</ele>
        <time>2018-09-23T10:50:11Z</time>
      </trkpt>
      <trkpt lat="45.93685" lon="4.71875">
        <ele>175</ele>
        <time>2018-09-23T10:50:13Z</time>
      </trkpt>
      <trkpt lat="45.93683" lon="4.71881">
        <ele>175</ele>
        <time>2018-09-23T10:50:14Z</time>
      </trkpt>
      <trkpt lat="45.93678" lon="4.71891">
        <ele>175</ele>
        <time>2018-09-23T10:50:16Z</time>
      </trkpt>
      <trkpt lat="45.93676" lon="4.719">
        <ele>175</ele>
        <time>2018-09-23T10:50:17Z</time>
      </trkpt>
      <trkpt lat="45.93672" lon="4.71907">
        <ele>175</ele>
        <time>2018-09-23T10:50:18Z</time>
      </trkpt>
      <trkpt lat="45.9367" lon="4.71913">
        <ele>175</ele>
        <time>2018-09-23T10:50:19Z</time>
      </trkpt>
      <trkpt lat="45.93667" lon="4.71921">
        <ele>175</ele>
        <time>2018-09-23T10:50:20Z</time>
      </trkpt>
      <trkpt lat="45.93662" lon="4.71927">
        <ele>175</ele>
        <time>2018-09-23T10:50:21Z</time>
      </trkpt>
      <trkpt lat="45.9366" lon="4.71933">
        <ele>175</ele>
        <time>2018-09-23T10:50:22Z</time>
      </trkpt>
      <trkpt lat="45.93658" lon="4.7194">
        <ele>175</ele>
        <time>2018-09-23T10:50:23Z</time>
      </trkpt>
      <trkpt lat="45.93653" lon="4.7195">
        <ele>175</ele>
        <time>2018-09-23T10:50:25Z</time>
      </trkpt>
      <trkpt lat="45.9365" lon="4.71957">
        <ele>175</ele>
        <time>2018-09-23T10:50:26Z</time>
      </trkpt>
      <trkpt lat="45.93648" lon="4.71964">
        <ele>175</ele>
        <time>2018-09-23T10:50:27Z</time>
      </trkpt>
      <trkpt lat="45.93645" lon="4.71968">
        <ele>175</ele>
        <time>2018-09-23T10:50:28Z</time>
      </trkpt>
      <trkpt lat="45.93642" lon="4.71974">
        <ele>175</ele>
        <time>2018-09-23T10:50:29Z</time>
      </trkpt>
      <trkpt lat="45.9364" lon="4.7198">
        <ele>175</ele>
        <time>2018-09-23T10:50:30Z</time>
      </trkpt>
      <trkpt lat="45.93638" lon="4.71986">
        <ele>175</ele>
        <time>2018-09-23T10:50:31Z</time>
      </trkpt>
      <trkpt lat="45.93637" lon="4.71995">
        <ele>175</ele>
        <time>2018-09-23T10:50:32Z</time>
      </trkpt>
      <trkpt lat="45.93633" lon="4.72002">
        <ele>174</ele>
        <time>2018-09-23T10:50:33Z</time>
      </trkpt>
      <trkpt lat="45.9363" lon="4.7201">
        <ele>174</ele>
        <time>2018-09-23T10:50:34Z</time>
      </trkpt>
      <trkpt lat="45.93628" lon="4.72018">
        <ele>175</ele>
        <time>2018-09-23T10:50:35Z</time>
      </trkpt>
      <trkpt lat="45.93626" lon="4.72025">
        <ele>175</ele>
        <time>2018-09-23T10:50:36Z</time>
      </trkpt>
      <trkpt lat="45.93623" lon="4.72032">
        <ele>175</ele>
        <time>2018-09-23T10:50:37Z</time>
      </trkpt>
      <trkpt lat="45.9362" lon="4.72038">
        <ele>175</ele>
        <time>2018-09-23T10:50:38Z</time>
      </trkpt>
      <trkpt lat="45.93617" lon="4.72045">
        <ele>175</ele>
        <time>2018-09-23T10:50:39Z</time>
      </trkpt>
      <trkpt lat="45.93613" lon="4.72049">
        <ele>175</ele>
        <time>2018-09-23T10:50:40Z</time>
      </trkpt>
      <trkpt lat="45.93608" lon="4.72054">
        <ele>175</ele>
        <time>2018-09-23T10:50:41Z</time>
      </trkpt>
      <trkpt lat="45.93607" lon="4.72062">
        <ele>175</ele>
        <time>2018-09-23T10:50:42Z</time>
      </trkpt>
      <trkpt lat="45.93604" lon="4.72067">
        <ele>175</ele>
        <time>2018-09-23T10:50:43Z</time>
      </trkpt>
      <trkpt lat="45.936" lon="4.72075">
        <ele>175</ele>
        <time>2018-09-23T10:50:44Z</time>
      </trkpt>
      <trkpt lat="45.93596" lon="4.72086">
        <ele>175</ele>
        <time>2018-09-23T10:50:46Z</time>
      </trkpt>
      <trkpt lat="45.93594" lon="4.72091">
        <ele>175</ele>
        <time>2018-09-23T10:50:47Z</time>
      </trkpt>
      <trkpt lat="45.93593" lon="4.72099">
        <ele>174</ele>
        <time>2018-09-23T10:50:48Z</time>
      </trkpt>
      <trkpt lat="45.93592" lon="4.72106">
        <ele>174</ele>
        <time>2018-09-23T10:50:49Z</time>
      </trkpt>
      <trkpt lat="45.93591" lon="4.72113">
        <ele>174</ele>
        <time>2018-09-23T10:50:50Z</time>
      </trkpt>
      <trkpt lat="45.93587" lon="4.72119">
        <ele>174</ele>
        <time>2018-09-23T10:50:51Z</time>
      </trkpt>
      <trkpt lat="45.93581" lon="4.72123">
        <ele>175</ele>
        <time>2018-09-23T10:50:52Z</time>
      </trkpt>
      <trkpt lat="45.93576" lon="4.72125">
        <ele>174</ele>
        <time>2018-09-23T10:50:53Z</time>
      </trkpt>
      <trkpt lat="45.93572" lon="4.72132">
        <ele>174</ele>
        <time>2018-09-23T10:50:54Z</time>
      </trkpt>
      <trkpt lat="45.93572" lon="4.72143">
        <ele>174</ele>
        <time>2018-09-23T10:50:55Z</time>
      </trkpt>
      <trkpt lat="45.93569" lon="4.72149">
        <ele>174</ele>
        <time>2018-09-23T10:50:56Z</time>
      </trkpt>
      <trkpt lat="45.93568" lon="4.72157">
        <ele>174</ele>
        <time>2018-09-23T10:50:57Z</time>
      </trkpt>
      <trkpt lat="45.93566" lon="4.72166">
        <ele>174</ele>
        <time>2018-09-23T10:50:58Z</time>
      </trkpt>
      <trkpt lat="45.93564" lon="4.72174">
        <ele>173</ele>
        <time>2018-09-23T10:50:59Z</time>
      </trkpt>
      <trkpt lat="45.93562" lon="4.72182">
        <ele>173</ele>
        <time>2018-09-23T10:51:00Z</time>
      </trkpt>
      <trkpt lat="45.93559" lon="4.72189">
        <ele>173</ele>
        <time>2018-09-23T10:51:01Z</time>
      </trkpt>
      <trkpt lat="45.93558" lon="4.72196">
        <ele>173</ele>
        <time>2018-09-23T10:51:02Z</time>
      </trkpt>
      <trkpt lat="45.93555" lon="4.72202">
        <ele>173</ele>
        <time>2018-09-23T10:51:03Z</time>
      </trkpt>
      <trkpt lat="45.93553" lon="4.72207">
        <ele>173</ele>
        <time>2018-09-23T10:51:04Z</time>
      </trkpt>
      <trkpt lat="45.9355" lon="4.72215">
        <ele>173</ele>
        <time>2018-09-23T10:51:05Z</time>
      </trkpt>
      <trkpt lat="45.93548" lon="4.72222">
        <ele>172</ele>
        <time>2018-09-23T10:51:06Z</time>
      </trkpt>
      <trkpt lat="45.93546" lon="4.72229">
        <ele>172</ele>
        <time>2018-09-23T10:51:07Z</time>
      </trkpt>
      <trkpt lat="45.93544" lon="4.72235">
        <ele>172</ele>
        <time>2018-09-23T10:51:08Z</time>
      </trkpt>
      <trkpt lat="45.93541" lon="4.72241">
        <ele>172</ele>
        <time>2018-09-23T10:51:09Z</time>
      </trkpt>
      <trkpt lat="45.9354" lon="4.72248">
        <ele>172</ele>
        <time>2018-09-23T10:51:10Z</time>
      </trkpt>
      <trkpt lat="45.93537" lon="4.72254">
        <ele>172</ele>
        <time>2018-09-23T10:51:11Z</time>
      </trkpt>
      <trkpt lat="45.93535" lon="4.7226">
        <ele>172</ele>
        <time>2018-09-23T10:51:12Z</time>
      </trkpt>
      <trkpt lat="45.93532" lon="4.72266">
        <ele>172</ele>
        <time>2018-09-23T10:51:13Z</time>
      </trkpt>
      <trkpt lat="45.93529" lon="4.72272">
        <ele>172</ele>
        <time>2018-09-23T10:51:14Z</time>
      </trkpt>
      <trkpt lat="45.93526" lon="4.72278">
        <ele>172</ele>
        <time>2018-09-23T10:51:15Z</time>
      </trkpt>
      <trkpt lat="45.93523" lon="4.72284">
        <ele>172</ele>
        <time>2018-09-23T10:51:16Z</time>
      </trkpt>
      <trkpt lat="45.9352" lon="4.72291">
        <ele>172</ele>
        <time>2018-09-23T10:51:17Z</time>
      </trkpt>
      <trkpt lat="45.93517" lon="4.72297">
        <ele>172</ele>
        <time>2018-09-23T10:51:18Z</time>
      </trkpt>
      <trkpt lat="45.93513" lon="4.72303">
        <ele>172</ele>
        <time>2018-09-23T10:51:19Z</time>
      </trkpt>
      <trkpt lat="45.93509" lon="4.72309">
        <ele>173</ele>
        <time>2018-09-23T10:51:20Z</time>
      </trkpt>
      <trkpt lat="45.93504" lon="4.72314">
        <ele>173</ele>
        <time>2018-09-23T10:51:21Z</time>
      </trkpt>
      <trkpt lat="45.935" lon="4.7232">
        <ele>173</ele>
        <time>2018-09-23T10:51:22Z</time>
      </trkpt>
      <trkpt lat="45.93496" lon="4.72327">
        <ele>173</ele>
        <time>2018-09-23T10:51:23Z</time>
      </trkpt>
      <trkpt lat="45.93491" lon="4.72333">
        <ele>173</ele>
        <time>2018-09-23T10:51:24Z</time>
      </trkpt>
      <trkpt lat="45.93487" lon="4.72339">
        <ele>173</ele>
        <time>2018-09-23T10:51:25Z</time>
      </trkpt>
      <trkpt lat="45.93482" lon="4.72345">
        <ele>173</ele>
        <time>2018-09-23T10:51:26Z</time>
      </trkpt>
      <trkpt lat="45.93478" lon="4.72352">
        <ele>173</ele>
        <time>2018-09-23T10:51:27Z</time>
      </trkpt>
      <trkpt lat="45.93474" lon="4.72358">
        <ele>173</ele>
        <time>2018-09-23T10:51:28Z</time>
      </trkpt>
      <trkpt lat="45.9347" lon="4.72363">
        <ele>173</ele>
        <time>2018-09-23T10:51:29Z</time>
      </trkpt>
      <trkpt lat="45.93466" lon="4.72368">
        <ele>173</ele>
        <time>2018-09-23T10:51:30Z</time>
      </trkpt>
      <trkpt lat="45.93461" lon="4.72375">
        <ele>173</ele>
        <time>2018-09-23T10:51:31Z</time>
      </trkpt>
      <trkpt lat="45.93457" lon="4.7238">
        <ele>173</ele>
        <time>2018-09-23T10:51:32Z</time>
      </trkpt>
      <trkpt lat="45.93453" lon="4.72384">
        <ele>173</ele>
        <time>2018-09-23T10:51:33Z</time>
      </trkpt>
      <trkpt lat="45.93448" lon="4.72386">
        <ele>173</ele>
        <time>2018-09-23T10:51:34Z</time>
      </trkpt>
      <trkpt lat="45.93443" lon="4.72391">
        <ele>173</ele>
        <time>2018-09-23T10:51:35Z</time>
      </trkpt>
      <trkpt lat="45.93438" lon="4.72394">
        <ele>173</ele>
        <time>2018-09-23T10:51:36Z</time>
      </trkpt>
      <trkpt lat="45.93432" lon="4.72397">
        <ele>173</ele>
        <time>2018-09-23T10:51:37Z</time>
      </trkpt>
      <trkpt lat="45.93427" lon="4.72399">
        <ele>174</ele>
        <time>2018-09-23T10:51:38Z</time>
      </trkpt>
      <trkpt lat="45.93422" lon="4.72401">
        <ele>174</ele>
        <time>2018-09-23T10:51:39Z</time>
      </trkpt>
      <trkpt lat="45.93416" lon="4.72403">
        <ele>174</ele>
        <time>2018-09-23T10:51:40Z</time>
      </trkpt>
      <trkpt lat="45.93412" lon="4.72405">
        <ele>174</ele>
        <time>2018-09-23T10:51:41Z</time>
      </trkpt>
      <trkpt lat="45.93407" lon="4.72406">
        <ele>174</ele>
        <time>2018-09-23T10:51:42Z</time>
      </trkpt>
      <trkpt lat="45.93402" lon="4.72405">
        <ele>174</ele>
        <time>2018-09-23T10:51:43Z</time>
      </trkpt>
      <trkpt lat="45.93397" lon="4.72404">
        <ele>174</ele>
        <time>2018-09-23T10:51:44Z</time>
      </trkpt>
      <trkpt lat="45.93393" lon="4.72404">
        <ele>174</ele>
        <time>2018-09-23T10:51:45Z</time>
      </trkpt>
      <trkpt lat="45.93388" lon="4.72406">
        <ele>174</ele>
        <time>2018-09-23T10:51:46Z</time>
      </trkpt>
      <trkpt lat="45.93384" lon="4.7241">
        <ele>174</ele>
        <time>2018-09-23T10:51:47Z</time>
      </trkpt>
      <trkpt lat="45.93381" lon="4.72416">
        <ele>174</ele>
        <time>2018-09-23T10:51:48Z</time>
      </trkpt>
      <trkpt lat="45.9338" lon="4.72422">
        <ele>173</ele>
        <time>2018-09-23T10:51:49Z</time>
      </trkpt>
      <trkpt lat="45.93383" lon="4.72433">
        <ele>173</ele>
        <time>2018-09-23T10:51:51Z</time>
      </trkpt>
      <trkpt lat="45.93386" lon="4.72439">
        <ele>173</ele>
        <time>2018-09-23T10:51:52Z</time>
      </trkpt>
      <trkpt lat="45.93388" lon="4.72446">
        <ele>173</ele>
        <time>2018-09-23T10:51:53Z</time>
      </trkpt>
      <trkpt lat="45.93389" lon="4.72452">
        <ele>173</ele>
        <time>2018-09-23T10:51:54Z</time>
      </trkpt>
      <trkpt lat="45.93388" lon="4.72459">
        <ele>173</ele>
        <time>2018-09-23T10:51:55Z</time>
      </trkpt>
      <trkpt lat="45.93385" lon="4.72466">
        <ele>173</ele>
        <time>2018-09-23T10:51:56Z</time>
      </trkpt>
      <trkpt lat="45.93381" lon="4.72471">
        <ele>173</ele>
        <time>2018-09-23T10:51:57Z</time>
      </trkpt>
      <trkpt lat="45.93378" lon="4.72475">
        <ele>173</ele>
        <time>2018-09-23T10:51:58Z</time>
      </trkpt>
      <trkpt lat="45.93374" lon="4.7248">
        <ele>173</ele>
        <time>2018-09-23T10:51:59Z</time>
      </trkpt>
      <trkpt lat="45.9337" lon="4.72484">
        <ele>173</ele>
        <time>2018-09-23T10:52:00Z</time>
      </trkpt>
      <trkpt lat="45.93366" lon="4.72489">
        <ele>173</ele>
        <time>2018-09-23T10:52:01Z</time>
      </trkpt>
      <trkpt lat="45.93362" lon="4.72498">
        <ele>173</ele>
        <time>2018-09-23T10:52:02Z</time>
      </trkpt>
      <trkpt lat="45.93357" lon="4.72502">
        <ele>172</ele>
        <time>2018-09-23T10:52:03Z</time>
      </trkpt>
      <trkpt lat="45.93353" lon="4.72507">
        <ele>172</ele>
        <time>2018-09-23T10:52:04Z</time>
      </trkpt>
      <trkpt lat="45.93348" lon="4.72512">
        <ele>172</ele>
        <time>2018-09-23T10:52:05Z</time>
      </trkpt>
      <trkpt lat="45.93344" lon="4.72518">
        <ele>172</ele>
        <time>2018-09-23T10:52:06Z</time>
      </trkpt>
      <trkpt lat="45.9334" lon="4.72523">
        <ele>172</ele>
        <time>2018-09-23T10:52:07Z</time>
      </trkpt>
      <trkpt lat="45.93336" lon="4.72528">
        <ele>172</ele>
        <time>2018-09-23T10:52:08Z</time>
      </trkpt>
      <trkpt lat="45.93332" lon="4.72532">
        <ele>172</ele>
        <time>2018-09-23T10:52:09Z</time>
      </trkpt>
      <trkpt lat="45.93329" lon="4.72538">
        <ele>172</ele>
        <time>2018-09-23T10:52:10Z</time>
      </trkpt>
      <trkpt lat="45.93324" lon="4.72542">
        <ele>172</ele>
        <time>2018-09-23T10:52:11Z</time>
      </trkpt>
      <trkpt lat="45.93321" lon="4.72549">
        <ele>172</ele>
        <time>2018-09-23T10:52:12Z</time>
      </trkpt>
      <trkpt lat="45.93316" lon="4.72553">
        <ele>172</ele>
        <time>2018-09-23T10:52:13Z</time>
      </trkpt>
      <trkpt lat="45.93312" lon="4.72558">
        <ele>172</ele>
        <time>2018-09-23T10:52:14Z</time>
      </trkpt>
      <trkpt lat="45.93307" lon="4.72565">
        <ele>171</ele>
        <time>2018-09-23T10:52:15Z</time>
      </trkpt>
      <trkpt lat="45.93303" lon="4.7257">
        <ele>171</ele>
        <time>2018-09-23T10:52:16Z</time>
      </trkpt>
      <trkpt lat="45.93298" lon="4.72574">
        <ele>171</ele>
        <time>2018-09-23T10:52:17Z</time>
      </trkpt>
      <trkpt lat="45.93294" lon="4.72579">
        <ele>171</ele>
        <time>2018-09-23T10:52:18Z</time>
      </trkpt>
      <trkpt lat="45.93289" lon="4.72583">
        <ele>170</ele>
        <time>2018-09-23T10:52:19Z</time>
      </trkpt>
      <trkpt lat="45.93285" lon="4.72588">
        <ele>170</ele>
        <time>2018-09-23T10:52:20Z</time>
      </trkpt>
      <trkpt lat="45.93281" lon="4.72592">
        <ele>170</ele>
        <time>2018-09-23T10:52:21Z</time>
      </trkpt>
      <trkpt lat="45.93277" lon="4.72596">
        <ele>170</ele>
        <time>2018-09-23T10:52:22Z</time>
      </trkpt>
      <trkpt lat="45.93273" lon="4.72602">
        <ele>170</ele>
        <time>2018-09-23T10:52:23Z</time>
      </trkpt>
      <trkpt lat="45.93268" lon="4.72606">
        <ele>170</ele>
        <time>2018-09-23T10:52:24Z</time>
      </trkpt>
      <trkpt lat="45.93264" lon="4.72612">
        <ele>170</ele>
        <time>2018-09-23T10:52:25Z</time>
      </trkpt>
      <trkpt lat="45.9326" lon="4.72617">
        <ele>170</ele>
        <time>2018-09-23T10:52:26Z</time>
      </trkpt>
      <trkpt lat="45.93255" lon="4.72622">
        <ele>170</ele>
        <time>2018-09-23T10:52:27Z</time>
      </trkpt>
      <trkpt lat="45.9325" lon="4.72628">
        <ele>170</ele>
        <time>2018-09-23T10:52:28Z</time>
      </trkpt>
      <trkpt lat="45.93245" lon="4.72633">
        <ele>170</ele>
        <time>2018-09-23T10:52:29Z</time>
      </trkpt>
      <trkpt lat="45.9324" lon="4.72638">
        <ele>170</ele>
        <time>2018-09-23T10:52:30Z</time>
      </trkpt>
      <trkpt lat="45.93236" lon="4.72643">
        <ele>170</ele>
        <time>2018-09-23T10:52:31Z</time>
      </trkpt>
      <trkpt lat="45.93232" lon="4.72646">
        <ele>170</ele>
        <time>2018-09-23T10:52:32Z</time>
      </trkpt>
      <trkpt lat="45.93228" lon="4.7265">
        <ele>170</ele>
        <time>2018-09-23T10:52:33Z</time>
      </trkpt>
      <trkpt lat="45.93224" lon="4.72655">
        <ele>170</ele>
        <time>2018-09-23T10:52:34Z</time>
      </trkpt>
      <trkpt lat="45.9322" lon="4.7266">
        <ele>170</ele>
        <time>2018-09-23T10:52:35Z</time>
      </trkpt>
      <trkpt lat="45.93216" lon="4.72664">
        <ele>170</ele>
        <time>2018-09-23T10:52:36Z</time>
      </trkpt>
      <trkpt lat="45.93213" lon="4.72671">
        <ele>169</ele>
        <time>2018-09-23T10:52:37Z</time>
      </trkpt>
      <trkpt lat="45.93208" lon="4.72675">
        <ele>169</ele>
        <time>2018-09-23T10:52:38Z</time>
      </trkpt>
      <trkpt lat="45.93204" lon="4.7268">
        <ele>169</ele>
        <time>2018-09-23T10:52:39Z</time>
      </trkpt>
      <trkpt lat="45.932" lon="4.72686">
        <ele>169</ele>
        <time>2018-09-23T10:52:40Z</time>
      </trkpt>
      <trkpt lat="45.93195" lon="4.72692">
        <ele>169</ele>
        <time>2018-09-23T10:52:41Z</time>
      </trkpt>
      <trkpt lat="45.93193" lon="4.72697">
        <ele>169</ele>
        <time>2018-09-23T10:52:42Z</time>
      </trkpt>
      <trkpt lat="45.93188" lon="4.72702">
        <ele>169</ele>
        <time>2018-09-23T10:52:43Z</time>
      </trkpt>
      <trkpt lat="45.93184" lon="4.72707">
        <ele>169</ele>
        <time>2018-09-23T10:52:44Z</time>
      </trkpt>
      <trkpt lat="45.9318" lon="4.72711">
        <ele>169</ele>
        <time>2018-09-23T10:52:45Z</time>
      </trkpt>
      <trkpt lat="45.93176" lon="4.72715">
        <ele>169</ele>
        <time>2018-09-23T10:52:46Z</time>
      </trkpt>
      <trkpt lat="45.93172" lon="4.7272">
        <ele>170</ele>
        <time>2018-09-23T10:52:47Z</time>
      </trkpt>
      <trkpt lat="45.93168" lon="4.72724">
        <ele>170</ele>
        <time>2018-09-23T10:52:48Z</time>
      </trkpt>
      <trkpt lat="45.93164" lon="4.72728">
        <ele>170</ele>
        <time>2018-09-23T10:52:49Z</time>
      </trkpt>
      <trkpt lat="45.93158" lon="4.72734">
        <ele>170</ele>
        <time>2018-09-23T10:52:50Z</time>
      </trkpt>
      <trkpt lat="45.93154" lon="4.7274">
        <ele>170</ele>
        <time>2018-09-23T10:52:51Z</time>
      </trkpt>
      <trkpt lat="45.93149" lon="4.72746">
        <ele>170</ele>
        <time>2018-09-23T10:52:52Z</time>
      </trkpt>
      <trkpt lat="45.93145" lon="4.72751">
        <ele>170</ele>
        <time>2018-09-23T10:52:53Z</time>
      </trkpt>
      <trkpt lat="45.9314" lon="4.72756">
        <ele>171</ele>
        <time>2018-09-23T10:52:54Z</time>
      </trkpt>
      <trkpt lat="45.93137" lon="4.72761">
        <ele>171</ele>
        <time>2018-09-23T10:52:55Z</time>
      </trkpt>
      <trkpt lat="45.93132" lon="4.72766">
        <ele>171</ele>
        <time>2018-09-23T10:52:56Z</time>
      </trkpt>
      <trkpt lat="45.93127" lon="4.72775">
        <ele>171</ele>
        <time>2018-09-23T10:52:58Z</time>
      </trkpt>
      <trkpt lat="45.93122" lon="4.7278">
        <ele>171</ele>
        <time>2018-09-23T10:52:59Z</time>
      </trkpt>
      <trkpt lat="45.93117" lon="4.72785">
        <ele>171</ele>
        <time>2018-09-23T10:53:00Z</time>
      </trkpt>
      <trkpt lat="45.93114" lon="4.7279">
        <ele>171</ele>
        <time>2018-09-23T10:53:01Z</time>
      </trkpt>
      <trkpt lat="45.9311" lon="4.72795">
        <ele>171</ele>
        <time>2018-09-23T10:53:02Z</time>
      </trkpt>
      <trkpt lat="45.93106" lon="4.728">
        <ele>171</ele>
        <time>2018-09-23T10:53:03Z</time>
      </trkpt>
      <trkpt lat="45.93101" lon="4.72806">
        <ele>171</ele>
        <time>2018-09-23T10:53:04Z</time>
      </trkpt>
      <trkpt lat="45.93097" lon="4.72811">
        <ele>172</ele>
        <time>2018-09-23T10:53:05Z</time>
      </trkpt>
      <trkpt lat="45.93092" lon="4.72816">
        <ele>172</ele>
        <time>2018-09-23T10:53:06Z</time>
      </trkpt>
      <trkpt lat="45.93088" lon="4.7282">
        <ele>172</ele>
        <time>2018-09-23T10:53:07Z</time>
      </trkpt>
      <trkpt lat="45.93084" lon="4.72825">
        <ele>172</ele>
        <time>2018-09-23T10:53:08Z</time>
      </trkpt>
      <trkpt lat="45.9308" lon="4.7283">
        <ele>173</ele>
        <time>2018-09-23T10:53:09Z</time>
      </trkpt>
      <trkpt lat="45.93055" lon="4.72862">
        <ele>172</ele>
        <time>2018-09-23T10:53:16Z</time>
      </trkpt>
      <trkpt lat="45.93044" lon="4.72872">
        <ele>172</ele>
        <time>2018-09-23T10:53:17Z</time>
      </trkpt>
      <trkpt lat="45.93038" lon="4.72879">
        <ele>172</ele>
        <time>2018-09-23T10:53:18Z</time>
      </trkpt>
      <trkpt lat="45.93032" lon="4.72886">
        <ele>172</ele>
        <time>2018-09-23T10:53:19Z</time>
      </trkpt>
      <trkpt lat="45.93028" lon="4.72891">
        <ele>172</ele>
        <time>2018-09-23T10:53:20Z</time>
      </trkpt>
      <trkpt lat="45.93022" lon="4.72897">
        <ele>172</ele>
        <time>2018-09-23T10:53:21Z</time>
      </trkpt>
      <trkpt lat="45.93017" lon="4.72902">
        <ele>172</ele>
        <time>2018-09-23T10:53:22Z</time>
      </trkpt>
      <trkpt lat="45.93012" lon="4.72905">
        <ele>171</ele>
        <time>2018-09-23T10:53:23Z</time>
      </trkpt>
      <trkpt lat="45.93009" lon="4.7291">
        <ele>171</ele>
        <time>2018-09-23T10:53:24Z</time>
      </trkpt>
      <trkpt lat="45.93004" lon="4.72916">
        <ele>171</ele>
        <time>2018-09-23T10:53:25Z</time>
      </trkpt>
      <trkpt lat="45.93" lon="4.7292">
        <ele>171</ele>
        <time>2018-09-23T10:53:26Z</time>
      </trkpt>
      <trkpt lat="45.92996" lon="4.72925">
        <ele>171</ele>
        <time>2018-09-23T10:53:27Z</time>
      </trkpt>
      <trkpt lat="45.92992" lon="4.7293">
        <ele>171</ele>
        <time>2018-09-23T10:53:28Z</time>
      </trkpt>
      <trkpt lat="45.92987" lon="4.72936">
        <ele>171</ele>
        <time>2018-09-23T10:53:29Z</time>
      </trkpt>
      <trkpt lat="45.92982" lon="4.72941">
        <ele>171</ele>
        <time>2018-09-23T10:53:30Z</time>
      </trkpt>
      <trkpt lat="45.92978" lon="4.72947">
        <ele>171</ele>
        <time>2018-09-23T10:53:31Z</time>
      </trkpt>
      <trkpt lat="45.92973" lon="4.72952">
        <ele>171</ele>
        <time>2018-09-23T10:53:32Z</time>
      </trkpt>
      <trkpt lat="45.92969" lon="4.72957">
        <ele>171</ele>
        <time>2018-09-23T10:53:33Z</time>
      </trkpt>
      <trkpt lat="45.92965" lon="4.72962">
        <ele>171</ele>
        <time>2018-09-23T10:53:34Z</time>
      </trkpt>
      <trkpt lat="45.92961" lon="4.72966">
        <ele>171</ele>
        <time>2018-09-23T10:53:35Z</time>
      </trkpt>
      <trkpt lat="45.92958" lon="4.72971">
        <ele>171</ele>
        <time>2018-09-23T10:53:36Z</time>
      </trkpt>
      <trkpt lat="45.92954" lon="4.72974">
        <ele>171</ele>
        <time>2018-09-23T10:53:37Z</time>
      </trkpt>
      <trkpt lat="45.9295" lon="4.72978">
        <ele>171</ele>
        <time>2018-09-23T10:53:38Z</time>
      </trkpt>
      <trkpt lat="45.92946" lon="4.72984">
        <ele>171</ele>
        <time>2018-09-23T10:53:39Z</time>
      </trkpt>
      <trkpt lat="45.92942" lon="4.72988">
        <ele>171</ele>
        <time>2018-09-23T10:53:40Z</time>
      </trkpt>
      <trkpt lat="45.92938" lon="4.72993">
        <ele>171</ele>
        <time>2018-09-23T10:53:41Z</time>
      </trkpt>
      <trkpt lat="45.92934" lon="4.72999">
        <ele>172</ele>
        <time>2018-09-23T10:53:42Z</time>
      </trkpt>
      <trkpt lat="45.92929" lon="4.73005">
        <ele>172</ele>
        <time>2018-09-23T10:53:43Z</time>
      </trkpt>
      <trkpt lat="45.92925" lon="4.73009">
        <ele>172</ele>
        <time>2018-09-23T10:53:44Z</time>
      </trkpt>
      <trkpt lat="45.9292" lon="4.73016">
        <ele>172</ele>
        <time>2018-09-23T10:53:45Z</time>
      </trkpt>
      <trkpt lat="45.92916" lon="4.73023">
        <ele>172</ele>
        <time>2018-09-23T10:53:46Z</time>
      </trkpt>
      <trkpt lat="45.92911" lon="4.73029">
        <ele>172</ele>
        <time>2018-09-23T10:53:47Z</time>
      </trkpt>
      <trkpt lat="45.92907" lon="4.73035">
        <ele>172</ele>
        <time>2018-09-23T10:53:48Z</time>
      </trkpt>
      <trkpt lat="45.92903" lon="4.7304">
        <ele>172</ele>
        <time>2018-09-23T10:53:49Z</time>
      </trkpt>
      <trkpt lat="45.92899" lon="4.73048">
        <ele>172</ele>
        <time>2018-09-23T10:53:50Z</time>
      </trkpt>
      <trkpt lat="45.92895" lon="4.73053">
        <ele>172</ele>
        <time>2018-09-23T10:53:51Z</time>
      </trkpt>
      <trkpt lat="45.92892" lon="4.7306">
        <ele>172</ele>
        <time>2018-09-23T10:53:52Z</time>
      </trkpt>
      <trkpt lat="45.92889" lon="4.73065">
        <ele>172</ele>
        <time>2018-09-23T10:53:53Z</time>
      </trkpt>
      <trkpt lat="45.92885" lon="4.7307">
        <ele>172</ele>
        <time>2018-09-23T10:53:54Z</time>
      </trkpt>
      <trkpt lat="45.92882" lon="4.73075">
        <ele>172</ele>
        <time>2018-09-23T10:53:55Z</time>
      </trkpt>
      <trkpt lat="45.92878" lon="4.73081">
        <ele>172</ele>
        <time>2018-09-23T10:53:56Z</time>
      </trkpt>
      <trkpt lat="45.92874" lon="4.73086">
        <ele>172</ele>
        <time>2018-09-23T10:53:57Z</time>
      </trkpt>
      <trkpt lat="45.9287" lon="4.73091">
        <ele>172</ele>
        <time>2018-09-23T10:53:58Z</time>
      </trkpt>
      <trkpt lat="45.92866" lon="4.73096">
        <ele>172</ele>
        <time>2018-09-23T10:53:59Z</time>
      </trkpt>
      <trkpt lat="45.92858" lon="4.73101">
        <ele>171</ele>
        <time>2018-09-23T10:54:01Z</time>
      </trkpt>
      <trkpt lat="45.92856" lon="4.73102">
        <ele>171</ele>
        <time>2018-09-23T10:54:02Z</time>
      </trkpt>
      <trkpt lat="45.9285" lon="4.731">
        <ele>171</ele>
        <time>2018-09-23T10:54:05Z</time>
      </trkpt>
      <trkpt lat="45.92848" lon="4.73087">
        <ele>171</ele>
        <time>2018-09-23T10:54:06Z</time>
      </trkpt>
      <trkpt lat="45.92846" lon="4.73076">
        <ele>171</ele>
        <time>2018-09-23T10:54:08Z</time>
      </trkpt>
      <trkpt lat="45.92845" lon="4.7307">
        <ele>171</ele>
        <time>2018-09-23T10:54:09Z</time>
      </trkpt>
      <trkpt lat="45.92843" lon="4.73058">
        <ele>171</ele>
        <time>2018-09-23T10:54:11Z</time>
      </trkpt>
      <trkpt lat="45.92842" lon="4.73051">
        <ele>171</ele>
        <time>2018-09-23T10:54:12Z</time>
      </trkpt>
      <trkpt lat="45.9284" lon="4.73038">
        <ele>171</ele>
        <time>2018-09-23T10:54:14Z</time>
      </trkpt>
      <trkpt lat="45.92839" lon="4.73032">
        <ele>171</ele>
        <time>2018-09-23T10:54:15Z</time>
      </trkpt>
      <trkpt lat="45.92838" lon="4.73025">
        <ele>171</ele>
        <time>2018-09-23T10:54:16Z</time>
      </trkpt>
      <trkpt lat="45.92837" lon="4.73018">
        <ele>171</ele>
        <time>2018-09-23T10:54:17Z</time>
      </trkpt>
      <trkpt lat="45.92835" lon="4.73006">
        <ele>170</ele>
        <time>2018-09-23T10:54:19Z</time>
      </trkpt>
      <trkpt lat="45.92833" lon="4.72999">
        <ele>170</ele>
        <time>2018-09-23T10:54:20Z</time>
      </trkpt>
      <trkpt lat="45.92831" lon="4.72987">
        <ele>170</ele>
        <time>2018-09-23T10:54:22Z</time>
      </trkpt>
      <trkpt lat="45.9283" lon="4.72981">
        <ele>170</ele>
        <time>2018-09-23T10:54:23Z</time>
      </trkpt>
      <trkpt lat="45.92829" lon="4.72969">
        <ele>170</ele>
        <time>2018-09-23T10:54:25Z</time>
      </trkpt>
      <trkpt lat="45.92829" lon="4.72963">
        <ele>170</ele>
        <time>2018-09-23T10:54:26Z</time>
      </trkpt>
      <trkpt lat="45.92828" lon="4.72956">
        <ele>170</ele>
        <time>2018-09-23T10:54:27Z</time>
      </trkpt>
      <trkpt lat="45.92828" lon="4.72949">
        <ele>170</ele>
        <time>2018-09-23T10:54:28Z</time>
      </trkpt>
      <trkpt lat="45.92826" lon="4.72943">
        <ele>170</ele>
        <time>2018-09-23T10:54:29Z</time>
      </trkpt>
      <trkpt lat="45.92825" lon="4.72936">
        <ele>170</ele>
        <time>2018-09-23T10:54:30Z</time>
      </trkpt>
      <trkpt lat="45.92825" lon="4.7293">
        <ele>170</ele>
        <time>2018-09-23T10:54:31Z</time>
      </trkpt>
      <trkpt lat="45.92824" lon="4.72923">
        <ele>170</ele>
        <time>2018-09-23T10:54:32Z</time>
      </trkpt>
      <trkpt lat="45.92822" lon="4.72911">
        <ele>170</ele>
        <time>2018-09-23T10:54:34Z</time>
      </trkpt>
      <trkpt lat="45.92821" lon="4.72905">
        <ele>170</ele>
        <time>2018-09-23T10:54:35Z</time>
      </trkpt>
      <trkpt lat="45.9282" lon="4.72894">
        <ele>170</ele>
        <time>2018-09-23T10:54:37Z</time>
      </trkpt>
      <trkpt lat="45.9282" lon="4.72889">
        <ele>170</ele>
        <time>2018-09-23T10:54:38Z</time>
      </trkpt>
      <trkpt lat="45.92818" lon="4.72882">
        <ele>170</ele>
        <time>2018-09-23T10:54:39Z</time>
      </trkpt>
      <trkpt lat="45.92817" lon="4.72876">
        <ele>170</ele>
        <time>2018-09-23T10:54:40Z</time>
      </trkpt>
      <trkpt lat="45.92815" lon="4.72865">
        <ele>170</ele>
        <time>2018-09-23T10:54:42Z</time>
      </trkpt>
      <trkpt lat="45.92813" lon="4.72858">
        <ele>170</ele>
        <time>2018-09-23T10:54:43Z</time>
      </trkpt>
      <trkpt lat="45.92812" lon="4.72851">
        <ele>170</ele>
        <time>2018-09-23T10:54:44Z</time>
      </trkpt>
      <trkpt lat="45.9281" lon="4.72845">
        <ele>170</ele>
        <time>2018-09-23T10:54:45Z</time>
      </trkpt>
      <trkpt lat="45.92808" lon="4.72839">
        <ele>170</ele>
        <time>2018-09-23T10:54:46Z</time>
      </trkpt>
      <trkpt lat="45.92806" lon="4.72832">
        <ele>171</ele>
        <time>2018-09-23T10:54:47Z</time>
      </trkpt>
      <trkpt lat="45.92806" lon="4.7282">
        <ele>171</ele>
        <time>2018-09-23T10:54:49Z</time>
      </trkpt>
      <trkpt lat="45.92806" lon="4.72814">
        <ele>171</ele>
        <time>2018-09-23T10:54:50Z</time>
      </trkpt>
      <trkpt lat="45.92804" lon="4.72802">
        <ele>171</ele>
        <time>2018-09-23T10:54:52Z</time>
      </trkpt>
      <trkpt lat="45.92803" lon="4.72797">
        <ele>171</ele>
        <time>2018-09-23T10:54:53Z</time>
      </trkpt>
      <trkpt lat="45.928" lon="4.72792">
        <ele>171</ele>
        <time>2018-09-23T10:54:55Z</time>
      </trkpt>
      <trkpt lat="45.92795" lon="4.72787">
        <ele>171</ele>
        <time>2018-09-23T10:54:56Z</time>
      </trkpt>
      <trkpt lat="45.92791" lon="4.72789">
        <ele>171</ele>
        <time>2018-09-23T10:54:58Z</time>
      </trkpt>
      <trkpt lat="45.92785" lon="4.72793">
        <ele>170</ele>
        <time>2018-09-23T10:54:59Z</time>
      </trkpt>
      <trkpt lat="45.9278" lon="4.72795">
        <ele>170</ele>
        <time>2018-09-23T10:55:01Z</time>
      </trkpt>
      <trkpt lat="45.92774" lon="4.72797">
        <ele>170</ele>
        <time>2018-09-23T10:55:02Z</time>
      </trkpt>
      <trkpt lat="45.9277" lon="4.728">
        <ele>170</ele>
        <time>2018-09-23T10:55:03Z</time>
      </trkpt>
      <trkpt lat="45.92766" lon="4.72803">
        <ele>170</ele>
        <time>2018-09-23T10:55:04Z</time>
      </trkpt>
      <trkpt lat="45.92763" lon="4.72807">
        <ele>170</ele>
        <time>2018-09-23T10:55:05Z</time>
      </trkpt>
      <trkpt lat="45.92758" lon="4.72811">
        <ele>170</ele>
        <time>2018-09-23T10:55:06Z</time>
      </trkpt>
      <trkpt lat="45.92754" lon="4.72814">
        <ele>170</ele>
        <time>2018-09-23T10:55:07Z</time>
      </trkpt>
      <trkpt lat="45.92749" lon="4.72818">
        <ele>169</ele>
        <time>2018-09-23T10:55:08Z</time>
      </trkpt>
      <trkpt lat="45.92745" lon="4.7282">
        <ele>169</ele>
        <time>2018-09-23T10:55:09Z</time>
      </trkpt>
      <trkpt lat="45.92741" lon="4.72824">
        <ele>169</ele>
        <time>2018-09-23T10:55:10Z</time>
      </trkpt>
      <trkpt lat="45.92734" lon="4.72829">
        <ele>169</ele>
        <time>2018-09-23T10:55:12Z</time>
      </trkpt>
      <trkpt lat="45.92729" lon="4.72832">
        <ele>170</ele>
        <time>2018-09-23T10:55:13Z</time>
      </trkpt>
      <trkpt lat="45.92725" lon="4.72836">
        <ele>169</ele>
        <time>2018-09-23T10:55:14Z</time>
      </trkpt>
      <trkpt lat="45.92721" lon="4.72839">
        <ele>169</ele>
        <time>2018-09-23T10:55:15Z</time>
      </trkpt>
      <trkpt lat="45.92718" lon="4.72842">
        <ele>169</ele>
        <time>2018-09-23T10:55:16Z</time>
      </trkpt>
      <trkpt lat="45.92713" lon="4.72847">
        <ele>169</ele>
        <time>2018-09-23T10:55:17Z</time>
      </trkpt>
      <trkpt lat="45.92706" lon="4.72853">
        <ele>169</ele>
        <time>2018-09-23T10:55:19Z</time>
      </trkpt>
      <trkpt lat="45.92702" lon="4.72855">
        <ele>169</ele>
        <time>2018-09-23T10:55:20Z</time>
      </trkpt>
      <trkpt lat="45.92697" lon="4.72858">
        <ele>169</ele>
        <time>2018-09-23T10:55:21Z</time>
      </trkpt>
      <trkpt lat="45.92693" lon="4.72862">
        <ele>169</ele>
        <time>2018-09-23T10:55:22Z</time>
      </trkpt>
      <trkpt lat="45.92688" lon="4.72865">
        <ele>169</ele>
        <time>2018-09-23T10:55:23Z</time>
      </trkpt>
      <trkpt lat="45.92684" lon="4.72868">
        <ele>169</ele>
        <time>2018-09-23T10:55:24Z</time>
      </trkpt>
      <trkpt lat="45.9268" lon="4.72878">
        <ele>170</ele>
        <time>2018-09-23T10:55:25Z</time>
      </trkpt>
      <trkpt lat="45.92676" lon="4.72882">
        <ele>170</ele>
        <time>2018-09-23T10:55:26Z</time>
      </trkpt>
      <trkpt lat="45.92669" lon="4.72887">
        <ele>170</ele>
        <time>2018-09-23T10:55:28Z</time>
      </trkpt>
      <trkpt lat="45.92665" lon="4.7289">
        <ele>169</ele>
        <time>2018-09-23T10:55:29Z</time>
      </trkpt>
      <trkpt lat="45.92658" lon="4.72895">
        <ele>170</ele>
        <time>2018-09-23T10:55:31Z</time>
      </trkpt>
      <trkpt lat="45.92655" lon="4.72898">
        <ele>170</ele>
        <time>2018-09-23T10:55:32Z</time>
      </trkpt>
      <trkpt lat="45.9265" lon="4.72901">
        <ele>170</ele>
        <time>2018-09-23T10:55:33Z</time>
      </trkpt>
      <trkpt lat="45.92646" lon="4.72905">
        <ele>170</ele>
        <time>2018-09-23T10:55:34Z</time>
      </trkpt>
      <trkpt lat="45.92643" lon="4.72911">
        <ele>170</ele>
        <time>2018-09-23T10:55:35Z</time>
      </trkpt>
      <trkpt lat="45.92639" lon="4.72915">
        <ele>169</ele>
        <time>2018-09-23T10:55:36Z</time>
      </trkpt>
      <trkpt lat="45.92632" lon="4.72919">
        <ele>170</ele>
        <time>2018-09-23T10:55:38Z</time>
      </trkpt>
      <trkpt lat="45.92626" lon="4.72923">
        <ele>170</ele>
        <time>2018-09-23T10:55:39Z</time>
      </trkpt>
      <trkpt lat="45.92619" lon="4.7293">
        <ele>169</ele>
        <time>2018-09-23T10:55:41Z</time>
      </trkpt>
      <trkpt lat="45.92615" lon="4.72933">
        <ele>169</ele>
        <time>2018-09-23T10:55:42Z</time>
      </trkpt>
      <trkpt lat="45.92611" lon="4.7294">
        <ele>169</ele>
        <time>2018-09-23T10:55:43Z</time>
      </trkpt>
      <trkpt lat="45.92607" lon="4.72945">
        <ele>169</ele>
        <time>2018-09-23T10:55:44Z</time>
      </trkpt>
      <trkpt lat="45.92602" lon="4.72949">
        <ele>169</ele>
        <time>2018-09-23T10:55:45Z</time>
      </trkpt>
      <trkpt lat="45.92598" lon="4.72953">
        <ele>169</ele>
        <time>2018-09-23T10:55:46Z</time>
      </trkpt>
      <trkpt lat="45.92594" lon="4.72956">
        <ele>169</ele>
        <time>2018-09-23T10:55:47Z</time>
      </trkpt>
      <trkpt lat="45.9259" lon="4.7296">
        <ele>169</ele>
        <time>2018-09-23T10:55:48Z</time>
      </trkpt>
      <trkpt lat="45.92583" lon="4.72966">
        <ele>169</ele>
        <time>2018-09-23T10:55:51Z</time>
      </trkpt>
      <trkpt lat="45.92581" lon="4.72968">
        <ele>169</ele>
        <time>2018-09-23T10:55:52Z</time>
      </trkpt>
      <trkpt lat="45.92573" lon="4.72973">
        <ele>169</ele>
        <time>2018-09-23T10:57:05Z</time>
      </trkpt>
      <trkpt lat="45.92572" lon="4.72975">
        <ele>169</ele>
        <time>2018-09-23T10:57:06Z</time>
      </trkpt>
      <trkpt lat="45.92567" lon="4.72982">
        <ele>169</ele>
        <time>2018-09-23T10:57:10Z</time>
      </trkpt>
      <trkpt lat="45.92565" lon="4.72984">
        <ele>169</ele>
        <time>2018-09-23T10:57:11Z</time>
      </trkpt>
      <trkpt lat="45.92558" lon="4.72991">
        <ele>169</ele>
        <time>2018-09-23T10:57:12Z</time>
      </trkpt>
      <trkpt lat="45.92557" lon="4.72993">
        <ele>169</ele>
        <time>2018-09-23T10:57:13Z</time>
      </trkpt>
      <trkpt lat="45.92553" lon="4.72998">
        <ele>169</ele>
        <time>2018-09-23T10:57:14Z</time>
      </trkpt>
      <trkpt lat="45.92549" lon="4.73002">
        <ele>169</ele>
        <time>2018-09-23T10:57:15Z</time>
      </trkpt>
      <trkpt lat="45.92543" lon="4.73009">
        <ele>169</ele>
        <time>2018-09-23T10:57:17Z</time>
      </trkpt>
      <trkpt lat="45.92539" lon="4.73013">
        <ele>169</ele>
        <time>2018-09-23T10:57:18Z</time>
      </trkpt>
      <trkpt lat="45.92535" lon="4.73017">
        <ele>169</ele>
        <time>2018-09-23T10:57:19Z</time>
      </trkpt>
      <trkpt lat="45.9253" lon="4.73022">
        <ele>169</ele>
        <time>2018-09-23T10:57:20Z</time>
      </trkpt>
      <trkpt lat="45.92523" lon="4.7303">
        <ele>169</ele>
        <time>2018-09-23T10:57:22Z</time>
      </trkpt>
      <trkpt lat="45.9252" lon="4.73033">
        <ele>169</ele>
        <time>2018-09-23T10:57:23Z</time>
      </trkpt>
      <trkpt lat="45.92516" lon="4.73036">
        <ele>169</ele>
        <time>2018-09-23T10:57:24Z</time>
      </trkpt>
      <trkpt lat="45.92512" lon="4.73041">
        <ele>169</ele>
        <time>2018-09-23T10:57:25Z</time>
      </trkpt>
      <trkpt lat="45.92506" lon="4.73048">
        <ele>170</ele>
        <time>2018-09-23T10:57:27Z</time>
      </trkpt>
      <trkpt lat="45.92502" lon="4.73051">
        <ele>170</ele>
        <time>2018-09-23T10:57:28Z</time>
      </trkpt>
      <trkpt lat="45.92498" lon="4.73055">
        <ele>170</ele>
        <time>2018-09-23T10:57:29Z</time>
      </trkpt>
      <trkpt lat="45.92494" lon="4.73059">
        <ele>170</ele>
        <time>2018-09-23T10:57:30Z</time>
      </trkpt>
      <trkpt lat="45.9249" lon="4.73062">
        <ele>170</ele>
        <time>2018-09-23T10:57:31Z</time>
      </trkpt>
      <trkpt lat="45.92486" lon="4.73065">
        <ele>170</ele>
        <time>2018-09-23T10:57:32Z</time>
      </trkpt>
      <trkpt lat="45.92482" lon="4.73068">
        <ele>170</ele>
        <time>2018-09-23T10:57:33Z</time>
      </trkpt>
      <trkpt lat="45.92478" lon="4.73071">
        <ele>170</ele>
        <time>2018-09-23T10:57:34Z</time>
      </trkpt>
      <trkpt lat="45.9247" lon="4.73078">
        <ele>170</ele>
        <time>2018-09-23T10:57:36Z</time>
      </trkpt>
      <trkpt lat="45.92467" lon="4.73081">
        <ele>170</ele>
        <time>2018-09-23T10:57:37Z</time>
      </trkpt>
      <trkpt lat="45.92459" lon="4.73086">
        <ele>170</ele>
        <time>2018-09-23T10:57:39Z</time>
      </trkpt>
      <trkpt lat="45.92455" lon="4.73089">
        <ele>170</ele>
        <time>2018-09-23T10:57:40Z</time>
      </trkpt>
      <trkpt lat="45.92447" lon="4.73095">
        <ele>170</ele>
        <time>2018-09-23T10:57:42Z</time>
      </trkpt>
      <trkpt lat="45.92444" lon="4.73098">
        <ele>170</ele>
        <time>2018-09-23T10:57:43Z</time>
      </trkpt>
      <trkpt lat="45.92437" lon="4.73105">
        <ele>170</ele>
        <time>2018-09-23T10:57:45Z</time>
      </trkpt>
      <trkpt lat="45.92433" lon="4.73109">
        <ele>170</ele>
        <time>2018-09-23T10:57:46Z</time>
      </trkpt>
      <trkpt lat="45.92426" lon="4.73116">
        <ele>170</ele>
        <time>2018-09-23T10:57:48Z</time>
      </trkpt>
      <trkpt lat="45.92422" lon="4.73121">
        <ele>170</ele>
        <time>2018-09-23T10:57:49Z</time>
      </trkpt>
      <trkpt lat="45.92416" lon="4.73129">
        <ele>171</ele>
        <time>2018-09-23T10:57:51Z</time>
      </trkpt>
      <trkpt lat="45.92414" lon="4.73134">
        <ele>171</ele>
        <time>2018-09-23T10:57:52Z</time>
      </trkpt>
      <trkpt lat="45.92412" lon="4.73139">
        <ele>171</ele>
        <time>2018-09-23T10:57:53Z</time>
      </trkpt>
      <trkpt lat="45.92411" lon="4.73147">
        <ele>171</ele>
        <time>2018-09-23T10:57:54Z</time>
      </trkpt>
      <trkpt lat="45.9241" lon="4.73158">
        <ele>170</ele>
        <time>2018-09-23T10:57:56Z</time>
      </trkpt>
      <trkpt lat="45.9241" lon="4.73163">
        <ele>170</ele>
        <time>2018-09-23T10:57:57Z</time>
      </trkpt>
      <trkpt lat="45.9241" lon="4.73175">
        <ele>170</ele>
        <time>2018-09-23T10:57:59Z</time>
      </trkpt>
      <trkpt lat="45.92409" lon="4.73181">
        <ele>171</ele>
        <time>2018-09-23T10:58:00Z</time>
      </trkpt>
      <trkpt lat="45.9241" lon="4.73193">
        <ele>171</ele>
        <time>2018-09-23T10:58:02Z</time>
      </trkpt>
      <trkpt lat="45.92411" lon="4.73199">
        <ele>171</ele>
        <time>2018-09-23T10:58:03Z</time>
      </trkpt>
      <trkpt lat="45.92411" lon="4.73211">
        <ele>171</ele>
        <time>2018-09-23T10:58:05Z</time>
      </trkpt>
      <trkpt lat="45.92412" lon="4.73217">
        <ele>171</ele>
        <time>2018-09-23T10:58:06Z</time>
      </trkpt>
      <trkpt lat="45.92412" lon="4.73228">
        <ele>171</ele>
        <time>2018-09-23T10:58:08Z</time>
      </trkpt>
      <trkpt lat="45.92413" lon="4.73233">
        <ele>171</ele>
        <time>2018-09-23T10:58:09Z</time>
      </trkpt>
      <trkpt lat="45.92414" lon="4.73243">
        <ele>171</ele>
        <time>2018-09-23T10:58:11Z</time>
      </trkpt>
      <trkpt lat="45.92416" lon="4.73248">
        <ele>171</ele>
        <time>2018-09-23T10:58:12Z</time>
      </trkpt>
      <trkpt lat="45.92416" lon="4.73259">
        <ele>171</ele>
        <time>2018-09-23T10:58:14Z</time>
      </trkpt>
      <trkpt lat="45.92417" lon="4.73264">
        <ele>171</ele>
        <time>2018-09-23T10:58:15Z</time>
      </trkpt>
      <trkpt lat="45.92418" lon="4.73275">
        <ele>171</ele>
        <time>2018-09-23T10:58:17Z</time>
      </trkpt>
      <trkpt lat="45.92419" lon="4.73281">
        <ele>171</ele>
        <time>2018-09-23T10:58:18Z</time>
      </trkpt>
      <trkpt lat="45.9242" lon="4.73294">
        <ele>171</ele>
        <time>2018-09-23T10:58:20Z</time>
      </trkpt>
      <trkpt lat="45.9242" lon="4.73299">
        <ele>171</ele>
        <time>2018-09-23T10:58:21Z</time>
      </trkpt>
      <trkpt lat="45.92422" lon="4.73312">
        <ele>171</ele>
        <time>2018-09-23T10:58:23Z</time>
      </trkpt>
      <trkpt lat="45.92423" lon="4.73318">
        <ele>171</ele>
        <time>2018-09-23T10:58:24Z</time>
      </trkpt>
      <trkpt lat="45.92424" lon="4.73325">
        <ele>171</ele>
        <time>2018-09-23T10:58:25Z</time>
      </trkpt>
      <trkpt lat="45.92424" lon="4.73331">
        <ele>171</ele>
        <time>2018-09-23T10:58:26Z</time>
      </trkpt>
      <trkpt lat="45.92425" lon="4.73337">
        <ele>171</ele>
        <time>2018-09-23T10:58:27Z</time>
      </trkpt>
      <trkpt lat="45.92425" lon="4.73344">
        <ele>171</ele>
        <time>2018-09-23T10:58:28Z</time>
      </trkpt>
      <trkpt lat="45.92427" lon="4.73356">
        <ele>171</ele>
        <time>2018-09-23T10:58:30Z</time>
      </trkpt>
      <trkpt lat="45.92428" lon="4.73362">
        <ele>172</ele>
        <time>2018-09-23T10:58:31Z</time>
      </trkpt>
      <trkpt lat="45.92429" lon="4.7337">
        <ele>172</ele>
        <time>2018-09-23T10:58:32Z</time>
      </trkpt>
      <trkpt lat="45.9243" lon="4.73377">
        <ele>172</ele>
        <time>2018-09-23T10:58:33Z</time>
      </trkpt>
      <trkpt lat="45.92432" lon="4.73383">
        <ele>172</ele>
        <time>2018-09-23T10:58:34Z</time>
      </trkpt>
      <trkpt lat="45.92433" lon="4.7339">
        <ele>172</ele>
        <time>2018-09-23T10:58:35Z</time>
      </trkpt>
      <trkpt lat="45.92435" lon="4.73396">
        <ele>172</ele>
        <time>2018-09-23T10:58:36Z</time>
      </trkpt>
      <trkpt lat="45.92439" lon="4.73402">
        <ele>172</ele>
        <time>2018-09-23T10:58:37Z</time>
      </trkpt>
      <trkpt lat="45.92441" lon="4.73408">
        <ele>172</ele>
        <time>2018-09-23T10:58:38Z</time>
      </trkpt>
      <trkpt lat="45.92445" lon="4.73412">
        <ele>172</ele>
        <time>2018-09-23T10:58:39Z</time>
      </trkpt>
      <trkpt lat="45.92453" lon="4.73418">
        <ele>173</ele>
        <time>2018-09-23T10:58:41Z</time>
      </trkpt>
      <trkpt lat="45.92457" lon="4.73421">
        <ele>173</ele>
        <time>2018-09-23T10:58:42Z</time>
      </trkpt>
      <trkpt lat="45.9246" lon="4.73426">
        <ele>173</ele>
        <time>2018-09-23T10:58:43Z</time>
      </trkpt>
      <trkpt lat="45.92463" lon="4.73431">
        <ele>173</ele>
        <time>2018-09-23T10:58:44Z</time>
      </trkpt>
      <trkpt lat="45.92467" lon="4.73435">
        <ele>173</ele>
        <time>2018-09-23T10:58:45Z</time>
      </trkpt>
      <trkpt lat="45.9247" lon="4.73441">
        <ele>173</ele>
        <time>2018-09-23T10:58:46Z</time>
      </trkpt>
      <trkpt lat="45.92474" lon="4.73451">
        <ele>173</ele>
        <time>2018-09-23T10:58:47Z</time>
      </trkpt>
      <trkpt lat="45.92476" lon="4.7346">
        <ele>173</ele>
        <time>2018-09-23T10:58:48Z</time>
      </trkpt>
      <trkpt lat="45.92476" lon="4.73467">
        <ele>173</ele>
        <time>2018-09-23T10:58:49Z</time>
      </trkpt>
      <trkpt lat="45.92476" lon="4.73475">
        <ele>173</ele>
        <time>2018-09-23T10:58:50Z</time>
      </trkpt>
      <trkpt lat="45.92476" lon="4.73483">
        <ele>173</ele>
        <time>2018-09-23T10:58:51Z</time>
      </trkpt>
      <trkpt lat="45.92476" lon="4.7349">
        <ele>173</ele>
        <time>2018-09-23T10:58:52Z</time>
      </trkpt>
      <trkpt lat="45.92476" lon="4.73503">
        <ele>174</ele>
        <time>2018-09-23T10:58:54Z</time>
      </trkpt>
      <trkpt lat="45.92477" lon="4.73511">
        <ele>174</ele>
        <time>2018-09-23T10:58:55Z</time>
      </trkpt>
      <trkpt lat="45.92477" lon="4.73518">
        <ele>174</ele>
        <time>2018-09-23T10:58:56Z</time>
      </trkpt>
      <trkpt lat="45.92477" lon="4.73524">
        <ele>174</ele>
        <time>2018-09-23T10:58:57Z</time>
      </trkpt>
      <trkpt lat="45.92476" lon="4.73537">
        <ele>174</ele>
        <time>2018-09-23T10:58:59Z</time>
      </trkpt>
      <trkpt lat="45.92476" lon="4.73542">
        <ele>173</ele>
        <time>2018-09-23T10:59:00Z</time>
      </trkpt>
      <trkpt lat="45.92474" lon="4.7355">
        <ele>173</ele>
        <time>2018-09-23T10:59:02Z</time>
      </trkpt>
      <trkpt lat="45.92475" lon="4.7356">
        <ele>173</ele>
        <time>2018-09-23T10:59:03Z</time>
      </trkpt>
      <trkpt lat="45.92475" lon="4.73567">
        <ele>173</ele>
        <time>2018-09-23T10:59:04Z</time>
      </trkpt>
      <trkpt lat="45.92475" lon="4.73574">
        <ele>173</ele>
        <time>2018-09-23T10:59:05Z</time>
      </trkpt>
      <trkpt lat="45.92474" lon="4.73581">
        <ele>173</ele>
        <time>2018-09-23T10:59:06Z</time>
      </trkpt>
      <trkpt lat="45.92474" lon="4.73589">
        <ele>174</ele>
        <time>2018-09-23T10:59:07Z</time>
      </trkpt>
      <trkpt lat="45.92476" lon="4.73598">
        <ele>174</ele>
        <time>2018-09-23T10:59:08Z</time>
      </trkpt>
      <trkpt lat="45.92477" lon="4.73606">
        <ele>174</ele>
        <time>2018-09-23T10:59:09Z</time>
      </trkpt>
      <trkpt lat="45.92475" lon="4.73614">
        <ele>174</ele>
        <time>2018-09-23T10:59:10Z</time>
      </trkpt>
      <trkpt lat="45.92477" lon="4.73623">
        <ele>174</ele>
        <time>2018-09-23T10:59:11Z</time>
      </trkpt>
      <trkpt lat="45.92477" lon="4.73629">
        <ele>174</ele>
        <time>2018-09-23T10:59:12Z</time>
      </trkpt>
      <trkpt lat="45.92477" lon="4.73636">
        <ele>174</ele>
        <time>2018-09-23T10:59:13Z</time>
      </trkpt>
      <trkpt lat="45.92476" lon="4.73648">
        <ele>174</ele>
        <time>2018-09-23T10:59:15Z</time>
      </trkpt>
      <trkpt lat="45.92477" lon="4.73655">
        <ele>174</ele>
        <time>2018-09-23T10:59:16Z</time>
      </trkpt>
      <trkpt lat="45.92477" lon="4.73662">
        <ele>174</ele>
        <time>2018-09-23T10:59:17Z</time>
      </trkpt>
      <trkpt lat="45.92476" lon="4.73668">
        <ele>175</ele>
        <time>2018-09-23T10:59:18Z</time>
      </trkpt>
      <trkpt lat="45.92476" lon="4.73676">
        <ele>174</ele>
        <time>2018-09-23T10:59:19Z</time>
      </trkpt>
      <trkpt lat="45.92475" lon="4.73682">
        <ele>174</ele>
        <time>2018-09-23T10:59:20Z</time>
      </trkpt>
      <trkpt lat="45.92474" lon="4.73694">
        <ele>174</ele>
        <time>2018-09-23T10:59:22Z</time>
      </trkpt>
      <trkpt lat="45.92474" lon="4.73701">
        <ele>174</ele>
        <time>2018-09-23T10:59:23Z</time>
      </trkpt>
      <trkpt lat="45.9247" lon="4.73712">
        <ele>174</ele>
        <time>2018-09-23T10:59:29Z</time>
      </trkpt>
      <trkpt lat="45.9247" lon="4.73713">
        <ele>174</ele>
        <time>2018-09-23T10:59:30Z</time>
      </trkpt>
      <trkpt lat="45.92464" lon="4.73714">
        <ele>174</ele>
        <time>2018-09-23T11:00:00.855Z</time>
      </trkpt>
    </trkseg>
  </trk>
</gpx>